<?xml version='1.0' encoding='UTF-8'?><gpx version="1.1" creator="JPX - https://github.com/jenetics/jpx" xmlns="http://www.topografix.com/GPX/1/1"><trk><trkseg><trkpt lat="44.9501428" lon="8.0267465"><ele>244.0</ele><time>2026-05-06T12:45:45.279Z</time></trkpt><trkpt lat="44.9502417" lon="8.0266798"><ele>243.99999999999997</ele><time>2026-05-06T12:46:24.279Z</time></trkpt><trkpt lat="44.9502742" lon="8.0265464"><ele>243.99999999999997</ele><time>2026-05-06T12:46:26.279Z</time></trkpt><trkpt lat="44.9503273" lon="8.0263875"><ele>244.0</ele><time>2026-05-06T12:46:28.28Z</time></trkpt><trkpt lat="44.9503574" lon="8.0262659"><ele>244.0</ele><time>2026-05-06T12:46:29.28Z</time></trkpt><trkpt lat="44.9503863" lon="8.0261362"><ele>242.2</ele><time>2026-05-06T12:46:30.28Z</time></trkpt><trkpt lat="44.9504064" lon="8.0260089"><ele>240.39999999999998</ele><time>2026-05-06T12:46:31.279Z</time></trkpt><trkpt lat="44.9504141" lon="8.0258812"><ele>238.6</ele><time>2026-05-06T12:46:32.28Z</time></trkpt><trkpt lat="44.9504076" lon="8.0257472"><ele>236.8</ele><time>2026-05-06T12:46:33.279Z</time></trkpt><trkpt lat="44.9503903" lon="8.0256113"><ele>235.0</ele><time>2026-05-06T12:46:34.279Z</time></trkpt><trkpt lat="44.9503744" lon="8.0254722"><ele>234.0</ele><time>2026-05-06T12:46:35.279Z</time></trkpt><trkpt lat="44.9503607" lon="8.0253382"><ele>233.0</ele><time>2026-05-06T12:46:36.28Z</time></trkpt><trkpt lat="44.9503496" lon="8.0252054"><ele>232.0</ele><time>2026-05-06T12:46:37.279Z</time></trkpt><trkpt lat="44.9503456" lon="8.0250764"><ele>231.0</ele><time>2026-05-06T12:46:38.28Z</time></trkpt><trkpt lat="44.9503371" lon="8.024951"><ele>230.0</ele><time>2026-05-06T12:46:39.28Z</time></trkpt><trkpt lat="44.9503301" lon="8.0248278"><ele>229.0</ele><time>2026-05-06T12:46:40.279Z</time></trkpt><trkpt lat="44.9503159" lon="8.0247003"><ele>228.0</ele><time>2026-05-06T12:46:41.28Z</time></trkpt><trkpt lat="44.9503075" lon="8.0245657"><ele>227.0</ele><time>2026-05-06T12:46:42.28Z</time></trkpt><trkpt lat="44.9502979" lon="8.0244302"><ele>226.0</ele><time>2026-05-06T12:46:43.28Z</time></trkpt><trkpt lat="44.9502942" lon="8.0243032"><ele>225.0</ele><time>2026-05-06T12:46:44.28Z</time></trkpt><trkpt lat="44.9502939" lon="8.0241876"><ele>225.0</ele><time>2026-05-06T12:46:45.28Z</time></trkpt><trkpt lat="44.9502894" lon="8.0240881"><ele>225.0</ele><time>2026-05-06T12:46:46.28Z</time></trkpt><trkpt lat="44.9502599" lon="8.0239598"><ele>225.0</ele><time>2026-05-06T12:46:48.28Z</time></trkpt><trkpt lat="44.9501597" lon="8.0240673"><ele>225.0</ele><time>2026-05-06T12:46:51.28Z</time></trkpt><trkpt lat="44.9501282" lon="8.0241569"><ele>225.0</ele><time>2026-05-06T12:46:52.279Z</time></trkpt><trkpt lat="44.9500953" lon="8.024254"><ele>225.0</ele><time>2026-05-06T12:46:53.279Z</time></trkpt><trkpt lat="44.9500501" lon="8.0243576"><ele>222.16666666666666</ele><time>2026-05-06T12:46:54.28Z</time></trkpt><trkpt lat="44.9499963" lon="8.0244405"><ele>219.33333333333331</ele><time>2026-05-06T12:46:55.28Z</time></trkpt><trkpt lat="44.94992" lon="8.0244884"><ele>216.5</ele><time>2026-05-06T12:46:56.28Z</time></trkpt><trkpt lat="44.949826" lon="8.0244945"><ele>213.66666666666666</ele><time>2026-05-06T12:46:57.279Z</time></trkpt><trkpt lat="44.9497455" lon="8.024445"><ele>210.83333333333331</ele><time>2026-05-06T12:46:58.28Z</time></trkpt><trkpt lat="44.9496882" lon="8.0243403"><ele>208.0</ele><time>2026-05-06T12:46:59.28Z</time></trkpt><trkpt lat="44.94968" lon="8.0241924"><ele>206.25</ele><time>2026-05-06T12:47:00.28Z</time></trkpt><trkpt lat="44.9497499" lon="8.0240221"><ele>204.5</ele><time>2026-05-06T12:47:01.28Z</time></trkpt><trkpt lat="44.9498224" lon="8.0238871"><ele>202.75</ele><time>2026-05-06T12:47:02.279Z</time></trkpt><trkpt lat="44.9498813" lon="8.0237573"><ele>201.0</ele><time>2026-05-06T12:47:03.28Z</time></trkpt><trkpt lat="44.9499289" lon="8.0236152"><ele>201.0</ele><time>2026-05-06T12:47:04.28Z</time></trkpt><trkpt lat="44.9499607" lon="8.0234682"><ele>201.0</ele><time>2026-05-06T12:47:05.279Z</time></trkpt><trkpt lat="44.9499782" lon="8.0233143"><ele>201.0</ele><time>2026-05-06T12:47:06.279Z</time></trkpt><trkpt lat="44.9499986" lon="8.0231353"><ele>201.0</ele><time>2026-05-06T12:47:07.28Z</time></trkpt><trkpt lat="44.9500058" lon="8.0229468"><ele>201.5</ele><time>2026-05-06T12:47:08.279Z</time></trkpt><trkpt lat="44.9500224" lon="8.0227502"><ele>202.0</ele><time>2026-05-06T12:47:09.28Z</time></trkpt><trkpt lat="44.9500352" lon="8.0225455"><ele>202.5</ele><time>2026-05-06T12:47:10.279Z</time></trkpt><trkpt lat="44.9500432" lon="8.0223394"><ele>203.0</ele><time>2026-05-06T12:47:11.279Z</time></trkpt><trkpt lat="44.9500433" lon="8.0221325"><ele>200.0</ele><time>2026-05-06T12:47:12.28Z</time></trkpt><trkpt lat="44.9500366" lon="8.02193"><ele>197.0</ele><time>2026-05-06T12:47:13.28Z</time></trkpt><trkpt lat="44.9500276" lon="8.0217239"><ele>194.0</ele><time>2026-05-06T12:47:14.28Z</time></trkpt><trkpt lat="44.9500165" lon="8.0215145"><ele>191.0</ele><time>2026-05-06T12:47:15.279Z</time></trkpt><trkpt lat="44.950008" lon="8.0213099"><ele>188.75</ele><time>2026-05-06T12:47:16.28Z</time></trkpt><trkpt lat="44.9500067" lon="8.0211114"><ele>186.5</ele><time>2026-05-06T12:47:17.28Z</time></trkpt><trkpt lat="44.9499926" lon="8.0209284"><ele>184.25</ele><time>2026-05-06T12:47:18.279Z</time></trkpt><trkpt lat="44.9499764" lon="8.0207555"><ele>182.0</ele><time>2026-05-06T12:47:19.28Z</time></trkpt><trkpt lat="44.9499617" lon="8.020598"><ele>181.33333333333331</ele><time>2026-05-06T12:47:20.279Z</time></trkpt><trkpt lat="44.949954" lon="8.0204593"><ele>180.66666666666666</ele><time>2026-05-06T12:47:21.28Z</time></trkpt><trkpt lat="44.9499468" lon="8.0203389"><ele>180.0</ele><time>2026-05-06T12:47:22.279Z</time></trkpt><trkpt lat="44.9499404" lon="8.0202411"><ele>179.33333333333334</ele><time>2026-05-06T12:47:23.28Z</time></trkpt><trkpt lat="44.9499436" lon="8.020099"><ele>178.66666666666669</ele><time>2026-05-06T12:47:25.278Z</time></trkpt><trkpt lat="44.9499507" lon="8.0200102"><ele>178.0</ele><time>2026-05-06T12:47:29.279Z</time></trkpt><trkpt lat="44.9498702" lon="8.0199758"><ele>177.2</ele><time>2026-05-06T12:47:31.279Z</time></trkpt><trkpt lat="44.949804" lon="8.0199726"><ele>176.4</ele><time>2026-05-06T12:47:32.278Z</time></trkpt><trkpt lat="44.949712" lon="8.0199741"><ele>175.6</ele><time>2026-05-06T12:47:33.278Z</time></trkpt><trkpt lat="44.9496079" lon="8.0199657"><ele>174.79999999999998</ele><time>2026-05-06T12:47:34.279Z</time></trkpt><trkpt lat="44.9494974" lon="8.0199552"><ele>174.0</ele><time>2026-05-06T12:47:35.278Z</time></trkpt><trkpt lat="44.9493832" lon="8.0199435"><ele>174.0</ele><time>2026-05-06T12:47:36.278Z</time></trkpt><trkpt lat="44.9492658" lon="8.0199262"><ele>174.0</ele><time>2026-05-06T12:47:37.278Z</time></trkpt><trkpt lat="44.9491425" lon="8.0199168"><ele>174.0</ele><time>2026-05-06T12:47:38.279Z</time></trkpt><trkpt lat="44.9490139" lon="8.0199129"><ele>174.0</ele><time>2026-05-06T12:47:39.278Z</time></trkpt><trkpt lat="44.9488785" lon="8.0199038"><ele>173.33333333333334</ele><time>2026-05-06T12:47:40.278Z</time></trkpt><trkpt lat="44.9487369" lon="8.0198939"><ele>172.66666666666669</ele><time>2026-05-06T12:47:41.279Z</time></trkpt><trkpt lat="44.9485849" lon="8.0198741"><ele>172.0</ele><time>2026-05-06T12:47:42.278Z</time></trkpt><trkpt lat="44.9484265" lon="8.0198548"><ele>171.66666666666669</ele><time>2026-05-06T12:47:43.278Z</time></trkpt><trkpt lat="44.9482686" lon="8.0198504"><ele>171.33333333333334</ele><time>2026-05-06T12:47:44.279Z</time></trkpt><trkpt lat="44.9481043" lon="8.0198418"><ele>171.0</ele><time>2026-05-06T12:47:45.278Z</time></trkpt><trkpt lat="44.9479328" lon="8.0198376"><ele>171.0</ele><time>2026-05-06T12:47:46.279Z</time></trkpt><trkpt lat="44.9477618" lon="8.0198256"><ele>171.0</ele><time>2026-05-06T12:47:47.279Z</time></trkpt><trkpt lat="44.9475867" lon="8.0198119"><ele>171.0</ele><time>2026-05-06T12:47:48.278Z</time></trkpt><trkpt lat="44.9474102" lon="8.019804"><ele>170.33333333333334</ele><time>2026-05-06T12:47:49.278Z</time></trkpt><trkpt lat="44.9472304" lon="8.0197986"><ele>169.66666666666669</ele><time>2026-05-06T12:47:50.278Z</time></trkpt><trkpt lat="44.9470444" lon="8.0197843"><ele>169.0</ele><time>2026-05-06T12:47:51.279Z</time></trkpt><trkpt lat="44.9468575" lon="8.0197955"><ele>169.0</ele><time>2026-05-06T12:47:52.279Z</time></trkpt><trkpt lat="44.9466699" lon="8.0198071"><ele>169.0</ele><time>2026-05-06T12:47:53.278Z</time></trkpt><trkpt lat="44.946477" lon="8.0198315"><ele>169.0</ele><time>2026-05-06T12:47:54.278Z</time></trkpt><trkpt lat="44.9462761" lon="8.0198579"><ele>169.0</ele><time>2026-05-06T12:47:55.278Z</time></trkpt><trkpt lat="44.9460769" lon="8.019886"><ele>169.0</ele><time>2026-05-06T12:47:56.279Z</time></trkpt><trkpt lat="44.9458766" lon="8.0199166"><ele>169.0</ele><time>2026-05-06T12:47:57.278Z</time></trkpt><trkpt lat="44.945672" lon="8.0199467"><ele>169.0</ele><time>2026-05-06T12:47:58.279Z</time></trkpt><trkpt lat="44.945461" lon="8.0199711"><ele>169.0</ele><time>2026-05-06T12:47:59.279Z</time></trkpt><trkpt lat="44.9452465" lon="8.0199883"><ele>169.0</ele><time>2026-05-06T12:48:00.278Z</time></trkpt><trkpt lat="44.9450429" lon="8.0200184"><ele>170.66666666666669</ele><time>2026-05-06T12:48:01.279Z</time></trkpt><trkpt lat="44.9448397" lon="8.0200442"><ele>172.33333333333334</ele><time>2026-05-06T12:48:02.279Z</time></trkpt><trkpt lat="44.9446364" lon="8.0200679"><ele>174.0</ele><time>2026-05-06T12:48:03.278Z</time></trkpt><trkpt lat="44.9444414" lon="8.0200933"><ele>174.0</ele><time>2026-05-06T12:48:04.279Z</time></trkpt><trkpt lat="44.9442355" lon="8.0201183"><ele>174.0</ele><time>2026-05-06T12:48:05.279Z</time></trkpt><trkpt lat="44.9440264" lon="8.0201604"><ele>174.0</ele><time>2026-05-06T12:48:06.279Z</time></trkpt><trkpt lat="44.9438238" lon="8.0202283"><ele>173.33333333333334</ele><time>2026-05-06T12:48:07.279Z</time></trkpt><trkpt lat="44.9436352" lon="8.0203116"><ele>172.66666666666669</ele><time>2026-05-06T12:48:08.279Z</time></trkpt><trkpt lat="44.9434529" lon="8.0204085"><ele>172.0</ele><time>2026-05-06T12:48:09.278Z</time></trkpt><trkpt lat="44.9432699" lon="8.0205032"><ele>172.0</ele><time>2026-05-06T12:48:10.278Z</time></trkpt><trkpt lat="44.9430812" lon="8.0205988"><ele>172.0</ele><time>2026-05-06T12:48:11.279Z</time></trkpt><trkpt lat="44.9428916" lon="8.0206967"><ele>172.0</ele><time>2026-05-06T12:48:12.279Z</time></trkpt><trkpt lat="44.9427015" lon="8.0207866"><ele>173.0</ele><time>2026-05-06T12:48:13.278Z</time></trkpt><trkpt lat="44.9425089" lon="8.0208784"><ele>174.0</ele><time>2026-05-06T12:48:14.279Z</time></trkpt><trkpt lat="44.9423116" lon="8.0209826"><ele>175.0</ele><time>2026-05-06T12:48:15.279Z</time></trkpt><trkpt lat="44.9421168" lon="8.0210726"><ele>175.0</ele><time>2026-05-06T12:48:16.278Z</time></trkpt><trkpt lat="44.941923" lon="8.0211549"><ele>175.0</ele><time>2026-05-06T12:48:17.279Z</time></trkpt><trkpt lat="44.9417381" lon="8.0212459"><ele>175.0</ele><time>2026-05-06T12:48:18.279Z</time></trkpt><trkpt lat="44.9415602" lon="8.0213403"><ele>173.33333333333334</ele><time>2026-05-06T12:48:19.278Z</time></trkpt><trkpt lat="44.9413753" lon="8.0214357"><ele>171.66666666666666</ele><time>2026-05-06T12:48:20.279Z</time></trkpt><trkpt lat="44.9411869" lon="8.0215304"><ele>170.0</ele><time>2026-05-06T12:48:21.279Z</time></trkpt><trkpt lat="44.9410087" lon="8.0216316"><ele>170.33333333333331</ele><time>2026-05-06T12:48:22.278Z</time></trkpt><trkpt lat="44.9408275" lon="8.0217253"><ele>170.66666666666666</ele><time>2026-05-06T12:48:23.279Z</time></trkpt><trkpt lat="44.9406401" lon="8.0218216"><ele>171.0</ele><time>2026-05-06T12:48:24.278Z</time></trkpt><trkpt lat="44.9404606" lon="8.0219105"><ele>171.0</ele><time>2026-05-06T12:48:25.278Z</time></trkpt><trkpt lat="44.940278" lon="8.022005"><ele>171.0</ele><time>2026-05-06T12:48:26.278Z</time></trkpt><trkpt lat="44.9400902" lon="8.0220952"><ele>171.0</ele><time>2026-05-06T12:48:27.279Z</time></trkpt><trkpt lat="44.9398949" lon="8.022181"><ele>169.66666666666666</ele><time>2026-05-06T12:48:28.279Z</time></trkpt><trkpt lat="44.9397126" lon="8.0222752"><ele>168.33333333333331</ele><time>2026-05-06T12:48:29.278Z</time></trkpt><trkpt lat="44.9395236" lon="8.0223702"><ele>167.0</ele><time>2026-05-06T12:48:30.278Z</time></trkpt><trkpt lat="44.9393394" lon="8.0224638"><ele>168.33333333333331</ele><time>2026-05-06T12:48:31.278Z</time></trkpt><trkpt lat="44.9391544" lon="8.0225587"><ele>169.66666666666666</ele><time>2026-05-06T12:48:32.278Z</time></trkpt><trkpt lat="44.9389664" lon="8.022658"><ele>171.0</ele><time>2026-05-06T12:48:33.279Z</time></trkpt><trkpt lat="44.9387753" lon="8.0227523"><ele>171.0</ele><time>2026-05-06T12:48:34.279Z</time></trkpt><trkpt lat="44.9385801" lon="8.0228397"><ele>171.0</ele><time>2026-05-06T12:48:35.279Z</time></trkpt><trkpt lat="44.9383766" lon="8.0229414"><ele>171.0</ele><time>2026-05-06T12:48:36.279Z</time></trkpt><trkpt lat="44.9381817" lon="8.0230444"><ele>171.0</ele><time>2026-05-06T12:48:37.278Z</time></trkpt><trkpt lat="44.937988" lon="8.0231427"><ele>171.0</ele><time>2026-05-06T12:48:38.278Z</time></trkpt><trkpt lat="44.9378041" lon="8.023235"><ele>171.0</ele><time>2026-05-06T12:48:39.278Z</time></trkpt><trkpt lat="44.9376257" lon="8.0233193"><ele>169.33333333333334</ele><time>2026-05-06T12:48:40.278Z</time></trkpt><trkpt lat="44.9374503" lon="8.023407"><ele>167.66666666666669</ele><time>2026-05-06T12:48:41.278Z</time></trkpt><trkpt lat="44.9372752" lon="8.0234868"><ele>166.0</ele><time>2026-05-06T12:48:42.279Z</time></trkpt><trkpt lat="44.9370996" lon="8.0235705"><ele>166.0</ele><time>2026-05-06T12:48:43.279Z</time></trkpt><trkpt lat="44.9369217" lon="8.0236589"><ele>166.0</ele><time>2026-05-06T12:48:44.279Z</time></trkpt><trkpt lat="44.9367374" lon="8.0237454"><ele>166.0</ele><time>2026-05-06T12:48:45.279Z</time></trkpt><trkpt lat="44.9365574" lon="8.0238387"><ele>166.66666666666669</ele><time>2026-05-06T12:48:46.279Z</time></trkpt><trkpt lat="44.9363685" lon="8.0239342"><ele>167.33333333333334</ele><time>2026-05-06T12:48:47.278Z</time></trkpt><trkpt lat="44.936174" lon="8.0240261"><ele>168.0</ele><time>2026-05-06T12:48:48.279Z</time></trkpt><trkpt lat="44.9359789" lon="8.0241222"><ele>168.0</ele><time>2026-05-06T12:48:49.279Z</time></trkpt><trkpt lat="44.935781" lon="8.0242202"><ele>168.0</ele><time>2026-05-06T12:48:50.278Z</time></trkpt><trkpt lat="44.9355882" lon="8.0243349"><ele>168.0</ele><time>2026-05-06T12:48:51.279Z</time></trkpt><trkpt lat="44.9354038" lon="8.0244533"><ele>168.0</ele><time>2026-05-06T12:48:52.279Z</time></trkpt><trkpt lat="44.9352167" lon="8.0245809"><ele>168.0</ele><time>2026-05-06T12:48:53.279Z</time></trkpt><trkpt lat="44.9350332" lon="8.0247133"><ele>168.0</ele><time>2026-05-06T12:48:54.278Z</time></trkpt><trkpt lat="44.9348545" lon="8.0248493"><ele>169.0</ele><time>2026-05-06T12:48:55.278Z</time></trkpt><trkpt lat="44.9346762" lon="8.02498"><ele>170.0</ele><time>2026-05-06T12:48:56.278Z</time></trkpt><trkpt lat="44.9344979" lon="8.0251115"><ele>171.0</ele><time>2026-05-06T12:48:57.279Z</time></trkpt><trkpt lat="44.9343232" lon="8.0252405"><ele>171.0</ele><time>2026-05-06T12:48:58.278Z</time></trkpt><trkpt lat="44.9341472" lon="8.0253602"><ele>171.0</ele><time>2026-05-06T12:48:59.278Z</time></trkpt><trkpt lat="44.9339718" lon="8.0254781"><ele>171.0</ele><time>2026-05-06T12:49:00.278Z</time></trkpt><trkpt lat="44.9337989" lon="8.0255978"><ele>171.0</ele><time>2026-05-06T12:49:01.279Z</time></trkpt><trkpt lat="44.9336379" lon="8.0257157"><ele>171.0</ele><time>2026-05-06T12:49:02.278Z</time></trkpt><trkpt lat="44.9334738" lon="8.0258261"><ele>171.0</ele><time>2026-05-06T12:49:03.278Z</time></trkpt><trkpt lat="44.9333105" lon="8.0259389"><ele>170.0</ele><time>2026-05-06T12:49:04.278Z</time></trkpt><trkpt lat="44.9331446" lon="8.0260533"><ele>169.0</ele><time>2026-05-06T12:49:05.279Z</time></trkpt><trkpt lat="44.9329781" lon="8.0261633"><ele>168.0</ele><time>2026-05-06T12:49:06.279Z</time></trkpt><trkpt lat="44.9328073" lon="8.026281"><ele>168.0</ele><time>2026-05-06T12:49:07.279Z</time></trkpt><trkpt lat="44.9326371" lon="8.0264063"><ele>168.0</ele><time>2026-05-06T12:49:08.279Z</time></trkpt><trkpt lat="44.9324566" lon="8.0265239"><ele>168.0</ele><time>2026-05-06T12:49:09.279Z</time></trkpt><trkpt lat="44.9322788" lon="8.0266472"><ele>167.66666666666666</ele><time>2026-05-06T12:49:10.278Z</time></trkpt><trkpt lat="44.9321001" lon="8.02677"><ele>167.33333333333331</ele><time>2026-05-06T12:49:11.279Z</time></trkpt><trkpt lat="44.9319326" lon="8.0268863"><ele>167.0</ele><time>2026-05-06T12:49:12.279Z</time></trkpt><trkpt lat="44.9317755" lon="8.0269978"><ele>166.0</ele><time>2026-05-06T12:49:13.279Z</time></trkpt><trkpt lat="44.931621" lon="8.0271046"><ele>165.0</ele><time>2026-05-06T12:49:14.279Z</time></trkpt><trkpt lat="44.9314713" lon="8.0272099"><ele>164.0</ele><time>2026-05-06T12:49:15.278Z</time></trkpt><trkpt lat="44.931323" lon="8.0273063"><ele>164.0</ele><time>2026-05-06T12:49:16.278Z</time></trkpt><trkpt lat="44.9311737" lon="8.0274075"><ele>164.0</ele><time>2026-05-06T12:49:17.279Z</time></trkpt><trkpt lat="44.9310237" lon="8.0275106"><ele>164.0</ele><time>2026-05-06T12:49:18.279Z</time></trkpt><trkpt lat="44.9308757" lon="8.0276051"><ele>163.66666666666666</ele><time>2026-05-06T12:49:19.278Z</time></trkpt><trkpt lat="44.9307393" lon="8.0276995"><ele>163.33333333333334</ele><time>2026-05-06T12:49:20.279Z</time></trkpt><trkpt lat="44.9306096" lon="8.0278241"><ele>163.0</ele><time>2026-05-06T12:49:21.279Z</time></trkpt><trkpt lat="44.9304784" lon="8.0279489"><ele>163.0</ele><time>2026-05-06T12:49:22.278Z</time></trkpt><trkpt lat="44.9303308" lon="8.0280731"><ele>163.0</ele><time>2026-05-06T12:49:23.279Z</time></trkpt><trkpt lat="44.9301827" lon="8.0282055"><ele>163.0</ele><time>2026-05-06T12:49:24.279Z</time></trkpt><trkpt lat="44.9300309" lon="8.0283563"><ele>162.0</ele><time>2026-05-06T12:49:25.279Z</time></trkpt><trkpt lat="44.9298746" lon="8.028517"><ele>161.0</ele><time>2026-05-06T12:49:26.278Z</time></trkpt><trkpt lat="44.9297191" lon="8.0286927"><ele>160.0</ele><time>2026-05-06T12:49:27.279Z</time></trkpt><trkpt lat="44.9295685" lon="8.0288767"><ele>160.0</ele><time>2026-05-06T12:49:28.278Z</time></trkpt><trkpt lat="44.9294128" lon="8.0290709"><ele>160.0</ele><time>2026-05-06T12:49:29.278Z</time></trkpt><trkpt lat="44.9292495" lon="8.0292676"><ele>160.0</ele><time>2026-05-06T12:49:30.279Z</time></trkpt><trkpt lat="44.9290887" lon="8.0294604"><ele>159.66666666666669</ele><time>2026-05-06T12:49:31.279Z</time></trkpt><trkpt lat="44.9289247" lon="8.0296571"><ele>159.33333333333334</ele><time>2026-05-06T12:49:32.279Z</time></trkpt><trkpt lat="44.9287639" lon="8.0298554"><ele>159.0</ele><time>2026-05-06T12:49:33.279Z</time></trkpt><trkpt lat="44.9286033" lon="8.0300532"><ele>159.0</ele><time>2026-05-06T12:49:34.278Z</time></trkpt><trkpt lat="44.928437" lon="8.0302525"><ele>159.0</ele><time>2026-05-06T12:49:35.279Z</time></trkpt><trkpt lat="44.9282581" lon="8.0304375"><ele>159.0</ele><time>2026-05-06T12:49:36.279Z</time></trkpt><trkpt lat="44.9280782" lon="8.0306211"><ele>159.33333333333334</ele><time>2026-05-06T12:49:37.279Z</time></trkpt><trkpt lat="44.9279004" lon="8.0308013"><ele>159.66666666666669</ele><time>2026-05-06T12:49:38.279Z</time></trkpt><trkpt lat="44.927713" lon="8.0309753"><ele>160.0</ele><time>2026-05-06T12:49:39.279Z</time></trkpt><trkpt lat="44.9275303" lon="8.0311616"><ele>160.5</ele><time>2026-05-06T12:49:40.278Z</time></trkpt><trkpt lat="44.9273384" lon="8.0313457"><ele>161.0</ele><time>2026-05-06T12:49:41.279Z</time></trkpt><trkpt lat="44.927155" lon="8.031539"><ele>161.66666666666666</ele><time>2026-05-06T12:49:42.278Z</time></trkpt><trkpt lat="44.9269763" lon="8.0317275"><ele>162.33333333333334</ele><time>2026-05-06T12:49:43.279Z</time></trkpt><trkpt lat="44.9267966" lon="8.0319184"><ele>163.0</ele><time>2026-05-06T12:49:44.278Z</time></trkpt><trkpt lat="44.9266161" lon="8.032093"><ele>163.0</ele><time>2026-05-06T12:49:45.279Z</time></trkpt><trkpt lat="44.9264286" lon="8.0322366"><ele>163.0</ele><time>2026-05-06T12:49:46.279Z</time></trkpt><trkpt lat="44.9262271" lon="8.0323582"><ele>163.0</ele><time>2026-05-06T12:49:47.278Z</time></trkpt><trkpt lat="44.9260286" lon="8.0324727"><ele>164.66666666666669</ele><time>2026-05-06T12:49:48.279Z</time></trkpt><trkpt lat="44.9258238" lon="8.0325743"><ele>166.33333333333334</ele><time>2026-05-06T12:49:49.278Z</time></trkpt><trkpt lat="44.9256213" lon="8.0326659"><ele>168.0</ele><time>2026-05-06T12:49:50.278Z</time></trkpt><trkpt lat="44.925407" lon="8.0327574"><ele>168.0</ele><time>2026-05-06T12:49:51.279Z</time></trkpt><trkpt lat="44.9251908" lon="8.0328645"><ele>168.0</ele><time>2026-05-06T12:49:52.278Z</time></trkpt><trkpt lat="44.9249912" lon="8.032967"><ele>168.0</ele><time>2026-05-06T12:49:53.279Z</time></trkpt><trkpt lat="44.9247931" lon="8.0330651"><ele>166.33333333333334</ele><time>2026-05-06T12:49:54.278Z</time></trkpt><trkpt lat="44.9245879" lon="8.0331668"><ele>164.66666666666669</ele><time>2026-05-06T12:49:55.279Z</time></trkpt><trkpt lat="44.9243885" lon="8.033267"><ele>163.0</ele><time>2026-05-06T12:49:56.279Z</time></trkpt><trkpt lat="44.9241928" lon="8.033374"><ele>162.66666666666669</ele><time>2026-05-06T12:49:57.278Z</time></trkpt><trkpt lat="44.9239982" lon="8.0334833"><ele>162.33333333333334</ele><time>2026-05-06T12:49:58.279Z</time></trkpt><trkpt lat="44.9238078" lon="8.0336074"><ele>162.0</ele><time>2026-05-06T12:49:59.278Z</time></trkpt><trkpt lat="44.9236348" lon="8.0337688"><ele>162.0</ele><time>2026-05-06T12:50:00.279Z</time></trkpt><trkpt lat="44.9234691" lon="8.0339616"><ele>162.0</ele><time>2026-05-06T12:50:01.279Z</time></trkpt><trkpt lat="44.9233096" lon="8.0341669"><ele>162.0</ele><time>2026-05-06T12:50:02.279Z</time></trkpt><trkpt lat="44.9231509" lon="8.0343752"><ele>161.33333333333334</ele><time>2026-05-06T12:50:03.278Z</time></trkpt><trkpt lat="44.9229965" lon="8.0345811"><ele>160.66666666666669</ele><time>2026-05-06T12:50:04.279Z</time></trkpt><trkpt lat="44.9228431" lon="8.0347917"><ele>160.0</ele><time>2026-05-06T12:50:05.279Z</time></trkpt><trkpt lat="44.9226836" lon="8.0349999"><ele>161.33333333333334</ele><time>2026-05-06T12:50:06.278Z</time></trkpt><trkpt lat="44.9225208" lon="8.0352055"><ele>162.66666666666666</ele><time>2026-05-06T12:50:07.279Z</time></trkpt><trkpt lat="44.922362" lon="8.0354171"><ele>164.0</ele><time>2026-05-06T12:50:08.279Z</time></trkpt><trkpt lat="44.9222036" lon="8.0356288"><ele>164.66666666666666</ele><time>2026-05-06T12:50:09.279Z</time></trkpt><trkpt lat="44.9220512" lon="8.0358415"><ele>165.33333333333334</ele><time>2026-05-06T12:50:10.279Z</time></trkpt><trkpt lat="44.921889" lon="8.0360459"><ele>166.0</ele><time>2026-05-06T12:50:11.278Z</time></trkpt><trkpt lat="44.9217273" lon="8.0362408"><ele>164.33333333333334</ele><time>2026-05-06T12:50:12.278Z</time></trkpt><trkpt lat="44.9215811" lon="8.0364312"><ele>162.66666666666666</ele><time>2026-05-06T12:50:13.279Z</time></trkpt><trkpt lat="44.921447" lon="8.0365957"><ele>161.0</ele><time>2026-05-06T12:50:14.278Z</time></trkpt><trkpt lat="44.9213146" lon="8.0367619"><ele>161.0</ele><time>2026-05-06T12:50:15.279Z</time></trkpt><trkpt lat="44.9211703" lon="8.0369002"><ele>161.0</ele><time>2026-05-06T12:50:16.278Z</time></trkpt><trkpt lat="44.9210014" lon="8.0369864"><ele>161.0</ele><time>2026-05-06T12:50:17.278Z</time></trkpt><trkpt lat="44.9208243" lon="8.0370123"><ele>159.66666666666666</ele><time>2026-05-06T12:50:18.279Z</time></trkpt><trkpt lat="44.9206424" lon="8.0369802"><ele>158.33333333333334</ele><time>2026-05-06T12:50:19.279Z</time></trkpt><trkpt lat="44.920454" lon="8.0369301"><ele>157.0</ele><time>2026-05-06T12:50:20.279Z</time></trkpt><trkpt lat="44.9202654" lon="8.0368715"><ele>157.0</ele><time>2026-05-06T12:50:21.278Z</time></trkpt><trkpt lat="44.9200698" lon="8.0368215"><ele>157.0</ele><time>2026-05-06T12:50:22.278Z</time></trkpt><trkpt lat="44.9198758" lon="8.0367729"><ele>157.0</ele><time>2026-05-06T12:50:23.279Z</time></trkpt><trkpt lat="44.9196736" lon="8.0367208"><ele>156.66666666666669</ele><time>2026-05-06T12:50:24.279Z</time></trkpt><trkpt lat="44.9194772" lon="8.0366754"><ele>156.33333333333334</ele><time>2026-05-06T12:50:25.278Z</time></trkpt><trkpt lat="44.9192903" lon="8.0366296"><ele>156.0</ele><time>2026-05-06T12:50:26.278Z</time></trkpt><trkpt lat="44.9190867" lon="8.0365837"><ele>156.0</ele><time>2026-05-06T12:50:27.278Z</time></trkpt><trkpt lat="44.9188875" lon="8.0365232"><ele>156.0</ele><time>2026-05-06T12:50:28.279Z</time></trkpt><trkpt lat="44.9186799" lon="8.0364579"><ele>156.0</ele><time>2026-05-06T12:50:29.278Z</time></trkpt><trkpt lat="44.9184797" lon="8.0363962"><ele>156.0</ele><time>2026-05-06T12:50:30.278Z</time></trkpt><trkpt lat="44.9182793" lon="8.0363322"><ele>156.0</ele><time>2026-05-06T12:50:31.279Z</time></trkpt><trkpt lat="44.9180749" lon="8.0362707"><ele>156.0</ele><time>2026-05-06T12:50:32.279Z</time></trkpt><trkpt lat="44.9178699" lon="8.0362104"><ele>156.0</ele><time>2026-05-06T12:50:33.278Z</time></trkpt><trkpt lat="44.9176633" lon="8.0361441"><ele>156.0</ele><time>2026-05-06T12:50:34.279Z</time></trkpt><trkpt lat="44.9174569" lon="8.036079"><ele>156.0</ele><time>2026-05-06T12:50:35.279Z</time></trkpt><trkpt lat="44.9172593" lon="8.036012"><ele>157.0</ele><time>2026-05-06T12:50:36.278Z</time></trkpt><trkpt lat="44.9170693" lon="8.0359459"><ele>158.0</ele><time>2026-05-06T12:50:37.279Z</time></trkpt><trkpt lat="44.9168973" lon="8.0358843"><ele>159.0</ele><time>2026-05-06T12:50:38.278Z</time></trkpt><trkpt lat="44.91673" lon="8.0358288"><ele>158.33333333333334</ele><time>2026-05-06T12:50:39.279Z</time></trkpt><trkpt lat="44.9165653" lon="8.0357739"><ele>157.66666666666669</ele><time>2026-05-06T12:50:40.279Z</time></trkpt><trkpt lat="44.9163968" lon="8.0357163"><ele>157.0</ele><time>2026-05-06T12:50:41.279Z</time></trkpt><trkpt lat="44.9162371" lon="8.0356301"><ele>157.0</ele><time>2026-05-06T12:50:42.278Z</time></trkpt><trkpt lat="44.9160839" lon="8.0355287"><ele>157.0</ele><time>2026-05-06T12:50:43.279Z</time></trkpt><trkpt lat="44.9159467" lon="8.03541"><ele>157.0</ele><time>2026-05-06T12:50:44.279Z</time></trkpt><trkpt lat="44.9158191" lon="8.0352897"><ele>158.0</ele><time>2026-05-06T12:50:45.279Z</time></trkpt><trkpt lat="44.9157121" lon="8.0351703"><ele>159.0</ele><time>2026-05-06T12:50:46.278Z</time></trkpt><trkpt lat="44.9156263" lon="8.0350532"><ele>160.0</ele><time>2026-05-06T12:50:47.279Z</time></trkpt><trkpt lat="44.9155528" lon="8.0349052"><ele>161.0</ele><time>2026-05-06T12:50:48.279Z</time></trkpt><trkpt lat="44.9155221" lon="8.0347249"><ele>161.0</ele><time>2026-05-06T12:50:49.278Z</time></trkpt><trkpt lat="44.9155487" lon="8.0345328"><ele>161.0</ele><time>2026-05-06T12:50:50.278Z</time></trkpt><trkpt lat="44.9156265" lon="8.0343568"><ele>161.0</ele><time>2026-05-06T12:50:51.279Z</time></trkpt><trkpt lat="44.9157261" lon="8.0341711"><ele>161.33333333333331</ele><time>2026-05-06T12:50:52.279Z</time></trkpt><trkpt lat="44.9158171" lon="8.0339814"><ele>161.66666666666666</ele><time>2026-05-06T12:50:53.279Z</time></trkpt><trkpt lat="44.9158928" lon="8.0338063"><ele>162.0</ele><time>2026-05-06T12:50:54.279Z</time></trkpt><trkpt lat="44.9159758" lon="8.0336367"><ele>162.0</ele><time>2026-05-06T12:50:55.278Z</time></trkpt><trkpt lat="44.9160888" lon="8.0335011"><ele>162.0</ele><time>2026-05-06T12:50:56.279Z</time></trkpt><trkpt lat="44.9162179" lon="8.0334024"><ele>162.0</ele><time>2026-05-06T12:50:57.279Z</time></trkpt><trkpt lat="44.9163405" lon="8.0333338"><ele>162.0</ele><time>2026-05-06T12:50:58.279Z</time></trkpt><trkpt lat="44.9164427" lon="8.0332541"><ele>162.2</ele><time>2026-05-06T12:50:59.278Z</time></trkpt><trkpt lat="44.9165247" lon="8.0331584"><ele>162.39999999999998</ele><time>2026-05-06T12:51:00.278Z</time></trkpt><trkpt lat="44.9165904" lon="8.033051"><ele>162.60000000000002</ele><time>2026-05-06T12:51:01.279Z</time></trkpt><trkpt lat="44.9166129" lon="8.0329223"><ele>162.8</ele><time>2026-05-06T12:51:02.278Z</time></trkpt><trkpt lat="44.9166046" lon="8.0328004"><ele>163.0</ele><time>2026-05-06T12:51:03.279Z</time></trkpt><trkpt lat="44.9165722" lon="8.0326967"><ele>163.0</ele><time>2026-05-06T12:51:04.279Z</time></trkpt><trkpt lat="44.916535" lon="8.0326098"><ele>163.0</ele><time>2026-05-06T12:51:05.279Z</time></trkpt><trkpt lat="44.9164838" lon="8.0325435"><ele>163.0</ele><time>2026-05-06T12:51:06.279Z</time></trkpt><trkpt lat="44.9164324" lon="8.0324698"><ele>163.0</ele><time>2026-05-06T12:51:07.279Z</time></trkpt><trkpt lat="44.9163909" lon="8.0323805"><ele>163.0</ele><time>2026-05-06T12:51:08.279Z</time></trkpt><trkpt lat="44.9163694" lon="8.0322858"><ele>163.0</ele><time>2026-05-06T12:51:09.279Z</time></trkpt><trkpt lat="44.9163236" lon="8.0321241"><ele>163.4</ele><time>2026-05-06T12:51:11.279Z</time></trkpt><trkpt lat="44.9162799" lon="8.0320589"><ele>163.8</ele><time>2026-05-06T12:51:12.278Z</time></trkpt><trkpt lat="44.916169" lon="8.0320186"><ele>164.2</ele><time>2026-05-06T12:51:14.279Z</time></trkpt><trkpt lat="44.9161001" lon="8.0320587"><ele>164.6</ele><time>2026-05-06T12:51:15.279Z</time></trkpt><trkpt lat="44.9160309" lon="8.0321484"><ele>165.0</ele><time>2026-05-06T12:51:16.279Z</time></trkpt><trkpt lat="44.9159856" lon="8.0322796"><ele>165.0</ele><time>2026-05-06T12:51:17.278Z</time></trkpt><trkpt lat="44.9159643" lon="8.032446"><ele>165.0</ele><time>2026-05-06T12:51:18.279Z</time></trkpt><trkpt lat="44.9159471" lon="8.0326287"><ele>165.0</ele><time>2026-05-06T12:51:19.279Z</time></trkpt><trkpt lat="44.9158998" lon="8.0328081"><ele>165.0</ele><time>2026-05-06T12:51:20.279Z</time></trkpt><trkpt lat="44.9158222" lon="8.0329903"><ele>164.66666666666666</ele><time>2026-05-06T12:51:21.278Z</time></trkpt><trkpt lat="44.9157271" lon="8.0331736"><ele>164.33333333333331</ele><time>2026-05-06T12:51:22.278Z</time></trkpt><trkpt lat="44.9156297" lon="8.0333577"><ele>164.0</ele><time>2026-05-06T12:51:23.279Z</time></trkpt><trkpt lat="44.9155357" lon="8.0335426"><ele>163.66666666666666</ele><time>2026-05-06T12:51:24.279Z</time></trkpt><trkpt lat="44.915438" lon="8.0337399"><ele>163.33333333333334</ele><time>2026-05-06T12:51:25.279Z</time></trkpt><trkpt lat="44.9153447" lon="8.0339383"><ele>163.0</ele><time>2026-05-06T12:51:26.279Z</time></trkpt><trkpt lat="44.9152485" lon="8.0341298"><ele>163.0</ele><time>2026-05-06T12:51:27.279Z</time></trkpt><trkpt lat="44.9151578" lon="8.0343151"><ele>163.0</ele><time>2026-05-06T12:51:28.278Z</time></trkpt><trkpt lat="44.9150661" lon="8.0344895"><ele>163.0</ele><time>2026-05-06T12:51:29.278Z</time></trkpt><trkpt lat="44.9149891" lon="8.0346559"><ele>163.0</ele><time>2026-05-06T12:51:30.279Z</time></trkpt><trkpt lat="44.9149058" lon="8.0348156"><ele>163.0</ele><time>2026-05-06T12:51:31.278Z</time></trkpt><trkpt lat="44.9148277" lon="8.03497"><ele>163.0</ele><time>2026-05-06T12:51:32.278Z</time></trkpt><trkpt lat="44.9147518" lon="8.0351147"><ele>163.0</ele><time>2026-05-06T12:51:33.279Z</time></trkpt><trkpt lat="44.914678" lon="8.0352446"><ele>162.8</ele><time>2026-05-06T12:51:34.278Z</time></trkpt><trkpt lat="44.9146057" lon="8.0353529"><ele>162.60000000000002</ele><time>2026-05-06T12:51:35.279Z</time></trkpt><trkpt lat="44.9145315" lon="8.035435"><ele>162.39999999999998</ele><time>2026-05-06T12:51:36.279Z</time></trkpt><trkpt lat="44.9144483" lon="8.0354712"><ele>162.2</ele><time>2026-05-06T12:51:37.278Z</time></trkpt><trkpt lat="44.9143548" lon="8.0354773"><ele>162.0</ele><time>2026-05-06T12:51:38.279Z</time></trkpt><trkpt lat="44.9142648" lon="8.035472"><ele>162.25</ele><time>2026-05-06T12:51:39.278Z</time></trkpt><trkpt lat="44.9141626" lon="8.0355131"><ele>162.5</ele><time>2026-05-06T12:51:40.279Z</time></trkpt><trkpt lat="44.9140731" lon="8.0356106"><ele>162.75</ele><time>2026-05-06T12:51:41.278Z</time></trkpt><trkpt lat="44.9140189" lon="8.0357518"><ele>163.0</ele><time>2026-05-06T12:51:42.279Z</time></trkpt><trkpt lat="44.9139912" lon="8.0359139"><ele>163.0</ele><time>2026-05-06T12:51:43.279Z</time></trkpt><trkpt lat="44.9139508" lon="8.0360689"><ele>163.0</ele><time>2026-05-06T12:51:44.278Z</time></trkpt><trkpt lat="44.9138894" lon="8.0361864"><ele>163.0</ele><time>2026-05-06T12:51:45.279Z</time></trkpt><trkpt lat="44.9137895" lon="8.0362631"><ele>163.0</ele><time>2026-05-06T12:51:46.279Z</time></trkpt><trkpt lat="44.9136882" lon="8.0362828"><ele>163.0</ele><time>2026-05-06T12:51:47.279Z</time></trkpt><trkpt lat="44.913598" lon="8.0362388"><ele>163.0</ele><time>2026-05-06T12:51:48.278Z</time></trkpt><trkpt lat="44.9135036" lon="8.03613"><ele>163.0</ele><time>2026-05-06T12:51:49.279Z</time></trkpt><trkpt lat="44.9134175" lon="8.0359746"><ele>163.0</ele><time>2026-05-06T12:51:50.279Z</time></trkpt><trkpt lat="44.9133356" lon="8.0357959"><ele>163.0</ele><time>2026-05-06T12:51:51.279Z</time></trkpt><trkpt lat="44.913286" lon="8.0356282"><ele>165.2</ele><time>2026-05-06T12:51:52.279Z</time></trkpt><trkpt lat="44.9132486" lon="8.0354885"><ele>167.4</ele><time>2026-05-06T12:51:53.279Z</time></trkpt><trkpt lat="44.9132193" lon="8.035359"><ele>169.6</ele><time>2026-05-06T12:51:54.278Z</time></trkpt><trkpt lat="44.9131608" lon="8.0352639"><ele>171.79999999999998</ele><time>2026-05-06T12:51:55.278Z</time></trkpt><trkpt lat="44.9130922" lon="8.0352056"><ele>174.0</ele><time>2026-05-06T12:51:56.278Z</time></trkpt><trkpt lat="44.9130068" lon="8.0351779"><ele>174.0</ele><time>2026-05-06T12:51:57.279Z</time></trkpt><trkpt lat="44.9129208" lon="8.0351481"><ele>174.0</ele><time>2026-05-06T12:51:58.278Z</time></trkpt><trkpt lat="44.9128268" lon="8.0351207"><ele>174.0</ele><time>2026-05-06T12:51:59.278Z</time></trkpt><trkpt lat="44.9127266" lon="8.0350861"><ele>174.0</ele><time>2026-05-06T12:52:00.279Z</time></trkpt><trkpt lat="44.9126099" lon="8.0350405"><ele>174.0</ele><time>2026-05-06T12:52:01.278Z</time></trkpt><trkpt lat="44.9124838" lon="8.0349809"><ele>173.0</ele><time>2026-05-06T12:52:02.278Z</time></trkpt><trkpt lat="44.9123722" lon="8.0348669"><ele>172.0</ele><time>2026-05-06T12:52:03.279Z</time></trkpt><trkpt lat="44.9122765" lon="8.0347216"><ele>171.0</ele><time>2026-05-06T12:52:04.279Z</time></trkpt><trkpt lat="44.9121833" lon="8.034571"><ele>170.0</ele><time>2026-05-06T12:52:05.278Z</time></trkpt><trkpt lat="44.9120995" lon="8.0344012"><ele>170.0</ele><time>2026-05-06T12:52:06.279Z</time></trkpt><trkpt lat="44.912016" lon="8.0342372"><ele>170.0</ele><time>2026-05-06T12:52:07.278Z</time></trkpt><trkpt lat="44.9119296" lon="8.0340889"><ele>170.0</ele><time>2026-05-06T12:52:08.278Z</time></trkpt><trkpt lat="44.9118416" lon="8.0339284"><ele>170.0</ele><time>2026-05-06T12:52:09.278Z</time></trkpt><trkpt lat="44.9117483" lon="8.0337547"><ele>169.33333333333331</ele><time>2026-05-06T12:52:10.278Z</time></trkpt><trkpt lat="44.9116477" lon="8.0335964"><ele>168.66666666666666</ele><time>2026-05-06T12:52:11.278Z</time></trkpt><trkpt lat="44.9115527" lon="8.0334268"><ele>168.0</ele><time>2026-05-06T12:52:12.279Z</time></trkpt><trkpt lat="44.911461" lon="8.0332644"><ele>168.0</ele><time>2026-05-06T12:52:13.278Z</time></trkpt><trkpt lat="44.9113648" lon="8.0331029"><ele>168.0</ele><time>2026-05-06T12:52:14.279Z</time></trkpt><trkpt lat="44.9112751" lon="8.0329432"><ele>168.0</ele><time>2026-05-06T12:52:15.278Z</time></trkpt><trkpt lat="44.9111787" lon="8.0327841"><ele>168.0</ele><time>2026-05-06T12:52:16.279Z</time></trkpt><trkpt lat="44.911092" lon="8.0326295"><ele>168.0</ele><time>2026-05-06T12:52:17.278Z</time></trkpt><trkpt lat="44.9110108" lon="8.0324905"><ele>168.0</ele><time>2026-05-06T12:52:18.278Z</time></trkpt><trkpt lat="44.9109273" lon="8.0323607"><ele>168.0</ele><time>2026-05-06T12:52:19.279Z</time></trkpt><trkpt lat="44.9108589" lon="8.0322345"><ele>168.0</ele><time>2026-05-06T12:52:20.279Z</time></trkpt><trkpt lat="44.9107924" lon="8.032104"><ele>167.75</ele><time>2026-05-06T12:52:21.278Z</time></trkpt><trkpt lat="44.9107207" lon="8.0319816"><ele>167.5</ele><time>2026-05-06T12:52:22.279Z</time></trkpt><trkpt lat="44.9106349" lon="8.0318671"><ele>167.25</ele><time>2026-05-06T12:52:23.279Z</time></trkpt><trkpt lat="44.9105471" lon="8.0317361"><ele>167.0</ele><time>2026-05-06T12:52:24.279Z</time></trkpt><trkpt lat="44.9104772" lon="8.0315829"><ele>167.0</ele><time>2026-05-06T12:52:25.279Z</time></trkpt><trkpt lat="44.9103931" lon="8.031428"><ele>167.0</ele><time>2026-05-06T12:52:26.279Z</time></trkpt><trkpt lat="44.9103044" lon="8.0312762"><ele>167.0</ele><time>2026-05-06T12:52:27.279Z</time></trkpt><trkpt lat="44.9102057" lon="8.031118"><ele>167.0</ele><time>2026-05-06T12:52:28.278Z</time></trkpt><trkpt lat="44.9101007" lon="8.0309491"><ele>167.66666666666666</ele><time>2026-05-06T12:52:29.279Z</time></trkpt><trkpt lat="44.9099923" lon="8.0307699"><ele>168.33333333333334</ele><time>2026-05-06T12:52:30.279Z</time></trkpt><trkpt lat="44.909875" lon="8.0305883"><ele>169.0</ele><time>2026-05-06T12:52:31.279Z</time></trkpt><trkpt lat="44.9097512" lon="8.0303992"><ele>169.0</ele><time>2026-05-06T12:52:32.279Z</time></trkpt><trkpt lat="44.9096262" lon="8.0302104"><ele>169.0</ele><time>2026-05-06T12:52:33.278Z</time></trkpt><trkpt lat="44.9095085" lon="8.0300173"><ele>169.0</ele><time>2026-05-06T12:52:34.279Z</time></trkpt><trkpt lat="44.9093954" lon="8.0298256"><ele>169.0</ele><time>2026-05-06T12:52:35.279Z</time></trkpt><trkpt lat="44.9092808" lon="8.0296274"><ele>169.0</ele><time>2026-05-06T12:52:36.278Z</time></trkpt><trkpt lat="44.9091614" lon="8.0294231"><ele>169.0</ele><time>2026-05-06T12:52:37.278Z</time></trkpt><trkpt lat="44.9090384" lon="8.0292221"><ele>168.0</ele><time>2026-05-06T12:52:38.279Z</time></trkpt><trkpt lat="44.908915" lon="8.0290132"><ele>167.0</ele><time>2026-05-06T12:52:39.279Z</time></trkpt><trkpt lat="44.9087885" lon="8.0288071"><ele>166.0</ele><time>2026-05-06T12:52:40.278Z</time></trkpt><trkpt lat="44.9086678" lon="8.0285957"><ele>166.0</ele><time>2026-05-06T12:52:41.279Z</time></trkpt><trkpt lat="44.908542" lon="8.0283922"><ele>166.0</ele><time>2026-05-06T12:52:42.279Z</time></trkpt><trkpt lat="44.9084162" lon="8.0281721"><ele>166.0</ele><time>2026-05-06T12:52:43.278Z</time></trkpt><trkpt lat="44.9082867" lon="8.0279617"><ele>166.66666666666669</ele><time>2026-05-06T12:52:44.279Z</time></trkpt><trkpt lat="44.9081607" lon="8.0277428"><ele>167.33333333333334</ele><time>2026-05-06T12:52:45.278Z</time></trkpt><trkpt lat="44.9080372" lon="8.0275251"><ele>168.0</ele><time>2026-05-06T12:52:46.279Z</time></trkpt><trkpt lat="44.9079123" lon="8.0273023"><ele>168.66666666666666</ele><time>2026-05-06T12:52:47.279Z</time></trkpt><trkpt lat="44.9077796" lon="8.0270833"><ele>169.33333333333331</ele><time>2026-05-06T12:52:48.279Z</time></trkpt><trkpt lat="44.9076433" lon="8.0268603"><ele>170.0</ele><time>2026-05-06T12:52:49.278Z</time></trkpt><trkpt lat="44.9075109" lon="8.0266327"><ele>170.33333333333331</ele><time>2026-05-06T12:52:50.279Z</time></trkpt><trkpt lat="44.9073765" lon="8.0264007"><ele>170.66666666666666</ele><time>2026-05-06T12:52:51.278Z</time></trkpt><trkpt lat="44.9072343" lon="8.0261714"><ele>171.0</ele><time>2026-05-06T12:52:52.279Z</time></trkpt><trkpt lat="44.9070994" lon="8.0259357"><ele>171.33333333333334</ele><time>2026-05-06T12:52:53.279Z</time></trkpt><trkpt lat="44.9069597" lon="8.0257108"><ele>171.66666666666669</ele><time>2026-05-06T12:52:54.278Z</time></trkpt><trkpt lat="44.9068197" lon="8.0254786"><ele>172.0</ele><time>2026-05-06T12:52:55.278Z</time></trkpt><trkpt lat="44.9066796" lon="8.0252426"><ele>172.0</ele><time>2026-05-06T12:52:56.279Z</time></trkpt><trkpt lat="44.9065324" lon="8.02501"><ele>172.0</ele><time>2026-05-06T12:52:57.278Z</time></trkpt><trkpt lat="44.9063836" lon="8.024777"><ele>172.0</ele><time>2026-05-06T12:52:58.279Z</time></trkpt><trkpt lat="44.9062397" lon="8.024536"><ele>173.0</ele><time>2026-05-06T12:52:59.279Z</time></trkpt><trkpt lat="44.9061004" lon="8.0242914"><ele>174.0</ele><time>2026-05-06T12:53:00.279Z</time></trkpt><trkpt lat="44.9059568" lon="8.0240515"><ele>175.0</ele><time>2026-05-06T12:53:01.279Z</time></trkpt><trkpt lat="44.905816" lon="8.0238055"><ele>175.0</ele><time>2026-05-06T12:53:02.278Z</time></trkpt><trkpt lat="44.9056683" lon="8.0235679"><ele>175.0</ele><time>2026-05-06T12:53:03.278Z</time></trkpt><trkpt lat="44.9055256" lon="8.0233238"><ele>175.0</ele><time>2026-05-06T12:53:04.279Z</time></trkpt><trkpt lat="44.9053826" lon="8.0230739"><ele>177.5</ele><time>2026-05-06T12:53:05.278Z</time></trkpt><trkpt lat="44.9052294" lon="8.0228238"><ele>180.0</ele><time>2026-05-06T12:53:06.279Z</time></trkpt><trkpt lat="44.9050724" lon="8.0225805"><ele>174.5</ele><time>2026-05-06T12:53:07.279Z</time></trkpt><trkpt lat="44.9049104" lon="8.0223467"><ele>169.0</ele><time>2026-05-06T12:53:08.279Z</time></trkpt><trkpt lat="44.9047391" lon="8.0221255"><ele>169.0</ele><time>2026-05-06T12:53:09.278Z</time></trkpt><trkpt lat="44.9045606" lon="8.0219199"><ele>169.0</ele><time>2026-05-06T12:53:10.279Z</time></trkpt><trkpt lat="44.9043812" lon="8.0217117"><ele>170.5</ele><time>2026-05-06T12:53:11.279Z</time></trkpt><trkpt lat="44.9042083" lon="8.0215047"><ele>172.0</ele><time>2026-05-06T12:53:12.278Z</time></trkpt><trkpt lat="44.9040238" lon="8.0212996"><ele>172.0</ele><time>2026-05-06T12:53:13.278Z</time></trkpt><trkpt lat="44.9038357" lon="8.0210924"><ele>172.0</ele><time>2026-05-06T12:53:14.278Z</time></trkpt><trkpt lat="44.9036534" lon="8.0208821"><ele>174.5</ele><time>2026-05-06T12:53:15.278Z</time></trkpt><trkpt lat="44.9034736" lon="8.0206783"><ele>177.0</ele><time>2026-05-06T12:53:16.279Z</time></trkpt><trkpt lat="44.903292" lon="8.0204648"><ele>177.0</ele><time>2026-05-06T12:53:17.279Z</time></trkpt><trkpt lat="44.903121" lon="8.0202473"><ele>177.0</ele><time>2026-05-06T12:53:18.279Z</time></trkpt><trkpt lat="44.9029628" lon="8.0200121"><ele>178.5</ele><time>2026-05-06T12:53:19.279Z</time></trkpt><trkpt lat="44.9027993" lon="8.0197765"><ele>180.0</ele><time>2026-05-06T12:53:20.279Z</time></trkpt><trkpt lat="44.9026303" lon="8.0195512"><ele>179.0</ele><time>2026-05-06T12:53:21.279Z</time></trkpt><trkpt lat="44.9024627" lon="8.0193237"><ele>178.0</ele><time>2026-05-06T12:53:22.278Z</time></trkpt><trkpt lat="44.902299" lon="8.0190919"><ele>178.0</ele><time>2026-05-06T12:53:23.279Z</time></trkpt><trkpt lat="44.9021342" lon="8.0188517"><ele>178.0</ele><time>2026-05-06T12:53:24.278Z</time></trkpt><trkpt lat="44.901971" lon="8.018611"><ele>178.0</ele><time>2026-05-06T12:53:25.278Z</time></trkpt><trkpt lat="44.9017944" lon="8.0183881"><ele>178.0</ele><time>2026-05-06T12:53:26.279Z</time></trkpt><trkpt lat="44.9016216" lon="8.0181543"><ele>177.5</ele><time>2026-05-06T12:53:27.278Z</time></trkpt><trkpt lat="44.9014544" lon="8.0179161"><ele>177.0</ele><time>2026-05-06T12:53:28.279Z</time></trkpt><trkpt lat="44.9012878" lon="8.017685"><ele>177.5</ele><time>2026-05-06T12:53:29.279Z</time></trkpt><trkpt lat="44.90112" lon="8.0174636"><ele>178.0</ele><time>2026-05-06T12:53:30.279Z</time></trkpt><trkpt lat="44.9009527" lon="8.0172371"><ele>179.0</ele><time>2026-05-06T12:53:31.279Z</time></trkpt><trkpt lat="44.9007809" lon="8.0170099"><ele>180.0</ele><time>2026-05-06T12:53:32.279Z</time></trkpt><trkpt lat="44.900612" lon="8.0167845"><ele>180.0</ele><time>2026-05-06T12:53:33.279Z</time></trkpt><trkpt lat="44.9004506" lon="8.0165567"><ele>180.0</ele><time>2026-05-06T12:53:34.278Z</time></trkpt><trkpt lat="44.9002862" lon="8.0163298"><ele>180.0</ele><time>2026-05-06T12:53:35.278Z</time></trkpt><trkpt lat="44.9001156" lon="8.0161017"><ele>180.0</ele><time>2026-05-06T12:53:36.279Z</time></trkpt><trkpt lat="44.8999553" lon="8.015869"><ele>179.5</ele><time>2026-05-06T12:53:37.278Z</time></trkpt><trkpt lat="44.8997924" lon="8.0156345"><ele>179.0</ele><time>2026-05-06T12:53:38.279Z</time></trkpt><trkpt lat="44.8996338" lon="8.0154042"><ele>179.0</ele><time>2026-05-06T12:53:39.279Z</time></trkpt><trkpt lat="44.8994744" lon="8.0151733"><ele>179.0</ele><time>2026-05-06T12:53:40.279Z</time></trkpt><trkpt lat="44.8993161" lon="8.0149519"><ele>179.0</ele><time>2026-05-06T12:53:41.278Z</time></trkpt><trkpt lat="44.899158" lon="8.0147489"><ele>179.0</ele><time>2026-05-06T12:53:42.279Z</time></trkpt><trkpt lat="44.8989971" lon="8.0145345"><ele>179.0</ele><time>2026-05-06T12:53:43.278Z</time></trkpt><trkpt lat="44.8988357" lon="8.0143145"><ele>179.5</ele><time>2026-05-06T12:53:44.278Z</time></trkpt><trkpt lat="44.8986742" lon="8.0140892"><ele>180.0</ele><time>2026-05-06T12:53:45.279Z</time></trkpt><trkpt lat="44.8985009" lon="8.0138667"><ele>178.0</ele><time>2026-05-06T12:53:46.278Z</time></trkpt><trkpt lat="44.898324" lon="8.0136342"><ele>176.0</ele><time>2026-05-06T12:53:47.278Z</time></trkpt><trkpt lat="44.8981508" lon="8.0133888"><ele>178.0</ele><time>2026-05-06T12:53:48.279Z</time></trkpt><trkpt lat="44.8979823" lon="8.0131363"><ele>180.0</ele><time>2026-05-06T12:53:49.278Z</time></trkpt><trkpt lat="44.8978214" lon="8.0128754"><ele>180.0</ele><time>2026-05-06T12:53:50.278Z</time></trkpt><trkpt lat="44.8976569" lon="8.0126094"><ele>180.0</ele><time>2026-05-06T12:53:51.278Z</time></trkpt><trkpt lat="44.8974807" lon="8.0123427"><ele>180.0</ele><time>2026-05-06T12:53:52.279Z</time></trkpt><trkpt lat="44.8973043" lon="8.0120912"><ele>180.0</ele><time>2026-05-06T12:53:53.279Z</time></trkpt><trkpt lat="44.8971188" lon="8.0118361"><ele>182.0</ele><time>2026-05-06T12:53:54.278Z</time></trkpt><trkpt lat="44.8969395" lon="8.0115841"><ele>184.0</ele><time>2026-05-06T12:53:55.277Z</time></trkpt><trkpt lat="44.8967682" lon="8.0113473"><ele>181.0</ele><time>2026-05-06T12:53:56.277Z</time></trkpt><trkpt lat="44.8966045" lon="8.0111202"><ele>178.0</ele><time>2026-05-06T12:53:57.277Z</time></trkpt><trkpt lat="44.8964456" lon="8.0108965"><ele>177.66666666666669</ele><time>2026-05-06T12:53:58.278Z</time></trkpt><trkpt lat="44.8962767" lon="8.0106969"><ele>177.33333333333334</ele><time>2026-05-06T12:53:59.278Z</time></trkpt><trkpt lat="44.8960976" lon="8.0105217"><ele>177.0</ele><time>2026-05-06T12:54:00.278Z</time></trkpt><trkpt lat="44.8959171" lon="8.0103469"><ele>178.33333333333334</ele><time>2026-05-06T12:54:01.277Z</time></trkpt><trkpt lat="44.8957347" lon="8.0101825"><ele>179.66666666666669</ele><time>2026-05-06T12:54:02.277Z</time></trkpt><trkpt lat="44.8955454" lon="8.0100238"><ele>181.0</ele><time>2026-05-06T12:54:03.278Z</time></trkpt><trkpt lat="44.8953548" lon="8.0098696"><ele>183.33333333333334</ele><time>2026-05-06T12:54:04.278Z</time></trkpt><trkpt lat="44.8951635" lon="8.0097121"><ele>185.66666666666666</ele><time>2026-05-06T12:54:05.278Z</time></trkpt><trkpt lat="44.8949661" lon="8.0095594"><ele>188.0</ele><time>2026-05-06T12:54:06.277Z</time></trkpt><trkpt lat="44.8947675" lon="8.0093987"><ele>188.5</ele><time>2026-05-06T12:54:07.278Z</time></trkpt><trkpt lat="44.8945776" lon="8.009228"><ele>189.0</ele><time>2026-05-06T12:54:08.277Z</time></trkpt><trkpt lat="44.8943833" lon="8.0090633"><ele>190.0</ele><time>2026-05-06T12:54:09.278Z</time></trkpt><trkpt lat="44.8941824" lon="8.0089018"><ele>191.0</ele><time>2026-05-06T12:54:10.277Z</time></trkpt><trkpt lat="44.8939878" lon="8.0087359"><ele>191.0</ele><time>2026-05-06T12:54:11.277Z</time></trkpt><trkpt lat="44.8937888" lon="8.0085695"><ele>191.0</ele><time>2026-05-06T12:54:12.277Z</time></trkpt><trkpt lat="44.8935933" lon="8.0084033"><ele>191.0</ele><time>2026-05-06T12:54:13.278Z</time></trkpt><trkpt lat="44.8934008" lon="8.008238"><ele>191.0</ele><time>2026-05-06T12:54:14.278Z</time></trkpt><trkpt lat="44.893205" lon="8.0080773"><ele>191.0</ele><time>2026-05-06T12:54:15.278Z</time></trkpt><trkpt lat="44.8930123" lon="8.0079095"><ele>191.0</ele><time>2026-05-06T12:54:16.278Z</time></trkpt><trkpt lat="44.8928177" lon="8.0077497"><ele>191.0</ele><time>2026-05-06T12:54:17.278Z</time></trkpt><trkpt lat="44.8926292" lon="8.0075956"><ele>191.0</ele><time>2026-05-06T12:54:18.278Z</time></trkpt><trkpt lat="44.8924545" lon="8.0074527"><ele>191.0</ele><time>2026-05-06T12:54:19.278Z</time></trkpt><trkpt lat="44.8922794" lon="8.007317"><ele>190.0</ele><time>2026-05-06T12:54:20.278Z</time></trkpt><trkpt lat="44.8921117" lon="8.0071654"><ele>189.0</ele><time>2026-05-06T12:54:21.277Z</time></trkpt><trkpt lat="44.891938" lon="8.0070292"><ele>188.0</ele><time>2026-05-06T12:54:22.277Z</time></trkpt><trkpt lat="44.8917658" lon="8.0069022"><ele>188.0</ele><time>2026-05-06T12:54:23.277Z</time></trkpt><trkpt lat="44.8915879" lon="8.0067804"><ele>188.0</ele><time>2026-05-06T12:54:24.278Z</time></trkpt><trkpt lat="44.8914232" lon="8.0066664"><ele>188.0</ele><time>2026-05-06T12:54:25.278Z</time></trkpt><trkpt lat="44.891275" lon="8.0065547"><ele>188.0</ele><time>2026-05-06T12:54:26.277Z</time></trkpt><trkpt lat="44.8911361" lon="8.0064455"><ele>188.0</ele><time>2026-05-06T12:54:27.277Z</time></trkpt><trkpt lat="44.8910024" lon="8.0063472"><ele>188.0</ele><time>2026-05-06T12:54:28.278Z</time></trkpt><trkpt lat="44.8908935" lon="8.006256"><ele>188.0</ele><time>2026-05-06T12:54:29.277Z</time></trkpt><trkpt lat="44.8908019" lon="8.0061909"><ele>189.0</ele><time>2026-05-06T12:54:30.277Z</time></trkpt><trkpt lat="44.8907237" lon="8.0061398"><ele>190.0</ele><time>2026-05-06T12:54:31.278Z</time></trkpt><trkpt lat="44.8906755" lon="8.0060757"><ele>191.0</ele><time>2026-05-06T12:54:32.278Z</time></trkpt><trkpt lat="44.8906783" lon="8.0059423"><ele>192.0</ele><time>2026-05-06T12:54:34.277Z</time></trkpt><trkpt lat="44.8907003" lon="8.005751"><ele>193.0</ele><time>2026-05-06T12:54:36.278Z</time></trkpt><trkpt lat="44.8906907" lon="8.0056329"><ele>194.0</ele><time>2026-05-06T12:54:37.278Z</time></trkpt><trkpt lat="44.8906665" lon="8.0055068"><ele>195.0</ele><time>2026-05-06T12:54:38.278Z</time></trkpt><trkpt lat="44.8906349" lon="8.0053628"><ele>196.0</ele><time>2026-05-06T12:54:39.278Z</time></trkpt><trkpt lat="44.890612" lon="8.0051979"><ele>197.0</ele><time>2026-05-06T12:54:40.278Z</time></trkpt><trkpt lat="44.8905812" lon="8.0050249"><ele>198.0</ele><time>2026-05-06T12:54:41.277Z</time></trkpt><trkpt lat="44.8905481" lon="8.0048384"><ele>198.25</ele><time>2026-05-06T12:54:42.277Z</time></trkpt><trkpt lat="44.8905116" lon="8.0046426"><ele>198.5</ele><time>2026-05-06T12:54:43.278Z</time></trkpt><trkpt lat="44.8904658" lon="8.0044445"><ele>198.75</ele><time>2026-05-06T12:54:44.277Z</time></trkpt><trkpt lat="44.8903954" lon="8.0042555"><ele>199.0</ele><time>2026-05-06T12:54:45.277Z</time></trkpt><trkpt lat="44.8903032" lon="8.0040922"><ele>200.5</ele><time>2026-05-06T12:54:46.278Z</time></trkpt><trkpt lat="44.8901948" lon="8.0039834"><ele>202.0</ele><time>2026-05-06T12:54:47.278Z</time></trkpt><trkpt lat="44.8900919" lon="8.0039102"><ele>203.5</ele><time>2026-05-06T12:54:48.277Z</time></trkpt><trkpt lat="44.8899895" lon="8.0038366"><ele>205.0</ele><time>2026-05-06T12:54:49.277Z</time></trkpt><trkpt lat="44.8899003" lon="8.0037141"><ele>205.75</ele><time>2026-05-06T12:54:50.278Z</time></trkpt><trkpt lat="44.8898616" lon="8.0035494"><ele>206.5</ele><time>2026-05-06T12:54:51.278Z</time></trkpt><trkpt lat="44.889871" lon="8.0033725"><ele>207.25</ele><time>2026-05-06T12:54:52.278Z</time></trkpt><trkpt lat="44.8899328" lon="8.0032058"><ele>208.0</ele><time>2026-05-06T12:54:53.278Z</time></trkpt><trkpt lat="44.8900193" lon="8.0030585"><ele>208.75</ele><time>2026-05-06T12:54:54.277Z</time></trkpt><trkpt lat="44.8901249" lon="8.0029321"><ele>209.5</ele><time>2026-05-06T12:54:55.278Z</time></trkpt><trkpt lat="44.890212" lon="8.0027968"><ele>210.25</ele><time>2026-05-06T12:54:56.277Z</time></trkpt><trkpt lat="44.8902843" lon="8.0026447"><ele>211.0</ele><time>2026-05-06T12:54:57.277Z</time></trkpt><trkpt lat="44.8903115" lon="8.0024748"><ele>211.75</ele><time>2026-05-06T12:54:58.278Z</time></trkpt><trkpt lat="44.8903006" lon="8.0022869"><ele>212.5</ele><time>2026-05-06T12:54:59.278Z</time></trkpt><trkpt lat="44.890274" lon="8.002085"><ele>213.25</ele><time>2026-05-06T12:55:00.277Z</time></trkpt><trkpt lat="44.8902434" lon="8.0018794"><ele>214.0</ele><time>2026-05-06T12:55:01.278Z</time></trkpt><trkpt lat="44.8902211" lon="8.0016774"><ele>214.0</ele><time>2026-05-06T12:55:02.277Z</time></trkpt><trkpt lat="44.8901987" lon="8.0014777"><ele>214.0</ele><time>2026-05-06T12:55:03.277Z</time></trkpt><trkpt lat="44.8901725" lon="8.0012918"><ele>214.0</ele><time>2026-05-06T12:55:04.277Z</time></trkpt><trkpt lat="44.8901426" lon="8.0011084"><ele>214.0</ele><time>2026-05-06T12:55:05.278Z</time></trkpt><trkpt lat="44.8900867" lon="8.0009326"><ele>219.0</ele><time>2026-05-06T12:55:06.277Z</time></trkpt><trkpt lat="44.8899963" lon="8.0007795"><ele>224.0</ele><time>2026-05-06T12:55:07.277Z</time></trkpt><trkpt lat="44.8898875" lon="8.0006448"><ele>229.0</ele><time>2026-05-06T12:55:08.277Z</time></trkpt><trkpt lat="44.889768" lon="8.0005148"><ele>234.0</ele><time>2026-05-06T12:55:09.277Z</time></trkpt><trkpt lat="44.8896438" lon="8.0003744"><ele>234.0</ele><time>2026-05-06T12:55:10.278Z</time></trkpt><trkpt lat="44.889527" lon="8.0002269"><ele>234.0</ele><time>2026-05-06T12:55:11.278Z</time></trkpt><trkpt lat="44.889414" lon="8.0000614"><ele>234.0</ele><time>2026-05-06T12:55:12.278Z</time></trkpt><trkpt lat="44.8893115" lon="7.9999015"><ele>234.0</ele><time>2026-05-06T12:55:13.278Z</time></trkpt><trkpt lat="44.8892129" lon="7.9997321"><ele>234.0</ele><time>2026-05-06T12:55:14.277Z</time></trkpt><trkpt lat="44.8891176" lon="7.9995696"><ele>234.0</ele><time>2026-05-06T12:55:15.278Z</time></trkpt><trkpt lat="44.8890128" lon="7.9994256"><ele>234.0</ele><time>2026-05-06T12:55:16.277Z</time></trkpt><trkpt lat="44.8889186" lon="7.9992803"><ele>234.0</ele><time>2026-05-06T12:55:17.278Z</time></trkpt><trkpt lat="44.8888196" lon="7.9991382"><ele>234.0</ele><time>2026-05-06T12:55:18.277Z</time></trkpt><trkpt lat="44.8887192" lon="7.9990028"><ele>234.0</ele><time>2026-05-06T12:55:19.278Z</time></trkpt><trkpt lat="44.8886132" lon="7.9988752"><ele>233.75</ele><time>2026-05-06T12:55:20.278Z</time></trkpt><trkpt lat="44.88851" lon="7.9987476"><ele>233.5</ele><time>2026-05-06T12:55:21.277Z</time></trkpt><trkpt lat="44.8884097" lon="7.998626"><ele>233.25</ele><time>2026-05-06T12:55:22.278Z</time></trkpt><trkpt lat="44.8883114" lon="7.9985047"><ele>233.0</ele><time>2026-05-06T12:55:23.278Z</time></trkpt><trkpt lat="44.8882142" lon="7.9983807"><ele>235.0</ele><time>2026-05-06T12:55:24.278Z</time></trkpt><trkpt lat="44.8881018" lon="7.9982599"><ele>237.0</ele><time>2026-05-06T12:55:25.277Z</time></trkpt><trkpt lat="44.887991" lon="7.9981294"><ele>239.0</ele><time>2026-05-06T12:55:26.277Z</time></trkpt><trkpt lat="44.8878731" lon="7.9980244"><ele>241.0</ele><time>2026-05-06T12:55:27.278Z</time></trkpt><trkpt lat="44.8877635" lon="7.9979155"><ele>241.0</ele><time>2026-05-06T12:55:28.278Z</time></trkpt><trkpt lat="44.887661" lon="7.997806"><ele>241.0</ele><time>2026-05-06T12:55:29.277Z</time></trkpt><trkpt lat="44.8875585" lon="7.9976969"><ele>241.0</ele><time>2026-05-06T12:55:30.277Z</time></trkpt><trkpt lat="44.8874651" lon="7.9975859"><ele>241.0</ele><time>2026-05-06T12:55:31.278Z</time></trkpt><trkpt lat="44.8873864" lon="7.997462"><ele>241.75</ele><time>2026-05-06T12:55:32.277Z</time></trkpt><trkpt lat="44.8873119" lon="7.9973235"><ele>242.5</ele><time>2026-05-06T12:55:33.277Z</time></trkpt><trkpt lat="44.8872468" lon="7.9971718"><ele>243.25</ele><time>2026-05-06T12:55:34.277Z</time></trkpt><trkpt lat="44.8871996" lon="7.9970087"><ele>244.0</ele><time>2026-05-06T12:55:35.278Z</time></trkpt><trkpt lat="44.8871572" lon="7.9968319"><ele>244.33333333333331</ele><time>2026-05-06T12:55:36.278Z</time></trkpt><trkpt lat="44.8871123" lon="7.9966343"><ele>244.66666666666669</ele><time>2026-05-06T12:55:37.278Z</time></trkpt><trkpt lat="44.8870658" lon="7.9964395"><ele>245.0</ele><time>2026-05-06T12:55:38.278Z</time></trkpt><trkpt lat="44.887025" lon="7.9962251"><ele>245.0</ele><time>2026-05-06T12:55:39.277Z</time></trkpt><trkpt lat="44.8869743" lon="7.996022"><ele>245.0</ele><time>2026-05-06T12:55:40.278Z</time></trkpt><trkpt lat="44.8869152" lon="7.9958185"><ele>245.0</ele><time>2026-05-06T12:55:41.278Z</time></trkpt><trkpt lat="44.886853" lon="7.9956195"><ele>243.33333333333334</ele><time>2026-05-06T12:55:42.277Z</time></trkpt><trkpt lat="44.8867825" lon="7.9954287"><ele>241.66666666666669</ele><time>2026-05-06T12:55:43.277Z</time></trkpt><trkpt lat="44.8866981" lon="7.9952447"><ele>240.0</ele><time>2026-05-06T12:55:44.278Z</time></trkpt><trkpt lat="44.8866056" lon="7.9950655"><ele>242.33333333333331</ele><time>2026-05-06T12:55:45.278Z</time></trkpt><trkpt lat="44.8864949" lon="7.9948996"><ele>244.66666666666666</ele><time>2026-05-06T12:55:46.277Z</time></trkpt><trkpt lat="44.886368" lon="7.9947416"><ele>247.0</ele><time>2026-05-06T12:55:47.278Z</time></trkpt><trkpt lat="44.8862413" lon="7.9945812"><ele>247.0</ele><time>2026-05-06T12:55:48.278Z</time></trkpt><trkpt lat="44.8861215" lon="7.9944034"><ele>247.0</ele><time>2026-05-06T12:55:49.277Z</time></trkpt><trkpt lat="44.8860027" lon="7.9942212"><ele>247.0</ele><time>2026-05-06T12:55:50.278Z</time></trkpt><trkpt lat="44.8858834" lon="7.9940491"><ele>248.33333333333331</ele><time>2026-05-06T12:55:51.278Z</time></trkpt><trkpt lat="44.8857501" lon="7.993888"><ele>249.66666666666669</ele><time>2026-05-06T12:55:52.277Z</time></trkpt><trkpt lat="44.8856263" lon="7.9937497"><ele>251.0</ele><time>2026-05-06T12:55:53.278Z</time></trkpt><trkpt lat="44.8855097" lon="7.9936163"><ele>251.0</ele><time>2026-05-06T12:55:54.277Z</time></trkpt><trkpt lat="44.8854049" lon="7.9934747"><ele>251.0</ele><time>2026-05-06T12:55:55.278Z</time></trkpt><trkpt lat="44.8853329" lon="7.993313"><ele>251.0</ele><time>2026-05-06T12:55:56.277Z</time></trkpt><trkpt lat="44.8853023" lon="7.9931289"><ele>251.0</ele><time>2026-05-06T12:55:57.278Z</time></trkpt><trkpt lat="44.8853238" lon="7.9929307"><ele>249.33333333333334</ele><time>2026-05-06T12:55:58.278Z</time></trkpt><trkpt lat="44.885381" lon="7.9927333"><ele>247.66666666666669</ele><time>2026-05-06T12:55:59.277Z</time></trkpt><trkpt lat="44.8854693" lon="7.9925461"><ele>246.0</ele><time>2026-05-06T12:56:00.278Z</time></trkpt><trkpt lat="44.8855666" lon="7.9923781"><ele>245.33333333333331</ele><time>2026-05-06T12:56:01.277Z</time></trkpt><trkpt lat="44.8856776" lon="7.9922325"><ele>244.66666666666666</ele><time>2026-05-06T12:56:02.277Z</time></trkpt><trkpt lat="44.8858134" lon="7.9921108"><ele>244.0</ele><time>2026-05-06T12:56:03.277Z</time></trkpt><trkpt lat="44.8859503" lon="7.9919923"><ele>244.25</ele><time>2026-05-06T12:56:04.277Z</time></trkpt><trkpt lat="44.886074" lon="7.9918786"><ele>244.5</ele><time>2026-05-06T12:56:05.277Z</time></trkpt><trkpt lat="44.8861936" lon="7.9917744"><ele>244.75</ele><time>2026-05-06T12:56:06.278Z</time></trkpt><trkpt lat="44.8862874" lon="7.9916867"><ele>245.0</ele><time>2026-05-06T12:56:07.278Z</time></trkpt><trkpt lat="44.8863793" lon="7.9916009"><ele>245.00000000000003</ele><time>2026-05-06T12:56:08.278Z</time></trkpt><trkpt lat="44.8864379" lon="7.991509"><ele>245.0</ele><time>2026-05-06T12:56:09.278Z</time></trkpt><trkpt lat="44.8864487" lon="7.9913462"><ele>245.0</ele><time>2026-05-06T12:56:11.277Z</time></trkpt><trkpt lat="44.8863902" lon="7.991285"><ele>245.0</ele><time>2026-05-06T12:56:12.278Z</time></trkpt><trkpt lat="44.8863176" lon="7.9912686"><ele>245.00000000000003</ele><time>2026-05-06T12:56:13.278Z</time></trkpt><trkpt lat="44.8862246" lon="7.9913001"><ele>245.0</ele><time>2026-05-06T12:56:14.277Z</time></trkpt><trkpt lat="44.8861308" lon="7.9913644"><ele>245.0</ele><time>2026-05-06T12:56:15.278Z</time></trkpt><trkpt lat="44.8860356" lon="7.9914865"><ele>245.0</ele><time>2026-05-06T12:56:16.278Z</time></trkpt><trkpt lat="44.8859307" lon="7.9916166"><ele>245.0</ele><time>2026-05-06T12:56:17.277Z</time></trkpt><trkpt lat="44.8858003" lon="7.9917178"><ele>245.0</ele><time>2026-05-06T12:56:18.278Z</time></trkpt><trkpt lat="44.8856626" lon="7.9917786"><ele>244.75</ele><time>2026-05-06T12:56:19.278Z</time></trkpt><trkpt lat="44.8855202" lon="7.9918237"><ele>244.5</ele><time>2026-05-06T12:56:20.278Z</time></trkpt><trkpt lat="44.8853749" lon="7.9918618"><ele>244.25</ele><time>2026-05-06T12:56:21.277Z</time></trkpt><trkpt lat="44.8852344" lon="7.991906"><ele>244.0</ele><time>2026-05-06T12:56:22.277Z</time></trkpt><trkpt lat="44.8850966" lon="7.9919465"><ele>244.0</ele><time>2026-05-06T12:56:23.277Z</time></trkpt><trkpt lat="44.8849622" lon="7.9919961"><ele>244.0</ele><time>2026-05-06T12:56:24.278Z</time></trkpt><trkpt lat="44.8848197" lon="7.9920262"><ele>244.0</ele><time>2026-05-06T12:56:25.277Z</time></trkpt><trkpt lat="44.884674" lon="7.9920392"><ele>244.0</ele><time>2026-05-06T12:56:26.278Z</time></trkpt><trkpt lat="44.8845334" lon="7.9920315"><ele>244.0</ele><time>2026-05-06T12:56:27.277Z</time></trkpt><trkpt lat="44.8843932" lon="7.9920047"><ele>244.0</ele><time>2026-05-06T12:56:28.278Z</time></trkpt><trkpt lat="44.8842516" lon="7.9919583"><ele>244.0</ele><time>2026-05-06T12:56:29.278Z</time></trkpt><trkpt lat="44.8841086" lon="7.9919158"><ele>244.0</ele><time>2026-05-06T12:56:30.278Z</time></trkpt><trkpt lat="44.8839668" lon="7.9918706"><ele>244.0</ele><time>2026-05-06T12:56:31.277Z</time></trkpt><trkpt lat="44.8838298" lon="7.9918282"><ele>244.0</ele><time>2026-05-06T12:56:32.278Z</time></trkpt><trkpt lat="44.8836865" lon="7.9917853"><ele>244.0</ele><time>2026-05-06T12:56:33.277Z</time></trkpt><trkpt lat="44.8835396" lon="7.9917782"><ele>244.0</ele><time>2026-05-06T12:56:34.278Z</time></trkpt><trkpt lat="44.8833883" lon="7.991782"><ele>242.75</ele><time>2026-05-06T12:56:35.277Z</time></trkpt><trkpt lat="44.8832514" lon="7.9918045"><ele>241.5</ele><time>2026-05-06T12:56:36.278Z</time></trkpt><trkpt lat="44.883135" lon="7.991852"><ele>240.25</ele><time>2026-05-06T12:56:37.277Z</time></trkpt><trkpt lat="44.8830178" lon="7.9919326"><ele>239.0</ele><time>2026-05-06T12:56:38.278Z</time></trkpt><trkpt lat="44.8828898" lon="7.9920408"><ele>239.0</ele><time>2026-05-06T12:56:39.278Z</time></trkpt><trkpt lat="44.88275" lon="7.9921439"><ele>239.0</ele><time>2026-05-06T12:56:40.278Z</time></trkpt><trkpt lat="44.8825966" lon="7.9922132"><ele>239.0</ele><time>2026-05-06T12:56:41.278Z</time></trkpt><trkpt lat="44.8824384" lon="7.9922739"><ele>235.75</ele><time>2026-05-06T12:56:42.277Z</time></trkpt><trkpt lat="44.8822874" lon="7.9923354"><ele>232.5</ele><time>2026-05-06T12:56:43.278Z</time></trkpt><trkpt lat="44.8821541" lon="7.9923894"><ele>229.25</ele><time>2026-05-06T12:56:44.278Z</time></trkpt><trkpt lat="44.8820332" lon="7.9924513"><ele>226.0</ele><time>2026-05-06T12:56:45.277Z</time></trkpt><trkpt lat="44.8819171" lon="7.9925059"><ele>226.0</ele><time>2026-05-06T12:56:46.278Z</time></trkpt><trkpt lat="44.8818146" lon="7.992548"><ele>226.00000000000003</ele><time>2026-05-06T12:56:47.277Z</time></trkpt><trkpt lat="44.8817071" lon="7.992562"><ele>226.00000000000003</ele><time>2026-05-06T12:56:48.278Z</time></trkpt><trkpt lat="44.8816035" lon="7.9925346"><ele>226.0</ele><time>2026-05-06T12:56:49.277Z</time></trkpt><trkpt lat="44.881524" lon="7.992454"><ele>226.0</ele><time>2026-05-06T12:56:50.278Z</time></trkpt><trkpt lat="44.8814643" lon="7.9923561"><ele>224.49999999999997</ele><time>2026-05-06T12:56:51.278Z</time></trkpt><trkpt lat="44.8814289" lon="7.992268"><ele>223.0</ele><time>2026-05-06T12:56:52.278Z</time></trkpt><trkpt lat="44.8814003" lon="7.9921575"><ele>221.5</ele><time>2026-05-06T12:56:54.278Z</time></trkpt><trkpt lat="44.8813351" lon="7.9921034"><ele>220.0</ele><time>2026-05-06T12:56:57.277Z</time></trkpt><trkpt lat="44.8812358" lon="7.9921383"><ele>218.49999999999997</ele><time>2026-05-06T12:56:59.277Z</time></trkpt><trkpt lat="44.8811707" lon="7.9921811"><ele>217.0</ele><time>2026-05-06T12:57:00.277Z</time></trkpt><trkpt lat="44.8810938" lon="7.9922305"><ele>217.0</ele><time>2026-05-06T12:57:01.278Z</time></trkpt><trkpt lat="44.8810046" lon="7.9922917"><ele>217.0</ele><time>2026-05-06T12:57:02.278Z</time></trkpt><trkpt lat="44.8809164" lon="7.9923574"><ele>217.0</ele><time>2026-05-06T12:57:03.278Z</time></trkpt><trkpt lat="44.8808194" lon="7.9924331"><ele>217.0</ele><time>2026-05-06T12:57:04.277Z</time></trkpt><trkpt lat="44.8807215" lon="7.9925082"><ele>217.0</ele><time>2026-05-06T12:57:05.277Z</time></trkpt><trkpt lat="44.8806197" lon="7.9925921"><ele>217.0</ele><time>2026-05-06T12:57:06.278Z</time></trkpt><trkpt lat="44.8805041" lon="7.9926709"><ele>217.0</ele><time>2026-05-06T12:57:07.278Z</time></trkpt><trkpt lat="44.8803699" lon="7.9927418"><ele>217.0</ele><time>2026-05-06T12:57:08.277Z</time></trkpt><trkpt lat="44.8802424" lon="7.9928274"><ele>217.0</ele><time>2026-05-06T12:57:09.277Z</time></trkpt><trkpt lat="44.8801131" lon="7.9929204"><ele>216.25</ele><time>2026-05-06T12:57:10.277Z</time></trkpt><trkpt lat="44.8799881" lon="7.9930129"><ele>215.5</ele><time>2026-05-06T12:57:11.278Z</time></trkpt><trkpt lat="44.8798703" lon="7.9930985"><ele>214.75</ele><time>2026-05-06T12:57:12.277Z</time></trkpt><trkpt lat="44.8797583" lon="7.9931794"><ele>214.0</ele><time>2026-05-06T12:57:13.278Z</time></trkpt><trkpt lat="44.8796454" lon="7.9932741"><ele>215.0</ele><time>2026-05-06T12:57:14.277Z</time></trkpt><trkpt lat="44.8795323" lon="7.9933661"><ele>216.0</ele><time>2026-05-06T12:57:15.277Z</time></trkpt><trkpt lat="44.8794154" lon="7.9934621"><ele>217.0</ele><time>2026-05-06T12:57:16.277Z</time></trkpt><trkpt lat="44.8793" lon="7.9935471"><ele>218.0</ele><time>2026-05-06T12:57:17.277Z</time></trkpt><trkpt lat="44.8791849" lon="7.9936363"><ele>218.0</ele><time>2026-05-06T12:57:18.278Z</time></trkpt><trkpt lat="44.8790644" lon="7.9937224"><ele>218.0</ele><time>2026-05-06T12:57:19.277Z</time></trkpt><trkpt lat="44.8789332" lon="7.9938088"><ele>218.0</ele><time>2026-05-06T12:57:20.277Z</time></trkpt><trkpt lat="44.878811" lon="7.9938952"><ele>218.0</ele><time>2026-05-06T12:57:21.278Z</time></trkpt><trkpt lat="44.8786938" lon="7.9939769"><ele>218.0</ele><time>2026-05-06T12:57:22.278Z</time></trkpt><trkpt lat="44.8785856" lon="7.9940542"><ele>218.0</ele><time>2026-05-06T12:57:23.278Z</time></trkpt><trkpt lat="44.8784721" lon="7.9941231"><ele>218.0</ele><time>2026-05-06T12:57:24.278Z</time></trkpt><trkpt lat="44.878361" lon="7.9942026"><ele>218.0</ele><time>2026-05-06T12:57:25.278Z</time></trkpt><trkpt lat="44.8782645" lon="7.9942692"><ele>218.0</ele><time>2026-05-06T12:57:26.277Z</time></trkpt><trkpt lat="44.8781789" lon="7.9943238"><ele>218.0</ele><time>2026-05-06T12:57:27.278Z</time></trkpt><trkpt lat="44.8780523" lon="7.9943876"><ele>218.0</ele><time>2026-05-06T12:57:29.277Z</time></trkpt><trkpt lat="44.8779526" lon="7.9942698"><ele>218.0</ele><time>2026-05-06T12:57:31.277Z</time></trkpt><trkpt lat="44.8779194" lon="7.99415"><ele>217.75</ele><time>2026-05-06T12:57:32.277Z</time></trkpt><trkpt lat="44.8778726" lon="7.9939977"><ele>217.5</ele><time>2026-05-06T12:57:33.277Z</time></trkpt><trkpt lat="44.877814" lon="7.9938377"><ele>217.25</ele><time>2026-05-06T12:57:34.278Z</time></trkpt><trkpt lat="44.8777548" lon="7.9936784"><ele>217.0</ele><time>2026-05-06T12:57:35.278Z</time></trkpt><trkpt lat="44.8776822" lon="7.9935305"><ele>217.0</ele><time>2026-05-06T12:57:36.278Z</time></trkpt><trkpt lat="44.8776103" lon="7.9934054"><ele>217.0</ele><time>2026-05-06T12:57:37.278Z</time></trkpt><trkpt lat="44.8775561" lon="7.9932823"><ele>217.0</ele><time>2026-05-06T12:57:38.277Z</time></trkpt><trkpt lat="44.8775039" lon="7.9931657"><ele>217.0</ele><time>2026-05-06T12:57:39.278Z</time></trkpt><trkpt lat="44.8774544" lon="7.9930585"><ele>217.0</ele><time>2026-05-06T12:57:40.278Z</time></trkpt><trkpt lat="44.877403" lon="7.9929665"><ele>216.83333333333331</ele><time>2026-05-06T12:57:41.277Z</time></trkpt><trkpt lat="44.8773784" lon="7.9928772"><ele>216.66666666666666</ele><time>2026-05-06T12:57:42.278Z</time></trkpt><trkpt lat="44.8773681" lon="7.99278"><ele>216.5</ele><time>2026-05-06T12:57:43.277Z</time></trkpt><trkpt lat="44.8773834" lon="7.9926654"><ele>216.33333333333331</ele><time>2026-05-06T12:57:44.278Z</time></trkpt><trkpt lat="44.8774155" lon="7.9925454"><ele>216.16666666666666</ele><time>2026-05-06T12:57:45.277Z</time></trkpt><trkpt lat="44.8774429" lon="7.9924198"><ele>216.0</ele><time>2026-05-06T12:57:46.278Z</time></trkpt><trkpt lat="44.8774846" lon="7.9922914"><ele>215.8</ele><time>2026-05-06T12:57:47.278Z</time></trkpt><trkpt lat="44.8775227" lon="7.9921635"><ele>215.60000000000002</ele><time>2026-05-06T12:57:48.277Z</time></trkpt><trkpt lat="44.8775603" lon="7.9920447"><ele>215.4</ele><time>2026-05-06T12:57:49.278Z</time></trkpt><trkpt lat="44.8776131" lon="7.991948"><ele>215.2</ele><time>2026-05-06T12:57:50.278Z</time></trkpt><trkpt lat="44.8776813" lon="7.9918718"><ele>215.0</ele><time>2026-05-06T12:57:51.277Z</time></trkpt><trkpt lat="44.8777683" lon="7.9918068"><ele>214.8</ele><time>2026-05-06T12:57:52.278Z</time></trkpt><trkpt lat="44.8778601" lon="7.9917551"><ele>214.6</ele><time>2026-05-06T12:57:53.277Z</time></trkpt><trkpt lat="44.8779553" lon="7.9916964"><ele>214.39999999999998</ele><time>2026-05-06T12:57:54.277Z</time></trkpt><trkpt lat="44.8780476" lon="7.9916268"><ele>214.2</ele><time>2026-05-06T12:57:55.278Z</time></trkpt><trkpt lat="44.8781232" lon="7.9915438"><ele>214.0</ele><time>2026-05-06T12:57:56.278Z</time></trkpt><trkpt lat="44.8781809" lon="7.9914467"><ele>214.39999999999998</ele><time>2026-05-06T12:57:57.278Z</time></trkpt><trkpt lat="44.8782375" lon="7.9913421"><ele>214.79999999999998</ele><time>2026-05-06T12:57:58.277Z</time></trkpt><trkpt lat="44.8782885" lon="7.9912248"><ele>215.20000000000002</ele><time>2026-05-06T12:57:59.278Z</time></trkpt><trkpt lat="44.8783289" lon="7.9910971"><ele>215.60000000000002</ele><time>2026-05-06T12:58:00.278Z</time></trkpt><trkpt lat="44.8783463" lon="7.9909511"><ele>216.0</ele><time>2026-05-06T12:58:01.278Z</time></trkpt><trkpt lat="44.8783438" lon="7.9907909"><ele>217.5</ele><time>2026-05-06T12:58:02.278Z</time></trkpt><trkpt lat="44.8783407" lon="7.9906191"><ele>219.0</ele><time>2026-05-06T12:58:03.277Z</time></trkpt><trkpt lat="44.8783631" lon="7.9904532"><ele>220.5</ele><time>2026-05-06T12:58:04.278Z</time></trkpt><trkpt lat="44.8784091" lon="7.9903075"><ele>222.0</ele><time>2026-05-06T12:58:05.278Z</time></trkpt><trkpt lat="44.8784455" lon="7.99016"><ele>222.0</ele><time>2026-05-06T12:58:06.278Z</time></trkpt><trkpt lat="44.878465" lon="7.9900278"><ele>222.0</ele><time>2026-05-06T12:58:07.278Z</time></trkpt><trkpt lat="44.8784366" lon="7.9899063"><ele>222.0</ele><time>2026-05-06T12:58:08.278Z</time></trkpt><trkpt lat="44.8783759" lon="7.9898025"><ele>222.0</ele><time>2026-05-06T12:58:09.277Z</time></trkpt><trkpt lat="44.8782917" lon="7.9897044"><ele>222.0</ele><time>2026-05-06T12:58:10.278Z</time></trkpt><trkpt lat="44.8781897" lon="7.9895937"><ele>224.75</ele><time>2026-05-06T12:58:11.278Z</time></trkpt><trkpt lat="44.8780843" lon="7.9894769"><ele>227.5</ele><time>2026-05-06T12:58:12.277Z</time></trkpt><trkpt lat="44.8779761" lon="7.9893593"><ele>230.25</ele><time>2026-05-06T12:58:13.278Z</time></trkpt><trkpt lat="44.8778758" lon="7.9892406"><ele>233.0</ele><time>2026-05-06T12:58:14.278Z</time></trkpt><trkpt lat="44.8777775" lon="7.9891233"><ele>234.25</ele><time>2026-05-06T12:58:15.278Z</time></trkpt><trkpt lat="44.8776811" lon="7.9889993"><ele>235.5</ele><time>2026-05-06T12:58:16.278Z</time></trkpt><trkpt lat="44.8775994" lon="7.9888595"><ele>236.75</ele><time>2026-05-06T12:58:17.278Z</time></trkpt><trkpt lat="44.8775379" lon="7.9887028"><ele>238.0</ele><time>2026-05-06T12:58:18.278Z</time></trkpt><trkpt lat="44.8774783" lon="7.9885368"><ele>239.75</ele><time>2026-05-06T12:58:19.278Z</time></trkpt><trkpt lat="44.8774112" lon="7.9883791"><ele>241.5</ele><time>2026-05-06T12:58:20.278Z</time></trkpt><trkpt lat="44.877341" lon="7.9882333"><ele>243.25</ele><time>2026-05-06T12:58:21.278Z</time></trkpt><trkpt lat="44.8772529" lon="7.9880931"><ele>245.0</ele><time>2026-05-06T12:58:22.277Z</time></trkpt><trkpt lat="44.8771482" lon="7.9879617"><ele>247.75</ele><time>2026-05-06T12:58:23.278Z</time></trkpt><trkpt lat="44.8770313" lon="7.987852"><ele>250.5</ele><time>2026-05-06T12:58:24.277Z</time></trkpt><trkpt lat="44.876907" lon="7.9877517"><ele>253.25</ele><time>2026-05-06T12:58:25.277Z</time></trkpt><trkpt lat="44.8767789" lon="7.9876333"><ele>256.0</ele><time>2026-05-06T12:58:26.277Z</time></trkpt><trkpt lat="44.8766601" lon="7.9875076"><ele>258.75</ele><time>2026-05-06T12:58:27.278Z</time></trkpt><trkpt lat="44.8765383" lon="7.9874038"><ele>261.5</ele><time>2026-05-06T12:58:28.278Z</time></trkpt><trkpt lat="44.8764145" lon="7.9873188"><ele>264.25</ele><time>2026-05-06T12:58:29.277Z</time></trkpt><trkpt lat="44.8762952" lon="7.9872462"><ele>267.0</ele><time>2026-05-06T12:58:30.277Z</time></trkpt><trkpt lat="44.8761736" lon="7.9871833"><ele>267.0</ele><time>2026-05-06T12:58:31.277Z</time></trkpt><trkpt lat="44.8760336" lon="7.9871144"><ele>267.0</ele><time>2026-05-06T12:58:32.277Z</time></trkpt><trkpt lat="44.8758704" lon="7.987054"><ele>267.0</ele><time>2026-05-06T12:58:33.278Z</time></trkpt><trkpt lat="44.8757254" lon="7.986996"><ele>269.25</ele><time>2026-05-06T12:58:34.278Z</time></trkpt><trkpt lat="44.8755862" lon="7.986935"><ele>271.5</ele><time>2026-05-06T12:58:35.277Z</time></trkpt><trkpt lat="44.8754473" lon="7.9868658"><ele>273.75</ele><time>2026-05-06T12:58:36.277Z</time></trkpt><trkpt lat="44.8753141" lon="7.9867856"><ele>276.0</ele><time>2026-05-06T12:58:37.278Z</time></trkpt><trkpt lat="44.8751996" lon="7.9867024"><ele>276.75</ele><time>2026-05-06T12:58:38.277Z</time></trkpt><trkpt lat="44.875087" lon="7.9865897"><ele>277.5</ele><time>2026-05-06T12:58:39.278Z</time></trkpt><trkpt lat="44.8750062" lon="7.9864554"><ele>278.25</ele><time>2026-05-06T12:58:40.277Z</time></trkpt><trkpt lat="44.8749449" lon="7.9862883"><ele>279.0</ele><time>2026-05-06T12:58:41.278Z</time></trkpt><trkpt lat="44.8749016" lon="7.9861274"><ele>279.0</ele><time>2026-05-06T12:58:42.278Z</time></trkpt><trkpt lat="44.8748723" lon="7.9859436"><ele>279.0</ele><time>2026-05-06T12:58:43.278Z</time></trkpt><trkpt lat="44.8748443" lon="7.9857596"><ele>279.0</ele><time>2026-05-06T12:58:44.278Z</time></trkpt><trkpt lat="44.8748024" lon="7.9855586"><ele>279.0</ele><time>2026-05-06T12:58:45.277Z</time></trkpt><trkpt lat="44.8747374" lon="7.9853868"><ele>280.25</ele><time>2026-05-06T12:58:46.277Z</time></trkpt><trkpt lat="44.8746703" lon="7.9852292"><ele>281.5</ele><time>2026-05-06T12:58:47.277Z</time></trkpt><trkpt lat="44.8746092" lon="7.9850539"><ele>282.75</ele><time>2026-05-06T12:58:48.277Z</time></trkpt><trkpt lat="44.8745787" lon="7.98487"><ele>284.0</ele><time>2026-05-06T12:58:49.278Z</time></trkpt><trkpt lat="44.8745635" lon="7.9846894"><ele>284.2</ele><time>2026-05-06T12:58:50.278Z</time></trkpt><trkpt lat="44.8745508" lon="7.9845262"><ele>284.4</ele><time>2026-05-06T12:58:51.278Z</time></trkpt><trkpt lat="44.8745273" lon="7.9843836"><ele>284.6</ele><time>2026-05-06T12:58:52.277Z</time></trkpt><trkpt lat="44.8744871" lon="7.984246"><ele>284.8</ele><time>2026-05-06T12:58:53.278Z</time></trkpt><trkpt lat="44.8744369" lon="7.9841181"><ele>285.0</ele><time>2026-05-06T12:58:54.277Z</time></trkpt><trkpt lat="44.8743516" lon="7.9840044"><ele>288.5</ele><time>2026-05-06T12:58:55.278Z</time></trkpt><trkpt lat="44.8742426" lon="7.9839001"><ele>292.0</ele><time>2026-05-06T12:58:56.277Z</time></trkpt><trkpt lat="44.8741308" lon="7.9837985"><ele>295.5</ele><time>2026-05-06T12:58:57.278Z</time></trkpt><trkpt lat="44.8740117" lon="7.9836933"><ele>299.0</ele><time>2026-05-06T12:58:58.278Z</time></trkpt><trkpt lat="44.8738809" lon="7.9835978"><ele>299.0</ele><time>2026-05-06T12:58:59.278Z</time></trkpt><trkpt lat="44.8737408" lon="7.9835236"><ele>299.0</ele><time>2026-05-06T12:59:00.277Z</time></trkpt><trkpt lat="44.8735996" lon="7.9834723"><ele>299.0</ele><time>2026-05-06T12:59:01.278Z</time></trkpt><trkpt lat="44.8734506" lon="7.9834297"><ele>299.0</ele><time>2026-05-06T12:59:02.278Z</time></trkpt><trkpt lat="44.8733092" lon="7.9833981"><ele>299.0</ele><time>2026-05-06T12:59:03.278Z</time></trkpt><trkpt lat="44.8731829" lon="7.9833552"><ele>299.0</ele><time>2026-05-06T12:59:04.277Z</time></trkpt><trkpt lat="44.8730786" lon="7.9832741"><ele>299.0</ele><time>2026-05-06T12:59:05.277Z</time></trkpt><trkpt lat="44.8729612" lon="7.9831595"><ele>299.0</ele><time>2026-05-06T12:59:06.278Z</time></trkpt><trkpt lat="44.8728507" lon="7.9830214"><ele>299.25</ele><time>2026-05-06T12:59:07.277Z</time></trkpt><trkpt lat="44.8727503" lon="7.9828722"><ele>299.5</ele><time>2026-05-06T12:59:08.278Z</time></trkpt><trkpt lat="44.8726655" lon="7.9827145"><ele>299.75</ele><time>2026-05-06T12:59:09.278Z</time></trkpt><trkpt lat="44.8725652" lon="7.9825598"><ele>300.0</ele><time>2026-05-06T12:59:10.278Z</time></trkpt><trkpt lat="44.8724535" lon="7.9824129"><ele>298.6666666666667</ele><time>2026-05-06T12:59:11.278Z</time></trkpt><trkpt lat="44.8723269" lon="7.9822884"><ele>297.33333333333337</ele><time>2026-05-06T12:59:12.277Z</time></trkpt><trkpt lat="44.872183" lon="7.9821942"><ele>296.0</ele><time>2026-05-06T12:59:13.277Z</time></trkpt><trkpt lat="44.8720497" lon="7.9821132"><ele>296.0</ele><time>2026-05-06T12:59:14.277Z</time></trkpt><trkpt lat="44.8719137" lon="7.9820319"><ele>296.0</ele><time>2026-05-06T12:59:15.278Z</time></trkpt><trkpt lat="44.8717876" lon="7.981941"><ele>296.0</ele><time>2026-05-06T12:59:16.277Z</time></trkpt><trkpt lat="44.871678" lon="7.9818341"><ele>296.0</ele><time>2026-05-06T12:59:17.278Z</time></trkpt><trkpt lat="44.8715875" lon="7.9816889"><ele>294.0</ele><time>2026-05-06T12:59:18.277Z</time></trkpt><trkpt lat="44.8715242" lon="7.9815059"><ele>292.0</ele><time>2026-05-06T12:59:19.277Z</time></trkpt><trkpt lat="44.8714788" lon="7.9813093"><ele>290.0</ele><time>2026-05-06T12:59:20.278Z</time></trkpt><trkpt lat="44.8714195" lon="7.981105"><ele>288.0</ele><time>2026-05-06T12:59:21.277Z</time></trkpt><trkpt lat="44.8713289" lon="7.9809204"><ele>286.3333333333333</ele><time>2026-05-06T12:59:22.278Z</time></trkpt><trkpt lat="44.8712216" lon="7.9807294"><ele>284.66666666666663</ele><time>2026-05-06T12:59:23.278Z</time></trkpt><trkpt lat="44.8711207" lon="7.9805248"><ele>283.0</ele><time>2026-05-06T12:59:24.277Z</time></trkpt><trkpt lat="44.8710109" lon="7.9803105"><ele>284.66666666666663</ele><time>2026-05-06T12:59:25.278Z</time></trkpt><trkpt lat="44.8708989" lon="7.980108"><ele>286.3333333333333</ele><time>2026-05-06T12:59:26.277Z</time></trkpt><trkpt lat="44.8707851" lon="7.9799019"><ele>288.0</ele><time>2026-05-06T12:59:27.278Z</time></trkpt><trkpt lat="44.8706652" lon="7.9797046"><ele>289.0</ele><time>2026-05-06T12:59:28.277Z</time></trkpt><trkpt lat="44.8705433" lon="7.979518"><ele>290.0</ele><time>2026-05-06T12:59:29.277Z</time></trkpt><trkpt lat="44.8704319" lon="7.9793424"><ele>291.0</ele><time>2026-05-06T12:59:30.278Z</time></trkpt><trkpt lat="44.8703336" lon="7.9791702"><ele>291.0</ele><time>2026-05-06T12:59:31.278Z</time></trkpt><trkpt lat="44.8702446" lon="7.9789981"><ele>291.0</ele><time>2026-05-06T12:59:32.278Z</time></trkpt><trkpt lat="44.8701759" lon="7.9788268"><ele>291.0</ele><time>2026-05-06T12:59:33.277Z</time></trkpt><trkpt lat="44.8701295" lon="7.9786589"><ele>291.0</ele><time>2026-05-06T12:59:34.278Z</time></trkpt><trkpt lat="44.8700815" lon="7.9784762"><ele>293.3333333333333</ele><time>2026-05-06T12:59:35.277Z</time></trkpt><trkpt lat="44.8700252" lon="7.9782892"><ele>295.66666666666663</ele><time>2026-05-06T12:59:36.278Z</time></trkpt><trkpt lat="44.8699649" lon="7.9780838"><ele>298.0</ele><time>2026-05-06T12:59:37.278Z</time></trkpt><trkpt lat="44.8699066" lon="7.9778713"><ele>298.0</ele><time>2026-05-06T12:59:38.278Z</time></trkpt><trkpt lat="44.869854" lon="7.9776525"><ele>298.0</ele><time>2026-05-06T12:59:39.278Z</time></trkpt><trkpt lat="44.8698023" lon="7.9774261"><ele>298.0</ele><time>2026-05-06T12:59:40.278Z</time></trkpt><trkpt lat="44.8697511" lon="7.9772019"><ele>297.75</ele><time>2026-05-06T12:59:41.278Z</time></trkpt><trkpt lat="44.8697014" lon="7.9769871"><ele>297.5</ele><time>2026-05-06T12:59:42.278Z</time></trkpt><trkpt lat="44.8696472" lon="7.9767891"><ele>297.25</ele><time>2026-05-06T12:59:43.278Z</time></trkpt><trkpt lat="44.8695993" lon="7.9766168"><ele>297.0</ele><time>2026-05-06T12:59:44.278Z</time></trkpt><trkpt lat="44.8695537" lon="7.9764712"><ele>298.75</ele><time>2026-05-06T12:59:45.277Z</time></trkpt><trkpt lat="44.8695093" lon="7.9763223"><ele>300.5</ele><time>2026-05-06T12:59:46.278Z</time></trkpt><trkpt lat="44.8694814" lon="7.9761441"><ele>302.25</ele><time>2026-05-06T12:59:47.278Z</time></trkpt><trkpt lat="44.8694759" lon="7.9759371"><ele>304.0</ele><time>2026-05-06T12:59:48.277Z</time></trkpt><trkpt lat="44.8694956" lon="7.9757223"><ele>304.0</ele><time>2026-05-06T12:59:49.277Z</time></trkpt><trkpt lat="44.8695332" lon="7.9754968"><ele>304.0</ele><time>2026-05-06T12:59:50.278Z</time></trkpt><trkpt lat="44.8695645" lon="7.975257"><ele>304.0</ele><time>2026-05-06T12:59:51.277Z</time></trkpt><trkpt lat="44.8696034" lon="7.9750135"><ele>300.3333333333333</ele><time>2026-05-06T12:59:52.278Z</time></trkpt><trkpt lat="44.8696509" lon="7.9747631"><ele>296.6666666666667</ele><time>2026-05-06T12:59:53.277Z</time></trkpt><trkpt lat="44.8697043" lon="7.9745235"><ele>293.0</ele><time>2026-05-06T12:59:54.278Z</time></trkpt><trkpt lat="44.8697575" lon="7.9742862"><ele>292.33333333333337</ele><time>2026-05-06T12:59:55.277Z</time></trkpt><trkpt lat="44.8698051" lon="7.9740515"><ele>291.6666666666667</ele><time>2026-05-06T12:59:56.277Z</time></trkpt><trkpt lat="44.8698364" lon="7.9738132"><ele>291.0</ele><time>2026-05-06T12:59:57.278Z</time></trkpt><trkpt lat="44.8698596" lon="7.9735759"><ele>290.6666666666667</ele><time>2026-05-06T12:59:58.278Z</time></trkpt><trkpt lat="44.8698515" lon="7.9733402"><ele>290.33333333333337</ele><time>2026-05-06T12:59:59.278Z</time></trkpt><trkpt lat="44.8698258" lon="7.9731041"><ele>290.0</ele><time>2026-05-06T13:00:00.277Z</time></trkpt><trkpt lat="44.8697625" lon="7.9728721"><ele>290.0</ele><time>2026-05-06T13:00:01.277Z</time></trkpt><trkpt lat="44.8696619" lon="7.9726775"><ele>290.0</ele><time>2026-05-06T13:00:02.278Z</time></trkpt><trkpt lat="44.8695531" lon="7.9724966"><ele>290.0</ele><time>2026-05-06T13:00:03.277Z</time></trkpt><trkpt lat="44.8694391" lon="7.9723286"><ele>291.0</ele><time>2026-05-06T13:00:04.278Z</time></trkpt><trkpt lat="44.8693327" lon="7.9721543"><ele>292.0</ele><time>2026-05-06T13:00:05.278Z</time></trkpt><trkpt lat="44.8692449" lon="7.9719603"><ele>293.0</ele><time>2026-05-06T13:00:06.278Z</time></trkpt><trkpt lat="44.8691808" lon="7.971755"><ele>298.33333333333337</ele><time>2026-05-06T13:00:07.277Z</time></trkpt><trkpt lat="44.869114" lon="7.9715535"><ele>303.6666666666667</ele><time>2026-05-06T13:00:08.278Z</time></trkpt><trkpt lat="44.8690638" lon="7.9713563"><ele>309.0</ele><time>2026-05-06T13:00:09.277Z</time></trkpt><trkpt lat="44.869047" lon="7.9711525"><ele>309.0</ele><time>2026-05-06T13:00:10.278Z</time></trkpt><trkpt lat="44.8690503" lon="7.9709518"><ele>309.0</ele><time>2026-05-06T13:00:11.277Z</time></trkpt><trkpt lat="44.8690546" lon="7.9707669"><ele>309.0</ele><time>2026-05-06T13:00:12.278Z</time></trkpt><trkpt lat="44.8690525" lon="7.9705921"><ele>309.0</ele><time>2026-05-06T13:00:13.278Z</time></trkpt><trkpt lat="44.869044" lon="7.9704114"><ele>310.75</ele><time>2026-05-06T13:00:14.278Z</time></trkpt><trkpt lat="44.8690179" lon="7.9702481"><ele>312.5</ele><time>2026-05-06T13:00:15.277Z</time></trkpt><trkpt lat="44.8689901" lon="7.9700828"><ele>314.25</ele><time>2026-05-06T13:00:16.278Z</time></trkpt><trkpt lat="44.8689443" lon="7.9699164"><ele>316.0</ele><time>2026-05-06T13:00:17.277Z</time></trkpt><trkpt lat="44.8688976" lon="7.9697435"><ele>316.0</ele><time>2026-05-06T13:00:18.278Z</time></trkpt><trkpt lat="44.8688407" lon="7.9695638"><ele>316.0</ele><time>2026-05-06T13:00:19.278Z</time></trkpt><trkpt lat="44.8687848" lon="7.9693847"><ele>316.0</ele><time>2026-05-06T13:00:20.278Z</time></trkpt><trkpt lat="44.8687373" lon="7.9691942"><ele>316.0</ele><time>2026-05-06T13:00:21.278Z</time></trkpt><trkpt lat="44.8687057" lon="7.9689996"><ele>316.25</ele><time>2026-05-06T13:00:22.278Z</time></trkpt><trkpt lat="44.8686815" lon="7.9688082"><ele>316.5</ele><time>2026-05-06T13:00:23.277Z</time></trkpt><trkpt lat="44.86865" lon="7.9686178"><ele>316.75</ele><time>2026-05-06T13:00:24.278Z</time></trkpt><trkpt lat="44.8686184" lon="7.9684238"><ele>317.0</ele><time>2026-05-06T13:00:25.278Z</time></trkpt><trkpt lat="44.8685959" lon="7.9682272"><ele>317.25</ele><time>2026-05-06T13:00:26.278Z</time></trkpt><trkpt lat="44.8685801" lon="7.9680331"><ele>317.5</ele><time>2026-05-06T13:00:27.277Z</time></trkpt><trkpt lat="44.8685777" lon="7.9678306"><ele>317.75</ele><time>2026-05-06T13:00:28.278Z</time></trkpt><trkpt lat="44.8685838" lon="7.9676224"><ele>318.0</ele><time>2026-05-06T13:00:29.277Z</time></trkpt><trkpt lat="44.8686083" lon="7.9674128"><ele>317.25</ele><time>2026-05-06T13:00:30.277Z</time></trkpt><trkpt lat="44.8686521" lon="7.9672083"><ele>316.5</ele><time>2026-05-06T13:00:31.278Z</time></trkpt><trkpt lat="44.8686889" lon="7.9670063"><ele>315.75</ele><time>2026-05-06T13:00:32.278Z</time></trkpt><trkpt lat="44.8687279" lon="7.9668157"><ele>315.0</ele><time>2026-05-06T13:00:33.278Z</time></trkpt><trkpt lat="44.8687648" lon="7.9666293"><ele>315.0</ele><time>2026-05-06T13:00:34.278Z</time></trkpt><trkpt lat="44.8687908" lon="7.966456"><ele>315.0</ele><time>2026-05-06T13:00:35.277Z</time></trkpt><trkpt lat="44.8687922" lon="7.9662731"><ele>315.0</ele><time>2026-05-06T13:00:36.278Z</time></trkpt><trkpt lat="44.8687668" lon="7.9660918"><ele>315.0</ele><time>2026-05-06T13:00:37.278Z</time></trkpt><trkpt lat="44.8687094" lon="7.9659223"><ele>315.75</ele><time>2026-05-06T13:00:38.278Z</time></trkpt><trkpt lat="44.8686428" lon="7.9657588"><ele>316.5</ele><time>2026-05-06T13:00:39.277Z</time></trkpt><trkpt lat="44.868573" lon="7.9655786"><ele>317.25</ele><time>2026-05-06T13:00:40.277Z</time></trkpt><trkpt lat="44.8685192" lon="7.9653976"><ele>318.0</ele><time>2026-05-06T13:00:41.278Z</time></trkpt><trkpt lat="44.8684747" lon="7.9652155"><ele>317.75</ele><time>2026-05-06T13:00:42.277Z</time></trkpt><trkpt lat="44.868456" lon="7.9650282"><ele>317.5</ele><time>2026-05-06T13:00:43.277Z</time></trkpt><trkpt lat="44.8684451" lon="7.9648421"><ele>317.25</ele><time>2026-05-06T13:00:44.277Z</time></trkpt><trkpt lat="44.868432" lon="7.9646583"><ele>317.0</ele><time>2026-05-06T13:00:45.278Z</time></trkpt><trkpt lat="44.8684187" lon="7.9644891"><ele>318.2</ele><time>2026-05-06T13:00:46.278Z</time></trkpt><trkpt lat="44.8684008" lon="7.9643269"><ele>319.4</ele><time>2026-05-06T13:00:47.278Z</time></trkpt><trkpt lat="44.8683888" lon="7.9641866"><ele>320.59999999999997</ele><time>2026-05-06T13:00:48.278Z</time></trkpt><trkpt lat="44.8683755" lon="7.9640886"><ele>321.79999999999995</ele><time>2026-05-06T13:00:49.277Z</time></trkpt><trkpt lat="44.8683452" lon="7.9639784"><ele>323.0</ele><time>2026-05-06T13:00:51.278Z</time></trkpt><trkpt lat="44.8682911" lon="7.9638977"><ele>323.0</ele><time>2026-05-06T13:00:53.277Z</time></trkpt><trkpt lat="44.8682353" lon="7.9638441"><ele>323.0</ele><time>2026-05-06T13:00:54.278Z</time></trkpt><trkpt lat="44.8681534" lon="7.9637896"><ele>323.0</ele><time>2026-05-06T13:00:55.278Z</time></trkpt><trkpt lat="44.8680651" lon="7.9637461"><ele>323.0</ele><time>2026-05-06T13:00:56.278Z</time></trkpt><trkpt lat="44.8679682" lon="7.9637262"><ele>323.0</ele><time>2026-05-06T13:00:57.278Z</time></trkpt><trkpt lat="44.8678612" lon="7.9637395"><ele>323.0</ele><time>2026-05-06T13:00:58.277Z</time></trkpt><trkpt lat="44.8677307" lon="7.9637816"><ele>323.0</ele><time>2026-05-06T13:00:59.277Z</time></trkpt><trkpt lat="44.8676043" lon="7.9638417"><ele>323.0</ele><time>2026-05-06T13:01:00.277Z</time></trkpt><trkpt lat="44.8674669" lon="7.9638989"><ele>323.0</ele><time>2026-05-06T13:01:01.278Z</time></trkpt><trkpt lat="44.8673311" lon="7.9639469"><ele>322.5</ele><time>2026-05-06T13:01:02.278Z</time></trkpt><trkpt lat="44.8671992" lon="7.9640007"><ele>322.0</ele><time>2026-05-06T13:01:03.277Z</time></trkpt><trkpt lat="44.8670664" lon="7.964053"><ele>321.5</ele><time>2026-05-06T13:01:04.277Z</time></trkpt><trkpt lat="44.8669417" lon="7.964108"><ele>321.0</ele><time>2026-05-06T13:01:05.278Z</time></trkpt><trkpt lat="44.8668177" lon="7.9641552"><ele>317.5</ele><time>2026-05-06T13:01:06.278Z</time></trkpt><trkpt lat="44.8666849" lon="7.964206"><ele>314.0</ele><time>2026-05-06T13:01:07.278Z</time></trkpt><trkpt lat="44.8665435" lon="7.964246"><ele>310.5</ele><time>2026-05-06T13:01:08.278Z</time></trkpt><trkpt lat="44.8663945" lon="7.9642808"><ele>307.0</ele><time>2026-05-06T13:01:09.278Z</time></trkpt><trkpt lat="44.8662396" lon="7.9643218"><ele>307.0</ele><time>2026-05-06T13:01:10.278Z</time></trkpt><trkpt lat="44.8660954" lon="7.964378"><ele>307.0</ele><time>2026-05-06T13:01:11.277Z</time></trkpt><trkpt lat="44.8659496" lon="7.9644683"><ele>307.0</ele><time>2026-05-06T13:01:12.277Z</time></trkpt><trkpt lat="44.8657991" lon="7.9645866"><ele>307.0</ele><time>2026-05-06T13:01:13.277Z</time></trkpt><trkpt lat="44.8656372" lon="7.9646788"><ele>307.0</ele><time>2026-05-06T13:01:14.278Z</time></trkpt><trkpt lat="44.8654653" lon="7.9647406"><ele>307.0</ele><time>2026-05-06T13:01:15.277Z</time></trkpt><trkpt lat="44.8652905" lon="7.9647707"><ele>307.0</ele><time>2026-05-06T13:01:16.277Z</time></trkpt><trkpt lat="44.8651134" lon="7.9647904"><ele>307.0</ele><time>2026-05-06T13:01:17.278Z</time></trkpt><trkpt lat="44.8649338" lon="7.9648125"><ele>307.0</ele><time>2026-05-06T13:01:18.278Z</time></trkpt><trkpt lat="44.8647521" lon="7.964842"><ele>309.0</ele><time>2026-05-06T13:01:19.278Z</time></trkpt><trkpt lat="44.864579" lon="7.9648613"><ele>311.0</ele><time>2026-05-06T13:01:20.277Z</time></trkpt><trkpt lat="44.8644141" lon="7.9648286"><ele>313.0</ele><time>2026-05-06T13:01:21.278Z</time></trkpt><trkpt lat="44.864267" lon="7.9647321"><ele>313.0</ele><time>2026-05-06T13:01:22.278Z</time></trkpt><trkpt lat="44.8641452" lon="7.9645946"><ele>313.0</ele><time>2026-05-06T13:01:23.278Z</time></trkpt><trkpt lat="44.8640264" lon="7.9644463"><ele>313.0</ele><time>2026-05-06T13:01:24.278Z</time></trkpt><trkpt lat="44.8639166" lon="7.9642846"><ele>315.3333333333333</ele><time>2026-05-06T13:01:25.278Z</time></trkpt><trkpt lat="44.8638352" lon="7.9640973"><ele>317.6666666666667</ele><time>2026-05-06T13:01:26.278Z</time></trkpt><trkpt lat="44.8637774" lon="7.9638828"><ele>320.0</ele><time>2026-05-06T13:01:27.278Z</time></trkpt><trkpt lat="44.8637308" lon="7.9636546"><ele>320.0</ele><time>2026-05-06T13:01:28.277Z</time></trkpt><trkpt lat="44.8636751" lon="7.9634284"><ele>320.0</ele><time>2026-05-06T13:01:29.276Z</time></trkpt><trkpt lat="44.8636266" lon="7.9632063"><ele>320.0</ele><time>2026-05-06T13:01:30.276Z</time></trkpt><trkpt lat="44.8635771" lon="7.9629797"><ele>320.0</ele><time>2026-05-06T13:01:31.277Z</time></trkpt><trkpt lat="44.8635236" lon="7.9627619"><ele>320.0</ele><time>2026-05-06T13:01:32.277Z</time></trkpt><trkpt lat="44.8634745" lon="7.9625586"><ele>320.0</ele><time>2026-05-06T13:01:33.277Z</time></trkpt><trkpt lat="44.8633981" lon="7.9623744"><ele>320.0</ele><time>2026-05-06T13:01:34.277Z</time></trkpt><trkpt lat="44.8632809" lon="7.9622175"><ele>320.0</ele><time>2026-05-06T13:01:35.277Z</time></trkpt><trkpt lat="44.863125" lon="7.9620984"><ele>320.0</ele><time>2026-05-06T13:01:36.276Z</time></trkpt><trkpt lat="44.8629523" lon="7.9620413"><ele>320.0</ele><time>2026-05-06T13:01:37.276Z</time></trkpt><trkpt lat="44.8627739" lon="7.9620078"><ele>320.0</ele><time>2026-05-06T13:01:38.276Z</time></trkpt><trkpt lat="44.8626067" lon="7.9619694"><ele>320.0</ele><time>2026-05-06T13:01:39.277Z</time></trkpt><trkpt lat="44.8624368" lon="7.9619317"><ele>318.0</ele><time>2026-05-06T13:01:40.276Z</time></trkpt><trkpt lat="44.8622651" lon="7.9618716"><ele>316.0</ele><time>2026-05-06T13:01:41.277Z</time></trkpt><trkpt lat="44.862085" lon="7.9618123"><ele>314.0</ele><time>2026-05-06T13:01:42.277Z</time></trkpt><trkpt lat="44.8619142" lon="7.9617536"><ele>314.0</ele><time>2026-05-06T13:01:43.277Z</time></trkpt><trkpt lat="44.8617481" lon="7.9617006"><ele>314.0</ele><time>2026-05-06T13:01:44.277Z</time></trkpt><trkpt lat="44.861583" lon="7.9616387"><ele>314.0</ele><time>2026-05-06T13:01:45.276Z</time></trkpt><trkpt lat="44.8614305" lon="7.9616022"><ele>314.6666666666667</ele><time>2026-05-06T13:01:46.276Z</time></trkpt><trkpt lat="44.8612682" lon="7.9616071"><ele>315.3333333333333</ele><time>2026-05-06T13:01:47.277Z</time></trkpt><trkpt lat="44.8611038" lon="7.9616464"><ele>316.0</ele><time>2026-05-06T13:01:48.276Z</time></trkpt><trkpt lat="44.8609458" lon="7.9617091"><ele>316.0</ele><time>2026-05-06T13:01:49.277Z</time></trkpt><trkpt lat="44.8607834" lon="7.9617811"><ele>316.0</ele><time>2026-05-06T13:01:50.277Z</time></trkpt><trkpt lat="44.8606078" lon="7.9618275"><ele>316.0</ele><time>2026-05-06T13:01:51.277Z</time></trkpt><trkpt lat="44.8604257" lon="7.9618443"><ele>316.0</ele><time>2026-05-06T13:01:52.277Z</time></trkpt><trkpt lat="44.8602401" lon="7.9618541"><ele>316.0</ele><time>2026-05-06T13:01:53.276Z</time></trkpt><trkpt lat="44.8600496" lon="7.9618633"><ele>316.0</ele><time>2026-05-06T13:01:54.276Z</time></trkpt><trkpt lat="44.8598695" lon="7.9618746"><ele>317.66666666666663</ele><time>2026-05-06T13:01:55.277Z</time></trkpt><trkpt lat="44.8596859" lon="7.9618677"><ele>319.3333333333333</ele><time>2026-05-06T13:01:56.277Z</time></trkpt><trkpt lat="44.8595003" lon="7.9618655"><ele>321.0</ele><time>2026-05-06T13:01:57.276Z</time></trkpt><trkpt lat="44.8593143" lon="7.9618609"><ele>319.75</ele><time>2026-05-06T13:01:58.276Z</time></trkpt><trkpt lat="44.8591557" lon="7.9618749"><ele>318.5</ele><time>2026-05-06T13:01:59.276Z</time></trkpt><trkpt lat="44.8590009" lon="7.9618818"><ele>317.25</ele><time>2026-05-06T13:02:00.277Z</time></trkpt><trkpt lat="44.8588732" lon="7.9618586"><ele>316.0</ele><time>2026-05-06T13:02:01.276Z</time></trkpt><trkpt lat="44.8587641" lon="7.9617936"><ele>318.75</ele><time>2026-05-06T13:02:02.276Z</time></trkpt><trkpt lat="44.8586644" lon="7.9616744"><ele>321.5</ele><time>2026-05-06T13:02:03.276Z</time></trkpt><trkpt lat="44.858592" lon="7.9615102"><ele>324.25</ele><time>2026-05-06T13:02:04.277Z</time></trkpt><trkpt lat="44.8585716" lon="7.961297"><ele>327.0</ele><time>2026-05-06T13:02:05.277Z</time></trkpt><trkpt lat="44.858567" lon="7.961066"><ele>327.6666666666667</ele><time>2026-05-06T13:02:06.276Z</time></trkpt><trkpt lat="44.8585734" lon="7.960823"><ele>328.33333333333337</ele><time>2026-05-06T13:02:07.277Z</time></trkpt><trkpt lat="44.8585614" lon="7.960609"><ele>329.0</ele><time>2026-05-06T13:02:08.277Z</time></trkpt><trkpt lat="44.858539" lon="7.9604127"><ele>329.0</ele><time>2026-05-06T13:02:09.277Z</time></trkpt><trkpt lat="44.8584828" lon="7.9602348"><ele>329.0</ele><time>2026-05-06T13:02:10.277Z</time></trkpt><trkpt lat="44.8583821" lon="7.9600874"><ele>329.0</ele><time>2026-05-06T13:02:11.276Z</time></trkpt><trkpt lat="44.858243" lon="7.9599781"><ele>329.0</ele><time>2026-05-06T13:02:12.276Z</time></trkpt><trkpt lat="44.8580939" lon="7.9599226"><ele>326.33333333333337</ele><time>2026-05-06T13:02:13.276Z</time></trkpt><trkpt lat="44.8579348" lon="7.9598686"><ele>323.6666666666667</ele><time>2026-05-06T13:02:14.277Z</time></trkpt><trkpt lat="44.8577698" lon="7.9598023"><ele>321.0</ele><time>2026-05-06T13:02:15.277Z</time></trkpt><trkpt lat="44.8575979" lon="7.9597519"><ele>321.0</ele><time>2026-05-06T13:02:16.276Z</time></trkpt><trkpt lat="44.8574107" lon="7.9597238"><ele>321.0</ele><time>2026-05-06T13:02:17.277Z</time></trkpt><trkpt lat="44.857221" lon="7.9597142"><ele>321.0</ele><time>2026-05-06T13:02:18.277Z</time></trkpt><trkpt lat="44.8570261" lon="7.9597"><ele>321.0</ele><time>2026-05-06T13:02:19.277Z</time></trkpt><trkpt lat="44.8568299" lon="7.9596617"><ele>321.0</ele><time>2026-05-06T13:02:20.276Z</time></trkpt><trkpt lat="44.8566338" lon="7.9595798"><ele>321.0</ele><time>2026-05-06T13:02:21.277Z</time></trkpt><trkpt lat="44.856456" lon="7.9594493"><ele>320.6666666666667</ele><time>2026-05-06T13:02:22.277Z</time></trkpt><trkpt lat="44.8563069" lon="7.9592682"><ele>320.33333333333337</ele><time>2026-05-06T13:02:23.277Z</time></trkpt><trkpt lat="44.8561747" lon="7.9590835"><ele>320.0</ele><time>2026-05-06T13:02:24.277Z</time></trkpt><trkpt lat="44.8560401" lon="7.9589097"><ele>321.33333333333337</ele><time>2026-05-06T13:02:25.277Z</time></trkpt><trkpt lat="44.8559031" lon="7.9587479"><ele>322.6666666666667</ele><time>2026-05-06T13:02:26.276Z</time></trkpt><trkpt lat="44.8557662" lon="7.9585841"><ele>324.0</ele><time>2026-05-06T13:02:27.277Z</time></trkpt><trkpt lat="44.855642" lon="7.958422"><ele>325.3333333333333</ele><time>2026-05-06T13:02:28.277Z</time></trkpt><trkpt lat="44.8555245" lon="7.9582605"><ele>326.66666666666663</ele><time>2026-05-06T13:02:29.277Z</time></trkpt><trkpt lat="44.8554212" lon="7.9580862"><ele>328.0</ele><time>2026-05-06T13:02:30.277Z</time></trkpt><trkpt lat="44.8553283" lon="7.9579098"><ele>328.0</ele><time>2026-05-06T13:02:31.277Z</time></trkpt><trkpt lat="44.8552345" lon="7.9577357"><ele>328.0</ele><time>2026-05-06T13:02:32.277Z</time></trkpt><trkpt lat="44.8551331" lon="7.9575657"><ele>328.0</ele><time>2026-05-06T13:02:33.277Z</time></trkpt><trkpt lat="44.8550141" lon="7.9574114"><ele>329.66666666666663</ele><time>2026-05-06T13:02:34.277Z</time></trkpt><trkpt lat="44.8548796" lon="7.9572927"><ele>331.3333333333333</ele><time>2026-05-06T13:02:35.277Z</time></trkpt><trkpt lat="44.8547346" lon="7.9571793"><ele>333.0</ele><time>2026-05-06T13:02:36.276Z</time></trkpt><trkpt lat="44.8545814" lon="7.9570509"><ele>333.0</ele><time>2026-05-06T13:02:37.277Z</time></trkpt><trkpt lat="44.8544186" lon="7.9569295"><ele>333.0</ele><time>2026-05-06T13:02:38.276Z</time></trkpt><trkpt lat="44.8542623" lon="7.9568"><ele>333.0</ele><time>2026-05-06T13:02:39.277Z</time></trkpt><trkpt lat="44.8540999" lon="7.9566599"><ele>334.6666666666667</ele><time>2026-05-06T13:02:40.277Z</time></trkpt><trkpt lat="44.8539406" lon="7.9565125"><ele>336.33333333333337</ele><time>2026-05-06T13:02:41.276Z</time></trkpt><trkpt lat="44.8537745" lon="7.9563666"><ele>338.0</ele><time>2026-05-06T13:02:42.276Z</time></trkpt><trkpt lat="44.8536107" lon="7.9562163"><ele>337.6666666666667</ele><time>2026-05-06T13:02:43.277Z</time></trkpt><trkpt lat="44.8534452" lon="7.9560581"><ele>337.3333333333333</ele><time>2026-05-06T13:02:44.276Z</time></trkpt><trkpt lat="44.8532855" lon="7.9559061"><ele>337.0</ele><time>2026-05-06T13:02:45.277Z</time></trkpt><trkpt lat="44.8531345" lon="7.9557608"><ele>337.0</ele><time>2026-05-06T13:02:46.277Z</time></trkpt><trkpt lat="44.8529733" lon="7.95563"><ele>337.0</ele><time>2026-05-06T13:02:47.277Z</time></trkpt><trkpt lat="44.8528049" lon="7.9555014"><ele>337.0</ele><time>2026-05-06T13:02:48.277Z</time></trkpt><trkpt lat="44.8526348" lon="7.9553798"><ele>336.66666666666663</ele><time>2026-05-06T13:02:49.276Z</time></trkpt><trkpt lat="44.8524552" lon="7.9552724"><ele>336.3333333333333</ele><time>2026-05-06T13:02:50.276Z</time></trkpt><trkpt lat="44.8522661" lon="7.9551604"><ele>336.0</ele><time>2026-05-06T13:02:51.277Z</time></trkpt><trkpt lat="44.8520786" lon="7.9550442"><ele>335.6666666666667</ele><time>2026-05-06T13:02:52.277Z</time></trkpt><trkpt lat="44.8518944" lon="7.954928"><ele>335.33333333333337</ele><time>2026-05-06T13:02:53.276Z</time></trkpt><trkpt lat="44.8517099" lon="7.9548173"><ele>335.0</ele><time>2026-05-06T13:02:54.276Z</time></trkpt><trkpt lat="44.8515345" lon="7.9547008"><ele>336.0</ele><time>2026-05-06T13:02:55.277Z</time></trkpt><trkpt lat="44.8513463" lon="7.9545861"><ele>337.0</ele><time>2026-05-06T13:02:56.277Z</time></trkpt><trkpt lat="44.8511612" lon="7.9544733"><ele>338.0</ele><time>2026-05-06T13:02:57.276Z</time></trkpt><trkpt lat="44.8509761" lon="7.9543559"><ele>338.33333333333337</ele><time>2026-05-06T13:02:58.276Z</time></trkpt><trkpt lat="44.8507871" lon="7.9542421"><ele>338.6666666666667</ele><time>2026-05-06T13:02:59.277Z</time></trkpt><trkpt lat="44.8506042" lon="7.9541356"><ele>339.0</ele><time>2026-05-06T13:03:00.277Z</time></trkpt><trkpt lat="44.8504335" lon="7.9540241"><ele>339.0</ele><time>2026-05-06T13:03:01.277Z</time></trkpt><trkpt lat="44.8502644" lon="7.9539235"><ele>339.0</ele><time>2026-05-06T13:03:02.277Z</time></trkpt><trkpt lat="44.8500963" lon="7.9538345"><ele>339.0</ele><time>2026-05-06T13:03:03.277Z</time></trkpt><trkpt lat="44.8499306" lon="7.9537776"><ele>338.6666666666667</ele><time>2026-05-06T13:03:04.277Z</time></trkpt><trkpt lat="44.849773" lon="7.9537577"><ele>338.33333333333337</ele><time>2026-05-06T13:03:05.277Z</time></trkpt><trkpt lat="44.8495934" lon="7.9537878"><ele>338.0</ele><time>2026-05-06T13:03:06.277Z</time></trkpt><trkpt lat="44.8494181" lon="7.9538541"><ele>338.33333333333337</ele><time>2026-05-06T13:03:07.277Z</time></trkpt><trkpt lat="44.8492393" lon="7.9539516"><ele>338.6666666666667</ele><time>2026-05-06T13:03:08.276Z</time></trkpt><trkpt lat="44.8490604" lon="7.9540481"><ele>339.0</ele><time>2026-05-06T13:03:09.276Z</time></trkpt><trkpt lat="44.8488769" lon="7.9541395"><ele>339.3333333333333</ele><time>2026-05-06T13:03:10.276Z</time></trkpt><trkpt lat="44.8486843" lon="7.9542059"><ele>339.66666666666663</ele><time>2026-05-06T13:03:11.276Z</time></trkpt><trkpt lat="44.8484906" lon="7.9542621"><ele>340.0</ele><time>2026-05-06T13:03:12.276Z</time></trkpt><trkpt lat="44.8482968" lon="7.9543124"><ele>340.0</ele><time>2026-05-06T13:03:13.277Z</time></trkpt><trkpt lat="44.8480942" lon="7.9543546"><ele>340.0</ele><time>2026-05-06T13:03:14.276Z</time></trkpt><trkpt lat="44.8478866" lon="7.9543829"><ele>340.0</ele><time>2026-05-06T13:03:15.277Z</time></trkpt><trkpt lat="44.8476869" lon="7.9543913"><ele>343.0</ele><time>2026-05-06T13:03:16.277Z</time></trkpt><trkpt lat="44.8474914" lon="7.9543967"><ele>346.0</ele><time>2026-05-06T13:03:17.277Z</time></trkpt><trkpt lat="44.8472978" lon="7.9544038"><ele>349.0</ele><time>2026-05-06T13:03:18.277Z</time></trkpt><trkpt lat="44.8471016" lon="7.9544056"><ele>349.0</ele><time>2026-05-06T13:03:19.277Z</time></trkpt><trkpt lat="44.8469084" lon="7.9544094"><ele>349.0</ele><time>2026-05-06T13:03:20.277Z</time></trkpt><trkpt lat="44.846715" lon="7.9544233"><ele>349.0</ele><time>2026-05-06T13:03:21.276Z</time></trkpt><trkpt lat="44.8465214" lon="7.954434"><ele>349.3333333333333</ele><time>2026-05-06T13:03:22.276Z</time></trkpt><trkpt lat="44.8463242" lon="7.9544596"><ele>349.6666666666667</ele><time>2026-05-06T13:03:23.277Z</time></trkpt><trkpt lat="44.8461238" lon="7.9544841"><ele>350.0</ele><time>2026-05-06T13:03:24.276Z</time></trkpt><trkpt lat="44.8459202" lon="7.9545183"><ele>348.0</ele><time>2026-05-06T13:03:25.277Z</time></trkpt><trkpt lat="44.8457061" lon="7.9545627"><ele>346.0</ele><time>2026-05-06T13:03:26.276Z</time></trkpt><trkpt lat="44.8454831" lon="7.9546194"><ele>344.0</ele><time>2026-05-06T13:03:27.276Z</time></trkpt><trkpt lat="44.8452592" lon="7.9546827"><ele>344.0</ele><time>2026-05-06T13:03:28.277Z</time></trkpt><trkpt lat="44.8450384" lon="7.9547535"><ele>344.0</ele><time>2026-05-06T13:03:29.277Z</time></trkpt><trkpt lat="44.8448238" lon="7.9548423"><ele>344.0</ele><time>2026-05-06T13:03:30.276Z</time></trkpt><trkpt lat="44.8445949" lon="7.9549423"><ele>344.0</ele><time>2026-05-06T13:03:31.276Z</time></trkpt><trkpt lat="44.8443749" lon="7.9550541"><ele>347.0</ele><time>2026-05-06T13:03:32.276Z</time></trkpt><trkpt lat="44.8441564" lon="7.9551597"><ele>350.0</ele><time>2026-05-06T13:03:33.276Z</time></trkpt><trkpt lat="44.8439379" lon="7.9552704"><ele>350.0</ele><time>2026-05-06T13:03:34.276Z</time></trkpt><trkpt lat="44.8437194" lon="7.9553863"><ele>350.0</ele><time>2026-05-06T13:03:35.277Z</time></trkpt><trkpt lat="44.843497" lon="7.9555098"><ele>350.0</ele><time>2026-05-06T13:03:36.277Z</time></trkpt><trkpt lat="44.8432749" lon="7.9556244"><ele>350.0</ele><time>2026-05-06T13:03:37.276Z</time></trkpt><trkpt lat="44.8430574" lon="7.9557365"><ele>350.0</ele><time>2026-05-06T13:03:38.277Z</time></trkpt><trkpt lat="44.842838" lon="7.9558496"><ele>350.0</ele><time>2026-05-06T13:03:39.277Z</time></trkpt><trkpt lat="44.8426169" lon="7.9559613"><ele>347.5</ele><time>2026-05-06T13:03:40.276Z</time></trkpt><trkpt lat="44.8423901" lon="7.9560756"><ele>345.0</ele><time>2026-05-06T13:03:41.276Z</time></trkpt><trkpt lat="44.842181" lon="7.9561803"><ele>345.0</ele><time>2026-05-06T13:03:42.277Z</time></trkpt><trkpt lat="44.8419645" lon="7.9562879"><ele>345.0</ele><time>2026-05-06T13:03:43.277Z</time></trkpt><trkpt lat="44.8417596" lon="7.9563808"><ele>345.0</ele><time>2026-05-06T13:03:44.277Z</time></trkpt><trkpt lat="44.8415736" lon="7.9564815"><ele>346.6666666666667</ele><time>2026-05-06T13:03:45.277Z</time></trkpt><trkpt lat="44.8413945" lon="7.9565643"><ele>348.33333333333337</ele><time>2026-05-06T13:03:46.276Z</time></trkpt><trkpt lat="44.8412177" lon="7.9566121"><ele>350.0</ele><time>2026-05-06T13:03:47.276Z</time></trkpt><trkpt lat="44.8410238" lon="7.9566266"><ele>351.0</ele><time>2026-05-06T13:03:48.277Z</time></trkpt><trkpt lat="44.840831" lon="7.956619"><ele>352.0</ele><time>2026-05-06T13:03:49.277Z</time></trkpt><trkpt lat="44.8406416" lon="7.9566178"><ele>353.0</ele><time>2026-05-06T13:03:50.277Z</time></trkpt><trkpt lat="44.8404637" lon="7.9566098"><ele>353.0</ele><time>2026-05-06T13:03:51.276Z</time></trkpt><trkpt lat="44.8402964" lon="7.9566135"><ele>353.0</ele><time>2026-05-06T13:03:52.277Z</time></trkpt><trkpt lat="44.8401399" lon="7.9565757"><ele>353.0</ele><time>2026-05-06T13:03:53.276Z</time></trkpt><trkpt lat="44.8399797" lon="7.9564939"><ele>353.6666666666667</ele><time>2026-05-06T13:03:54.276Z</time></trkpt><trkpt lat="44.839826" lon="7.9563937"><ele>354.3333333333333</ele><time>2026-05-06T13:03:55.277Z</time></trkpt><trkpt lat="44.8396772" lon="7.9562854"><ele>355.0</ele><time>2026-05-06T13:03:56.276Z</time></trkpt><trkpt lat="44.8395271" lon="7.9561834"><ele>355.0</ele><time>2026-05-06T13:03:57.277Z</time></trkpt><trkpt lat="44.8393827" lon="7.9561189"><ele>355.0</ele><time>2026-05-06T13:03:58.277Z</time></trkpt><trkpt lat="44.8392316" lon="7.9561244"><ele>355.0</ele><time>2026-05-06T13:03:59.276Z</time></trkpt><trkpt lat="44.8390882" lon="7.9561923"><ele>354.0</ele><time>2026-05-06T13:04:00.277Z</time></trkpt><trkpt lat="44.8389361" lon="7.9563031"><ele>353.0</ele><time>2026-05-06T13:04:01.277Z</time></trkpt><trkpt lat="44.838786" lon="7.956418"><ele>352.0</ele><time>2026-05-06T13:04:02.277Z</time></trkpt><trkpt lat="44.838642" lon="7.9564891"><ele>352.0</ele><time>2026-05-06T13:04:03.277Z</time></trkpt><trkpt lat="44.8384937" lon="7.9565105"><ele>352.0</ele><time>2026-05-06T13:04:04.277Z</time></trkpt><trkpt lat="44.8383594" lon="7.956489"><ele>352.0</ele><time>2026-05-06T13:04:05.276Z</time></trkpt><trkpt lat="44.8382266" lon="7.9564512"><ele>352.0</ele><time>2026-05-06T13:04:06.276Z</time></trkpt><trkpt lat="44.8381076" lon="7.9564022"><ele>353.6</ele><time>2026-05-06T13:04:07.277Z</time></trkpt><trkpt lat="44.8380104" lon="7.9563613"><ele>355.20000000000005</ele><time>2026-05-06T13:04:08.276Z</time></trkpt><trkpt lat="44.8379357" lon="7.9563148"><ele>356.8</ele><time>2026-05-06T13:04:09.277Z</time></trkpt><trkpt lat="44.8378763" lon="7.956269"><ele>358.4</ele><time>2026-05-06T13:04:10.277Z</time></trkpt><trkpt lat="44.8377541" lon="7.956236"><ele>360.0</ele><time>2026-05-06T13:04:12.277Z</time></trkpt><trkpt lat="44.8376686" lon="7.9562323"><ele>360.5</ele><time>2026-05-06T13:04:13.277Z</time></trkpt><trkpt lat="44.8375633" lon="7.9562379"><ele>361.0</ele><time>2026-05-06T13:04:14.276Z</time></trkpt><trkpt lat="44.8374481" lon="7.9562277"><ele>361.5</ele><time>2026-05-06T13:04:15.277Z</time></trkpt><trkpt lat="44.8373118" lon="7.9562189"><ele>362.0</ele><time>2026-05-06T13:04:16.277Z</time></trkpt><trkpt lat="44.8371557" lon="7.956224"><ele>362.0</ele><time>2026-05-06T13:04:17.276Z</time></trkpt><trkpt lat="44.8370033" lon="7.9562206"><ele>362.0</ele><time>2026-05-06T13:04:18.277Z</time></trkpt><trkpt lat="44.8368612" lon="7.9562234"><ele>362.0</ele><time>2026-05-06T13:04:19.277Z</time></trkpt><trkpt lat="44.8367343" lon="7.9562125"><ele>362.0</ele><time>2026-05-06T13:04:20.277Z</time></trkpt><trkpt lat="44.8366329" lon="7.9561409"><ele>361.75</ele><time>2026-05-06T13:04:21.277Z</time></trkpt><trkpt lat="44.8365658" lon="7.9560143"><ele>361.5</ele><time>2026-05-06T13:04:22.277Z</time></trkpt><trkpt lat="44.8365283" lon="7.9558279"><ele>361.25</ele><time>2026-05-06T13:04:23.277Z</time></trkpt><trkpt lat="44.8365399" lon="7.955613"><ele>361.0</ele><time>2026-05-06T13:04:24.276Z</time></trkpt><trkpt lat="44.8365734" lon="7.9553956"><ele>361.0</ele><time>2026-05-06T13:04:25.277Z</time></trkpt><trkpt lat="44.8366124" lon="7.955173"><ele>361.0</ele><time>2026-05-06T13:04:26.277Z</time></trkpt><trkpt lat="44.8366336" lon="7.9549533"><ele>361.0</ele><time>2026-05-06T13:04:27.276Z</time></trkpt><trkpt lat="44.8366562" lon="7.9547288"><ele>361.25</ele><time>2026-05-06T13:04:28.277Z</time></trkpt><trkpt lat="44.8366648" lon="7.9545112"><ele>361.5</ele><time>2026-05-06T13:04:29.276Z</time></trkpt><trkpt lat="44.8366716" lon="7.9543015"><ele>361.75</ele><time>2026-05-06T13:04:30.277Z</time></trkpt><trkpt lat="44.8366683" lon="7.9540962"><ele>362.0</ele><time>2026-05-06T13:04:31.277Z</time></trkpt><trkpt lat="44.83664" lon="7.9538898"><ele>361.33333333333337</ele><time>2026-05-06T13:04:32.276Z</time></trkpt><trkpt lat="44.8365845" lon="7.9536859"><ele>360.6666666666667</ele><time>2026-05-06T13:04:33.277Z</time></trkpt><trkpt lat="44.8365115" lon="7.9534842"><ele>360.0</ele><time>2026-05-06T13:04:34.276Z</time></trkpt><trkpt lat="44.8364326" lon="7.9532785"><ele>358.6666666666667</ele><time>2026-05-06T13:04:35.277Z</time></trkpt><trkpt lat="44.8363568" lon="7.9530645"><ele>357.33333333333337</ele><time>2026-05-06T13:04:36.277Z</time></trkpt><trkpt lat="44.8362801" lon="7.9528519"><ele>356.0</ele><time>2026-05-06T13:04:37.276Z</time></trkpt><trkpt lat="44.836194" lon="7.9526335"><ele>356.33333333333337</ele><time>2026-05-06T13:04:38.276Z</time></trkpt><trkpt lat="44.8360964" lon="7.9524105"><ele>356.6666666666667</ele><time>2026-05-06T13:04:39.277Z</time></trkpt><trkpt lat="44.8360119" lon="7.9521852"><ele>357.0</ele><time>2026-05-06T13:04:40.276Z</time></trkpt><trkpt lat="44.8359129" lon="7.9519566"><ele>358.3333333333333</ele><time>2026-05-06T13:04:41.276Z</time></trkpt><trkpt lat="44.8358051" lon="7.9517276"><ele>359.66666666666663</ele><time>2026-05-06T13:04:42.277Z</time></trkpt><trkpt lat="44.8357037" lon="7.9514902"><ele>361.0</ele><time>2026-05-06T13:04:43.277Z</time></trkpt><trkpt lat="44.8355941" lon="7.9512559"><ele>361.66666666666663</ele><time>2026-05-06T13:04:44.277Z</time></trkpt><trkpt lat="44.8354976" lon="7.9510202"><ele>362.3333333333333</ele><time>2026-05-06T13:04:45.276Z</time></trkpt><trkpt lat="44.8353986" lon="7.9507746"><ele>363.0</ele><time>2026-05-06T13:04:46.276Z</time></trkpt><trkpt lat="44.8353108" lon="7.9505368"><ele>362.0</ele><time>2026-05-06T13:04:47.277Z</time></trkpt><trkpt lat="44.8352188" lon="7.9503107"><ele>361.0</ele><time>2026-05-06T13:04:48.277Z</time></trkpt><trkpt lat="44.8351256" lon="7.950095"><ele>360.0</ele><time>2026-05-06T13:04:49.277Z</time></trkpt><trkpt lat="44.8350164" lon="7.9498847"><ele>360.0</ele><time>2026-05-06T13:04:50.276Z</time></trkpt><trkpt lat="44.8349053" lon="7.9496828"><ele>360.0</ele><time>2026-05-06T13:04:51.277Z</time></trkpt><trkpt lat="44.8347853" lon="7.9494862"><ele>360.0</ele><time>2026-05-06T13:04:52.276Z</time></trkpt><trkpt lat="44.8346555" lon="7.9492853"><ele>359.0</ele><time>2026-05-06T13:04:53.277Z</time></trkpt><trkpt lat="44.8345217" lon="7.9490717"><ele>358.0</ele><time>2026-05-06T13:04:54.277Z</time></trkpt><trkpt lat="44.8343974" lon="7.9488618"><ele>357.0</ele><time>2026-05-06T13:04:55.277Z</time></trkpt><trkpt lat="44.8342698" lon="7.9486451"><ele>357.0</ele><time>2026-05-06T13:04:56.276Z</time></trkpt><trkpt lat="44.8341383" lon="7.9484288"><ele>357.0</ele><time>2026-05-06T13:04:57.277Z</time></trkpt><trkpt lat="44.8340118" lon="7.9482394"><ele>357.0</ele><time>2026-05-06T13:04:58.277Z</time></trkpt><trkpt lat="44.8338985" lon="7.9480626"><ele>354.6666666666667</ele><time>2026-05-06T13:04:59.277Z</time></trkpt><trkpt lat="44.8337879" lon="7.9478758"><ele>352.33333333333337</ele><time>2026-05-06T13:05:00.277Z</time></trkpt><trkpt lat="44.833683" lon="7.9477132"><ele>350.0</ele><time>2026-05-06T13:05:01.277Z</time></trkpt><trkpt lat="44.8335736" lon="7.9475777"><ele>351.0</ele><time>2026-05-06T13:05:02.276Z</time></trkpt><trkpt lat="44.8334453" lon="7.947456"><ele>352.0</ele><time>2026-05-06T13:05:03.277Z</time></trkpt><trkpt lat="44.8332947" lon="7.9473642"><ele>353.0</ele><time>2026-05-06T13:05:04.277Z</time></trkpt><trkpt lat="44.833144" lon="7.9473185"><ele>353.0</ele><time>2026-05-06T13:05:05.276Z</time></trkpt><trkpt lat="44.8329914" lon="7.9473101"><ele>353.0</ele><time>2026-05-06T13:05:06.277Z</time></trkpt><trkpt lat="44.8328376" lon="7.9473136"><ele>353.0</ele><time>2026-05-06T13:05:07.277Z</time></trkpt><trkpt lat="44.832681" lon="7.9473265"><ele>353.6666666666667</ele><time>2026-05-06T13:05:08.277Z</time></trkpt><trkpt lat="44.8325155" lon="7.947353"><ele>354.3333333333333</ele><time>2026-05-06T13:05:09.277Z</time></trkpt><trkpt lat="44.8323594" lon="7.947356"><ele>355.0</ele><time>2026-05-06T13:05:10.277Z</time></trkpt><trkpt lat="44.832214" lon="7.9473668"><ele>355.0</ele><time>2026-05-06T13:05:11.277Z</time></trkpt><trkpt lat="44.8320655" lon="7.9473829"><ele>355.0</ele><time>2026-05-06T13:05:12.276Z</time></trkpt><trkpt lat="44.8319125" lon="7.9474066"><ele>355.0</ele><time>2026-05-06T13:05:13.277Z</time></trkpt><trkpt lat="44.8317578" lon="7.9474349"><ele>354.0</ele><time>2026-05-06T13:05:14.277Z</time></trkpt><trkpt lat="44.8316034" lon="7.9474659"><ele>353.0</ele><time>2026-05-06T13:05:15.277Z</time></trkpt><trkpt lat="44.8314491" lon="7.9474891"><ele>352.0</ele><time>2026-05-06T13:05:16.277Z</time></trkpt><trkpt lat="44.8312784" lon="7.9475181"><ele>348.66666666666663</ele><time>2026-05-06T13:05:17.277Z</time></trkpt><trkpt lat="44.8311124" lon="7.9475524"><ele>345.3333333333333</ele><time>2026-05-06T13:05:18.277Z</time></trkpt><trkpt lat="44.8309396" lon="7.947592"><ele>342.0</ele><time>2026-05-06T13:05:19.276Z</time></trkpt><trkpt lat="44.830772" lon="7.9476292"><ele>342.0</ele><time>2026-05-06T13:05:20.277Z</time></trkpt><trkpt lat="44.8305964" lon="7.9476422"><ele>342.0</ele><time>2026-05-06T13:05:21.276Z</time></trkpt><trkpt lat="44.8304208" lon="7.9476277"><ele>342.0</ele><time>2026-05-06T13:05:22.277Z</time></trkpt><trkpt lat="44.8302451" lon="7.9475897"><ele>342.6666666666667</ele><time>2026-05-06T13:05:23.276Z</time></trkpt><trkpt lat="44.8300775" lon="7.9475334"><ele>343.33333333333337</ele><time>2026-05-06T13:05:24.277Z</time></trkpt><trkpt lat="44.8299172" lon="7.947468"><ele>344.0</ele><time>2026-05-06T13:05:25.276Z</time></trkpt><trkpt lat="44.8297591" lon="7.9474101"><ele>344.0</ele><time>2026-05-06T13:05:26.276Z</time></trkpt><trkpt lat="44.8295969" lon="7.9473588"><ele>344.0</ele><time>2026-05-06T13:05:27.276Z</time></trkpt><trkpt lat="44.8294309" lon="7.947317"><ele>344.0</ele><time>2026-05-06T13:05:28.277Z</time></trkpt><trkpt lat="44.8292641" lon="7.9473067"><ele>341.33333333333337</ele><time>2026-05-06T13:05:29.276Z</time></trkpt><trkpt lat="44.8290986" lon="7.9473131"><ele>338.6666666666667</ele><time>2026-05-06T13:05:30.277Z</time></trkpt><trkpt lat="44.8289341" lon="7.9473307"><ele>336.0</ele><time>2026-05-06T13:05:31.277Z</time></trkpt><trkpt lat="44.8287643" lon="7.9473518"><ele>336.0</ele><time>2026-05-06T13:05:32.277Z</time></trkpt><trkpt lat="44.8285925" lon="7.9473811"><ele>336.0</ele><time>2026-05-06T13:05:33.277Z</time></trkpt><trkpt lat="44.8284227" lon="7.9473976"><ele>336.0</ele><time>2026-05-06T13:05:34.277Z</time></trkpt><trkpt lat="44.8282549" lon="7.9473974"><ele>333.3333333333333</ele><time>2026-05-06T13:05:35.276Z</time></trkpt><trkpt lat="44.8280905" lon="7.9473946"><ele>330.66666666666663</ele><time>2026-05-06T13:05:36.277Z</time></trkpt><trkpt lat="44.8279337" lon="7.9473593"><ele>328.0</ele><time>2026-05-06T13:05:37.276Z</time></trkpt><trkpt lat="44.827797" lon="7.9472642"><ele>328.0</ele><time>2026-05-06T13:05:38.276Z</time></trkpt><trkpt lat="44.8276867" lon="7.9470999"><ele>328.0</ele><time>2026-05-06T13:05:39.276Z</time></trkpt><trkpt lat="44.8275985" lon="7.9468875"><ele>328.0</ele><time>2026-05-06T13:05:40.277Z</time></trkpt><trkpt lat="44.8275465" lon="7.9466718"><ele>326.25</ele><time>2026-05-06T13:05:41.276Z</time></trkpt><trkpt lat="44.8275048" lon="7.9464702"><ele>324.5</ele><time>2026-05-06T13:05:42.276Z</time></trkpt><trkpt lat="44.8274504" lon="7.9462836"><ele>322.75</ele><time>2026-05-06T13:05:43.277Z</time></trkpt><trkpt lat="44.8273746" lon="7.946103"><ele>321.0</ele><time>2026-05-06T13:05:44.277Z</time></trkpt><trkpt lat="44.8272719" lon="7.9459402"><ele>319.6666666666667</ele><time>2026-05-06T13:05:45.277Z</time></trkpt><trkpt lat="44.8271442" lon="7.9457927"><ele>318.33333333333337</ele><time>2026-05-06T13:05:46.277Z</time></trkpt><trkpt lat="44.8270192" lon="7.9456621"><ele>317.0</ele><time>2026-05-06T13:05:47.276Z</time></trkpt><trkpt lat="44.8269001" lon="7.9455378"><ele>314.33333333333337</ele><time>2026-05-06T13:05:48.277Z</time></trkpt><trkpt lat="44.8267771" lon="7.9454106"><ele>311.6666666666667</ele><time>2026-05-06T13:05:49.276Z</time></trkpt><trkpt lat="44.8266613" lon="7.9452597"><ele>309.0</ele><time>2026-05-06T13:05:50.277Z</time></trkpt><trkpt lat="44.8265514" lon="7.945085"><ele>308.0</ele><time>2026-05-06T13:05:51.276Z</time></trkpt><trkpt lat="44.8264465" lon="7.9449091"><ele>307.0</ele><time>2026-05-06T13:05:52.277Z</time></trkpt><trkpt lat="44.8263314" lon="7.9447298"><ele>306.0</ele><time>2026-05-06T13:05:53.277Z</time></trkpt><trkpt lat="44.8262127" lon="7.9445382"><ele>306.0</ele><time>2026-05-06T13:05:54.276Z</time></trkpt><trkpt lat="44.8260979" lon="7.944356"><ele>306.0</ele><time>2026-05-06T13:05:55.277Z</time></trkpt><trkpt lat="44.8259783" lon="7.9441939"><ele>306.0</ele><time>2026-05-06T13:05:56.277Z</time></trkpt><trkpt lat="44.8258524" lon="7.9440591"><ele>304.0</ele><time>2026-05-06T13:05:57.277Z</time></trkpt><trkpt lat="44.8256944" lon="7.9439544"><ele>302.0</ele><time>2026-05-06T13:05:58.276Z</time></trkpt><trkpt lat="44.8255374" lon="7.9438872"><ele>300.0</ele><time>2026-05-06T13:05:59.277Z</time></trkpt><trkpt lat="44.8253693" lon="7.9438539"><ele>300.0</ele><time>2026-05-06T13:06:00.277Z</time></trkpt><trkpt lat="44.8252082" lon="7.9438272"><ele>300.0</ele><time>2026-05-06T13:06:01.277Z</time></trkpt><trkpt lat="44.8250546" lon="7.943798"><ele>300.0</ele><time>2026-05-06T13:06:02.277Z</time></trkpt><trkpt lat="44.8249194" lon="7.9437664"><ele>299.6666666666667</ele><time>2026-05-06T13:06:03.277Z</time></trkpt><trkpt lat="44.8247992" lon="7.9437409"><ele>299.3333333333333</ele><time>2026-05-06T13:06:04.277Z</time></trkpt><trkpt lat="44.824713" lon="7.9437163"><ele>299.0</ele><time>2026-05-06T13:06:05.277Z</time></trkpt><trkpt lat="44.8246354" lon="7.9436902"><ele>298.66666666666663</ele><time>2026-05-06T13:06:06.277Z</time></trkpt><trkpt lat="44.8245669" lon="7.9436584"><ele>298.3333333333333</ele><time>2026-05-06T13:06:07.276Z</time></trkpt><trkpt lat="44.824501" lon="7.9436177"><ele>298.0</ele><time>2026-05-06T13:06:08.276Z</time></trkpt><trkpt lat="44.8243878" lon="7.9435524"><ele>297.8333333333333</ele><time>2026-05-06T13:06:10.277Z</time></trkpt><trkpt lat="44.8243002" lon="7.9434894"><ele>297.66666666666663</ele><time>2026-05-06T13:06:12.277Z</time></trkpt><trkpt lat="44.8242247" lon="7.9434318"><ele>297.5</ele><time>2026-05-06T13:06:15.276Z</time></trkpt><trkpt lat="44.8241677" lon="7.9433832"><ele>297.3333333333333</ele><time>2026-05-06T13:06:17.276Z</time></trkpt><trkpt lat="44.8240859" lon="7.943282"><ele>297.1666666666667</ele><time>2026-05-06T13:06:19.276Z</time></trkpt><trkpt lat="44.8240291" lon="7.9432232"><ele>297.0</ele><time>2026-05-06T13:06:20.277Z</time></trkpt><trkpt lat="44.823968" lon="7.943192"><ele>297.0</ele><time>2026-05-06T13:06:21.276Z</time></trkpt><trkpt lat="44.8238944" lon="7.9432044"><ele>297.0</ele><time>2026-05-06T13:06:22.277Z</time></trkpt><trkpt lat="44.8238236" lon="7.9432673"><ele>297.0</ele><time>2026-05-06T13:06:23.277Z</time></trkpt><trkpt lat="44.8237811" lon="7.9433697"><ele>297.0</ele><time>2026-05-06T13:06:24.277Z</time></trkpt><trkpt lat="44.8237624" lon="7.9435091"><ele>297.0</ele><time>2026-05-06T13:06:25.276Z</time></trkpt><trkpt lat="44.8237398" lon="7.9436674"><ele>297.0</ele><time>2026-05-06T13:06:26.277Z</time></trkpt><trkpt lat="44.8236953" lon="7.9438332"><ele>297.0</ele><time>2026-05-06T13:06:27.277Z</time></trkpt><trkpt lat="44.8236332" lon="7.9439946"><ele>297.0</ele><time>2026-05-06T13:06:28.276Z</time></trkpt><trkpt lat="44.8235613" lon="7.9441585"><ele>297.0</ele><time>2026-05-06T13:06:29.276Z</time></trkpt><trkpt lat="44.823483" lon="7.9443217"><ele>296.5</ele><time>2026-05-06T13:06:30.276Z</time></trkpt><trkpt lat="44.8234078" lon="7.9444905"><ele>296.0</ele><time>2026-05-06T13:06:31.276Z</time></trkpt><trkpt lat="44.8233223" lon="7.9446547"><ele>295.5</ele><time>2026-05-06T13:06:32.276Z</time></trkpt><trkpt lat="44.8232302" lon="7.9448266"><ele>295.0</ele><time>2026-05-06T13:06:33.276Z</time></trkpt><trkpt lat="44.8231368" lon="7.9450066"><ele>295.66666666666663</ele><time>2026-05-06T13:06:34.276Z</time></trkpt><trkpt lat="44.8230333" lon="7.9451943"><ele>296.3333333333333</ele><time>2026-05-06T13:06:35.277Z</time></trkpt><trkpt lat="44.8229325" lon="7.9453897"><ele>297.0</ele><time>2026-05-06T13:06:36.276Z</time></trkpt><trkpt lat="44.8228261" lon="7.9455807"><ele>297.0</ele><time>2026-05-06T13:06:37.277Z</time></trkpt><trkpt lat="44.8227288" lon="7.9457749"><ele>297.0</ele><time>2026-05-06T13:06:38.277Z</time></trkpt><trkpt lat="44.822621" lon="7.9459748"><ele>297.0</ele><time>2026-05-06T13:06:39.277Z</time></trkpt><trkpt lat="44.8225022" lon="7.946175"><ele>297.0</ele><time>2026-05-06T13:06:40.277Z</time></trkpt><trkpt lat="44.8223841" lon="7.9463733"><ele>297.0</ele><time>2026-05-06T13:06:41.276Z</time></trkpt><trkpt lat="44.8222562" lon="7.9465549"><ele>297.0</ele><time>2026-05-06T13:06:42.276Z</time></trkpt><trkpt lat="44.822126" lon="7.9467227"><ele>297.0</ele><time>2026-05-06T13:06:43.277Z</time></trkpt><trkpt lat="44.8219993" lon="7.9468776"><ele>297.0</ele><time>2026-05-06T13:06:44.277Z</time></trkpt><trkpt lat="44.8218844" lon="7.9470184"><ele>297.0</ele><time>2026-05-06T13:06:45.277Z</time></trkpt><trkpt lat="44.8217761" lon="7.9471424"><ele>296.6</ele><time>2026-05-06T13:06:46.276Z</time></trkpt><trkpt lat="44.8216772" lon="7.9472498"><ele>296.2</ele><time>2026-05-06T13:06:47.277Z</time></trkpt><trkpt lat="44.8215859" lon="7.9473456"><ele>295.8</ele><time>2026-05-06T13:06:48.277Z</time></trkpt><trkpt lat="44.821492" lon="7.9474056"><ele>295.4</ele><time>2026-05-06T13:06:49.276Z</time></trkpt><trkpt lat="44.8213941" lon="7.9474292"><ele>295.0</ele><time>2026-05-06T13:06:50.276Z</time></trkpt><trkpt lat="44.8213073" lon="7.9474557"><ele>295.0</ele><time>2026-05-06T13:06:51.277Z</time></trkpt><trkpt lat="44.8212234" lon="7.9475134"><ele>295.0</ele><time>2026-05-06T13:06:52.276Z</time></trkpt><trkpt lat="44.82114" lon="7.9475961"><ele>295.0</ele><time>2026-05-06T13:06:53.276Z</time></trkpt><trkpt lat="44.8210592" lon="7.9476996"><ele>295.0</ele><time>2026-05-06T13:06:54.277Z</time></trkpt><trkpt lat="44.8209735" lon="7.9477983"><ele>295.0</ele><time>2026-05-06T13:06:55.276Z</time></trkpt><trkpt lat="44.8208733" lon="7.9478746"><ele>296.0</ele><time>2026-05-06T13:06:56.276Z</time></trkpt><trkpt lat="44.8207553" lon="7.9479347"><ele>297.0</ele><time>2026-05-06T13:06:57.277Z</time></trkpt><trkpt lat="44.8206323" lon="7.9479862"><ele>298.0</ele><time>2026-05-06T13:06:58.277Z</time></trkpt><trkpt lat="44.8205037" lon="7.9480331"><ele>299.0</ele><time>2026-05-06T13:06:59.276Z</time></trkpt><trkpt lat="44.8203646" lon="7.948081"><ele>299.0</ele><time>2026-05-06T13:07:00.277Z</time></trkpt><trkpt lat="44.8202166" lon="7.9481258"><ele>299.0</ele><time>2026-05-06T13:07:01.277Z</time></trkpt><trkpt lat="44.820067" lon="7.9481672"><ele>299.0</ele><time>2026-05-06T13:07:02.277Z</time></trkpt><trkpt lat="44.8199059" lon="7.9481919"><ele>297.6666666666667</ele><time>2026-05-06T13:07:03.276Z</time></trkpt><trkpt lat="44.8197361" lon="7.9482165"><ele>296.3333333333333</ele><time>2026-05-06T13:07:04.276Z</time></trkpt><trkpt lat="44.819552" lon="7.9482285"><ele>295.0</ele><time>2026-05-06T13:07:05.277Z</time></trkpt><trkpt lat="44.8193666" lon="7.948229"><ele>295.66666666666663</ele><time>2026-05-06T13:07:06.276Z</time></trkpt><trkpt lat="44.8191821" lon="7.9482222"><ele>296.3333333333333</ele><time>2026-05-06T13:07:07.277Z</time></trkpt><trkpt lat="44.8190017" lon="7.9481986"><ele>297.0</ele><time>2026-05-06T13:07:08.277Z</time></trkpt><trkpt lat="44.8188169" lon="7.9481674"><ele>297.0</ele><time>2026-05-06T13:07:09.276Z</time></trkpt><trkpt lat="44.8186259" lon="7.9481139"><ele>297.0</ele><time>2026-05-06T13:07:10.276Z</time></trkpt><trkpt lat="44.8184366" lon="7.9480469"><ele>297.0</ele><time>2026-05-06T13:07:11.277Z</time></trkpt><trkpt lat="44.8182466" lon="7.947973"><ele>297.0</ele><time>2026-05-06T13:07:12.277Z</time></trkpt><trkpt lat="44.8180576" lon="7.9478888"><ele>297.0</ele><time>2026-05-06T13:07:13.277Z</time></trkpt><trkpt lat="44.8178709" lon="7.9478017"><ele>297.0</ele><time>2026-05-06T13:07:14.277Z</time></trkpt><trkpt lat="44.8176862" lon="7.9477166"><ele>297.6666666666667</ele><time>2026-05-06T13:07:15.276Z</time></trkpt><trkpt lat="44.8175009" lon="7.9476327"><ele>298.33333333333337</ele><time>2026-05-06T13:07:16.277Z</time></trkpt><trkpt lat="44.8173318" lon="7.9475495"><ele>299.0</ele><time>2026-05-06T13:07:17.277Z</time></trkpt><trkpt lat="44.817187" lon="7.9474363"><ele>299.0</ele><time>2026-05-06T13:07:18.276Z</time></trkpt><trkpt lat="44.8170643" lon="7.9472906"><ele>299.0</ele><time>2026-05-06T13:07:19.276Z</time></trkpt><trkpt lat="44.8169726" lon="7.9471083"><ele>299.0</ele><time>2026-05-06T13:07:20.276Z</time></trkpt><trkpt lat="44.8169135" lon="7.9468981"><ele>299.0</ele><time>2026-05-06T13:07:21.277Z</time></trkpt><trkpt lat="44.8168813" lon="7.9466924"><ele>299.0</ele><time>2026-05-06T13:07:22.277Z</time></trkpt><trkpt lat="44.8168587" lon="7.9465108"><ele>299.0</ele><time>2026-05-06T13:07:23.277Z</time></trkpt><trkpt lat="44.8168193" lon="7.9463502"><ele>299.0</ele><time>2026-05-06T13:07:24.276Z</time></trkpt><trkpt lat="44.816752" lon="7.9462065"><ele>299.0</ele><time>2026-05-06T13:07:25.276Z</time></trkpt><trkpt lat="44.8166487" lon="7.9460934"><ele>299.0</ele><time>2026-05-06T13:07:26.277Z</time></trkpt><trkpt lat="44.8165282" lon="7.9460317"><ele>299.0</ele><time>2026-05-06T13:07:27.276Z</time></trkpt><trkpt lat="44.8163942" lon="7.9460425"><ele>299.0</ele><time>2026-05-06T13:07:28.276Z</time></trkpt><trkpt lat="44.8162421" lon="7.9460907"><ele>299.0</ele><time>2026-05-06T13:07:29.277Z</time></trkpt><trkpt lat="44.8160901" lon="7.9461479"><ele>299.0</ele><time>2026-05-06T13:07:30.277Z</time></trkpt><trkpt lat="44.8159342" lon="7.9461899"><ele>299.0</ele><time>2026-05-06T13:07:31.277Z</time></trkpt><trkpt lat="44.8157737" lon="7.9462049"><ele>299.0</ele><time>2026-05-06T13:07:32.276Z</time></trkpt><trkpt lat="44.8156129" lon="7.9461894"><ele>299.0</ele><time>2026-05-06T13:07:33.276Z</time></trkpt><trkpt lat="44.8154435" lon="7.9461724"><ele>299.0</ele><time>2026-05-06T13:07:34.277Z</time></trkpt><trkpt lat="44.8152751" lon="7.9461501"><ele>300.0</ele><time>2026-05-06T13:07:35.276Z</time></trkpt><trkpt lat="44.8151223" lon="7.9461154"><ele>301.0</ele><time>2026-05-06T13:07:36.277Z</time></trkpt><trkpt lat="44.8149782" lon="7.946091"><ele>302.0</ele><time>2026-05-06T13:07:37.276Z</time></trkpt><trkpt lat="44.8148429" lon="7.9460833"><ele>303.0</ele><time>2026-05-06T13:07:38.276Z</time></trkpt><trkpt lat="44.8147256" lon="7.9461063"><ele>303.0</ele><time>2026-05-06T13:07:39.276Z</time></trkpt><trkpt lat="44.8146226" lon="7.9461585"><ele>303.0</ele><time>2026-05-06T13:07:40.277Z</time></trkpt><trkpt lat="44.8145177" lon="7.9462463"><ele>303.0</ele><time>2026-05-06T13:07:41.277Z</time></trkpt><trkpt lat="44.8144239" lon="7.9463765"><ele>303.0</ele><time>2026-05-06T13:07:42.277Z</time></trkpt><trkpt lat="44.8143551" lon="7.946547"><ele>303.25</ele><time>2026-05-06T13:07:43.276Z</time></trkpt><trkpt lat="44.8143208" lon="7.9467347"><ele>303.5</ele><time>2026-05-06T13:07:44.277Z</time></trkpt><trkpt lat="44.8143337" lon="7.9469337"><ele>303.75</ele><time>2026-05-06T13:07:45.276Z</time></trkpt><trkpt lat="44.8143992" lon="7.9471223"><ele>304.0</ele><time>2026-05-06T13:07:46.277Z</time></trkpt><trkpt lat="44.814482" lon="7.9472944"><ele>303.25</ele><time>2026-05-06T13:07:47.276Z</time></trkpt><trkpt lat="44.8145699" lon="7.9474635"><ele>302.5</ele><time>2026-05-06T13:07:48.276Z</time></trkpt><trkpt lat="44.8146397" lon="7.9476274"><ele>301.75</ele><time>2026-05-06T13:07:49.276Z</time></trkpt><trkpt lat="44.8147077" lon="7.9477826"><ele>301.0</ele><time>2026-05-06T13:07:50.276Z</time></trkpt><trkpt lat="44.8147551" lon="7.9479364"><ele>301.0</ele><time>2026-05-06T13:07:51.277Z</time></trkpt><trkpt lat="44.81478" lon="7.9480905"><ele>301.0</ele><time>2026-05-06T13:07:52.277Z</time></trkpt><trkpt lat="44.8147683" lon="7.9482423"><ele>301.0</ele><time>2026-05-06T13:07:53.277Z</time></trkpt><trkpt lat="44.8147284" lon="7.948374"><ele>301.0</ele><time>2026-05-06T13:07:54.277Z</time></trkpt><trkpt lat="44.8146636" lon="7.9485007"><ele>301.0</ele><time>2026-05-06T13:07:55.277Z</time></trkpt><trkpt lat="44.8145739" lon="7.9485982"><ele>301.25</ele><time>2026-05-06T13:07:56.276Z</time></trkpt><trkpt lat="44.8144707" lon="7.9486761"><ele>301.5</ele><time>2026-05-06T13:07:57.276Z</time></trkpt><trkpt lat="44.8143561" lon="7.9487559"><ele>301.75</ele><time>2026-05-06T13:07:58.277Z</time></trkpt><trkpt lat="44.8142404" lon="7.9488365"><ele>302.0</ele><time>2026-05-06T13:07:59.276Z</time></trkpt><trkpt lat="44.8141275" lon="7.9489298"><ele>302.0</ele><time>2026-05-06T13:08:00.277Z</time></trkpt><trkpt lat="44.8140121" lon="7.9490293"><ele>302.0</ele><time>2026-05-06T13:08:01.276Z</time></trkpt><trkpt lat="44.8138939" lon="7.9491273"><ele>302.0</ele><time>2026-05-06T13:08:02.277Z</time></trkpt><trkpt lat="44.8137722" lon="7.9492438"><ele>302.0</ele><time>2026-05-06T13:08:03.277Z</time></trkpt><trkpt lat="44.8136537" lon="7.9493493"><ele>302.0</ele><time>2026-05-06T13:08:04.277Z</time></trkpt><trkpt lat="44.8135234" lon="7.9494522"><ele>302.0</ele><time>2026-05-06T13:08:05.277Z</time></trkpt><trkpt lat="44.8133911" lon="7.9495618"><ele>302.0</ele><time>2026-05-06T13:08:06.276Z</time></trkpt><trkpt lat="44.813246" lon="7.9496652"><ele>303.33333333333337</ele><time>2026-05-06T13:08:07.277Z</time></trkpt><trkpt lat="44.8131024" lon="7.9497813"><ele>304.6666666666667</ele><time>2026-05-06T13:08:08.276Z</time></trkpt><trkpt lat="44.812973" lon="7.949898"><ele>306.0</ele><time>2026-05-06T13:08:09.277Z</time></trkpt><trkpt lat="44.812866" lon="7.9500096"><ele>306.40000000000003</ele><time>2026-05-06T13:08:10.277Z</time></trkpt><trkpt lat="44.8127624" lon="7.9501048"><ele>306.8</ele><time>2026-05-06T13:08:11.277Z</time></trkpt><trkpt lat="44.812665" lon="7.9501805"><ele>307.20000000000005</ele><time>2026-05-06T13:08:12.276Z</time></trkpt><trkpt lat="44.812572" lon="7.9502372"><ele>307.6</ele><time>2026-05-06T13:08:13.277Z</time></trkpt><trkpt lat="44.8124797" lon="7.9502736"><ele>308.0</ele><time>2026-05-06T13:08:14.276Z</time></trkpt><trkpt lat="44.8123848" lon="7.9502735"><ele>308.0</ele><time>2026-05-06T13:08:15.276Z</time></trkpt><trkpt lat="44.8122932" lon="7.9502267"><ele>308.0</ele><time>2026-05-06T13:08:16.277Z</time></trkpt><trkpt lat="44.8122095" lon="7.9501245"><ele>308.0</ele><time>2026-05-06T13:08:17.276Z</time></trkpt><trkpt lat="44.8121393" lon="7.9499863"><ele>308.0</ele><time>2026-05-06T13:08:18.277Z</time></trkpt><trkpt lat="44.8120719" lon="7.9498244"><ele>307.75</ele><time>2026-05-06T13:08:19.276Z</time></trkpt><trkpt lat="44.8120053" lon="7.9496567"><ele>307.5</ele><time>2026-05-06T13:08:20.277Z</time></trkpt><trkpt lat="44.8119367" lon="7.9494772"><ele>307.25</ele><time>2026-05-06T13:08:21.277Z</time></trkpt><trkpt lat="44.8118624" lon="7.949305"><ele>307.0</ele><time>2026-05-06T13:08:22.276Z</time></trkpt><trkpt lat="44.8117812" lon="7.9491257"><ele>308.66666666666663</ele><time>2026-05-06T13:08:23.276Z</time></trkpt><trkpt lat="44.8117091" lon="7.9489423"><ele>310.3333333333333</ele><time>2026-05-06T13:08:24.276Z</time></trkpt><trkpt lat="44.8116345" lon="7.9487474"><ele>312.0</ele><time>2026-05-06T13:08:25.277Z</time></trkpt><trkpt lat="44.8115521" lon="7.9485556"><ele>311.3333333333333</ele><time>2026-05-06T13:08:26.277Z</time></trkpt><trkpt lat="44.8114541" lon="7.9483706"><ele>310.66666666666663</ele><time>2026-05-06T13:08:27.276Z</time></trkpt><trkpt lat="44.8113535" lon="7.9481916"><ele>310.0</ele><time>2026-05-06T13:08:28.277Z</time></trkpt><trkpt lat="44.8112311" lon="7.9480353"><ele>310.0</ele><time>2026-05-06T13:08:29.277Z</time></trkpt><trkpt lat="44.8110853" lon="7.9479072"><ele>310.0</ele><time>2026-05-06T13:08:30.277Z</time></trkpt><trkpt lat="44.8109281" lon="7.94778"><ele>310.0</ele><time>2026-05-06T13:08:31.277Z</time></trkpt><trkpt lat="44.8107644" lon="7.9476531"><ele>309.66666666666663</ele><time>2026-05-06T13:08:32.276Z</time></trkpt><trkpt lat="44.8106006" lon="7.9475189"><ele>309.3333333333333</ele><time>2026-05-06T13:08:33.277Z</time></trkpt><trkpt lat="44.8104386" lon="7.9473811"><ele>309.0</ele><time>2026-05-06T13:08:34.277Z</time></trkpt><trkpt lat="44.8102708" lon="7.9472311"><ele>310.3333333333333</ele><time>2026-05-06T13:08:35.277Z</time></trkpt><trkpt lat="44.8101062" lon="7.9470772"><ele>311.66666666666663</ele><time>2026-05-06T13:08:36.276Z</time></trkpt><trkpt lat="44.8099558" lon="7.9469296"><ele>313.0</ele><time>2026-05-06T13:08:37.276Z</time></trkpt><trkpt lat="44.8098064" lon="7.9467806"><ele>312.0</ele><time>2026-05-06T13:08:38.277Z</time></trkpt><trkpt lat="44.809655" lon="7.9465989"><ele>311.0</ele><time>2026-05-06T13:08:39.276Z</time></trkpt><trkpt lat="44.8095025" lon="7.9463947"><ele>310.0</ele><time>2026-05-06T13:08:40.277Z</time></trkpt><trkpt lat="44.8093524" lon="7.946192"><ele>310.0</ele><time>2026-05-06T13:08:41.276Z</time></trkpt><trkpt lat="44.8092119" lon="7.9459813"><ele>310.0</ele><time>2026-05-06T13:08:42.277Z</time></trkpt><trkpt lat="44.8090667" lon="7.9457707"><ele>310.0</ele><time>2026-05-06T13:08:43.276Z</time></trkpt><trkpt lat="44.8089136" lon="7.9455646"><ele>310.0</ele><time>2026-05-06T13:08:44.276Z</time></trkpt><trkpt lat="44.8087602" lon="7.9453663"><ele>310.0</ele><time>2026-05-06T13:08:45.276Z</time></trkpt><trkpt lat="44.8086114" lon="7.9451589"><ele>310.0</ele><time>2026-05-06T13:08:46.277Z</time></trkpt><trkpt lat="44.8084704" lon="7.9449514"><ele>311.3333333333333</ele><time>2026-05-06T13:08:47.277Z</time></trkpt><trkpt lat="44.8083253" lon="7.9447335"><ele>312.6666666666667</ele><time>2026-05-06T13:08:48.276Z</time></trkpt><trkpt lat="44.8081957" lon="7.9444927"><ele>314.0</ele><time>2026-05-06T13:08:49.277Z</time></trkpt><trkpt lat="44.8080783" lon="7.9442509"><ele>313.33333333333337</ele><time>2026-05-06T13:08:50.277Z</time></trkpt><trkpt lat="44.8079624" lon="7.9440013"><ele>312.6666666666667</ele><time>2026-05-06T13:08:51.277Z</time></trkpt><trkpt lat="44.8078283" lon="7.9437554"><ele>312.0</ele><time>2026-05-06T13:08:52.276Z</time></trkpt><trkpt lat="44.8076852" lon="7.9435235"><ele>313.3333333333333</ele><time>2026-05-06T13:08:53.277Z</time></trkpt><trkpt lat="44.8075399" lon="7.9432992"><ele>314.66666666666663</ele><time>2026-05-06T13:08:54.276Z</time></trkpt><trkpt lat="44.8073863" lon="7.9430856"><ele>316.0</ele><time>2026-05-06T13:08:55.277Z</time></trkpt><trkpt lat="44.8072269" lon="7.9428699"><ele>316.0</ele><time>2026-05-06T13:08:56.276Z</time></trkpt><trkpt lat="44.8070712" lon="7.9426576"><ele>316.0</ele><time>2026-05-06T13:08:57.276Z</time></trkpt><trkpt lat="44.8069189" lon="7.9424489"><ele>316.0</ele><time>2026-05-06T13:08:58.276Z</time></trkpt><trkpt lat="44.8067645" lon="7.9422351"><ele>315.66666666666663</ele><time>2026-05-06T13:08:59.276Z</time></trkpt><trkpt lat="44.8066096" lon="7.9420259"><ele>315.3333333333333</ele><time>2026-05-06T13:09:00.276Z</time></trkpt><trkpt lat="44.8064547" lon="7.941816"><ele>315.0</ele><time>2026-05-06T13:09:01.277Z</time></trkpt><trkpt lat="44.8062996" lon="7.9415962"><ele>315.0</ele><time>2026-05-06T13:09:02.276Z</time></trkpt><trkpt lat="44.8061511" lon="7.9413651"><ele>315.0</ele><time>2026-05-06T13:09:03.277Z</time></trkpt><trkpt lat="44.8060272" lon="7.9411259"><ele>315.0</ele><time>2026-05-06T13:09:04.277Z</time></trkpt><trkpt lat="44.8059392" lon="7.9408527"><ele>315.3333333333333</ele><time>2026-05-06T13:09:05.276Z</time></trkpt><trkpt lat="44.8058876" lon="7.9405569"><ele>315.66666666666663</ele><time>2026-05-06T13:09:06.277Z</time></trkpt><trkpt lat="44.8058805" lon="7.9402515"><ele>316.0</ele><time>2026-05-06T13:09:07.277Z</time></trkpt><trkpt lat="44.8059062" lon="7.9399411"><ele>316.3333333333333</ele><time>2026-05-06T13:09:08.276Z</time></trkpt><trkpt lat="44.8059506" lon="7.9396343"><ele>316.6666666666667</ele><time>2026-05-06T13:09:09.277Z</time></trkpt><trkpt lat="44.8060091" lon="7.939334"><ele>317.0</ele><time>2026-05-06T13:09:10.277Z</time></trkpt><trkpt lat="44.8060681" lon="7.939038"><ele>317.0</ele><time>2026-05-06T13:09:11.276Z</time></trkpt><trkpt lat="44.8061272" lon="7.9387452"><ele>317.0</ele><time>2026-05-06T13:09:12.276Z</time></trkpt><trkpt lat="44.8061829" lon="7.9384445"><ele>317.0</ele><time>2026-05-06T13:09:13.277Z</time></trkpt><trkpt lat="44.8062305" lon="7.9381343"><ele>317.6666666666667</ele><time>2026-05-06T13:09:14.277Z</time></trkpt><trkpt lat="44.8062801" lon="7.9378356"><ele>318.3333333333333</ele><time>2026-05-06T13:09:15.276Z</time></trkpt><trkpt lat="44.8063368" lon="7.937551"><ele>319.0</ele><time>2026-05-06T13:09:16.276Z</time></trkpt><trkpt lat="44.8063821" lon="7.9372657"><ele>320.66666666666663</ele><time>2026-05-06T13:09:17.276Z</time></trkpt><trkpt lat="44.8064283" lon="7.9369875"><ele>322.3333333333333</ele><time>2026-05-06T13:09:18.276Z</time></trkpt><trkpt lat="44.8064742" lon="7.936726"><ele>324.0</ele><time>2026-05-06T13:09:19.277Z</time></trkpt><trkpt lat="44.8065162" lon="7.9364747"><ele>325.6666666666667</ele><time>2026-05-06T13:09:20.277Z</time></trkpt><trkpt lat="44.8065846" lon="7.9362615"><ele>327.33333333333337</ele><time>2026-05-06T13:09:21.277Z</time></trkpt><trkpt lat="44.8066634" lon="7.9360783"><ele>329.0</ele><time>2026-05-06T13:09:22.277Z</time></trkpt><trkpt lat="44.8067465" lon="7.9359058"><ele>329.0</ele><time>2026-05-06T13:09:23.277Z</time></trkpt><trkpt lat="44.8067992" lon="7.9357315"><ele>329.0</ele><time>2026-05-06T13:09:24.277Z</time></trkpt><trkpt lat="44.8068079" lon="7.9355561"><ele>329.0</ele><time>2026-05-06T13:09:25.276Z</time></trkpt><trkpt lat="44.8067837" lon="7.9353645"><ele>329.0</ele><time>2026-05-06T13:09:26.277Z</time></trkpt><trkpt lat="44.8067243" lon="7.9351721"><ele>330.33333333333337</ele><time>2026-05-06T13:09:27.277Z</time></trkpt><trkpt lat="44.8066443" lon="7.9349893"><ele>331.6666666666667</ele><time>2026-05-06T13:09:28.276Z</time></trkpt><trkpt lat="44.806564" lon="7.9347976"><ele>333.0</ele><time>2026-05-06T13:09:29.276Z</time></trkpt><trkpt lat="44.8064582" lon="7.9346203"><ele>333.0</ele><time>2026-05-06T13:09:30.276Z</time></trkpt><trkpt lat="44.806339" lon="7.9344637"><ele>333.0</ele><time>2026-05-06T13:09:31.277Z</time></trkpt><trkpt lat="44.8062184" lon="7.9343094"><ele>333.0</ele><time>2026-05-06T13:09:32.276Z</time></trkpt><trkpt lat="44.8060959" lon="7.9341583"><ele>337.6666666666667</ele><time>2026-05-06T13:09:33.277Z</time></trkpt><trkpt lat="44.8059881" lon="7.9339942"><ele>342.33333333333337</ele><time>2026-05-06T13:09:34.276Z</time></trkpt><trkpt lat="44.805921" lon="7.9337989"><ele>347.0</ele><time>2026-05-06T13:09:35.276Z</time></trkpt><trkpt lat="44.8058918" lon="7.9335793"><ele>347.0</ele><time>2026-05-06T13:09:36.277Z</time></trkpt><trkpt lat="44.8058821" lon="7.9333599"><ele>347.0</ele><time>2026-05-06T13:09:37.277Z</time></trkpt><trkpt lat="44.8058983" lon="7.9331344"><ele>347.0</ele><time>2026-05-06T13:09:38.277Z</time></trkpt><trkpt lat="44.8059315" lon="7.9329224"><ele>347.0</ele><time>2026-05-06T13:09:39.276Z</time></trkpt><trkpt lat="44.8059793" lon="7.9327302"><ele>347.0</ele><time>2026-05-06T13:09:40.276Z</time></trkpt><trkpt lat="44.8060534" lon="7.9325447"><ele>347.0</ele><time>2026-05-06T13:09:41.276Z</time></trkpt><trkpt lat="44.806144" lon="7.9323763"><ele>347.0</ele><time>2026-05-06T13:09:42.277Z</time></trkpt><trkpt lat="44.8062227" lon="7.9322244"><ele>346.20000000000005</ele><time>2026-05-06T13:09:43.277Z</time></trkpt><trkpt lat="44.8062734" lon="7.9320788"><ele>345.4</ele><time>2026-05-06T13:09:44.276Z</time></trkpt><trkpt lat="44.8062779" lon="7.9319517"><ele>344.6</ele><time>2026-05-06T13:09:45.277Z</time></trkpt><trkpt lat="44.8062416" lon="7.9318302"><ele>343.79999999999995</ele><time>2026-05-06T13:09:46.276Z</time></trkpt><trkpt lat="44.8061679" lon="7.9317199"><ele>343.0</ele><time>2026-05-06T13:09:47.276Z</time></trkpt><trkpt lat="44.8060673" lon="7.9316425"><ele>345.5</ele><time>2026-05-06T13:09:48.276Z</time></trkpt><trkpt lat="44.8059508" lon="7.9316052"><ele>348.0</ele><time>2026-05-06T13:09:49.276Z</time></trkpt><trkpt lat="44.8058165" lon="7.9315858"><ele>350.5</ele><time>2026-05-06T13:09:50.277Z</time></trkpt><trkpt lat="44.8056736" lon="7.9315776"><ele>353.0</ele><time>2026-05-06T13:09:51.277Z</time></trkpt><trkpt lat="44.8055344" lon="7.9315743"><ele>353.0</ele><time>2026-05-06T13:09:52.276Z</time></trkpt><trkpt lat="44.8054079" lon="7.9315567"><ele>353.0</ele><time>2026-05-06T13:09:53.276Z</time></trkpt><trkpt lat="44.8052948" lon="7.9315117"><ele>353.0</ele><time>2026-05-06T13:09:54.276Z</time></trkpt><trkpt lat="44.8051797" lon="7.9314374"><ele>353.0</ele><time>2026-05-06T13:09:55.276Z</time></trkpt><trkpt lat="44.8050877" lon="7.9313351"><ele>353.25</ele><time>2026-05-06T13:09:56.275Z</time></trkpt><trkpt lat="44.8049987" lon="7.9311803"><ele>353.5</ele><time>2026-05-06T13:09:57.275Z</time></trkpt><trkpt lat="44.8049365" lon="7.9310001"><ele>353.75</ele><time>2026-05-06T13:09:58.275Z</time></trkpt><trkpt lat="44.8048777" lon="7.9308005"><ele>354.0</ele><time>2026-05-06T13:09:59.275Z</time></trkpt><trkpt lat="44.8048171" lon="7.9306038"><ele>353.3333333333333</ele><time>2026-05-06T13:10:00.275Z</time></trkpt><trkpt lat="44.8047533" lon="7.9304078"><ele>352.66666666666663</ele><time>2026-05-06T13:10:01.275Z</time></trkpt><trkpt lat="44.8046882" lon="7.9302225"><ele>352.0</ele><time>2026-05-06T13:10:02.275Z</time></trkpt><trkpt lat="44.8046126" lon="7.9300237"><ele>352.0</ele><time>2026-05-06T13:10:03.275Z</time></trkpt><trkpt lat="44.8045334" lon="7.9298052"><ele>352.0</ele><time>2026-05-06T13:10:04.276Z</time></trkpt><trkpt lat="44.8044563" lon="7.9295851"><ele>352.0</ele><time>2026-05-06T13:10:05.276Z</time></trkpt><trkpt lat="44.8043842" lon="7.9293551"><ele>355.3333333333333</ele><time>2026-05-06T13:10:06.276Z</time></trkpt><trkpt lat="44.8043144" lon="7.929125"><ele>358.6666666666667</ele><time>2026-05-06T13:10:07.275Z</time></trkpt><trkpt lat="44.8042438" lon="7.9288968"><ele>362.0</ele><time>2026-05-06T13:10:08.276Z</time></trkpt><trkpt lat="44.8041721" lon="7.9286666"><ele>362.0</ele><time>2026-05-06T13:10:09.276Z</time></trkpt><trkpt lat="44.8041108" lon="7.9284366"><ele>362.0</ele><time>2026-05-06T13:10:10.275Z</time></trkpt><trkpt lat="44.8040575" lon="7.9282175"><ele>362.0</ele><time>2026-05-06T13:10:11.275Z</time></trkpt><trkpt lat="44.8040048" lon="7.9280168"><ele>363.25</ele><time>2026-05-06T13:10:12.275Z</time></trkpt><trkpt lat="44.8039454" lon="7.9278224"><ele>364.5</ele><time>2026-05-06T13:10:13.275Z</time></trkpt><trkpt lat="44.8038831" lon="7.92764"><ele>365.75</ele><time>2026-05-06T13:10:14.275Z</time></trkpt><trkpt lat="44.8038326" lon="7.9274726"><ele>367.0</ele><time>2026-05-06T13:10:15.275Z</time></trkpt><trkpt lat="44.8038033" lon="7.9273178"><ele>368.6</ele><time>2026-05-06T13:10:16.275Z</time></trkpt><trkpt lat="44.803763" lon="7.9271755"><ele>370.20000000000005</ele><time>2026-05-06T13:10:17.275Z</time></trkpt><trkpt lat="44.8036938" lon="7.9270635"><ele>371.8</ele><time>2026-05-06T13:10:18.276Z</time></trkpt><trkpt lat="44.8035911" lon="7.9269779"><ele>373.4</ele><time>2026-05-06T13:10:19.275Z</time></trkpt><trkpt lat="44.8034835" lon="7.926925"><ele>375.0</ele><time>2026-05-06T13:10:20.276Z</time></trkpt><trkpt lat="44.803361" lon="7.9269024"><ele>375.75</ele><time>2026-05-06T13:10:21.275Z</time></trkpt><trkpt lat="44.8032285" lon="7.9268763"><ele>376.5</ele><time>2026-05-06T13:10:22.276Z</time></trkpt><trkpt lat="44.8030882" lon="7.9268414"><ele>377.25</ele><time>2026-05-06T13:10:23.275Z</time></trkpt><trkpt lat="44.8029375" lon="7.9268001"><ele>378.0</ele><time>2026-05-06T13:10:24.276Z</time></trkpt><trkpt lat="44.8027833" lon="7.9267468"><ele>379.6666666666667</ele><time>2026-05-06T13:10:25.276Z</time></trkpt><trkpt lat="44.8026336" lon="7.9266978"><ele>381.33333333333337</ele><time>2026-05-06T13:10:26.275Z</time></trkpt><trkpt lat="44.8024816" lon="7.9266253"><ele>383.0</ele><time>2026-05-06T13:10:27.276Z</time></trkpt><trkpt lat="44.8023227" lon="7.9265439"><ele>383.0</ele><time>2026-05-06T13:10:28.276Z</time></trkpt><trkpt lat="44.8021626" lon="7.9264712"><ele>383.0</ele><time>2026-05-06T13:10:29.275Z</time></trkpt><trkpt lat="44.8020038" lon="7.9264224"><ele>383.0</ele><time>2026-05-06T13:10:30.276Z</time></trkpt><trkpt lat="44.8018562" lon="7.926411"><ele>383.5</ele><time>2026-05-06T13:10:31.276Z</time></trkpt><trkpt lat="44.8017156" lon="7.9264005"><ele>384.0</ele><time>2026-05-06T13:10:32.275Z</time></trkpt><trkpt lat="44.8015835" lon="7.9263878"><ele>384.5</ele><time>2026-05-06T13:10:33.276Z</time></trkpt><trkpt lat="44.8014529" lon="7.9263821"><ele>385.0</ele><time>2026-05-06T13:10:34.276Z</time></trkpt><trkpt lat="44.801329" lon="7.926368"><ele>385.0</ele><time>2026-05-06T13:10:35.275Z</time></trkpt><trkpt lat="44.8012158" lon="7.9263295"><ele>385.0</ele><time>2026-05-06T13:10:36.275Z</time></trkpt><trkpt lat="44.8011071" lon="7.9262677"><ele>385.0</ele><time>2026-05-06T13:10:37.276Z</time></trkpt><trkpt lat="44.8010102" lon="7.9261772"><ele>385.0</ele><time>2026-05-06T13:10:38.276Z</time></trkpt><trkpt lat="44.8008989" lon="7.9260783"><ele>385.25</ele><time>2026-05-06T13:10:39.276Z</time></trkpt><trkpt lat="44.8007811" lon="7.9260071"><ele>385.5</ele><time>2026-05-06T13:10:40.275Z</time></trkpt><trkpt lat="44.8006738" lon="7.925962"><ele>385.75</ele><time>2026-05-06T13:10:41.276Z</time></trkpt><trkpt lat="44.800561" lon="7.9259739"><ele>386.0</ele><time>2026-05-06T13:10:42.276Z</time></trkpt><trkpt lat="44.8004605" lon="7.9260218"><ele>386.0</ele><time>2026-05-06T13:10:43.275Z</time></trkpt><trkpt lat="44.800358" lon="7.9261083"><ele>386.0</ele><time>2026-05-06T13:10:44.275Z</time></trkpt><trkpt lat="44.8002622" lon="7.9262242"><ele>386.0</ele><time>2026-05-06T13:10:45.275Z</time></trkpt><trkpt lat="44.800179" lon="7.9263701"><ele>386.0</ele><time>2026-05-06T13:10:46.275Z</time></trkpt><trkpt lat="44.8000995" lon="7.9265487"><ele>386.0</ele><time>2026-05-06T13:10:47.275Z</time></trkpt><trkpt lat="44.8000192" lon="7.9267376"><ele>386.0</ele><time>2026-05-06T13:10:48.276Z</time></trkpt><trkpt lat="44.7999293" lon="7.9269353"><ele>386.0</ele><time>2026-05-06T13:10:49.276Z</time></trkpt><trkpt lat="44.799826" lon="7.927131"><ele>386.0</ele><time>2026-05-06T13:10:50.276Z</time></trkpt><trkpt lat="44.7997172" lon="7.9273181"><ele>386.0</ele><time>2026-05-06T13:10:51.276Z</time></trkpt><trkpt lat="44.7995963" lon="7.9274997"><ele>386.0</ele><time>2026-05-06T13:10:52.276Z</time></trkpt><trkpt lat="44.7994806" lon="7.9276734"><ele>386.3333333333333</ele><time>2026-05-06T13:10:53.276Z</time></trkpt><trkpt lat="44.799352" lon="7.927845"><ele>386.66666666666663</ele><time>2026-05-06T13:10:54.275Z</time></trkpt><trkpt lat="44.7992412" lon="7.9279988"><ele>387.0</ele><time>2026-05-06T13:10:55.276Z</time></trkpt><trkpt lat="44.7991358" lon="7.9281535"><ele>387.0</ele><time>2026-05-06T13:10:56.275Z</time></trkpt><trkpt lat="44.7990412" lon="7.9282854"><ele>387.0</ele><time>2026-05-06T13:10:57.276Z</time></trkpt><trkpt lat="44.7989389" lon="7.9283972"><ele>387.0</ele><time>2026-05-06T13:10:58.275Z</time></trkpt><trkpt lat="44.7988195" lon="7.9284929"><ele>387.0</ele><time>2026-05-06T13:10:59.275Z</time></trkpt><trkpt lat="44.7986859" lon="7.9286137"><ele>385.3333333333333</ele><time>2026-05-06T13:11:00.275Z</time></trkpt><trkpt lat="44.7985465" lon="7.9287412"><ele>383.66666666666663</ele><time>2026-05-06T13:11:01.275Z</time></trkpt><trkpt lat="44.7983977" lon="7.9288747"><ele>382.0</ele><time>2026-05-06T13:11:02.275Z</time></trkpt><trkpt lat="44.7982543" lon="7.9290024"><ele>382.0</ele><time>2026-05-06T13:11:03.276Z</time></trkpt><trkpt lat="44.7981045" lon="7.929103"><ele>382.0</ele><time>2026-05-06T13:11:04.275Z</time></trkpt><trkpt lat="44.7979552" lon="7.929179"><ele>382.0</ele><time>2026-05-06T13:11:05.275Z</time></trkpt><trkpt lat="44.7978074" lon="7.9292441"><ele>380.75</ele><time>2026-05-06T13:11:06.276Z</time></trkpt><trkpt lat="44.7976722" lon="7.9293195"><ele>379.5</ele><time>2026-05-06T13:11:07.276Z</time></trkpt><trkpt lat="44.7975474" lon="7.929425"><ele>378.25</ele><time>2026-05-06T13:11:08.276Z</time></trkpt><trkpt lat="44.7974402" lon="7.9295637"><ele>377.0</ele><time>2026-05-06T13:11:09.276Z</time></trkpt><trkpt lat="44.7973584" lon="7.9297291"><ele>377.0</ele><time>2026-05-06T13:11:10.276Z</time></trkpt><trkpt lat="44.7972966" lon="7.9298986"><ele>377.0</ele><time>2026-05-06T13:11:11.275Z</time></trkpt><trkpt lat="44.7972297" lon="7.930033"><ele>377.0</ele><time>2026-05-06T13:11:12.276Z</time></trkpt><trkpt lat="44.7971278" lon="7.9301347"><ele>377.0</ele><time>2026-05-06T13:11:13.276Z</time></trkpt><trkpt lat="44.797019" lon="7.9302136"><ele>376.5</ele><time>2026-05-06T13:11:14.275Z</time></trkpt><trkpt lat="44.7969047" lon="7.9302612"><ele>376.0</ele><time>2026-05-06T13:11:15.275Z</time></trkpt><trkpt lat="44.7967847" lon="7.9303107"><ele>375.5</ele><time>2026-05-06T13:11:16.276Z</time></trkpt><trkpt lat="44.7966588" lon="7.9303734"><ele>375.0</ele><time>2026-05-06T13:11:17.275Z</time></trkpt><trkpt lat="44.7965374" lon="7.9304108"><ele>378.25</ele><time>2026-05-06T13:11:18.276Z</time></trkpt><trkpt lat="44.7964061" lon="7.9304338"><ele>381.5</ele><time>2026-05-06T13:11:19.275Z</time></trkpt><trkpt lat="44.7962612" lon="7.9304387"><ele>384.75</ele><time>2026-05-06T13:11:20.276Z</time></trkpt><trkpt lat="44.7961141" lon="7.9304068"><ele>388.0</ele><time>2026-05-06T13:11:21.276Z</time></trkpt><trkpt lat="44.7959583" lon="7.9303517"><ele>388.33333333333337</ele><time>2026-05-06T13:11:22.275Z</time></trkpt><trkpt lat="44.7958002" lon="7.9302952"><ele>388.66666666666663</ele><time>2026-05-06T13:11:23.276Z</time></trkpt><trkpt lat="44.7956581" lon="7.9302215"><ele>389.0</ele><time>2026-05-06T13:11:24.275Z</time></trkpt><trkpt lat="44.7955156" lon="7.9301505"><ele>389.0</ele><time>2026-05-06T13:11:25.276Z</time></trkpt><trkpt lat="44.7953819" lon="7.9300755"><ele>389.0</ele><time>2026-05-06T13:11:26.276Z</time></trkpt><trkpt lat="44.795251" lon="7.9300131"><ele>389.0</ele><time>2026-05-06T13:11:27.276Z</time></trkpt><trkpt lat="44.7951263" lon="7.9299623"><ele>389.0</ele><time>2026-05-06T13:11:28.276Z</time></trkpt><trkpt lat="44.7950168" lon="7.9299229"><ele>386.75</ele><time>2026-05-06T13:11:29.276Z</time></trkpt><trkpt lat="44.7949015" lon="7.9299374"><ele>384.5</ele><time>2026-05-06T13:11:30.276Z</time></trkpt><trkpt lat="44.794788" lon="7.9300005"><ele>382.25</ele><time>2026-05-06T13:11:31.275Z</time></trkpt><trkpt lat="44.7947034" lon="7.9301241"><ele>380.0</ele><time>2026-05-06T13:11:32.275Z</time></trkpt><trkpt lat="44.7946458" lon="7.9302893"><ele>380.0</ele><time>2026-05-06T13:11:33.275Z</time></trkpt><trkpt lat="44.7946143" lon="7.9304761"><ele>380.0</ele><time>2026-05-06T13:11:34.275Z</time></trkpt><trkpt lat="44.7945829" lon="7.9306473"><ele>380.0</ele><time>2026-05-06T13:11:35.276Z</time></trkpt><trkpt lat="44.7945612" lon="7.9308185"><ele>380.0</ele><time>2026-05-06T13:11:36.275Z</time></trkpt><trkpt lat="44.7945634" lon="7.9309773"><ele>379.4</ele><time>2026-05-06T13:11:37.276Z</time></trkpt><trkpt lat="44.7945973" lon="7.9311279"><ele>378.8</ele><time>2026-05-06T13:11:38.276Z</time></trkpt><trkpt lat="44.7946459" lon="7.9312779"><ele>378.20000000000005</ele><time>2026-05-06T13:11:39.276Z</time></trkpt><trkpt lat="44.7946892" lon="7.9314104"><ele>377.6</ele><time>2026-05-06T13:11:40.276Z</time></trkpt><trkpt lat="44.7946981" lon="7.9315484"><ele>377.0</ele><time>2026-05-06T13:11:41.275Z</time></trkpt><trkpt lat="44.7946695" lon="7.9316959"><ele>377.0</ele><time>2026-05-06T13:11:42.276Z</time></trkpt><trkpt lat="44.7946096" lon="7.9318285"><ele>377.0</ele><time>2026-05-06T13:11:43.276Z</time></trkpt><trkpt lat="44.794498" lon="7.9319431"><ele>377.0</ele><time>2026-05-06T13:11:44.275Z</time></trkpt><trkpt lat="44.7943741" lon="7.9320256"><ele>377.0</ele><time>2026-05-06T13:11:45.275Z</time></trkpt><trkpt lat="44.7942507" lon="7.9320705"><ele>374.0</ele><time>2026-05-06T13:11:46.276Z</time></trkpt><trkpt lat="44.7941313" lon="7.932059"><ele>371.0</ele><time>2026-05-06T13:11:47.276Z</time></trkpt><trkpt lat="44.7940169" lon="7.9319953"><ele>368.0</ele><time>2026-05-06T13:11:48.276Z</time></trkpt><trkpt lat="44.793907" lon="7.9318734"><ele>365.0</ele><time>2026-05-06T13:11:49.275Z</time></trkpt><trkpt lat="44.7938063" lon="7.9317088"><ele>363.25</ele><time>2026-05-06T13:11:50.275Z</time></trkpt><trkpt lat="44.7937138" lon="7.9315318"><ele>361.5</ele><time>2026-05-06T13:11:51.276Z</time></trkpt><trkpt lat="44.7936228" lon="7.9313768"><ele>359.75</ele><time>2026-05-06T13:11:52.276Z</time></trkpt><trkpt lat="44.7935395" lon="7.9312538"><ele>358.0</ele><time>2026-05-06T13:11:53.275Z</time></trkpt><trkpt lat="44.7958002" lon="7.9302952"><ele>362.5</ele><time>2026-05-06T13:11:23.276Z</time></trkpt><trkpt lat="44.7956581" lon="7.9302215"><ele>367.0</ele><time>2026-05-06T13:11:24.275Z</time></trkpt><trkpt lat="44.7955156" lon="7.9301505"><ele>371.5</ele><time>2026-05-06T13:11:25.276Z</time></trkpt><trkpt lat="44.7953819" lon="7.9300755"><ele>376.0</ele><time>2026-05-06T13:11:26.276Z</time></trkpt><trkpt lat="44.795251" lon="7.9300131"><ele>375.75</ele><time>2026-05-06T13:11:27.276Z</time></trkpt><trkpt lat="44.7951263" lon="7.9299623"><ele>375.5</ele><time>2026-05-06T13:11:28.276Z</time></trkpt><trkpt lat="44.7950168" lon="7.9299229"><ele>375.25</ele><time>2026-05-06T13:11:29.276Z</time></trkpt><trkpt lat="44.7949015" lon="7.9299374"><ele>375.0</ele><time>2026-05-06T13:11:30.276Z</time></trkpt><trkpt lat="44.794788" lon="7.9300005"><ele>376.25</ele><time>2026-05-06T13:11:31.275Z</time></trkpt><trkpt lat="44.7947034" lon="7.9301241"><ele>377.5</ele><time>2026-05-06T13:11:32.275Z</time></trkpt><trkpt lat="44.7946458" lon="7.9302893"><ele>378.75</ele><time>2026-05-06T13:11:33.275Z</time></trkpt><trkpt lat="44.7946143" lon="7.9304761"><ele>380.0</ele><time>2026-05-06T13:11:34.275Z</time></trkpt><trkpt lat="44.7945829" lon="7.9306473"><ele>380.0</ele><time>2026-05-06T13:11:35.276Z</time></trkpt><trkpt lat="44.7945612" lon="7.9308185"><ele>380.0</ele><time>2026-05-06T13:11:36.275Z</time></trkpt><trkpt lat="44.7945634" lon="7.9309773"><ele>380.0</ele><time>2026-05-06T13:11:37.276Z</time></trkpt><trkpt lat="44.7945973" lon="7.9311279"><ele>380.0</ele><time>2026-05-06T13:11:38.276Z</time></trkpt><trkpt lat="44.7946459" lon="7.9312779"><ele>379.4</ele><time>2026-05-06T13:11:39.276Z</time></trkpt><trkpt lat="44.7946892" lon="7.9314104"><ele>378.8</ele><time>2026-05-06T13:11:40.276Z</time></trkpt><trkpt lat="44.7946981" lon="7.9315484"><ele>378.20000000000005</ele><time>2026-05-06T13:11:41.275Z</time></trkpt><trkpt lat="44.7946695" lon="7.9316959"><ele>377.6</ele><time>2026-05-06T13:11:42.276Z</time></trkpt><trkpt lat="44.7946096" lon="7.9318285"><ele>377.0</ele><time>2026-05-06T13:11:43.276Z</time></trkpt><trkpt lat="44.794498" lon="7.9319431"><ele>377.0</ele><time>2026-05-06T13:11:44.275Z</time></trkpt><trkpt lat="44.7943741" lon="7.9320256"><ele>377.0</ele><time>2026-05-06T13:11:45.275Z</time></trkpt><trkpt lat="44.7942507" lon="7.9320705"><ele>377.0</ele><time>2026-05-06T13:11:46.276Z</time></trkpt><trkpt lat="44.7941313" lon="7.932059"><ele>377.0</ele><time>2026-05-06T13:11:47.276Z</time></trkpt><trkpt lat="44.7940169" lon="7.9319953"><ele>373.0</ele><time>2026-05-06T13:11:48.276Z</time></trkpt><trkpt lat="44.793907" lon="7.9318734"><ele>369.0</ele><time>2026-05-06T13:11:49.275Z</time></trkpt><trkpt lat="44.7938063" lon="7.9317088"><ele>365.0</ele><time>2026-05-06T13:11:50.275Z</time></trkpt><trkpt lat="44.7937138" lon="7.9315318"><ele>363.25</ele><time>2026-05-06T13:11:51.276Z</time></trkpt><trkpt lat="44.7936228" lon="7.9313768"><ele>361.5</ele><time>2026-05-06T13:11:52.276Z</time></trkpt><trkpt lat="44.7935395" lon="7.9312538"><ele>359.75</ele><time>2026-05-06T13:11:53.275Z</time></trkpt><trkpt lat="44.7934602" lon="7.9311259"><ele>358.0</ele><time>2026-05-06T13:11:54.276Z</time></trkpt><trkpt lat="44.793382" lon="7.9310015"><ele>357.0</ele><time>2026-05-06T13:11:55.276Z</time></trkpt><trkpt lat="44.7933247" lon="7.9308962"><ele>356.0</ele><time>2026-05-06T13:11:56.276Z</time></trkpt><trkpt lat="44.7932766" lon="7.9308102"><ele>355.0</ele><time>2026-05-06T13:11:57.276Z</time></trkpt><trkpt lat="44.793212" lon="7.9306994"><ele>354.0</ele><time>2026-05-06T13:11:59.276Z</time></trkpt><trkpt lat="44.7931395" lon="7.9306921"><ele>353.0</ele><time>2026-05-06T13:12:03.276Z</time></trkpt><trkpt lat="44.7930687" lon="7.9308347"><ele>353.0</ele><time>2026-05-06T13:12:05.275Z</time></trkpt><trkpt lat="44.7930259" lon="7.930933"><ele>353.0</ele><time>2026-05-06T13:12:06.276Z</time></trkpt><trkpt lat="44.7929797" lon="7.9310354"><ele>353.0</ele><time>2026-05-06T13:12:07.275Z</time></trkpt><trkpt lat="44.7929256" lon="7.9311571"><ele>353.0</ele><time>2026-05-06T13:12:08.275Z</time></trkpt><trkpt lat="44.79287" lon="7.9312905"><ele>353.0</ele><time>2026-05-06T13:12:09.276Z</time></trkpt><trkpt lat="44.7928143" lon="7.9314403"><ele>353.0</ele><time>2026-05-06T13:12:10.275Z</time></trkpt><trkpt lat="44.7927579" lon="7.9315946"><ele>353.0</ele><time>2026-05-06T13:12:11.275Z</time></trkpt><trkpt lat="44.7926897" lon="7.9317519"><ele>353.0</ele><time>2026-05-06T13:12:12.276Z</time></trkpt><trkpt lat="44.7926259" lon="7.9319141"><ele>353.0</ele><time>2026-05-06T13:12:13.276Z</time></trkpt><trkpt lat="44.7925633" lon="7.9320856"><ele>353.0</ele><time>2026-05-06T13:12:14.275Z</time></trkpt><trkpt lat="44.7924925" lon="7.9322603"><ele>353.0</ele><time>2026-05-06T13:12:15.276Z</time></trkpt><trkpt lat="44.7924167" lon="7.9324351"><ele>353.0</ele><time>2026-05-06T13:12:16.276Z</time></trkpt><trkpt lat="44.7923427" lon="7.9326209"><ele>353.0</ele><time>2026-05-06T13:12:17.276Z</time></trkpt><trkpt lat="44.7922737" lon="7.9328108"><ele>355.0</ele><time>2026-05-06T13:12:18.275Z</time></trkpt><trkpt lat="44.7921977" lon="7.9330109"><ele>357.0</ele><time>2026-05-06T13:12:19.276Z</time></trkpt><trkpt lat="44.7921206" lon="7.9332235"><ele>359.0</ele><time>2026-05-06T13:12:20.275Z</time></trkpt><trkpt lat="44.7920393" lon="7.9334416"><ele>359.33333333333337</ele><time>2026-05-06T13:12:21.275Z</time></trkpt><trkpt lat="44.7919657" lon="7.9336628"><ele>359.6666666666667</ele><time>2026-05-06T13:12:22.275Z</time></trkpt><trkpt lat="44.7918969" lon="7.9338912"><ele>360.0</ele><time>2026-05-06T13:12:23.276Z</time></trkpt><trkpt lat="44.791825" lon="7.9341157"><ele>360.0</ele><time>2026-05-06T13:12:24.275Z</time></trkpt><trkpt lat="44.7917604" lon="7.9343465"><ele>360.0</ele><time>2026-05-06T13:12:25.276Z</time></trkpt><trkpt lat="44.7916893" lon="7.9345794"><ele>360.0</ele><time>2026-05-06T13:12:26.275Z</time></trkpt><trkpt lat="44.791613" lon="7.9348028"><ele>360.0</ele><time>2026-05-06T13:12:27.276Z</time></trkpt><trkpt lat="44.7915406" lon="7.935036"><ele>360.0</ele><time>2026-05-06T13:12:28.276Z</time></trkpt><trkpt lat="44.7914785" lon="7.935267"><ele>360.0</ele><time>2026-05-06T13:12:29.275Z</time></trkpt><trkpt lat="44.7914103" lon="7.9355013"><ele>362.0</ele><time>2026-05-06T13:12:30.276Z</time></trkpt><trkpt lat="44.7913302" lon="7.9357305"><ele>364.0</ele><time>2026-05-06T13:12:31.275Z</time></trkpt><trkpt lat="44.7912605" lon="7.9359677"><ele>366.0</ele><time>2026-05-06T13:12:32.275Z</time></trkpt><trkpt lat="44.7911903" lon="7.9362122"><ele>366.0</ele><time>2026-05-06T13:12:33.276Z</time></trkpt><trkpt lat="44.791129" lon="7.9364409"><ele>366.0</ele><time>2026-05-06T13:12:34.275Z</time></trkpt><trkpt lat="44.7910652" lon="7.9366471"><ele>366.0</ele><time>2026-05-06T13:12:35.276Z</time></trkpt><trkpt lat="44.79101" lon="7.9368358"><ele>362.3333333333333</ele><time>2026-05-06T13:12:36.275Z</time></trkpt><trkpt lat="44.7909578" lon="7.9370341"><ele>358.66666666666663</ele><time>2026-05-06T13:12:37.275Z</time></trkpt><trkpt lat="44.7909018" lon="7.9372307"><ele>355.0</ele><time>2026-05-06T13:12:38.276Z</time></trkpt><trkpt lat="44.7908071" lon="7.9374027"><ele>355.0</ele><time>2026-05-06T13:12:39.275Z</time></trkpt><trkpt lat="44.7906955" lon="7.9375431"><ele>355.0</ele><time>2026-05-06T13:12:40.276Z</time></trkpt><trkpt lat="44.7905828" lon="7.9376664"><ele>355.0</ele><time>2026-05-06T13:12:41.276Z</time></trkpt><trkpt lat="44.7904775" lon="7.9378073"><ele>355.0</ele><time>2026-05-06T13:12:42.276Z</time></trkpt><trkpt lat="44.7903736" lon="7.9379523"><ele>352.25</ele><time>2026-05-06T13:12:43.276Z</time></trkpt><trkpt lat="44.7902867" lon="7.9381066"><ele>349.5</ele><time>2026-05-06T13:12:44.276Z</time></trkpt><trkpt lat="44.7902213" lon="7.9382778"><ele>346.75</ele><time>2026-05-06T13:12:45.276Z</time></trkpt><trkpt lat="44.790175" lon="7.9384489"><ele>344.0</ele><time>2026-05-06T13:12:46.276Z</time></trkpt><trkpt lat="44.790131" lon="7.9386219"><ele>343.0</ele><time>2026-05-06T13:12:47.276Z</time></trkpt><trkpt lat="44.790064" lon="7.9387822"><ele>342.0</ele><time>2026-05-06T13:12:48.275Z</time></trkpt><trkpt lat="44.7899664" lon="7.9389021"><ele>341.0</ele><time>2026-05-06T13:12:49.275Z</time></trkpt><trkpt lat="44.789863" lon="7.9390089"><ele>340.0</ele><time>2026-05-06T13:12:50.276Z</time></trkpt><trkpt lat="44.7897604" lon="7.9391199"><ele>339.75</ele><time>2026-05-06T13:12:51.275Z</time></trkpt><trkpt lat="44.789658" lon="7.939219"><ele>339.5</ele><time>2026-05-06T13:12:52.276Z</time></trkpt><trkpt lat="44.7895492" lon="7.9393061"><ele>339.25</ele><time>2026-05-06T13:12:53.276Z</time></trkpt><trkpt lat="44.7894375" lon="7.9393944"><ele>339.0</ele><time>2026-05-06T13:12:54.276Z</time></trkpt><trkpt lat="44.7893264" lon="7.9394482"><ele>340.5</ele><time>2026-05-06T13:12:55.276Z</time></trkpt><trkpt lat="44.7892275" lon="7.9394774"><ele>342.0</ele><time>2026-05-06T13:12:56.276Z</time></trkpt><trkpt lat="44.7891449" lon="7.939502"><ele>343.5</ele><time>2026-05-06T13:12:57.276Z</time></trkpt><trkpt lat="44.7890721" lon="7.9395432"><ele>345.0</ele><time>2026-05-06T13:12:58.276Z</time></trkpt><trkpt lat="44.7890102" lon="7.939599"><ele>346.5</ele><time>2026-05-06T13:12:59.276Z</time></trkpt><trkpt lat="44.7889549" lon="7.9396655"><ele>348.0</ele><time>2026-05-06T13:13:00.276Z</time></trkpt><trkpt lat="44.788912" lon="7.9397608"><ele>348.0</ele><time>2026-05-06T13:13:01.275Z</time></trkpt><trkpt lat="44.7888727" lon="7.9398728"><ele>348.0</ele><time>2026-05-06T13:13:02.276Z</time></trkpt><trkpt lat="44.7888336" lon="7.9399995"><ele>348.0</ele><time>2026-05-06T13:13:03.275Z</time></trkpt><trkpt lat="44.7888036" lon="7.9401499"><ele>348.0</ele><time>2026-05-06T13:13:04.275Z</time></trkpt><trkpt lat="44.788766" lon="7.9403022"><ele>348.0</ele><time>2026-05-06T13:13:05.276Z</time></trkpt><trkpt lat="44.7887312" lon="7.9404553"><ele>349.4</ele><time>2026-05-06T13:13:06.276Z</time></trkpt><trkpt lat="44.7886987" lon="7.9406085"><ele>350.79999999999995</ele><time>2026-05-06T13:13:07.276Z</time></trkpt><trkpt lat="44.7886691" lon="7.9407597"><ele>352.2</ele><time>2026-05-06T13:13:08.276Z</time></trkpt><trkpt lat="44.7886375" lon="7.9409155"><ele>353.6</ele><time>2026-05-06T13:13:09.275Z</time></trkpt><trkpt lat="44.788609" lon="7.941062"><ele>355.0</ele><time>2026-05-06T13:13:10.275Z</time></trkpt><trkpt lat="44.7885865" lon="7.9411988"><ele>352.0</ele><time>2026-05-06T13:13:11.275Z</time></trkpt><trkpt lat="44.78856" lon="7.9413336"><ele>349.0</ele><time>2026-05-06T13:13:12.276Z</time></trkpt><trkpt lat="44.7885247" lon="7.9414628"><ele>346.0</ele><time>2026-05-06T13:13:13.276Z</time></trkpt><trkpt lat="44.7884833" lon="7.941588"><ele>343.0</ele><time>2026-05-06T13:13:14.276Z</time></trkpt><trkpt lat="44.7884311" lon="7.9417031"><ele>340.0</ele><time>2026-05-06T13:13:15.275Z</time></trkpt><trkpt lat="44.7883731" lon="7.9418182"><ele>334.6</ele><time>2026-05-06T13:13:16.276Z</time></trkpt><trkpt lat="44.7883123" lon="7.9419301"><ele>329.2</ele><time>2026-05-06T13:13:17.276Z</time></trkpt><trkpt lat="44.7882214" lon="7.9420123"><ele>323.8</ele><time>2026-05-06T13:13:18.275Z</time></trkpt><trkpt lat="44.7881182" lon="7.9420831"><ele>318.4</ele><time>2026-05-06T13:13:19.276Z</time></trkpt><trkpt lat="44.7880037" lon="7.9421412"><ele>313.0</ele><time>2026-05-06T13:13:20.276Z</time></trkpt><trkpt lat="44.7878842" lon="7.9422036"><ele>313.0</ele><time>2026-05-06T13:13:21.276Z</time></trkpt><trkpt lat="44.787784" lon="7.9422751"><ele>313.0</ele><time>2026-05-06T13:13:22.275Z</time></trkpt><trkpt lat="44.7876782" lon="7.9423385"><ele>313.0</ele><time>2026-05-06T13:13:23.276Z</time></trkpt><trkpt lat="44.7875756" lon="7.942418"><ele>313.0</ele><time>2026-05-06T13:13:24.275Z</time></trkpt><trkpt lat="44.7874843" lon="7.9424941"><ele>310.2</ele><time>2026-05-06T13:13:25.275Z</time></trkpt><trkpt lat="44.7873927" lon="7.9425496"><ele>307.4</ele><time>2026-05-06T13:13:26.275Z</time></trkpt><trkpt lat="44.7872974" lon="7.9425954"><ele>304.59999999999997</ele><time>2026-05-06T13:13:27.276Z</time></trkpt><trkpt lat="44.7872047" lon="7.9426499"><ele>301.8</ele><time>2026-05-06T13:13:28.276Z</time></trkpt><trkpt lat="44.7871132" lon="7.9427246"><ele>299.0</ele><time>2026-05-06T13:13:29.276Z</time></trkpt><trkpt lat="44.7870178" lon="7.9428131"><ele>299.0</ele><time>2026-05-06T13:13:30.275Z</time></trkpt><trkpt lat="44.786917" lon="7.942905"><ele>299.0</ele><time>2026-05-06T13:13:31.276Z</time></trkpt><trkpt lat="44.7868238" lon="7.9430092"><ele>299.0</ele><time>2026-05-06T13:13:32.276Z</time></trkpt><trkpt lat="44.7867293" lon="7.9431248"><ele>299.0</ele><time>2026-05-06T13:13:33.275Z</time></trkpt><trkpt lat="44.7866381" lon="7.9432396"><ele>297.75</ele><time>2026-05-06T13:13:34.275Z</time></trkpt><trkpt lat="44.7865464" lon="7.9433562"><ele>296.5</ele><time>2026-05-06T13:13:35.276Z</time></trkpt><trkpt lat="44.7864465" lon="7.9434425"><ele>295.25</ele><time>2026-05-06T13:13:36.275Z</time></trkpt><trkpt lat="44.7863419" lon="7.9435278"><ele>294.0</ele><time>2026-05-06T13:13:37.276Z</time></trkpt><trkpt lat="44.7862264" lon="7.9436222"><ele>294.0</ele><time>2026-05-06T13:13:38.276Z</time></trkpt><trkpt lat="44.7861207" lon="7.94373"><ele>294.0</ele><time>2026-05-06T13:13:39.275Z</time></trkpt><trkpt lat="44.7860158" lon="7.9438446"><ele>294.0</ele><time>2026-05-06T13:13:40.276Z</time></trkpt><trkpt lat="44.7859112" lon="7.9439758"><ele>294.0</ele><time>2026-05-06T13:13:41.275Z</time></trkpt><trkpt lat="44.7858085" lon="7.9441261"><ele>297.75</ele><time>2026-05-06T13:13:42.275Z</time></trkpt><trkpt lat="44.7857073" lon="7.9442721"><ele>301.5</ele><time>2026-05-06T13:13:43.276Z</time></trkpt><trkpt lat="44.7855998" lon="7.9444071"><ele>305.25</ele><time>2026-05-06T13:13:44.275Z</time></trkpt><trkpt lat="44.7854831" lon="7.944526"><ele>309.0</ele><time>2026-05-06T13:13:45.275Z</time></trkpt><trkpt lat="44.785375" lon="7.9446563"><ele>309.0</ele><time>2026-05-06T13:13:46.275Z</time></trkpt><trkpt lat="44.7852711" lon="7.9447981"><ele>309.0</ele><time>2026-05-06T13:13:47.276Z</time></trkpt><trkpt lat="44.7851637" lon="7.9449225"><ele>309.0</ele><time>2026-05-06T13:13:48.276Z</time></trkpt><trkpt lat="44.7850606" lon="7.9450523"><ele>309.0</ele><time>2026-05-06T13:13:49.275Z</time></trkpt><trkpt lat="44.7849615" lon="7.9451708"><ele>311.5</ele><time>2026-05-06T13:13:50.275Z</time></trkpt><trkpt lat="44.7848698" lon="7.9452771"><ele>314.0</ele><time>2026-05-06T13:13:51.276Z</time></trkpt><trkpt lat="44.7847497" lon="7.9453686"><ele>316.5</ele><time>2026-05-06T13:13:52.275Z</time></trkpt><trkpt lat="44.784604" lon="7.9454315"><ele>319.0</ele><time>2026-05-06T13:13:53.276Z</time></trkpt><trkpt lat="44.7844574" lon="7.9455022"><ele>316.0</ele><time>2026-05-06T13:13:54.276Z</time></trkpt><trkpt lat="44.7843088" lon="7.9455717"><ele>313.0</ele><time>2026-05-06T13:13:55.276Z</time></trkpt><trkpt lat="44.7841657" lon="7.9456453"><ele>310.0</ele><time>2026-05-06T13:13:56.275Z</time></trkpt><trkpt lat="44.7840094" lon="7.9457196"><ele>310.0</ele><time>2026-05-06T13:13:57.276Z</time></trkpt><trkpt lat="44.7838553" lon="7.9457982"><ele>310.0</ele><time>2026-05-06T13:13:58.275Z</time></trkpt><trkpt lat="44.783705" lon="7.9458841"><ele>310.0</ele><time>2026-05-06T13:13:59.276Z</time></trkpt><trkpt lat="44.783559" lon="7.9459631"><ele>309.0</ele><time>2026-05-06T13:14:00.275Z</time></trkpt><trkpt lat="44.7834167" lon="7.9460464"><ele>308.0</ele><time>2026-05-06T13:14:01.275Z</time></trkpt><trkpt lat="44.7832929" lon="7.9461346"><ele>307.0</ele><time>2026-05-06T13:14:02.275Z</time></trkpt><trkpt lat="44.7831654" lon="7.9462292"><ele>306.0</ele><time>2026-05-06T13:14:03.275Z</time></trkpt><trkpt lat="44.7830651" lon="7.9463265"><ele>306.0</ele><time>2026-05-06T13:14:04.275Z</time></trkpt><trkpt lat="44.7829844" lon="7.9464161"><ele>306.0</ele><time>2026-05-06T13:14:05.275Z</time></trkpt><trkpt lat="44.7829223" lon="7.9464854"><ele>306.0</ele><time>2026-05-06T13:14:06.276Z</time></trkpt><trkpt lat="44.7828462" lon="7.9465149"><ele>306.0</ele><time>2026-05-06T13:14:07.275Z</time></trkpt><trkpt lat="44.782777" lon="7.9465004"><ele>306.0</ele><time>2026-05-06T13:14:08.275Z</time></trkpt><trkpt lat="44.7827146" lon="7.9463556"><ele>306.0</ele><time>2026-05-06T13:14:10.276Z</time></trkpt><trkpt lat="44.7827301" lon="7.9462221"><ele>306.0</ele><time>2026-05-06T13:14:11.276Z</time></trkpt><trkpt lat="44.7827609" lon="7.9460559"><ele>306.0</ele><time>2026-05-06T13:14:12.276Z</time></trkpt><trkpt lat="44.7827759" lon="7.945886"><ele>306.0</ele><time>2026-05-06T13:14:13.276Z</time></trkpt><trkpt lat="44.7827555" lon="7.9457003"><ele>303.5</ele><time>2026-05-06T13:14:14.275Z</time></trkpt><trkpt lat="44.7826998" lon="7.945539"><ele>301.0</ele><time>2026-05-06T13:14:15.275Z</time></trkpt><trkpt lat="44.7826243" lon="7.9453964"><ele>298.5</ele><time>2026-05-06T13:14:16.275Z</time></trkpt><trkpt lat="44.7825404" lon="7.9452742"><ele>296.0</ele><time>2026-05-06T13:14:17.276Z</time></trkpt><trkpt lat="44.7824711" lon="7.9451733"><ele>293.5</ele><time>2026-05-06T13:14:18.276Z</time></trkpt><trkpt lat="44.7824012" lon="7.9451057"><ele>291.0</ele><time>2026-05-06T13:14:19.275Z</time></trkpt><trkpt lat="44.7823351" lon="7.9450799"><ele>288.5</ele><time>2026-05-06T13:14:20.276Z</time></trkpt><trkpt lat="44.782267" lon="7.9450972"><ele>286.0</ele><time>2026-05-06T13:14:21.275Z</time></trkpt><trkpt lat="44.7822021" lon="7.9452386"><ele>283.5</ele><time>2026-05-06T13:14:23.276Z</time></trkpt><trkpt lat="44.7822372" lon="7.945352"><ele>281.0</ele><time>2026-05-06T13:14:24.275Z</time></trkpt><trkpt lat="44.7823093" lon="7.9454833"><ele>281.0</ele><time>2026-05-06T13:14:25.276Z</time></trkpt><trkpt lat="44.7823968" lon="7.9456278"><ele>281.0</ele><time>2026-05-06T13:14:26.275Z</time></trkpt><trkpt lat="44.7824675" lon="7.9457901"><ele>281.0</ele><time>2026-05-06T13:14:27.275Z</time></trkpt><trkpt lat="44.7824963" lon="7.9459736"><ele>281.0</ele><time>2026-05-06T13:14:28.276Z</time></trkpt><trkpt lat="44.7824863" lon="7.9461667"><ele>281.5</ele><time>2026-05-06T13:14:29.276Z</time></trkpt><trkpt lat="44.7824448" lon="7.9463437"><ele>282.0</ele><time>2026-05-06T13:14:30.276Z</time></trkpt><trkpt lat="44.7823977" lon="7.9465109"><ele>282.5</ele><time>2026-05-06T13:14:31.275Z</time></trkpt><trkpt lat="44.7823474" lon="7.946672"><ele>283.0</ele><time>2026-05-06T13:14:32.276Z</time></trkpt><trkpt lat="44.7822803" lon="7.9468198"><ele>283.5</ele><time>2026-05-06T13:14:33.276Z</time></trkpt><trkpt lat="44.7821999" lon="7.9469742"><ele>284.0</ele><time>2026-05-06T13:14:34.276Z</time></trkpt><trkpt lat="44.7821041" lon="7.9471191"><ele>284.5</ele><time>2026-05-06T13:14:35.275Z</time></trkpt><trkpt lat="44.782007" lon="7.9472514"><ele>285.0</ele><time>2026-05-06T13:14:36.275Z</time></trkpt><trkpt lat="44.7819195" lon="7.9473854"><ele>280.8</ele><time>2026-05-06T13:14:37.275Z</time></trkpt><trkpt lat="44.7818406" lon="7.9475126"><ele>276.6</ele><time>2026-05-06T13:14:38.276Z</time></trkpt><trkpt lat="44.7817702" lon="7.9476311"><ele>272.4</ele><time>2026-05-06T13:14:39.276Z</time></trkpt><trkpt lat="44.7817013" lon="7.9477348"><ele>268.2</ele><time>2026-05-06T13:14:40.275Z</time></trkpt><trkpt lat="44.7816388" lon="7.9478171"><ele>264.0</ele><time>2026-05-06T13:14:41.275Z</time></trkpt><trkpt lat="44.7815698" lon="7.947866"><ele>264.0</ele><time>2026-05-06T13:14:42.276Z</time></trkpt><trkpt lat="44.7815003" lon="7.9478684"><ele>264.0</ele><time>2026-05-06T13:14:43.275Z</time></trkpt><trkpt lat="44.7814406" lon="7.9478188"><ele>264.0</ele><time>2026-05-06T13:14:44.276Z</time></trkpt><trkpt lat="44.7814128" lon="7.9477237"><ele>264.0</ele><time>2026-05-06T13:14:45.276Z</time></trkpt><trkpt lat="44.7814374" lon="7.9476062"><ele>264.0</ele><time>2026-05-06T13:14:46.275Z</time></trkpt><trkpt lat="44.7814992" lon="7.9474832"><ele>264.0</ele><time>2026-05-06T13:14:47.275Z</time></trkpt><trkpt lat="44.7816039" lon="7.9473541"><ele>264.0</ele><time>2026-05-06T13:14:48.276Z</time></trkpt><trkpt lat="44.7817235" lon="7.947231"><ele>264.0</ele><time>2026-05-06T13:14:49.276Z</time></trkpt><trkpt lat="44.7818397" lon="7.9470744"><ele>264.0</ele><time>2026-05-06T13:14:50.275Z</time></trkpt><trkpt lat="44.7819246" lon="7.9468789"><ele>268.75</ele><time>2026-05-06T13:14:51.275Z</time></trkpt><trkpt lat="44.7819672" lon="7.9466672"><ele>273.5</ele><time>2026-05-06T13:14:52.275Z</time></trkpt><trkpt lat="44.7819854" lon="7.9464721"><ele>278.25</ele><time>2026-05-06T13:14:53.275Z</time></trkpt><trkpt lat="44.7819815" lon="7.9463051"><ele>283.0</ele><time>2026-05-06T13:14:54.275Z</time></trkpt><trkpt lat="44.7819519" lon="7.9461917"><ele>283.0</ele><time>2026-05-06T13:14:55.276Z</time></trkpt><trkpt lat="44.7818977" lon="7.9461231"><ele>283.0</ele><time>2026-05-06T13:14:56.275Z</time></trkpt><trkpt lat="44.7817859" lon="7.9461331"><ele>283.0</ele><time>2026-05-06T13:14:58.276Z</time></trkpt><trkpt lat="44.7817447" lon="7.9462204"><ele>283.0</ele><time>2026-05-06T13:14:59.275Z</time></trkpt><trkpt lat="44.7817329" lon="7.9463637"><ele>283.0</ele><time>2026-05-06T13:15:00.275Z</time></trkpt><trkpt lat="44.7817432" lon="7.9465319"><ele>278.25</ele><time>2026-05-06T13:15:01.275Z</time></trkpt><trkpt lat="44.7817478" lon="7.9467052"><ele>273.5</ele><time>2026-05-06T13:15:02.276Z</time></trkpt><trkpt lat="44.7817023" lon="7.9468328"><ele>268.75</ele><time>2026-05-06T13:15:03.275Z</time></trkpt><trkpt lat="44.7816097" lon="7.9469249"><ele>264.0</ele><time>2026-05-06T13:15:04.276Z</time></trkpt><trkpt lat="44.7814913" lon="7.9469618"><ele>264.0</ele><time>2026-05-06T13:15:05.275Z</time></trkpt><trkpt lat="44.7813443" lon="7.9469486"><ele>264.0</ele><time>2026-05-06T13:15:06.276Z</time></trkpt><trkpt lat="44.7812017" lon="7.9469404"><ele>264.0</ele><time>2026-05-06T13:15:07.275Z</time></trkpt><trkpt lat="44.7810766" lon="7.946938"><ele>264.0</ele><time>2026-05-06T13:15:08.275Z</time></trkpt><trkpt lat="44.7809802" lon="7.9469236"><ele>262.0</ele><time>2026-05-06T13:15:09.275Z</time></trkpt><trkpt lat="44.7809125" lon="7.9468671"><ele>260.0</ele><time>2026-05-06T13:15:10.275Z</time></trkpt><trkpt lat="44.7808861" lon="7.9467727"><ele>258.0</ele><time>2026-05-06T13:15:11.276Z</time></trkpt><trkpt lat="44.7808975" lon="7.9466709"><ele>256.0</ele><time>2026-05-06T13:15:12.275Z</time></trkpt><trkpt lat="44.7809559" lon="7.9465619"><ele>254.0</ele><time>2026-05-06T13:15:13.275Z</time></trkpt><trkpt lat="44.7810592" lon="7.9464462"><ele>254.0</ele><time>2026-05-06T13:15:14.276Z</time></trkpt><trkpt lat="44.7811746" lon="7.9463339"><ele>253.99999999999997</ele><time>2026-05-06T13:15:15.275Z</time></trkpt><trkpt lat="44.7812695" lon="7.9462382"><ele>253.99999999999997</ele><time>2026-05-06T13:15:16.276Z</time></trkpt><trkpt lat="44.7813239" lon="7.9461415"><ele>254.0</ele><time>2026-05-06T13:15:17.275Z</time></trkpt><trkpt lat="44.781344" lon="7.9460519"><ele>254.0</ele><time>2026-05-06T13:15:18.276Z</time></trkpt><trkpt lat="44.7813265" lon="7.9459647"><ele>254.0</ele><time>2026-05-06T13:15:19.275Z</time></trkpt><trkpt lat="44.7812141" lon="7.9459246"><ele>254.0</ele><time>2026-05-06T13:15:21.276Z</time></trkpt><trkpt lat="44.7811328" lon="7.9459802"><ele>254.0</ele><time>2026-05-06T13:15:22.275Z</time></trkpt><trkpt lat="44.7810212" lon="7.946076"><ele>254.0</ele><time>2026-05-06T13:15:23.275Z</time></trkpt><trkpt lat="44.780887" lon="7.9461936"><ele>251.0</ele><time>2026-05-06T13:15:24.276Z</time></trkpt><trkpt lat="44.7807561" lon="7.9463065"><ele>248.0</ele><time>2026-05-06T13:15:25.275Z</time></trkpt><trkpt lat="44.7806287" lon="7.9463971"><ele>245.0</ele><time>2026-05-06T13:15:26.276Z</time></trkpt><trkpt lat="44.7805031" lon="7.9464565"><ele>242.0</ele><time>2026-05-06T13:15:27.275Z</time></trkpt><trkpt lat="44.7803689" lon="7.9464944"><ele>242.0</ele><time>2026-05-06T13:15:28.276Z</time></trkpt><trkpt lat="44.7802356" lon="7.9464965"><ele>242.0</ele><time>2026-05-06T13:15:29.275Z</time></trkpt><trkpt lat="44.7801044" lon="7.9464679"><ele>242.0</ele><time>2026-05-06T13:15:30.275Z</time></trkpt><trkpt lat="44.7799682" lon="7.9464175"><ele>242.0</ele><time>2026-05-06T13:15:31.276Z</time></trkpt><trkpt lat="44.7798213" lon="7.9463689"><ele>240.0</ele><time>2026-05-06T13:15:32.275Z</time></trkpt><trkpt lat="44.7796683" lon="7.9463341"><ele>238.0</ele><time>2026-05-06T13:15:33.275Z</time></trkpt><trkpt lat="44.7795172" lon="7.9463106"><ele>236.0</ele><time>2026-05-06T13:15:34.275Z</time></trkpt><trkpt lat="44.7793669" lon="7.9463163"><ele>236.0</ele><time>2026-05-06T13:15:35.275Z</time></trkpt><trkpt lat="44.7792227" lon="7.946349"><ele>236.0</ele><time>2026-05-06T13:15:36.275Z</time></trkpt><trkpt lat="44.7790854" lon="7.9464106"><ele>236.0</ele><time>2026-05-06T13:15:37.276Z</time></trkpt><trkpt lat="44.7789448" lon="7.9464855"><ele>236.0</ele><time>2026-05-06T13:15:38.275Z</time></trkpt><trkpt lat="44.7788004" lon="7.9465703"><ele>236.0</ele><time>2026-05-06T13:15:39.276Z</time></trkpt><trkpt lat="44.7786553" lon="7.9466511"><ele>236.0</ele><time>2026-05-06T13:15:40.275Z</time></trkpt><trkpt lat="44.7785145" lon="7.9467306"><ele>236.0</ele><time>2026-05-06T13:15:41.276Z</time></trkpt><trkpt lat="44.7783706" lon="7.9468004"><ele>238.75</ele><time>2026-05-06T13:15:42.275Z</time></trkpt><trkpt lat="44.7782361" lon="7.9468578"><ele>241.5</ele><time>2026-05-06T13:15:43.276Z</time></trkpt><trkpt lat="44.7780969" lon="7.9468993"><ele>244.25</ele><time>2026-05-06T13:15:44.275Z</time></trkpt><trkpt lat="44.7779569" lon="7.9469138"><ele>247.0</ele><time>2026-05-06T13:15:45.275Z</time></trkpt><trkpt lat="44.7778297" lon="7.9468923"><ele>247.0</ele><time>2026-05-06T13:15:46.276Z</time></trkpt><trkpt lat="44.777721" lon="7.9468557"><ele>247.0</ele><time>2026-05-06T13:15:47.275Z</time></trkpt><trkpt lat="44.7776353" lon="7.9468126"><ele>247.0</ele><time>2026-05-06T13:15:48.276Z</time></trkpt><trkpt lat="44.7775641" lon="7.9467634"><ele>247.0</ele><time>2026-05-06T13:15:49.276Z</time></trkpt><trkpt lat="44.7775076" lon="7.9467063"><ele>247.0</ele><time>2026-05-06T13:15:50.276Z</time></trkpt><trkpt lat="44.7774245" lon="7.9466197"><ele>247.99999999999997</ele><time>2026-05-06T13:15:52.276Z</time></trkpt><trkpt lat="44.7773665" lon="7.9465833"><ele>249.0</ele><time>2026-05-06T13:16:13.276Z</time></trkpt><trkpt lat="44.7772566" lon="7.9465985"><ele>250.0</ele><time>2026-05-06T13:16:15.276Z</time></trkpt><trkpt lat="44.7771805" lon="7.9466281"><ele>251.0</ele><time>2026-05-06T13:16:16.276Z</time></trkpt><trkpt lat="44.7771023" lon="7.94668"><ele>251.99999999999997</ele><time>2026-05-06T13:16:17.276Z</time></trkpt><trkpt lat="44.7770185" lon="7.9467319"><ele>253.0</ele><time>2026-05-06T13:16:18.276Z</time></trkpt><trkpt lat="44.7769296" lon="7.9467917"><ele>252.8</ele><time>2026-05-06T13:16:19.275Z</time></trkpt><trkpt lat="44.7768441" lon="7.9468585"><ele>252.60000000000002</ele><time>2026-05-06T13:16:20.276Z</time></trkpt><trkpt lat="44.7767604" lon="7.9469441"><ele>252.39999999999998</ele><time>2026-05-06T13:16:21.276Z</time></trkpt><trkpt lat="44.7766753" lon="7.947044"><ele>252.2</ele><time>2026-05-06T13:16:22.276Z</time></trkpt><trkpt lat="44.7765961" lon="7.9471483"><ele>252.0</ele><time>2026-05-06T13:16:23.276Z</time></trkpt><trkpt lat="44.776524" lon="7.947291"><ele>252.0</ele><time>2026-05-06T13:16:24.276Z</time></trkpt><trkpt lat="44.7764572" lon="7.9474753"><ele>252.0</ele><time>2026-05-06T13:16:25.276Z</time></trkpt><trkpt lat="44.7763991" lon="7.9476543"><ele>252.0</ele><time>2026-05-06T13:16:26.275Z</time></trkpt><trkpt lat="44.7763668" lon="7.9478435"><ele>252.0</ele><time>2026-05-06T13:16:27.276Z</time></trkpt><trkpt lat="44.7763345" lon="7.9480428"><ele>253.0</ele><time>2026-05-06T13:16:28.276Z</time></trkpt><trkpt lat="44.7763102" lon="7.9482601"><ele>254.0</ele><time>2026-05-06T13:16:29.276Z</time></trkpt><trkpt lat="44.7762842" lon="7.9484707"><ele>255.0</ele><time>2026-05-06T13:16:30.275Z</time></trkpt><trkpt lat="44.776253" lon="7.948691"><ele>255.0</ele><time>2026-05-06T13:16:31.276Z</time></trkpt><trkpt lat="44.7762265" lon="7.9489118"><ele>255.0</ele><time>2026-05-06T13:16:32.275Z</time></trkpt><trkpt lat="44.7761956" lon="7.9491246"><ele>255.0</ele><time>2026-05-06T13:16:33.275Z</time></trkpt><trkpt lat="44.7761713" lon="7.949331"><ele>254.5</ele><time>2026-05-06T13:16:34.275Z</time></trkpt><trkpt lat="44.7761436" lon="7.9495326"><ele>254.0</ele><time>2026-05-06T13:16:35.276Z</time></trkpt><trkpt lat="44.7761198" lon="7.9497331"><ele>253.5</ele><time>2026-05-06T13:16:36.276Z</time></trkpt><trkpt lat="44.7760981" lon="7.9499365"><ele>253.0</ele><time>2026-05-06T13:16:37.276Z</time></trkpt><trkpt lat="44.7760681" lon="7.9501469"><ele>252.75</ele><time>2026-05-06T13:16:38.276Z</time></trkpt><trkpt lat="44.776039" lon="7.9503502"><ele>252.5</ele><time>2026-05-06T13:16:39.275Z</time></trkpt><trkpt lat="44.7760119" lon="7.9505539"><ele>252.25</ele><time>2026-05-06T13:16:40.276Z</time></trkpt><trkpt lat="44.7759825" lon="7.9507508"><ele>252.0</ele><time>2026-05-06T13:16:41.276Z</time></trkpt><trkpt lat="44.7759598" lon="7.950936"><ele>246.5</ele><time>2026-05-06T13:16:42.276Z</time></trkpt><trkpt lat="44.7759399" lon="7.9511128"><ele>241.0</ele><time>2026-05-06T13:16:43.275Z</time></trkpt><trkpt lat="44.7759199" lon="7.9512949"><ele>235.5</ele><time>2026-05-06T13:16:44.275Z</time></trkpt><trkpt lat="44.7758988" lon="7.9514771"><ele>230.0</ele><time>2026-05-06T13:16:45.275Z</time></trkpt><trkpt lat="44.7758763" lon="7.9516568"><ele>229.66666666666669</ele><time>2026-05-06T13:16:46.276Z</time></trkpt><trkpt lat="44.7758557" lon="7.9518153"><ele>229.33333333333334</ele><time>2026-05-06T13:16:47.275Z</time></trkpt><trkpt lat="44.7758401" lon="7.9519538"><ele>229.0</ele><time>2026-05-06T13:16:48.276Z</time></trkpt><trkpt lat="44.7758221" lon="7.9520586"><ele>228.66666666666669</ele><time>2026-05-06T13:16:49.276Z</time></trkpt><trkpt lat="44.7757939" lon="7.9521406"><ele>228.33333333333334</ele><time>2026-05-06T13:16:50.276Z</time></trkpt><trkpt lat="44.7757486" lon="7.952204"><ele>228.0</ele><time>2026-05-06T13:16:51.276Z</time></trkpt><trkpt lat="44.7756778" lon="7.9522494"><ele>228.0</ele><time>2026-05-06T13:16:52.276Z</time></trkpt><trkpt lat="44.7756023" lon="7.9522543"><ele>228.0</ele><time>2026-05-06T13:16:53.276Z</time></trkpt><trkpt lat="44.7755156" lon="7.952214"><ele>228.0</ele><time>2026-05-06T13:16:54.276Z</time></trkpt><trkpt lat="44.7754235" lon="7.9521213"><ele>228.0</ele><time>2026-05-06T13:16:55.276Z</time></trkpt><trkpt lat="44.7753205" lon="7.9520108"><ele>228.0</ele><time>2026-05-06T13:16:56.276Z</time></trkpt><trkpt lat="44.7752132" lon="7.9518852"><ele>227.0</ele><time>2026-05-06T13:16:57.275Z</time></trkpt><trkpt lat="44.7751106" lon="7.951758"><ele>226.0</ele><time>2026-05-06T13:16:58.276Z</time></trkpt><trkpt lat="44.7750049" lon="7.9516387"><ele>225.0</ele><time>2026-05-06T13:16:59.276Z</time></trkpt><trkpt lat="44.7748919" lon="7.9515255"><ele>224.0</ele><time>2026-05-06T13:17:00.275Z</time></trkpt><trkpt lat="44.7747695" lon="7.9514087"><ele>224.0</ele><time>2026-05-06T13:17:01.276Z</time></trkpt><trkpt lat="44.7746455" lon="7.9512884"><ele>224.0</ele><time>2026-05-06T13:17:02.276Z</time></trkpt><trkpt lat="44.7745243" lon="7.951158"><ele>224.0</ele><time>2026-05-06T13:17:03.275Z</time></trkpt><trkpt lat="44.7743996" lon="7.9510198"><ele>224.33333333333334</ele><time>2026-05-06T13:17:04.275Z</time></trkpt><trkpt lat="44.7742657" lon="7.9508853"><ele>224.66666666666669</ele><time>2026-05-06T13:17:05.275Z</time></trkpt><trkpt lat="44.7741291" lon="7.9507444"><ele>225.0</ele><time>2026-05-06T13:17:06.276Z</time></trkpt><trkpt lat="44.7739962" lon="7.9506008"><ele>225.0</ele><time>2026-05-06T13:17:07.275Z</time></trkpt><trkpt lat="44.7738553" lon="7.9504513"><ele>225.0</ele><time>2026-05-06T13:17:08.275Z</time></trkpt><trkpt lat="44.773709" lon="7.9502981"><ele>225.0</ele><time>2026-05-06T13:17:09.276Z</time></trkpt><trkpt lat="44.7735558" lon="7.950144"><ele>225.66666666666669</ele><time>2026-05-06T13:17:10.276Z</time></trkpt><trkpt lat="44.7734108" lon="7.9499895"><ele>226.33333333333334</ele><time>2026-05-06T13:17:11.276Z</time></trkpt><trkpt lat="44.7732632" lon="7.9498295"><ele>227.0</ele><time>2026-05-06T13:17:12.276Z</time></trkpt><trkpt lat="44.7731103" lon="7.9496783"><ele>227.0</ele><time>2026-05-06T13:17:13.276Z</time></trkpt><trkpt lat="44.772957" lon="7.9495232"><ele>227.0</ele><time>2026-05-06T13:17:14.276Z</time></trkpt><trkpt lat="44.7728049" lon="7.949371"><ele>227.0</ele><time>2026-05-06T13:17:15.275Z</time></trkpt><trkpt lat="44.7726559" lon="7.9492191"><ele>227.0</ele><time>2026-05-06T13:17:16.276Z</time></trkpt><trkpt lat="44.7725028" lon="7.9490679"><ele>227.0</ele><time>2026-05-06T13:17:17.275Z</time></trkpt><trkpt lat="44.772344" lon="7.9489113"><ele>227.0</ele><time>2026-05-06T13:17:18.276Z</time></trkpt><trkpt lat="44.7721839" lon="7.9487501"><ele>227.0</ele><time>2026-05-06T13:17:19.276Z</time></trkpt><trkpt lat="44.7720265" lon="7.9485827"><ele>227.0</ele><time>2026-05-06T13:17:20.275Z</time></trkpt><trkpt lat="44.7718652" lon="7.9484179"><ele>227.0</ele><time>2026-05-06T13:17:21.276Z</time></trkpt><trkpt lat="44.7716923" lon="7.9482627"><ele>228.33333333333334</ele><time>2026-05-06T13:17:22.275Z</time></trkpt><trkpt lat="44.771525" lon="7.9481278"><ele>229.66666666666669</ele><time>2026-05-06T13:17:23.275Z</time></trkpt><trkpt lat="44.7713511" lon="7.9480248"><ele>231.0</ele><time>2026-05-06T13:17:24.276Z</time></trkpt><trkpt lat="44.7711636" lon="7.9479411"><ele>230.0</ele><time>2026-05-06T13:17:25.275Z</time></trkpt><trkpt lat="44.7709762" lon="7.9478775"><ele>229.0</ele><time>2026-05-06T13:17:26.275Z</time></trkpt><trkpt lat="44.7707835" lon="7.9478008"><ele>228.0</ele><time>2026-05-06T13:17:27.275Z</time></trkpt><trkpt lat="44.7705974" lon="7.9477163"><ele>228.0</ele><time>2026-05-06T13:17:28.275Z</time></trkpt><trkpt lat="44.770414" lon="7.9476188"><ele>228.0</ele><time>2026-05-06T13:17:29.275Z</time></trkpt><trkpt lat="44.7702326" lon="7.94752"><ele>228.0</ele><time>2026-05-06T13:17:30.276Z</time></trkpt><trkpt lat="44.7700546" lon="7.9474084"><ele>229.33333333333331</ele><time>2026-05-06T13:17:31.275Z</time></trkpt><trkpt lat="44.7698873" lon="7.9472816"><ele>230.66666666666666</ele><time>2026-05-06T13:17:32.276Z</time></trkpt><trkpt lat="44.7697358" lon="7.9471558"><ele>232.0</ele><time>2026-05-06T13:17:33.276Z</time></trkpt><trkpt lat="44.7695818" lon="7.9470706"><ele>232.0</ele><time>2026-05-06T13:17:34.275Z</time></trkpt><trkpt lat="44.7694216" lon="7.9470499"><ele>232.0</ele><time>2026-05-06T13:17:35.275Z</time></trkpt><trkpt lat="44.7692604" lon="7.9470747"><ele>232.0</ele><time>2026-05-06T13:17:36.275Z</time></trkpt><trkpt lat="44.7691096" lon="7.947121"><ele>232.0</ele><time>2026-05-06T13:17:37.275Z</time></trkpt><trkpt lat="44.7689766" lon="7.9471729"><ele>232.0</ele><time>2026-05-06T13:17:38.276Z</time></trkpt><trkpt lat="44.7688253" lon="7.9472236"><ele>232.0</ele><time>2026-05-06T13:17:39.275Z</time></trkpt><trkpt lat="44.7686705" lon="7.9472556"><ele>232.0</ele><time>2026-05-06T13:17:40.275Z</time></trkpt><trkpt lat="44.7685205" lon="7.9472463"><ele>232.0</ele><time>2026-05-06T13:17:41.276Z</time></trkpt><trkpt lat="44.7683745" lon="7.9471885"><ele>232.0</ele><time>2026-05-06T13:17:42.276Z</time></trkpt><trkpt lat="44.7682356" lon="7.9470936"><ele>232.0</ele><time>2026-05-06T13:17:43.276Z</time></trkpt><trkpt lat="44.7681119" lon="7.9469577"><ele>232.0</ele><time>2026-05-06T13:17:44.276Z</time></trkpt><trkpt lat="44.7679928" lon="7.9467899"><ele>232.0</ele><time>2026-05-06T13:17:45.276Z</time></trkpt><trkpt lat="44.7678906" lon="7.9465905"><ele>232.66666666666666</ele><time>2026-05-06T13:17:46.276Z</time></trkpt><trkpt lat="44.7678041" lon="7.9463699"><ele>233.33333333333331</ele><time>2026-05-06T13:17:47.275Z</time></trkpt><trkpt lat="44.7677187" lon="7.9461519"><ele>234.0</ele><time>2026-05-06T13:17:48.276Z</time></trkpt><trkpt lat="44.7676294" lon="7.9459323"><ele>235.0</ele><time>2026-05-06T13:17:49.276Z</time></trkpt><trkpt lat="44.7675308" lon="7.9457145"><ele>236.0</ele><time>2026-05-06T13:17:50.276Z</time></trkpt><trkpt lat="44.7674276" lon="7.9454974"><ele>237.0</ele><time>2026-05-06T13:17:51.275Z</time></trkpt><trkpt lat="44.7673218" lon="7.9452641"><ele>239.33333333333331</ele><time>2026-05-06T13:17:52.276Z</time></trkpt><trkpt lat="44.7672165" lon="7.9450376"><ele>241.66666666666666</ele><time>2026-05-06T13:17:53.276Z</time></trkpt><trkpt lat="44.7671164" lon="7.944807"><ele>244.0</ele><time>2026-05-06T13:17:54.275Z</time></trkpt><trkpt lat="44.7670239" lon="7.9445686"><ele>244.0</ele><time>2026-05-06T13:17:55.276Z</time></trkpt><trkpt lat="44.7669498" lon="7.9443193"><ele>244.0</ele><time>2026-05-06T13:17:56.275Z</time></trkpt><trkpt lat="44.7668852" lon="7.9440652"><ele>244.0</ele><time>2026-05-06T13:17:57.276Z</time></trkpt><trkpt lat="44.7668273" lon="7.9437913"><ele>243.0</ele><time>2026-05-06T13:17:58.276Z</time></trkpt><trkpt lat="44.7667699" lon="7.9435249"><ele>242.0</ele><time>2026-05-06T13:17:59.276Z</time></trkpt><trkpt lat="44.7667141" lon="7.9432701"><ele>241.0</ele><time>2026-05-06T13:18:00.275Z</time></trkpt><trkpt lat="44.7666633" lon="7.9430058"><ele>241.0</ele><time>2026-05-06T13:18:01.276Z</time></trkpt><trkpt lat="44.7666266" lon="7.9427423"><ele>241.0</ele><time>2026-05-06T13:18:02.276Z</time></trkpt><trkpt lat="44.7666037" lon="7.9424756"><ele>241.0</ele><time>2026-05-06T13:18:03.275Z</time></trkpt><trkpt lat="44.7666083" lon="7.9422099"><ele>241.0</ele><time>2026-05-06T13:18:04.276Z</time></trkpt><trkpt lat="44.7666129" lon="7.9419525"><ele>241.0</ele><time>2026-05-06T13:18:05.275Z</time></trkpt><trkpt lat="44.7666085" lon="7.9417027"><ele>241.0</ele><time>2026-05-06T13:18:06.276Z</time></trkpt><trkpt lat="44.7665784" lon="7.9414779"><ele>241.0</ele><time>2026-05-06T13:18:07.275Z</time></trkpt><trkpt lat="44.7665143" lon="7.9412828"><ele>241.0</ele><time>2026-05-06T13:18:08.275Z</time></trkpt><trkpt lat="44.7664251" lon="7.9411022"><ele>241.0</ele><time>2026-05-06T13:18:09.275Z</time></trkpt><trkpt lat="44.7663092" lon="7.9409455"><ele>241.33333333333331</ele><time>2026-05-06T13:18:10.276Z</time></trkpt><trkpt lat="44.7661785" lon="7.9407902"><ele>241.66666666666669</ele><time>2026-05-06T13:18:11.276Z</time></trkpt><trkpt lat="44.766042" lon="7.940631"><ele>242.0</ele><time>2026-05-06T13:18:12.275Z</time></trkpt><trkpt lat="44.7659031" lon="7.9404793"><ele>242.66666666666669</ele><time>2026-05-06T13:18:13.276Z</time></trkpt><trkpt lat="44.7657657" lon="7.9403216"><ele>243.33333333333331</ele><time>2026-05-06T13:18:14.275Z</time></trkpt><trkpt lat="44.7656267" lon="7.940159"><ele>244.0</ele><time>2026-05-06T13:18:15.275Z</time></trkpt><trkpt lat="44.7654877" lon="7.9399981"><ele>244.33333333333331</ele><time>2026-05-06T13:18:16.276Z</time></trkpt><trkpt lat="44.7653489" lon="7.9398362"><ele>244.66666666666669</ele><time>2026-05-06T13:18:17.276Z</time></trkpt><trkpt lat="44.7652026" lon="7.939666"><ele>245.0</ele><time>2026-05-06T13:18:18.276Z</time></trkpt><trkpt lat="44.7650588" lon="7.9394945"><ele>245.0</ele><time>2026-05-06T13:18:19.276Z</time></trkpt><trkpt lat="44.7649189" lon="7.9393147"><ele>245.0</ele><time>2026-05-06T13:18:20.275Z</time></trkpt><trkpt lat="44.7647749" lon="7.9391298"><ele>245.0</ele><time>2026-05-06T13:18:21.275Z</time></trkpt><trkpt lat="44.764629" lon="7.9389472"><ele>245.66666666666669</ele><time>2026-05-06T13:18:22.276Z</time></trkpt><trkpt lat="44.7644883" lon="7.9387741"><ele>246.33333333333331</ele><time>2026-05-06T13:18:23.276Z</time></trkpt><trkpt lat="44.7643443" lon="7.9385945"><ele>247.0</ele><time>2026-05-06T13:18:24.275Z</time></trkpt><trkpt lat="44.7642097" lon="7.9384056"><ele>248.66666666666666</ele><time>2026-05-06T13:18:25.276Z</time></trkpt><trkpt lat="44.7640792" lon="7.9382189"><ele>250.33333333333331</ele><time>2026-05-06T13:18:26.276Z</time></trkpt><trkpt lat="44.76396" lon="7.9380397"><ele>252.0</ele><time>2026-05-06T13:18:27.275Z</time></trkpt><trkpt lat="44.7638488" lon="7.9378733"><ele>252.0</ele><time>2026-05-06T13:18:28.276Z</time></trkpt><trkpt lat="44.7637578" lon="7.9376966"><ele>252.0</ele><time>2026-05-06T13:18:29.276Z</time></trkpt><trkpt lat="44.7636962" lon="7.9375142"><ele>252.0</ele><time>2026-05-06T13:18:30.275Z</time></trkpt><trkpt lat="44.7636557" lon="7.9373376"><ele>252.0</ele><time>2026-05-06T13:18:31.275Z</time></trkpt><trkpt lat="44.7636143" lon="7.9371792"><ele>252.0</ele><time>2026-05-06T13:18:32.276Z</time></trkpt><trkpt lat="44.7635363" lon="7.9370526"><ele>252.0</ele><time>2026-05-06T13:18:33.275Z</time></trkpt><trkpt lat="44.763431" lon="7.936953"><ele>252.0</ele><time>2026-05-06T13:18:34.276Z</time></trkpt><trkpt lat="44.763309" lon="7.9368602"><ele>252.0</ele><time>2026-05-06T13:18:35.276Z</time></trkpt><trkpt lat="44.7631949" lon="7.9367669"><ele>253.5</ele><time>2026-05-06T13:18:36.276Z</time></trkpt><trkpt lat="44.7630881" lon="7.9366863"><ele>255.0</ele><time>2026-05-06T13:18:37.275Z</time></trkpt><trkpt lat="44.7629717" lon="7.9366514"><ele>256.5</ele><time>2026-05-06T13:18:38.275Z</time></trkpt><trkpt lat="44.7628539" lon="7.9366551"><ele>258.0</ele><time>2026-05-06T13:18:39.276Z</time></trkpt><trkpt lat="44.7627481" lon="7.936705"><ele>257.8</ele><time>2026-05-06T13:18:40.276Z</time></trkpt><trkpt lat="44.7626466" lon="7.9367957"><ele>257.6</ele><time>2026-05-06T13:18:41.275Z</time></trkpt><trkpt lat="44.7625565" lon="7.936866"><ele>257.4</ele><time>2026-05-06T13:18:42.276Z</time></trkpt><trkpt lat="44.7624621" lon="7.9369003"><ele>257.2</ele><time>2026-05-06T13:18:43.275Z</time></trkpt><trkpt lat="44.7623878" lon="7.9369256"><ele>257.0</ele><time>2026-05-06T13:18:44.276Z</time></trkpt><trkpt lat="44.762323" lon="7.9369853"><ele>257.0</ele><time>2026-05-06T13:18:45.275Z</time></trkpt><trkpt lat="44.7622564" lon="7.9370596"><ele>257.0</ele><time>2026-05-06T13:18:46.276Z</time></trkpt><trkpt lat="44.7621949" lon="7.9371516"><ele>257.0</ele><time>2026-05-06T13:18:47.275Z</time></trkpt><trkpt lat="44.7621175" lon="7.937216"><ele>257.0</ele><time>2026-05-06T13:18:48.275Z</time></trkpt><trkpt lat="44.7620094" lon="7.9372508"><ele>257.0</ele><time>2026-05-06T13:18:49.276Z</time></trkpt><trkpt lat="44.7618835" lon="7.9372642"><ele>258.0</ele><time>2026-05-06T13:18:50.276Z</time></trkpt><trkpt lat="44.7617541" lon="7.9372736"><ele>259.0</ele><time>2026-05-06T13:18:51.276Z</time></trkpt><trkpt lat="44.7616245" lon="7.9372716"><ele>260.0</ele><time>2026-05-06T13:18:52.276Z</time></trkpt><trkpt lat="44.7615006" lon="7.9372962"><ele>261.0</ele><time>2026-05-06T13:18:53.275Z</time></trkpt><trkpt lat="44.7613808" lon="7.9373625"><ele>261.0</ele><time>2026-05-06T13:18:54.275Z</time></trkpt><trkpt lat="44.7612592" lon="7.9374563"><ele>261.0</ele><time>2026-05-06T13:18:55.275Z</time></trkpt><trkpt lat="44.7611331" lon="7.9375637"><ele>261.0</ele><time>2026-05-06T13:18:56.275Z</time></trkpt><trkpt lat="44.761014" lon="7.9376698"><ele>261.0</ele><time>2026-05-06T13:18:57.276Z</time></trkpt><trkpt lat="44.760894" lon="7.9377701"><ele>261.75</ele><time>2026-05-06T13:18:58.276Z</time></trkpt><trkpt lat="44.7607706" lon="7.9378757"><ele>262.5</ele><time>2026-05-06T13:18:59.275Z</time></trkpt><trkpt lat="44.7606448" lon="7.9379756"><ele>263.25</ele><time>2026-05-06T13:19:00.275Z</time></trkpt><trkpt lat="44.7605116" lon="7.9380844"><ele>264.0</ele><time>2026-05-06T13:19:01.276Z</time></trkpt><trkpt lat="44.7603779" lon="7.938174"><ele>264.0</ele><time>2026-05-06T13:19:02.275Z</time></trkpt><trkpt lat="44.7602495" lon="7.9382772"><ele>264.0</ele><time>2026-05-06T13:19:03.276Z</time></trkpt><trkpt lat="44.7601124" lon="7.9383637"><ele>264.0</ele><time>2026-05-06T13:19:04.275Z</time></trkpt><trkpt lat="44.7599701" lon="7.9384378"><ele>266.0</ele><time>2026-05-06T13:19:05.276Z</time></trkpt><trkpt lat="44.7598226" lon="7.9384975"><ele>268.0</ele><time>2026-05-06T13:19:06.275Z</time></trkpt><trkpt lat="44.7596768" lon="7.9385339"><ele>270.0</ele><time>2026-05-06T13:19:07.275Z</time></trkpt><trkpt lat="44.7595168" lon="7.9385264"><ele>273.3333333333333</ele><time>2026-05-06T13:19:08.275Z</time></trkpt><trkpt lat="44.7593594" lon="7.938496"><ele>276.66666666666663</ele><time>2026-05-06T13:19:09.275Z</time></trkpt><trkpt lat="44.759204" lon="7.9384664"><ele>280.0</ele><time>2026-05-06T13:19:10.275Z</time></trkpt><trkpt lat="44.7590463" lon="7.9384524"><ele>280.0</ele><time>2026-05-06T13:19:11.276Z</time></trkpt><trkpt lat="44.7589009" lon="7.9384136"><ele>280.0</ele><time>2026-05-06T13:19:12.275Z</time></trkpt><trkpt lat="44.7587612" lon="7.9383696"><ele>280.0</ele><time>2026-05-06T13:19:13.275Z</time></trkpt><trkpt lat="44.7586241" lon="7.9382855"><ele>280.0</ele><time>2026-05-06T13:19:14.276Z</time></trkpt><trkpt lat="44.7584938" lon="7.9381488"><ele>276.66666666666663</ele><time>2026-05-06T13:19:15.275Z</time></trkpt><trkpt lat="44.7583723" lon="7.9379704"><ele>273.3333333333333</ele><time>2026-05-06T13:19:16.275Z</time></trkpt><trkpt lat="44.7582567" lon="7.9377765"><ele>270.0</ele><time>2026-05-06T13:19:17.275Z</time></trkpt><trkpt lat="44.7581365" lon="7.937588"><ele>268.3333333333333</ele><time>2026-05-06T13:19:18.276Z</time></trkpt><trkpt lat="44.7580221" lon="7.9373916"><ele>266.66666666666663</ele><time>2026-05-06T13:19:19.275Z</time></trkpt><trkpt lat="44.757906" lon="7.9372033"><ele>265.0</ele><time>2026-05-06T13:19:20.276Z</time></trkpt><trkpt lat="44.7577913" lon="7.9370053"><ele>263.66666666666663</ele><time>2026-05-06T13:19:21.276Z</time></trkpt><trkpt lat="44.757672" lon="7.9368111"><ele>262.3333333333333</ele><time>2026-05-06T13:19:22.275Z</time></trkpt><trkpt lat="44.7575641" lon="7.9366161"><ele>261.0</ele><time>2026-05-06T13:19:23.275Z</time></trkpt><trkpt lat="44.7574448" lon="7.936439"><ele>260.6666666666667</ele><time>2026-05-06T13:19:24.275Z</time></trkpt><trkpt lat="44.7573206" lon="7.9363084"><ele>260.33333333333337</ele><time>2026-05-06T13:19:25.276Z</time></trkpt><trkpt lat="44.7571883" lon="7.9361979"><ele>260.0</ele><time>2026-05-06T13:19:26.276Z</time></trkpt><trkpt lat="44.7570516" lon="7.9361462"><ele>260.0</ele><time>2026-05-06T13:19:27.275Z</time></trkpt><trkpt lat="44.7568859" lon="7.9361429"><ele>260.0</ele><time>2026-05-06T13:19:28.275Z</time></trkpt><trkpt lat="44.7567244" lon="7.9361691"><ele>260.0</ele><time>2026-05-06T13:19:29.275Z</time></trkpt><trkpt lat="44.7565609" lon="7.9361939"><ele>260.33333333333337</ele><time>2026-05-06T13:19:30.276Z</time></trkpt><trkpt lat="44.7563972" lon="7.9361891"><ele>260.6666666666667</ele><time>2026-05-06T13:19:31.276Z</time></trkpt><trkpt lat="44.7562377" lon="7.9361621"><ele>261.0</ele><time>2026-05-06T13:19:32.276Z</time></trkpt><trkpt lat="44.7560719" lon="7.9361194"><ele>260.3333333333333</ele><time>2026-05-06T13:19:33.275Z</time></trkpt><trkpt lat="44.755902" lon="7.9360824"><ele>259.66666666666663</ele><time>2026-05-06T13:19:34.275Z</time></trkpt><trkpt lat="44.7557342" lon="7.9360644"><ele>259.0</ele><time>2026-05-06T13:19:35.275Z</time></trkpt><trkpt lat="44.7555514" lon="7.9360902"><ele>259.0</ele><time>2026-05-06T13:19:36.276Z</time></trkpt><trkpt lat="44.755368" lon="7.9361419"><ele>259.0</ele><time>2026-05-06T13:19:37.275Z</time></trkpt><trkpt lat="44.7551913" lon="7.9361943"><ele>259.0</ele><time>2026-05-06T13:19:38.275Z</time></trkpt><trkpt lat="44.7550127" lon="7.936252"><ele>256.66666666666663</ele><time>2026-05-06T13:19:39.275Z</time></trkpt><trkpt lat="44.7548315" lon="7.9363038"><ele>254.33333333333331</ele><time>2026-05-06T13:19:40.276Z</time></trkpt><trkpt lat="44.7546586" lon="7.9363618"><ele>252.0</ele><time>2026-05-06T13:19:41.276Z</time></trkpt><trkpt lat="44.7544773" lon="7.936413"><ele>252.0</ele><time>2026-05-06T13:19:42.276Z</time></trkpt><trkpt lat="44.7542946" lon="7.936444"><ele>252.0</ele><time>2026-05-06T13:19:43.276Z</time></trkpt><trkpt lat="44.7541099" lon="7.936449"><ele>252.0</ele><time>2026-05-06T13:19:44.276Z</time></trkpt><trkpt lat="44.753936" lon="7.9364309"><ele>252.0</ele><time>2026-05-06T13:19:45.276Z</time></trkpt><trkpt lat="44.7537659" lon="7.9364028"><ele>252.0</ele><time>2026-05-06T13:19:46.275Z</time></trkpt><trkpt lat="44.753599" lon="7.9363655"><ele>252.0</ele><time>2026-05-06T13:19:47.276Z</time></trkpt><trkpt lat="44.7534336" lon="7.9363282"><ele>252.33333333333331</ele><time>2026-05-06T13:19:48.276Z</time></trkpt><trkpt lat="44.7532835" lon="7.9363183"><ele>252.66666666666666</ele><time>2026-05-06T13:19:49.275Z</time></trkpt><trkpt lat="44.7531293" lon="7.9363206"><ele>253.0</ele><time>2026-05-06T13:19:50.275Z</time></trkpt><trkpt lat="44.7529652" lon="7.9363368"><ele>253.0</ele><time>2026-05-06T13:19:51.275Z</time></trkpt><trkpt lat="44.752797" lon="7.9363547"><ele>253.0</ele><time>2026-05-06T13:19:52.276Z</time></trkpt><trkpt lat="44.7526317" lon="7.9363847"><ele>253.0</ele><time>2026-05-06T13:19:53.276Z</time></trkpt><trkpt lat="44.7524782" lon="7.9364144"><ele>251.75</ele><time>2026-05-06T13:19:54.276Z</time></trkpt><trkpt lat="44.7523313" lon="7.9364575"><ele>250.5</ele><time>2026-05-06T13:19:55.276Z</time></trkpt><trkpt lat="44.7522008" lon="7.9365365"><ele>249.25</ele><time>2026-05-06T13:19:56.275Z</time></trkpt><trkpt lat="44.7520751" lon="7.9366692"><ele>248.0</ele><time>2026-05-06T13:19:57.276Z</time></trkpt><trkpt lat="44.7519673" lon="7.9368421"><ele>247.66666666666669</ele><time>2026-05-06T13:19:58.276Z</time></trkpt><trkpt lat="44.7518948" lon="7.9370381"><ele>247.33333333333331</ele><time>2026-05-06T13:19:59.275Z</time></trkpt><trkpt lat="44.7518279" lon="7.937238"><ele>247.0</ele><time>2026-05-06T13:20:00.274Z</time></trkpt><trkpt lat="44.7517548" lon="7.9374433"><ele>245.66666666666666</ele><time>2026-05-06T13:20:01.275Z</time></trkpt><trkpt lat="44.7516987" lon="7.9376518"><ele>244.33333333333331</ele><time>2026-05-06T13:20:02.274Z</time></trkpt><trkpt lat="44.7516346" lon="7.937863"><ele>243.0</ele><time>2026-05-06T13:20:03.275Z</time></trkpt><trkpt lat="44.7515618" lon="7.9380718"><ele>243.0</ele><time>2026-05-06T13:20:04.274Z</time></trkpt><trkpt lat="44.7514869" lon="7.9382752"><ele>243.0</ele><time>2026-05-06T13:20:05.274Z</time></trkpt><trkpt lat="44.7514073" lon="7.9384754"><ele>243.0</ele><time>2026-05-06T13:20:06.274Z</time></trkpt><trkpt lat="44.7512971" lon="7.9386586"><ele>242.66666666666669</ele><time>2026-05-06T13:20:07.274Z</time></trkpt><trkpt lat="44.751182" lon="7.938818"><ele>242.33333333333334</ele><time>2026-05-06T13:20:08.275Z</time></trkpt><trkpt lat="44.7510492" lon="7.938958"><ele>242.0</ele><time>2026-05-06T13:20:09.275Z</time></trkpt><trkpt lat="44.7509067" lon="7.9390795"><ele>242.0</ele><time>2026-05-06T13:20:10.275Z</time></trkpt><trkpt lat="44.7507651" lon="7.9391886"><ele>242.0</ele><time>2026-05-06T13:20:11.275Z</time></trkpt><trkpt lat="44.7506204" lon="7.9392923"><ele>242.0</ele><time>2026-05-06T13:20:12.274Z</time></trkpt><trkpt lat="44.750471" lon="7.9393803"><ele>242.33333333333334</ele><time>2026-05-06T13:20:13.275Z</time></trkpt><trkpt lat="44.7503176" lon="7.9394398"><ele>242.66666666666669</ele><time>2026-05-06T13:20:14.275Z</time></trkpt><trkpt lat="44.7501621" lon="7.9394655"><ele>243.0</ele><time>2026-05-06T13:20:15.275Z</time></trkpt><trkpt lat="44.7500055" lon="7.9394506"><ele>243.0</ele><time>2026-05-06T13:20:16.274Z</time></trkpt><trkpt lat="44.749852" lon="7.9394151"><ele>243.0</ele><time>2026-05-06T13:20:17.274Z</time></trkpt><trkpt lat="44.7497006" lon="7.939345"><ele>243.0</ele><time>2026-05-06T13:20:18.274Z</time></trkpt><trkpt lat="44.7495463" lon="7.9392515"><ele>243.33333333333331</ele><time>2026-05-06T13:20:19.275Z</time></trkpt><trkpt lat="44.7493963" lon="7.9391411"><ele>243.66666666666666</ele><time>2026-05-06T13:20:20.275Z</time></trkpt><trkpt lat="44.7492585" lon="7.9390099"><ele>244.0</ele><time>2026-05-06T13:20:21.275Z</time></trkpt><trkpt lat="44.7491239" lon="7.9388839"><ele>244.0</ele><time>2026-05-06T13:20:22.275Z</time></trkpt><trkpt lat="44.748983" lon="7.9387788"><ele>244.0</ele><time>2026-05-06T13:20:23.274Z</time></trkpt><trkpt lat="44.7488294" lon="7.9386971"><ele>244.0</ele><time>2026-05-06T13:20:24.274Z</time></trkpt><trkpt lat="44.748665" lon="7.9386756"><ele>244.0</ele><time>2026-05-06T13:20:25.274Z</time></trkpt><trkpt lat="44.7485005" lon="7.9386699"><ele>244.0</ele><time>2026-05-06T13:20:26.275Z</time></trkpt><trkpt lat="44.7483341" lon="7.9386896"><ele>244.0</ele><time>2026-05-06T13:20:27.275Z</time></trkpt><trkpt lat="44.7481744" lon="7.9387198"><ele>244.0</ele><time>2026-05-06T13:20:28.275Z</time></trkpt><trkpt lat="44.7480147" lon="7.9387621"><ele>244.0</ele><time>2026-05-06T13:20:29.274Z</time></trkpt><trkpt lat="44.747852" lon="7.9388191"><ele>244.0</ele><time>2026-05-06T13:20:30.275Z</time></trkpt><trkpt lat="44.7476874" lon="7.938866"><ele>241.33333333333331</ele><time>2026-05-06T13:20:31.275Z</time></trkpt><trkpt lat="44.7475245" lon="7.9389052"><ele>238.66666666666669</ele><time>2026-05-06T13:20:32.274Z</time></trkpt><trkpt lat="44.7473616" lon="7.9389507"><ele>236.0</ele><time>2026-05-06T13:20:33.274Z</time></trkpt><trkpt lat="44.7471986" lon="7.9389914"><ele>236.0</ele><time>2026-05-06T13:20:34.274Z</time></trkpt><trkpt lat="44.74704" lon="7.9390504"><ele>236.0</ele><time>2026-05-06T13:20:35.274Z</time></trkpt><trkpt lat="44.7468804" lon="7.9391324"><ele>236.0</ele><time>2026-05-06T13:20:36.274Z</time></trkpt><trkpt lat="44.7467251" lon="7.9392222"><ele>239.0</ele><time>2026-05-06T13:20:37.275Z</time></trkpt><trkpt lat="44.746582" lon="7.9393363"><ele>242.0</ele><time>2026-05-06T13:20:38.275Z</time></trkpt><trkpt lat="44.7464405" lon="7.9394601"><ele>245.0</ele><time>2026-05-06T13:20:39.275Z</time></trkpt><trkpt lat="44.7462915" lon="7.9395795"><ele>245.0</ele><time>2026-05-06T13:20:40.274Z</time></trkpt><trkpt lat="44.7461356" lon="7.9396899"><ele>245.0</ele><time>2026-05-06T13:20:41.275Z</time></trkpt><trkpt lat="44.7459761" lon="7.9398127"><ele>245.0</ele><time>2026-05-06T13:20:42.274Z</time></trkpt><trkpt lat="44.7458199" lon="7.9399407"><ele>244.66666666666669</ele><time>2026-05-06T13:20:43.274Z</time></trkpt><trkpt lat="44.7456631" lon="7.940067"><ele>244.33333333333331</ele><time>2026-05-06T13:20:44.274Z</time></trkpt><trkpt lat="44.7454934" lon="7.940189"><ele>244.0</ele><time>2026-05-06T13:20:45.274Z</time></trkpt><trkpt lat="44.745327" lon="7.940309"><ele>242.0</ele><time>2026-05-06T13:20:46.274Z</time></trkpt><trkpt lat="44.7451486" lon="7.9404187"><ele>240.0</ele><time>2026-05-06T13:20:47.275Z</time></trkpt><trkpt lat="44.7449738" lon="7.9405176"><ele>238.0</ele><time>2026-05-06T13:20:48.275Z</time></trkpt><trkpt lat="44.7447954" lon="7.9406043"><ele>238.0</ele><time>2026-05-06T13:20:49.275Z</time></trkpt><trkpt lat="44.7446063" lon="7.940687"><ele>238.0</ele><time>2026-05-06T13:20:50.275Z</time></trkpt><trkpt lat="44.7444163" lon="7.9407646"><ele>238.0</ele><time>2026-05-06T13:20:51.275Z</time></trkpt><trkpt lat="44.7442287" lon="7.9408343"><ele>239.0</ele><time>2026-05-06T13:20:52.274Z</time></trkpt><trkpt lat="44.7440315" lon="7.9409023"><ele>240.0</ele><time>2026-05-06T13:20:53.274Z</time></trkpt><trkpt lat="44.7438351" lon="7.940973"><ele>241.0</ele><time>2026-05-06T13:20:54.275Z</time></trkpt><trkpt lat="44.7436486" lon="7.941053"><ele>237.66666666666666</ele><time>2026-05-06T13:20:55.274Z</time></trkpt><trkpt lat="44.7434574" lon="7.9411453"><ele>234.33333333333331</ele><time>2026-05-06T13:20:56.274Z</time></trkpt><trkpt lat="44.7432591" lon="7.9412548"><ele>231.0</ele><time>2026-05-06T13:20:57.275Z</time></trkpt><trkpt lat="44.7430736" lon="7.9413734"><ele>231.0</ele><time>2026-05-06T13:20:58.275Z</time></trkpt><trkpt lat="44.7428847" lon="7.9415045"><ele>231.0</ele><time>2026-05-06T13:20:59.275Z</time></trkpt><trkpt lat="44.742691" lon="7.941624"><ele>231.0</ele><time>2026-05-06T13:21:00.275Z</time></trkpt><trkpt lat="44.7424974" lon="7.9417489"><ele>230.33333333333331</ele><time>2026-05-06T13:21:01.275Z</time></trkpt><trkpt lat="44.742304" lon="7.9418631"><ele>229.66666666666666</ele><time>2026-05-06T13:21:02.275Z</time></trkpt><trkpt lat="44.742115" lon="7.941971"><ele>229.0</ele><time>2026-05-06T13:21:03.275Z</time></trkpt><trkpt lat="44.7419212" lon="7.9420748"><ele>227.0</ele><time>2026-05-06T13:21:04.275Z</time></trkpt><trkpt lat="44.7417349" lon="7.9421811"><ele>225.0</ele><time>2026-05-06T13:21:05.275Z</time></trkpt><trkpt lat="44.7415473" lon="7.9422938"><ele>223.0</ele><time>2026-05-06T13:21:06.275Z</time></trkpt><trkpt lat="44.7413619" lon="7.9424057"><ele>223.0</ele><time>2026-05-06T13:21:07.275Z</time></trkpt><trkpt lat="44.7411781" lon="7.9425161"><ele>223.0</ele><time>2026-05-06T13:21:08.275Z</time></trkpt><trkpt lat="44.7410033" lon="7.9426339"><ele>223.0</ele><time>2026-05-06T13:21:09.274Z</time></trkpt><trkpt lat="44.7408189" lon="7.9427648"><ele>223.0</ele><time>2026-05-06T13:21:10.274Z</time></trkpt><trkpt lat="44.7406384" lon="7.9429149"><ele>223.0</ele><time>2026-05-06T13:21:11.274Z</time></trkpt><trkpt lat="44.7404632" lon="7.9430633"><ele>223.0</ele><time>2026-05-06T13:21:12.275Z</time></trkpt><trkpt lat="44.7402904" lon="7.9432199"><ele>222.33333333333331</ele><time>2026-05-06T13:21:13.275Z</time></trkpt><trkpt lat="44.7401158" lon="7.9433821"><ele>221.66666666666669</ele><time>2026-05-06T13:21:14.275Z</time></trkpt><trkpt lat="44.7399437" lon="7.943533"><ele>221.0</ele><time>2026-05-06T13:21:15.275Z</time></trkpt><trkpt lat="44.7397706" lon="7.9436668"><ele>221.0</ele><time>2026-05-06T13:21:16.274Z</time></trkpt><trkpt lat="44.7395927" lon="7.9437797"><ele>221.0</ele><time>2026-05-06T13:21:17.274Z</time></trkpt><trkpt lat="44.7394148" lon="7.943855"><ele>221.0</ele><time>2026-05-06T13:21:18.275Z</time></trkpt><trkpt lat="44.7392222" lon="7.9439058"><ele>221.0</ele><time>2026-05-06T13:21:19.274Z</time></trkpt><trkpt lat="44.7390384" lon="7.9439284"><ele>221.0</ele><time>2026-05-06T13:21:20.274Z</time></trkpt><trkpt lat="44.738864" lon="7.9439382"><ele>221.0</ele><time>2026-05-06T13:21:21.275Z</time></trkpt><trkpt lat="44.7386944" lon="7.9439354"><ele>220.0</ele><time>2026-05-06T13:21:22.275Z</time></trkpt><trkpt lat="44.7385305" lon="7.9439518"><ele>219.0</ele><time>2026-05-06T13:21:23.275Z</time></trkpt><trkpt lat="44.7383576" lon="7.9440053"><ele>218.0</ele><time>2026-05-06T13:21:24.274Z</time></trkpt><trkpt lat="44.7381967" lon="7.944103"><ele>220.33333333333334</ele><time>2026-05-06T13:21:25.274Z</time></trkpt><trkpt lat="44.7380365" lon="7.9442196"><ele>222.66666666666669</ele><time>2026-05-06T13:21:26.275Z</time></trkpt><trkpt lat="44.7378798" lon="7.944358"><ele>225.0</ele><time>2026-05-06T13:21:27.275Z</time></trkpt><trkpt lat="44.7377186" lon="7.944489"><ele>224.66666666666669</ele><time>2026-05-06T13:21:28.274Z</time></trkpt><trkpt lat="44.7375523" lon="7.944616"><ele>224.33333333333334</ele><time>2026-05-06T13:21:29.275Z</time></trkpt><trkpt lat="44.7373913" lon="7.9447483"><ele>224.0</ele><time>2026-05-06T13:21:30.275Z</time></trkpt><trkpt lat="44.7372343" lon="7.9448933"><ele>223.66666666666669</ele><time>2026-05-06T13:21:31.275Z</time></trkpt><trkpt lat="44.7370783" lon="7.9450458"><ele>223.33333333333331</ele><time>2026-05-06T13:21:32.274Z</time></trkpt><trkpt lat="44.7369248" lon="7.9452049"><ele>223.0</ele><time>2026-05-06T13:21:33.274Z</time></trkpt><trkpt lat="44.7367879" lon="7.9453941"><ele>223.0</ele><time>2026-05-06T13:21:34.274Z</time></trkpt><trkpt lat="44.7366511" lon="7.9455919"><ele>223.0</ele><time>2026-05-06T13:21:35.274Z</time></trkpt><trkpt lat="44.7365158" lon="7.9457761"><ele>223.0</ele><time>2026-05-06T13:21:36.275Z</time></trkpt><trkpt lat="44.7363754" lon="7.9459634"><ele>224.66666666666666</ele><time>2026-05-06T13:21:37.275Z</time></trkpt><trkpt lat="44.7362345" lon="7.9461326"><ele>226.33333333333331</ele><time>2026-05-06T13:21:38.275Z</time></trkpt><trkpt lat="44.7361165" lon="7.9463147"><ele>228.0</ele><time>2026-05-06T13:21:39.275Z</time></trkpt><trkpt lat="44.7360036" lon="7.9465131"><ele>223.33333333333331</ele><time>2026-05-06T13:21:40.275Z</time></trkpt><trkpt lat="44.7359006" lon="7.9467184"><ele>218.66666666666666</ele><time>2026-05-06T13:21:41.275Z</time></trkpt><trkpt lat="44.7358118" lon="7.9469299"><ele>214.0</ele><time>2026-05-06T13:21:42.275Z</time></trkpt><trkpt lat="44.7357261" lon="7.9471213"><ele>214.0</ele><time>2026-05-06T13:21:43.275Z</time></trkpt><trkpt lat="44.7356467" lon="7.9472969"><ele>214.0</ele><time>2026-05-06T13:21:44.275Z</time></trkpt><trkpt lat="44.7355668" lon="7.9474652"><ele>214.0</ele><time>2026-05-06T13:21:45.275Z</time></trkpt><trkpt lat="44.735485" lon="7.9476361"><ele>214.0</ele><time>2026-05-06T13:21:46.275Z</time></trkpt><trkpt lat="44.7354097" lon="7.9478042"><ele>213.79999999999998</ele><time>2026-05-06T13:21:47.275Z</time></trkpt><trkpt lat="44.7353428" lon="7.9479597"><ele>213.59999999999997</ele><time>2026-05-06T13:21:48.274Z</time></trkpt><trkpt lat="44.7352858" lon="7.9481031"><ele>213.4</ele><time>2026-05-06T13:21:49.274Z</time></trkpt><trkpt lat="44.7352326" lon="7.9482332"><ele>213.2</ele><time>2026-05-06T13:21:50.275Z</time></trkpt><trkpt lat="44.7351812" lon="7.9483489"><ele>213.0</ele><time>2026-05-06T13:21:51.274Z</time></trkpt><trkpt lat="44.7351242" lon="7.9484595"><ele>213.0</ele><time>2026-05-06T13:21:52.275Z</time></trkpt><trkpt lat="44.7350763" lon="7.9485599"><ele>213.0</ele><time>2026-05-06T13:21:53.274Z</time></trkpt><trkpt lat="44.7350209" lon="7.9486455"><ele>213.0</ele><time>2026-05-06T13:21:54.274Z</time></trkpt><trkpt lat="44.7349536" lon="7.9487026"><ele>213.0</ele><time>2026-05-06T13:21:55.274Z</time></trkpt><trkpt lat="44.7348771" lon="7.9487101"><ele>213.0</ele><time>2026-05-06T13:21:56.275Z</time></trkpt><trkpt lat="44.7348128" lon="7.948665"><ele>213.0</ele><time>2026-05-06T13:21:57.274Z</time></trkpt><trkpt lat="44.734767" lon="7.9485589"><ele>213.0</ele><time>2026-05-06T13:21:58.275Z</time></trkpt><trkpt lat="44.7347461" lon="7.9484099"><ele>213.0</ele><time>2026-05-06T13:21:59.274Z</time></trkpt><trkpt lat="44.7347463" lon="7.9482467"><ele>213.0</ele><time>2026-05-06T13:22:00.275Z</time></trkpt><trkpt lat="44.7347439" lon="7.9480756"><ele>213.0</ele><time>2026-05-06T13:22:01.275Z</time></trkpt><trkpt lat="44.7347403" lon="7.94789"><ele>213.0</ele><time>2026-05-06T13:22:02.274Z</time></trkpt><trkpt lat="44.7347285" lon="7.9476936"><ele>213.0</ele><time>2026-05-06T13:22:03.274Z</time></trkpt><trkpt lat="44.7347021" lon="7.9474849"><ele>213.0</ele><time>2026-05-06T13:22:04.275Z</time></trkpt><trkpt lat="44.7346766" lon="7.9472753"><ele>213.0</ele><time>2026-05-06T13:22:05.275Z</time></trkpt><trkpt lat="44.7346504" lon="7.9470574"><ele>212.66666666666669</ele><time>2026-05-06T13:22:06.275Z</time></trkpt><trkpt lat="44.734618" lon="7.9468221"><ele>212.33333333333334</ele><time>2026-05-06T13:22:07.274Z</time></trkpt><trkpt lat="44.7345917" lon="7.9465844"><ele>212.0</ele><time>2026-05-06T13:22:08.274Z</time></trkpt><trkpt lat="44.7345677" lon="7.9463378"><ele>211.66666666666669</ele><time>2026-05-06T13:22:09.274Z</time></trkpt><trkpt lat="44.734548" lon="7.9460936"><ele>211.33333333333331</ele><time>2026-05-06T13:22:10.275Z</time></trkpt><trkpt lat="44.7345223" lon="7.9458423"><ele>211.0</ele><time>2026-05-06T13:22:11.274Z</time></trkpt><trkpt lat="44.7344962" lon="7.9455867"><ele>210.66666666666666</ele><time>2026-05-06T13:22:12.274Z</time></trkpt><trkpt lat="44.7344681" lon="7.9453222"><ele>210.33333333333331</ele><time>2026-05-06T13:22:13.275Z</time></trkpt><trkpt lat="44.7344364" lon="7.9450521"><ele>210.0</ele><time>2026-05-06T13:22:14.274Z</time></trkpt><trkpt lat="44.7344004" lon="7.944779"><ele>211.0</ele><time>2026-05-06T13:22:15.275Z</time></trkpt><trkpt lat="44.7343722" lon="7.9445166"><ele>212.0</ele><time>2026-05-06T13:22:16.275Z</time></trkpt><trkpt lat="44.7343472" lon="7.9442557"><ele>213.0</ele><time>2026-05-06T13:22:17.275Z</time></trkpt><trkpt lat="44.7343214" lon="7.9439746"><ele>215.0</ele><time>2026-05-06T13:22:18.275Z</time></trkpt><trkpt lat="44.7342999" lon="7.9436914"><ele>217.0</ele><time>2026-05-06T13:22:19.275Z</time></trkpt><trkpt lat="44.7342642" lon="7.9434165"><ele>219.0</ele><time>2026-05-06T13:22:20.275Z</time></trkpt><trkpt lat="44.7342399" lon="7.9431477"><ele>219.33333333333331</ele><time>2026-05-06T13:22:21.275Z</time></trkpt><trkpt lat="44.7342245" lon="7.9428727"><ele>219.66666666666666</ele><time>2026-05-06T13:22:22.274Z</time></trkpt><trkpt lat="44.7342096" lon="7.9426017"><ele>220.0</ele><time>2026-05-06T13:22:23.275Z</time></trkpt><trkpt lat="44.7342136" lon="7.942331"><ele>220.0</ele><time>2026-05-06T13:22:24.275Z</time></trkpt><trkpt lat="44.7342347" lon="7.9420528"><ele>220.0</ele><time>2026-05-06T13:22:25.275Z</time></trkpt><trkpt lat="44.7342601" lon="7.9417843"><ele>220.0</ele><time>2026-05-06T13:22:26.275Z</time></trkpt><trkpt lat="44.7342938" lon="7.9415132"><ele>219.66666666666666</ele><time>2026-05-06T13:22:27.275Z</time></trkpt><trkpt lat="44.7343381" lon="7.9412446"><ele>219.33333333333331</ele><time>2026-05-06T13:22:28.275Z</time></trkpt><trkpt lat="44.7343962" lon="7.9409797"><ele>219.0</ele><time>2026-05-06T13:22:29.275Z</time></trkpt><trkpt lat="44.7344683" lon="7.9407244"><ele>219.66666666666669</ele><time>2026-05-06T13:22:30.275Z</time></trkpt><trkpt lat="44.7345518" lon="7.9404833"><ele>220.33333333333334</ele><time>2026-05-06T13:22:31.275Z</time></trkpt><trkpt lat="44.7346423" lon="7.9402438"><ele>221.0</ele><time>2026-05-06T13:22:32.274Z</time></trkpt><trkpt lat="44.7347377" lon="7.9400027"><ele>221.0</ele><time>2026-05-06T13:22:33.275Z</time></trkpt><trkpt lat="44.7348269" lon="7.9397534"><ele>221.0</ele><time>2026-05-06T13:22:34.274Z</time></trkpt><trkpt lat="44.7349136" lon="7.9394927"><ele>221.0</ele><time>2026-05-06T13:22:35.274Z</time></trkpt><trkpt lat="44.7350061" lon="7.9392379"><ele>220.0</ele><time>2026-05-06T13:22:36.275Z</time></trkpt><trkpt lat="44.7351051" lon="7.9389838"><ele>219.0</ele><time>2026-05-06T13:22:37.275Z</time></trkpt><trkpt lat="44.7351941" lon="7.9387223"><ele>218.0</ele><time>2026-05-06T13:22:38.274Z</time></trkpt><trkpt lat="44.7352793" lon="7.9384617"><ele>221.33333333333334</ele><time>2026-05-06T13:22:39.274Z</time></trkpt><trkpt lat="44.7353756" lon="7.9382043"><ele>224.66666666666669</ele><time>2026-05-06T13:22:40.274Z</time></trkpt><trkpt lat="44.7354667" lon="7.9379487"><ele>228.0</ele><time>2026-05-06T13:22:41.274Z</time></trkpt><trkpt lat="44.7355652" lon="7.9376869"><ele>226.66666666666669</ele><time>2026-05-06T13:22:42.275Z</time></trkpt><trkpt lat="44.7356593" lon="7.9374266"><ele>225.33333333333334</ele><time>2026-05-06T13:22:43.275Z</time></trkpt><trkpt lat="44.7357498" lon="7.9371724"><ele>224.0</ele><time>2026-05-06T13:22:44.275Z</time></trkpt><trkpt lat="44.7358461" lon="7.9369221"><ele>223.0</ele><time>2026-05-06T13:22:45.274Z</time></trkpt><trkpt lat="44.7359351" lon="7.9366662"><ele>222.0</ele><time>2026-05-06T13:22:46.275Z</time></trkpt><trkpt lat="44.7360208" lon="7.9364081"><ele>221.0</ele><time>2026-05-06T13:22:47.274Z</time></trkpt><trkpt lat="44.7361026" lon="7.936151"><ele>221.66666666666669</ele><time>2026-05-06T13:22:48.275Z</time></trkpt><trkpt lat="44.7361948" lon="7.9358884"><ele>222.33333333333331</ele><time>2026-05-06T13:22:49.275Z</time></trkpt><trkpt lat="44.7362907" lon="7.9356322"><ele>223.0</ele><time>2026-05-06T13:22:50.275Z</time></trkpt><trkpt lat="44.7363817" lon="7.9353686"><ele>223.0</ele><time>2026-05-06T13:22:51.275Z</time></trkpt><trkpt lat="44.7364678" lon="7.9351048"><ele>223.0</ele><time>2026-05-06T13:22:52.275Z</time></trkpt><trkpt lat="44.7365599" lon="7.93484"><ele>223.0</ele><time>2026-05-06T13:22:53.275Z</time></trkpt><trkpt lat="44.7366521" lon="7.9345784"><ele>222.33333333333331</ele><time>2026-05-06T13:22:54.274Z</time></trkpt><trkpt lat="44.7367481" lon="7.9343094"><ele>221.66666666666669</ele><time>2026-05-06T13:22:55.275Z</time></trkpt><trkpt lat="44.7368401" lon="7.9340432"><ele>221.0</ele><time>2026-05-06T13:22:56.274Z</time></trkpt><trkpt lat="44.736932" lon="7.9337706"><ele>222.66666666666669</ele><time>2026-05-06T13:22:57.274Z</time></trkpt><trkpt lat="44.7370273" lon="7.9335012"><ele>224.33333333333331</ele><time>2026-05-06T13:22:58.274Z</time></trkpt><trkpt lat="44.7371229" lon="7.9332387"><ele>226.0</ele><time>2026-05-06T13:22:59.275Z</time></trkpt><trkpt lat="44.7372174" lon="7.9329739"><ele>226.33333333333331</ele><time>2026-05-06T13:23:00.274Z</time></trkpt><trkpt lat="44.7373143" lon="7.932712"><ele>226.66666666666669</ele><time>2026-05-06T13:23:01.275Z</time></trkpt><trkpt lat="44.7374124" lon="7.9324559"><ele>227.0</ele><time>2026-05-06T13:23:02.275Z</time></trkpt><trkpt lat="44.7375069" lon="7.9321988"><ele>227.0</ele><time>2026-05-06T13:23:03.274Z</time></trkpt><trkpt lat="44.7376059" lon="7.9319312"><ele>227.0</ele><time>2026-05-06T13:23:04.275Z</time></trkpt><trkpt lat="44.7377037" lon="7.9316713"><ele>227.0</ele><time>2026-05-06T13:23:05.275Z</time></trkpt><trkpt lat="44.7377764" lon="7.9314009"><ele>231.33333333333334</ele><time>2026-05-06T13:23:06.275Z</time></trkpt><trkpt lat="44.7378173" lon="7.9311299"><ele>235.66666666666669</ele><time>2026-05-06T13:23:07.275Z</time></trkpt><trkpt lat="44.737825" lon="7.9308562"><ele>240.0</ele><time>2026-05-06T13:23:08.274Z</time></trkpt><trkpt lat="44.7378062" lon="7.9305725"><ele>238.0</ele><time>2026-05-06T13:23:09.275Z</time></trkpt><trkpt lat="44.7377694" lon="7.9303009"><ele>236.0</ele><time>2026-05-06T13:23:10.274Z</time></trkpt><trkpt lat="44.7377277" lon="7.9300267"><ele>234.0</ele><time>2026-05-06T13:23:11.275Z</time></trkpt><trkpt lat="44.7376841" lon="7.929746"><ele>234.0</ele><time>2026-05-06T13:23:12.275Z</time></trkpt><trkpt lat="44.7376355" lon="7.9294682"><ele>234.0</ele><time>2026-05-06T13:23:13.274Z</time></trkpt><trkpt lat="44.7375863" lon="7.9291855"><ele>234.0</ele><time>2026-05-06T13:23:14.274Z</time></trkpt><trkpt lat="44.7375505" lon="7.9289023"><ele>234.33333333333331</ele><time>2026-05-06T13:23:15.275Z</time></trkpt><trkpt lat="44.7375097" lon="7.9286289"><ele>234.66666666666666</ele><time>2026-05-06T13:23:16.275Z</time></trkpt><trkpt lat="44.7374711" lon="7.928356"><ele>235.0</ele><time>2026-05-06T13:23:17.274Z</time></trkpt><trkpt lat="44.7374314" lon="7.9280832"><ele>235.33333333333331</ele><time>2026-05-06T13:23:18.275Z</time></trkpt><trkpt lat="44.7373943" lon="7.9278175"><ele>235.66666666666669</ele><time>2026-05-06T13:23:19.275Z</time></trkpt><trkpt lat="44.7373761" lon="7.9275524"><ele>236.0</ele><time>2026-05-06T13:23:20.274Z</time></trkpt><trkpt lat="44.7373849" lon="7.9272865"><ele>236.66666666666669</ele><time>2026-05-06T13:23:21.274Z</time></trkpt><trkpt lat="44.7374302" lon="7.9270275"><ele>237.33333333333331</ele><time>2026-05-06T13:23:22.275Z</time></trkpt><trkpt lat="44.7374861" lon="7.9267981"><ele>238.0</ele><time>2026-05-06T13:23:23.274Z</time></trkpt><trkpt lat="44.73755" lon="7.9265975"><ele>238.5</ele><time>2026-05-06T13:23:24.274Z</time></trkpt><trkpt lat="44.7376048" lon="7.9264197"><ele>239.0</ele><time>2026-05-06T13:23:25.275Z</time></trkpt><trkpt lat="44.7376633" lon="7.9262364"><ele>239.5</ele><time>2026-05-06T13:23:26.275Z</time></trkpt><trkpt lat="44.7377439" lon="7.9260644"><ele>240.0</ele><time>2026-05-06T13:23:27.275Z</time></trkpt><trkpt lat="44.7378347" lon="7.9259118"><ele>244.0</ele><time>2026-05-06T13:23:28.274Z</time></trkpt><trkpt lat="44.7379404" lon="7.9257526"><ele>248.0</ele><time>2026-05-06T13:23:29.274Z</time></trkpt><trkpt lat="44.7380438" lon="7.9256037"><ele>252.0</ele><time>2026-05-06T13:23:30.274Z</time></trkpt><trkpt lat="44.7381421" lon="7.9254346"><ele>252.0</ele><time>2026-05-06T13:23:31.275Z</time></trkpt><trkpt lat="44.7382407" lon="7.9252605"><ele>252.0</ele><time>2026-05-06T13:23:32.274Z</time></trkpt><trkpt lat="44.7383421" lon="7.9250881"><ele>252.0</ele><time>2026-05-06T13:23:33.275Z</time></trkpt><trkpt lat="44.7384601" lon="7.9249153"><ele>256.0</ele><time>2026-05-06T13:23:34.275Z</time></trkpt><trkpt lat="44.7385775" lon="7.9247492"><ele>260.0</ele><time>2026-05-06T13:23:35.274Z</time></trkpt><trkpt lat="44.7386982" lon="7.9245963"><ele>264.0</ele><time>2026-05-06T13:23:36.275Z</time></trkpt><trkpt lat="44.7388289" lon="7.9244495"><ele>264.0</ele><time>2026-05-06T13:23:37.275Z</time></trkpt><trkpt lat="44.7389592" lon="7.9242973"><ele>264.0</ele><time>2026-05-06T13:23:38.275Z</time></trkpt><trkpt lat="44.7390903" lon="7.9241512"><ele>264.0</ele><time>2026-05-06T13:23:39.275Z</time></trkpt><trkpt lat="44.7391895" lon="7.9239762"><ele>262.0</ele><time>2026-05-06T13:23:40.275Z</time></trkpt><trkpt lat="44.7392384" lon="7.9237783"><ele>260.0</ele><time>2026-05-06T13:23:41.275Z</time></trkpt><trkpt lat="44.7392378" lon="7.9235671"><ele>258.0</ele><time>2026-05-06T13:23:42.274Z</time></trkpt><trkpt lat="44.7392149" lon="7.9233618"><ele>256.0</ele><time>2026-05-06T13:23:43.275Z</time></trkpt><trkpt lat="44.7391724" lon="7.9231641"><ele>256.0</ele><time>2026-05-06T13:23:44.274Z</time></trkpt><trkpt lat="44.7391543" lon="7.9229653"><ele>256.0</ele><time>2026-05-06T13:23:45.274Z</time></trkpt><trkpt lat="44.739174" lon="7.9227985"><ele>256.0</ele><time>2026-05-06T13:23:46.274Z</time></trkpt><trkpt lat="44.7392392" lon="7.922664"><ele>256.0</ele><time>2026-05-06T13:23:47.274Z</time></trkpt><trkpt lat="44.7393401" lon="7.9225746"><ele>260.25</ele><time>2026-05-06T13:23:48.275Z</time></trkpt><trkpt lat="44.7394629" lon="7.9225118"><ele>264.5</ele><time>2026-05-06T13:23:49.274Z</time></trkpt><trkpt lat="44.7395687" lon="7.922427"><ele>268.75</ele><time>2026-05-06T13:23:50.275Z</time></trkpt><trkpt lat="44.7396592" lon="7.9223023"><ele>273.0</ele><time>2026-05-06T13:23:51.274Z</time></trkpt><trkpt lat="44.7397257" lon="7.922143"><ele>273.0</ele><time>2026-05-06T13:23:52.274Z</time></trkpt><trkpt lat="44.7397896" lon="7.9219649"><ele>273.0</ele><time>2026-05-06T13:23:53.275Z</time></trkpt><trkpt lat="44.7398534" lon="7.9217848"><ele>273.0</ele><time>2026-05-06T13:23:54.274Z</time></trkpt><trkpt lat="44.739933" lon="7.9216077"><ele>273.0</ele><time>2026-05-06T13:23:55.275Z</time></trkpt><trkpt lat="44.7400353" lon="7.9214624"><ele>274.3333333333333</ele><time>2026-05-06T13:23:56.274Z</time></trkpt><trkpt lat="44.7401586" lon="7.9213265"><ele>275.66666666666663</ele><time>2026-05-06T13:23:57.275Z</time></trkpt><trkpt lat="44.7402874" lon="7.9211963"><ele>277.0</ele><time>2026-05-06T13:23:58.274Z</time></trkpt><trkpt lat="44.7404037" lon="7.9210404"><ele>277.66666666666663</ele><time>2026-05-06T13:23:59.275Z</time></trkpt><trkpt lat="44.7405033" lon="7.9208569"><ele>278.3333333333333</ele><time>2026-05-06T13:24:00.275Z</time></trkpt><trkpt lat="44.7405837" lon="7.9206568"><ele>279.0</ele><time>2026-05-06T13:24:01.275Z</time></trkpt><trkpt lat="44.7406528" lon="7.9204528"><ele>279.0</ele><time>2026-05-06T13:24:02.274Z</time></trkpt><trkpt lat="44.7407358" lon="7.9202565"><ele>279.0</ele><time>2026-05-06T13:24:03.275Z</time></trkpt><trkpt lat="44.740818" lon="7.9200602"><ele>279.0</ele><time>2026-05-06T13:24:04.275Z</time></trkpt><trkpt lat="44.7409136" lon="7.9198799"><ele>278.3333333333333</ele><time>2026-05-06T13:24:05.275Z</time></trkpt><trkpt lat="44.7410013" lon="7.919702"><ele>277.66666666666663</ele><time>2026-05-06T13:24:06.275Z</time></trkpt><trkpt lat="44.7410765" lon="7.9195173"><ele>277.0</ele><time>2026-05-06T13:24:07.274Z</time></trkpt><trkpt lat="44.7411515" lon="7.919342"><ele>276.25</ele><time>2026-05-06T13:24:08.274Z</time></trkpt><trkpt lat="44.7412328" lon="7.919173"><ele>275.5</ele><time>2026-05-06T13:24:09.275Z</time></trkpt><trkpt lat="44.7412904" lon="7.9189898"><ele>274.75</ele><time>2026-05-06T13:24:10.274Z</time></trkpt><trkpt lat="44.7413437" lon="7.9187981"><ele>274.0</ele><time>2026-05-06T13:24:11.275Z</time></trkpt><trkpt lat="44.7413787" lon="7.918602"><ele>274.0</ele><time>2026-05-06T13:24:12.275Z</time></trkpt><trkpt lat="44.7413899" lon="7.918405"><ele>274.0</ele><time>2026-05-06T13:24:13.274Z</time></trkpt><trkpt lat="44.7413918" lon="7.9182119"><ele>274.0</ele><time>2026-05-06T13:24:14.275Z</time></trkpt><trkpt lat="44.7413885" lon="7.9180383"><ele>274.0</ele><time>2026-05-06T13:24:15.274Z</time></trkpt><trkpt lat="44.7413908" lon="7.9178667"><ele>274.5</ele><time>2026-05-06T13:24:16.274Z</time></trkpt><trkpt lat="44.741387" lon="7.9176921"><ele>275.0</ele><time>2026-05-06T13:24:17.275Z</time></trkpt><trkpt lat="44.7413853" lon="7.9175057"><ele>275.5</ele><time>2026-05-06T13:24:18.274Z</time></trkpt><trkpt lat="44.7413875" lon="7.9173247"><ele>276.0</ele><time>2026-05-06T13:24:19.275Z</time></trkpt><trkpt lat="44.7413871" lon="7.9171417"><ele>277.25</ele><time>2026-05-06T13:24:20.275Z</time></trkpt><trkpt lat="44.7413772" lon="7.9169639"><ele>278.5</ele><time>2026-05-06T13:24:21.274Z</time></trkpt><trkpt lat="44.7413549" lon="7.916789"><ele>279.75</ele><time>2026-05-06T13:24:22.275Z</time></trkpt><trkpt lat="44.741305" lon="7.9166159"><ele>281.0</ele><time>2026-05-06T13:24:23.275Z</time></trkpt><trkpt lat="44.7412203" lon="7.9164607"><ele>281.5</ele><time>2026-05-06T13:24:24.274Z</time></trkpt><trkpt lat="44.7411244" lon="7.9163225"><ele>282.0</ele><time>2026-05-06T13:24:25.275Z</time></trkpt><trkpt lat="44.7410273" lon="7.9161936"><ele>282.5</ele><time>2026-05-06T13:24:26.275Z</time></trkpt><trkpt lat="44.7409062" lon="7.9161014"><ele>283.0</ele><time>2026-05-06T13:24:27.274Z</time></trkpt><trkpt lat="44.7407905" lon="7.9160003"><ele>285.25</ele><time>2026-05-06T13:24:28.274Z</time></trkpt><trkpt lat="44.7406762" lon="7.9159008"><ele>287.5</ele><time>2026-05-06T13:24:29.275Z</time></trkpt><trkpt lat="44.7405487" lon="7.9158088"><ele>289.75</ele><time>2026-05-06T13:24:30.275Z</time></trkpt><trkpt lat="44.74043" lon="7.9157188"><ele>292.0</ele><time>2026-05-06T13:24:31.275Z</time></trkpt><trkpt lat="44.7403129" lon="7.9156251"><ele>291.75</ele><time>2026-05-06T13:24:32.274Z</time></trkpt><trkpt lat="44.7402051" lon="7.9155286"><ele>291.5</ele><time>2026-05-06T13:24:33.274Z</time></trkpt><trkpt lat="44.7401129" lon="7.9154195"><ele>291.25</ele><time>2026-05-06T13:24:34.275Z</time></trkpt><trkpt lat="44.7400551" lon="7.9152737"><ele>291.0</ele><time>2026-05-06T13:24:35.275Z</time></trkpt><trkpt lat="44.740029" lon="7.9151012"><ele>292.25</ele><time>2026-05-06T13:24:36.275Z</time></trkpt><trkpt lat="44.7400424" lon="7.914923"><ele>293.5</ele><time>2026-05-06T13:24:37.274Z</time></trkpt><trkpt lat="44.7400502" lon="7.9147504"><ele>294.75</ele><time>2026-05-06T13:24:38.274Z</time></trkpt><trkpt lat="44.7400417" lon="7.9145778"><ele>296.0</ele><time>2026-05-06T13:24:39.275Z</time></trkpt><trkpt lat="44.740007" lon="7.9144022"><ele>297.25</ele><time>2026-05-06T13:24:40.274Z</time></trkpt><trkpt lat="44.7399464" lon="7.9142319"><ele>298.5</ele><time>2026-05-06T13:24:41.275Z</time></trkpt><trkpt lat="44.7398656" lon="7.9140745"><ele>299.75</ele><time>2026-05-06T13:24:42.275Z</time></trkpt><trkpt lat="44.7397632" lon="7.9139335"><ele>301.0</ele><time>2026-05-06T13:24:43.274Z</time></trkpt><trkpt lat="44.7396651" lon="7.9137887"><ele>301.0</ele><time>2026-05-06T13:24:44.275Z</time></trkpt><trkpt lat="44.73956" lon="7.9136529"><ele>301.0</ele><time>2026-05-06T13:24:45.274Z</time></trkpt><trkpt lat="44.7394518" lon="7.9135244"><ele>301.0</ele><time>2026-05-06T13:24:46.275Z</time></trkpt><trkpt lat="44.7393514" lon="7.9134017"><ele>301.0</ele><time>2026-05-06T13:24:47.275Z</time></trkpt><trkpt lat="44.7392649" lon="7.9132771"><ele>301.0</ele><time>2026-05-06T13:24:48.275Z</time></trkpt><trkpt lat="44.7391944" lon="7.9131397"><ele>301.0</ele><time>2026-05-06T13:24:49.274Z</time></trkpt><trkpt lat="44.7391533" lon="7.9129823"><ele>301.0</ele><time>2026-05-06T13:24:50.275Z</time></trkpt><trkpt lat="44.7391471" lon="7.9128216"><ele>301.0</ele><time>2026-05-06T13:24:51.274Z</time></trkpt><trkpt lat="44.7391826" lon="7.9126733"><ele>301.75</ele><time>2026-05-06T13:24:52.274Z</time></trkpt><trkpt lat="44.7392547" lon="7.9125499"><ele>302.5</ele><time>2026-05-06T13:24:53.275Z</time></trkpt><trkpt lat="44.73935" lon="7.912459"><ele>303.25</ele><time>2026-05-06T13:24:54.275Z</time></trkpt><trkpt lat="44.7394593" lon="7.9123665"><ele>304.0</ele><time>2026-05-06T13:24:55.275Z</time></trkpt><trkpt lat="44.7395688" lon="7.9122715"><ele>304.0</ele><time>2026-05-06T13:24:56.274Z</time></trkpt><trkpt lat="44.7396809" lon="7.9121692"><ele>304.0</ele><time>2026-05-06T13:24:57.275Z</time></trkpt><trkpt lat="44.73979" lon="7.9120706"><ele>304.0</ele><time>2026-05-06T13:24:58.275Z</time></trkpt><trkpt lat="44.7398897" lon="7.9119687"><ele>304.0</ele><time>2026-05-06T13:24:59.275Z</time></trkpt><trkpt lat="44.739987" lon="7.9118674"><ele>304.0</ele><time>2026-05-06T13:25:00.274Z</time></trkpt><trkpt lat="44.7400807" lon="7.9117783"><ele>304.0</ele><time>2026-05-06T13:25:01.275Z</time></trkpt><trkpt lat="44.7401618" lon="7.9116751"><ele>304.0</ele><time>2026-05-06T13:25:02.274Z</time></trkpt><trkpt lat="44.7402158" lon="7.9115507"><ele>304.0</ele><time>2026-05-06T13:25:03.274Z</time></trkpt><trkpt lat="44.7402371" lon="7.9114123"><ele>304.0</ele><time>2026-05-06T13:25:04.275Z</time></trkpt><trkpt lat="44.7402287" lon="7.9112601"><ele>307.25</ele><time>2026-05-06T13:25:05.275Z</time></trkpt><trkpt lat="44.740209" lon="7.9111018"><ele>310.5</ele><time>2026-05-06T13:25:06.275Z</time></trkpt><trkpt lat="44.7401843" lon="7.9109421"><ele>313.75</ele><time>2026-05-06T13:25:07.274Z</time></trkpt><trkpt lat="44.7401725" lon="7.9107776"><ele>317.0</ele><time>2026-05-06T13:25:08.275Z</time></trkpt><trkpt lat="44.7401824" lon="7.9106153"><ele>318.1666666666667</ele><time>2026-05-06T13:25:09.274Z</time></trkpt><trkpt lat="44.7401818" lon="7.91047"><ele>319.33333333333337</ele><time>2026-05-06T13:25:10.275Z</time></trkpt><trkpt lat="44.7401696" lon="7.9103589"><ele>320.5</ele><time>2026-05-06T13:25:11.274Z</time></trkpt><trkpt lat="44.7401391" lon="7.9102612"><ele>321.6666666666667</ele><time>2026-05-06T13:25:12.275Z</time></trkpt><trkpt lat="44.7400886" lon="7.910188"><ele>322.8333333333333</ele><time>2026-05-06T13:25:13.274Z</time></trkpt><trkpt lat="44.7400205" lon="7.910136"><ele>324.0</ele><time>2026-05-06T13:25:14.275Z</time></trkpt><trkpt lat="44.73994" lon="7.9100773"><ele>325.0</ele><time>2026-05-06T13:25:15.274Z</time></trkpt><trkpt lat="44.7398598" lon="7.9099886"><ele>326.0</ele><time>2026-05-06T13:25:16.275Z</time></trkpt><trkpt lat="44.7397897" lon="7.9098509"><ele>327.0</ele><time>2026-05-06T13:25:17.275Z</time></trkpt><trkpt lat="44.7397257" lon="7.9096872"><ele>328.0</ele><time>2026-05-06T13:25:18.275Z</time></trkpt><trkpt lat="44.7396731" lon="7.909515"><ele>328.0</ele><time>2026-05-06T13:25:19.275Z</time></trkpt><trkpt lat="44.7396438" lon="7.9093331"><ele>328.0</ele><time>2026-05-06T13:25:20.274Z</time></trkpt><trkpt lat="44.7396224" lon="7.9091466"><ele>328.0</ele><time>2026-05-06T13:25:21.274Z</time></trkpt><trkpt lat="44.7396094" lon="7.9089633"><ele>328.0</ele><time>2026-05-06T13:25:22.275Z</time></trkpt><trkpt lat="44.7395807" lon="7.9087969"><ele>328.5</ele><time>2026-05-06T13:25:23.274Z</time></trkpt><trkpt lat="44.7395237" lon="7.9086425"><ele>329.0</ele><time>2026-05-06T13:25:24.274Z</time></trkpt><trkpt lat="44.7394378" lon="7.9085077"><ele>329.5</ele><time>2026-05-06T13:25:25.274Z</time></trkpt><trkpt lat="44.7393286" lon="7.9083963"><ele>330.0</ele><time>2026-05-06T13:25:26.274Z</time></trkpt><trkpt lat="44.7392235" lon="7.9082877"><ele>327.0</ele><time>2026-05-06T13:25:27.275Z</time></trkpt><trkpt lat="44.7391412" lon="7.9081444"><ele>324.0</ele><time>2026-05-06T13:25:28.275Z</time></trkpt><trkpt lat="44.7390702" lon="7.907964"><ele>321.0</ele><time>2026-05-06T13:25:29.275Z</time></trkpt><trkpt lat="44.739007" lon="7.9077769"><ele>318.0</ele><time>2026-05-06T13:25:30.274Z</time></trkpt><trkpt lat="44.738949" lon="7.9076001"><ele>319.0</ele><time>2026-05-06T13:25:31.274Z</time></trkpt><trkpt lat="44.7389074" lon="7.9074275"><ele>320.0</ele><time>2026-05-06T13:25:32.275Z</time></trkpt><trkpt lat="44.7389006" lon="7.9072492"><ele>321.0</ele><time>2026-05-06T13:25:33.274Z</time></trkpt><trkpt lat="44.7389283" lon="7.9070765"><ele>322.0</ele><time>2026-05-06T13:25:34.275Z</time></trkpt><trkpt lat="44.7389761" lon="7.9069055"><ele>320.5</ele><time>2026-05-06T13:25:35.274Z</time></trkpt><trkpt lat="44.7390266" lon="7.9067327"><ele>319.0</ele><time>2026-05-06T13:25:36.275Z</time></trkpt><trkpt lat="44.7390466" lon="7.9065581"><ele>317.5</ele><time>2026-05-06T13:25:37.275Z</time></trkpt><trkpt lat="44.7390375" lon="7.9063695"><ele>316.0</ele><time>2026-05-06T13:25:38.274Z</time></trkpt><trkpt lat="44.7389844" lon="7.9061792"><ele>316.0</ele><time>2026-05-06T13:25:39.274Z</time></trkpt><trkpt lat="44.7388888" lon="7.9060251"><ele>316.0</ele><time>2026-05-06T13:25:40.274Z</time></trkpt><trkpt lat="44.7387653" lon="7.9059088"><ele>316.0</ele><time>2026-05-06T13:25:41.274Z</time></trkpt><trkpt lat="44.7386366" lon="7.9058088"><ele>316.0</ele><time>2026-05-06T13:25:42.274Z</time></trkpt><trkpt lat="44.738498" lon="7.9057072"><ele>313.0</ele><time>2026-05-06T13:25:43.275Z</time></trkpt><trkpt lat="44.7383561" lon="7.9055966"><ele>310.0</ele><time>2026-05-06T13:25:44.275Z</time></trkpt><trkpt lat="44.7382171" lon="7.9054781"><ele>307.0</ele><time>2026-05-06T13:25:45.275Z</time></trkpt><trkpt lat="44.7380798" lon="7.9053595"><ele>307.0</ele><time>2026-05-06T13:25:46.274Z</time></trkpt><trkpt lat="44.7379354" lon="7.9052399"><ele>307.0</ele><time>2026-05-06T13:25:47.275Z</time></trkpt><trkpt lat="44.7377872" lon="7.9051217"><ele>307.0</ele><time>2026-05-06T13:25:48.275Z</time></trkpt><trkpt lat="44.7376415" lon="7.9049997"><ele>305.0</ele><time>2026-05-06T13:25:49.274Z</time></trkpt><trkpt lat="44.7374965" lon="7.9048816"><ele>303.0</ele><time>2026-05-06T13:25:50.275Z</time></trkpt><trkpt lat="44.7373618" lon="7.9047813"><ele>301.0</ele><time>2026-05-06T13:25:51.274Z</time></trkpt><trkpt lat="44.7372278" lon="7.9046966"><ele>301.0</ele><time>2026-05-06T13:25:52.274Z</time></trkpt><trkpt lat="44.7371098" lon="7.9045937"><ele>301.0</ele><time>2026-05-06T13:25:53.274Z</time></trkpt><trkpt lat="44.7370093" lon="7.9044663"><ele>301.0</ele><time>2026-05-06T13:25:54.274Z</time></trkpt><trkpt lat="44.7369353" lon="7.904308"><ele>301.0</ele><time>2026-05-06T13:25:55.275Z</time></trkpt><trkpt lat="44.7368957" lon="7.9041217"><ele>301.5</ele><time>2026-05-06T13:25:56.274Z</time></trkpt><trkpt lat="44.7368945" lon="7.9039105"><ele>302.0</ele><time>2026-05-06T13:25:57.275Z</time></trkpt><trkpt lat="44.7369111" lon="7.9037071"><ele>302.5</ele><time>2026-05-06T13:25:58.275Z</time></trkpt><trkpt lat="44.7369325" lon="7.9034987"><ele>303.0</ele><time>2026-05-06T13:25:59.275Z</time></trkpt><trkpt lat="44.7369287" lon="7.903297"><ele>303.0</ele><time>2026-05-06T13:26:00.274Z</time></trkpt><trkpt lat="44.7368934" lon="7.9031063"><ele>303.0</ele><time>2026-05-06T13:26:01.275Z</time></trkpt><trkpt lat="44.736839" lon="7.9029288"><ele>303.0</ele><time>2026-05-06T13:26:02.275Z</time></trkpt><trkpt lat="44.7367667" lon="7.9027534"><ele>303.0</ele><time>2026-05-06T13:26:03.275Z</time></trkpt><trkpt lat="44.736692" lon="7.902575"><ele>300.25</ele><time>2026-05-06T13:26:04.275Z</time></trkpt><trkpt lat="44.7366169" lon="7.9023963"><ele>297.5</ele><time>2026-05-06T13:26:05.274Z</time></trkpt><trkpt lat="44.7365384" lon="7.9022148"><ele>294.75</ele><time>2026-05-06T13:26:06.274Z</time></trkpt><trkpt lat="44.736451" lon="7.9020523"><ele>292.0</ele><time>2026-05-06T13:26:07.275Z</time></trkpt><trkpt lat="44.7363453" lon="7.901891"><ele>292.0</ele><time>2026-05-06T13:26:08.275Z</time></trkpt><trkpt lat="44.7362254" lon="7.9017559"><ele>292.0</ele><time>2026-05-06T13:26:09.274Z</time></trkpt><trkpt lat="44.7360889" lon="7.9016459"><ele>292.0</ele><time>2026-05-06T13:26:10.274Z</time></trkpt><trkpt lat="44.7359414" lon="7.9015493"><ele>291.3333333333333</ele><time>2026-05-06T13:26:11.274Z</time></trkpt><trkpt lat="44.7357869" lon="7.9014828"><ele>290.6666666666667</ele><time>2026-05-06T13:26:12.275Z</time></trkpt><trkpt lat="44.735618" lon="7.9014463"><ele>290.0</ele><time>2026-05-06T13:26:13.275Z</time></trkpt><trkpt lat="44.7354439" lon="7.9014384"><ele>290.0</ele><time>2026-05-06T13:26:14.274Z</time></trkpt><trkpt lat="44.7352699" lon="7.9014615"><ele>290.0</ele><time>2026-05-06T13:26:15.274Z</time></trkpt><trkpt lat="44.7350919" lon="7.901498"><ele>290.0</ele><time>2026-05-06T13:26:16.274Z</time></trkpt><trkpt lat="44.7349086" lon="7.9015341"><ele>289.0</ele><time>2026-05-06T13:26:17.275Z</time></trkpt><trkpt lat="44.7347151" lon="7.9015708"><ele>288.0</ele><time>2026-05-06T13:26:18.275Z</time></trkpt><trkpt lat="44.7345196" lon="7.9016005"><ele>287.0</ele><time>2026-05-06T13:26:19.275Z</time></trkpt><trkpt lat="44.734327" lon="7.901627"><ele>285.6666666666667</ele><time>2026-05-06T13:26:20.275Z</time></trkpt><trkpt lat="44.7341318" lon="7.9016566"><ele>284.3333333333333</ele><time>2026-05-06T13:26:21.274Z</time></trkpt><trkpt lat="44.7339379" lon="7.9016844"><ele>283.0</ele><time>2026-05-06T13:26:22.275Z</time></trkpt><trkpt lat="44.7337384" lon="7.9017072"><ele>282.66666666666663</ele><time>2026-05-06T13:26:23.274Z</time></trkpt><trkpt lat="44.7335313" lon="7.9017389"><ele>282.3333333333333</ele><time>2026-05-06T13:26:24.275Z</time></trkpt><trkpt lat="44.7333285" lon="7.9017678"><ele>282.0</ele><time>2026-05-06T13:26:25.275Z</time></trkpt><trkpt lat="44.7331322" lon="7.9017935"><ele>283.0</ele><time>2026-05-06T13:26:26.274Z</time></trkpt><trkpt lat="44.7329271" lon="7.9018171"><ele>284.0</ele><time>2026-05-06T13:26:27.275Z</time></trkpt><trkpt lat="44.7327247" lon="7.9018524"><ele>285.0</ele><time>2026-05-06T13:26:28.274Z</time></trkpt><trkpt lat="44.7325212" lon="7.9018861"><ele>285.0</ele><time>2026-05-06T13:26:29.275Z</time></trkpt><trkpt lat="44.7323179" lon="7.9019146"><ele>285.0</ele><time>2026-05-06T13:26:30.275Z</time></trkpt><trkpt lat="44.7321183" lon="7.901949"><ele>285.0</ele><time>2026-05-06T13:26:31.275Z</time></trkpt><trkpt lat="44.7319188" lon="7.9019365"><ele>284.0</ele><time>2026-05-06T13:26:32.275Z</time></trkpt><trkpt lat="44.7317384" lon="7.9018668"><ele>283.0</ele><time>2026-05-06T13:26:33.275Z</time></trkpt><trkpt lat="44.731566" lon="7.9017592"><ele>282.0</ele><time>2026-05-06T13:26:34.274Z</time></trkpt><trkpt lat="44.7313902" lon="7.9016586"><ele>281.3333333333333</ele><time>2026-05-06T13:26:35.275Z</time></trkpt><trkpt lat="44.7312238" lon="7.9015693"><ele>280.66666666666663</ele><time>2026-05-06T13:26:36.275Z</time></trkpt><trkpt lat="44.7310568" lon="7.9014955"><ele>280.0</ele><time>2026-05-06T13:26:37.275Z</time></trkpt><trkpt lat="44.73088" lon="7.9014439"><ele>280.0</ele><time>2026-05-06T13:26:38.274Z</time></trkpt><trkpt lat="44.73069" lon="7.9014414"><ele>280.0</ele><time>2026-05-06T13:26:39.275Z</time></trkpt><trkpt lat="44.730505" lon="7.9014747"><ele>280.0</ele><time>2026-05-06T13:26:40.274Z</time></trkpt><trkpt lat="44.730323" lon="7.901527"><ele>278.66666666666663</ele><time>2026-05-06T13:26:41.275Z</time></trkpt><trkpt lat="44.7301357" lon="7.9015739"><ele>277.3333333333333</ele><time>2026-05-06T13:26:42.274Z</time></trkpt><trkpt lat="44.7299456" lon="7.9016172"><ele>276.0</ele><time>2026-05-06T13:26:43.274Z</time></trkpt><trkpt lat="44.7297553" lon="7.9016415"><ele>276.0</ele><time>2026-05-06T13:26:44.275Z</time></trkpt><trkpt lat="44.7295523" lon="7.9016537"><ele>276.0</ele><time>2026-05-06T13:26:45.275Z</time></trkpt><trkpt lat="44.7293747" lon="7.901626"><ele>276.0</ele><time>2026-05-06T13:26:46.275Z</time></trkpt><trkpt lat="44.7292225" lon="7.9015502"><ele>274.6666666666667</ele><time>2026-05-06T13:26:47.274Z</time></trkpt><trkpt lat="44.7290781" lon="7.9014561"><ele>273.33333333333337</ele><time>2026-05-06T13:26:48.275Z</time></trkpt><trkpt lat="44.72892" lon="7.9013408"><ele>272.0</ele><time>2026-05-06T13:26:49.274Z</time></trkpt><trkpt lat="44.7287593" lon="7.9012274"><ele>272.0</ele><time>2026-05-06T13:26:50.274Z</time></trkpt><trkpt lat="44.7285961" lon="7.9011306"><ele>272.0</ele><time>2026-05-06T13:26:51.275Z</time></trkpt><trkpt lat="44.7284326" lon="7.9010831"><ele>272.0</ele><time>2026-05-06T13:26:52.275Z</time></trkpt><trkpt lat="44.7282438" lon="7.9010863"><ele>272.33333333333337</ele><time>2026-05-06T13:26:53.274Z</time></trkpt><trkpt lat="44.7280578" lon="7.9011372"><ele>272.6666666666667</ele><time>2026-05-06T13:26:54.275Z</time></trkpt><trkpt lat="44.7278898" lon="7.9012345"><ele>273.0</ele><time>2026-05-06T13:26:55.274Z</time></trkpt><trkpt lat="44.727725" lon="7.9013665"><ele>273.0</ele><time>2026-05-06T13:26:56.274Z</time></trkpt><trkpt lat="44.7275562" lon="7.9014842"><ele>273.0</ele><time>2026-05-06T13:26:57.275Z</time></trkpt><trkpt lat="44.7273812" lon="7.9015879"><ele>273.0</ele><time>2026-05-06T13:26:58.274Z</time></trkpt><trkpt lat="44.7271991" lon="7.9016687"><ele>273.0</ele><time>2026-05-06T13:26:59.274Z</time></trkpt><trkpt lat="44.7270072" lon="7.9017167"><ele>273.0</ele><time>2026-05-06T13:27:00.275Z</time></trkpt><trkpt lat="44.7268088" lon="7.9017694"><ele>273.0</ele><time>2026-05-06T13:27:01.275Z</time></trkpt><trkpt lat="44.7266015" lon="7.9018184"><ele>272.0</ele><time>2026-05-06T13:27:02.275Z</time></trkpt><trkpt lat="44.7263909" lon="7.9018685"><ele>271.0</ele><time>2026-05-06T13:27:03.274Z</time></trkpt><trkpt lat="44.7261804" lon="7.9019178"><ele>270.0</ele><time>2026-05-06T13:27:04.275Z</time></trkpt><trkpt lat="44.7259685" lon="7.9019672"><ele>269.0</ele><time>2026-05-06T13:27:05.275Z</time></trkpt><trkpt lat="44.7257582" lon="7.9020233"><ele>268.0</ele><time>2026-05-06T13:27:06.274Z</time></trkpt><trkpt lat="44.7255469" lon="7.9020779"><ele>267.0</ele><time>2026-05-06T13:27:07.275Z</time></trkpt><trkpt lat="44.7253394" lon="7.902123"><ele>264.6666666666667</ele><time>2026-05-06T13:27:08.274Z</time></trkpt><trkpt lat="44.7251285" lon="7.9021722"><ele>262.33333333333337</ele><time>2026-05-06T13:27:09.274Z</time></trkpt><trkpt lat="44.7249184" lon="7.9022207"><ele>260.0</ele><time>2026-05-06T13:27:10.275Z</time></trkpt><trkpt lat="44.7247041" lon="7.9022719"><ele>260.0</ele><time>2026-05-06T13:27:11.274Z</time></trkpt><trkpt lat="44.7244922" lon="7.9023256"><ele>260.0</ele><time>2026-05-06T13:27:12.274Z</time></trkpt><trkpt lat="44.7242865" lon="7.9023831"><ele>260.0</ele><time>2026-05-06T13:27:13.275Z</time></trkpt><trkpt lat="44.7240773" lon="7.9024293"><ele>260.0</ele><time>2026-05-06T13:27:14.275Z</time></trkpt><trkpt lat="44.7238802" lon="7.9024758"><ele>260.0</ele><time>2026-05-06T13:27:15.274Z</time></trkpt><trkpt lat="44.7236782" lon="7.9025266"><ele>260.0</ele><time>2026-05-06T13:27:16.274Z</time></trkpt><trkpt lat="44.7234841" lon="7.9025766"><ele>257.6666666666667</ele><time>2026-05-06T13:27:17.275Z</time></trkpt><trkpt lat="44.7232956" lon="7.9026151"><ele>255.33333333333331</ele><time>2026-05-06T13:27:18.275Z</time></trkpt><trkpt lat="44.7231136" lon="7.9026582"><ele>253.0</ele><time>2026-05-06T13:27:19.274Z</time></trkpt><trkpt lat="44.7229393" lon="7.9026751"><ele>253.0</ele><time>2026-05-06T13:27:20.274Z</time></trkpt><trkpt lat="44.722771" lon="7.9026531"><ele>253.0</ele><time>2026-05-06T13:27:21.275Z</time></trkpt><trkpt lat="44.7226063" lon="7.9025899"><ele>253.0</ele><time>2026-05-06T13:27:22.275Z</time></trkpt><trkpt lat="44.7224577" lon="7.902499"><ele>254.33333333333331</ele><time>2026-05-06T13:27:23.274Z</time></trkpt><trkpt lat="44.7223091" lon="7.9023808"><ele>255.66666666666669</ele><time>2026-05-06T13:27:24.275Z</time></trkpt><trkpt lat="44.7221766" lon="7.9022411"><ele>257.0</ele><time>2026-05-06T13:27:25.274Z</time></trkpt><trkpt lat="44.7220459" lon="7.9020954"><ele>257.0</ele><time>2026-05-06T13:27:26.275Z</time></trkpt><trkpt lat="44.7219125" lon="7.9019378"><ele>257.0</ele><time>2026-05-06T13:27:27.275Z</time></trkpt><trkpt lat="44.7217785" lon="7.9017843"><ele>257.0</ele><time>2026-05-06T13:27:28.275Z</time></trkpt><trkpt lat="44.7216521" lon="7.9016145"><ele>257.6666666666667</ele><time>2026-05-06T13:27:29.274Z</time></trkpt><trkpt lat="44.7215355" lon="7.9014354"><ele>258.3333333333333</ele><time>2026-05-06T13:27:30.275Z</time></trkpt><trkpt lat="44.7214331" lon="7.9012429"><ele>259.0</ele><time>2026-05-06T13:27:31.275Z</time></trkpt><trkpt lat="44.7213581" lon="7.9010344"><ele>260.0</ele><time>2026-05-06T13:27:32.274Z</time></trkpt><trkpt lat="44.721311" lon="7.9007997"><ele>261.0</ele><time>2026-05-06T13:27:33.274Z</time></trkpt><trkpt lat="44.7213048" lon="7.9005482"><ele>262.0</ele><time>2026-05-06T13:27:34.275Z</time></trkpt><trkpt lat="44.7213091" lon="7.900291"><ele>262.3333333333333</ele><time>2026-05-06T13:27:35.275Z</time></trkpt><trkpt lat="44.7213112" lon="7.9000274"><ele>262.6666666666667</ele><time>2026-05-06T13:27:36.275Z</time></trkpt><trkpt lat="44.7213054" lon="7.8997581"><ele>263.0</ele><time>2026-05-06T13:27:37.274Z</time></trkpt><trkpt lat="44.7212693" lon="7.8995079"><ele>263.0</ele><time>2026-05-06T13:27:38.275Z</time></trkpt><trkpt lat="44.7212142" lon="7.899261"><ele>263.0</ele><time>2026-05-06T13:27:39.274Z</time></trkpt><trkpt lat="44.7211455" lon="7.8990211"><ele>263.0</ele><time>2026-05-06T13:27:40.275Z</time></trkpt><trkpt lat="44.7210714" lon="7.8987787"><ele>261.6666666666667</ele><time>2026-05-06T13:27:41.275Z</time></trkpt><trkpt lat="44.7209869" lon="7.8985381"><ele>260.3333333333333</ele><time>2026-05-06T13:27:42.274Z</time></trkpt><trkpt lat="44.7209013" lon="7.8982845"><ele>259.0</ele><time>2026-05-06T13:27:43.274Z</time></trkpt><trkpt lat="44.72081" lon="7.8980368"><ele>259.0</ele><time>2026-05-06T13:27:44.274Z</time></trkpt><trkpt lat="44.7207234" lon="7.8977856"><ele>259.0</ele><time>2026-05-06T13:27:45.275Z</time></trkpt><trkpt lat="44.7206338" lon="7.8975407"><ele>259.0</ele><time>2026-05-06T13:27:46.275Z</time></trkpt><trkpt lat="44.7205495" lon="7.8972858"><ele>259.3333333333333</ele><time>2026-05-06T13:27:47.275Z</time></trkpt><trkpt lat="44.7204707" lon="7.8970388"><ele>259.6666666666667</ele><time>2026-05-06T13:27:48.275Z</time></trkpt><trkpt lat="44.7203895" lon="7.896785"><ele>260.0</ele><time>2026-05-06T13:27:49.275Z</time></trkpt><trkpt lat="44.7203005" lon="7.8965392"><ele>262.33333333333337</ele><time>2026-05-06T13:27:50.275Z</time></trkpt><trkpt lat="44.720219" lon="7.8962897"><ele>264.6666666666667</ele><time>2026-05-06T13:27:51.275Z</time></trkpt><trkpt lat="44.720143" lon="7.8960328"><ele>267.0</ele><time>2026-05-06T13:27:52.275Z</time></trkpt><trkpt lat="44.7200698" lon="7.8957817"><ele>267.0</ele><time>2026-05-06T13:27:53.275Z</time></trkpt><trkpt lat="44.7199965" lon="7.8955274"><ele>267.0</ele><time>2026-05-06T13:27:54.275Z</time></trkpt><trkpt lat="44.7199162" lon="7.8952795"><ele>267.0</ele><time>2026-05-06T13:27:55.274Z</time></trkpt><trkpt lat="44.7198188" lon="7.8950345"><ele>271.0</ele><time>2026-05-06T13:27:56.275Z</time></trkpt><trkpt lat="44.7197252" lon="7.8947873"><ele>275.0</ele><time>2026-05-06T13:27:57.274Z</time></trkpt><trkpt lat="44.7196102" lon="7.8945615"><ele>279.0</ele><time>2026-05-06T13:27:58.275Z</time></trkpt><trkpt lat="44.7194809" lon="7.894351"><ele>279.0</ele><time>2026-05-06T13:27:59.275Z</time></trkpt><trkpt lat="44.7193517" lon="7.8941402"><ele>279.0</ele><time>2026-05-06T13:28:00.274Z</time></trkpt><trkpt lat="44.7192243" lon="7.893932"><ele>279.0</ele><time>2026-05-06T13:28:01.274Z</time></trkpt><trkpt lat="44.7191026" lon="7.8937118"><ele>279.0</ele><time>2026-05-06T13:28:02.274Z</time></trkpt><trkpt lat="44.7189758" lon="7.8935098"><ele>279.0</ele><time>2026-05-06T13:28:03.275Z</time></trkpt><trkpt lat="44.7188406" lon="7.893315"><ele>279.0</ele><time>2026-05-06T13:28:04.275Z</time></trkpt><trkpt lat="44.7187118" lon="7.8931139"><ele>280.6666666666667</ele><time>2026-05-06T13:28:05.275Z</time></trkpt><trkpt lat="44.7185668" lon="7.8929265"><ele>282.33333333333337</ele><time>2026-05-06T13:28:06.274Z</time></trkpt><trkpt lat="44.718414" lon="7.8927586"><ele>284.0</ele><time>2026-05-06T13:28:07.275Z</time></trkpt><trkpt lat="44.7182564" lon="7.8926001"><ele>284.6666666666667</ele><time>2026-05-06T13:28:08.275Z</time></trkpt><trkpt lat="44.718099" lon="7.8924474"><ele>285.3333333333333</ele><time>2026-05-06T13:28:09.275Z</time></trkpt><trkpt lat="44.7179368" lon="7.8923069"><ele>286.0</ele><time>2026-05-06T13:28:10.274Z</time></trkpt><trkpt lat="44.7177791" lon="7.8921612"><ele>283.66666666666663</ele><time>2026-05-06T13:28:11.275Z</time></trkpt><trkpt lat="44.7176269" lon="7.8920178"><ele>281.3333333333333</ele><time>2026-05-06T13:28:12.275Z</time></trkpt><trkpt lat="44.7174778" lon="7.891904"><ele>279.0</ele><time>2026-05-06T13:28:13.274Z</time></trkpt><trkpt lat="44.7173353" lon="7.8917888"><ele>282.3333333333333</ele><time>2026-05-06T13:28:14.275Z</time></trkpt><trkpt lat="44.7171894" lon="7.891688"><ele>285.66666666666663</ele><time>2026-05-06T13:28:15.275Z</time></trkpt><trkpt lat="44.7170433" lon="7.8915946"><ele>289.0</ele><time>2026-05-06T13:28:16.275Z</time></trkpt><trkpt lat="44.7169069" lon="7.8914943"><ele>288.0</ele><time>2026-05-06T13:28:17.274Z</time></trkpt><trkpt lat="44.7167721" lon="7.8913912"><ele>287.0</ele><time>2026-05-06T13:28:18.274Z</time></trkpt><trkpt lat="44.7166325" lon="7.8913019"><ele>286.0</ele><time>2026-05-06T13:28:19.274Z</time></trkpt><trkpt lat="44.7165048" lon="7.8912253"><ele>285.0</ele><time>2026-05-06T13:28:20.275Z</time></trkpt><trkpt lat="44.7163837" lon="7.8911648"><ele>285.0</ele><time>2026-05-06T13:28:21.274Z</time></trkpt><trkpt lat="44.7162682" lon="7.8911503"><ele>285.0</ele><time>2026-05-06T13:28:22.274Z</time></trkpt><trkpt lat="44.7161656" lon="7.8911953"><ele>285.0</ele><time>2026-05-06T13:28:23.274Z</time></trkpt><trkpt lat="44.7160737" lon="7.8912698"><ele>285.0</ele><time>2026-05-06T13:28:24.275Z</time></trkpt><trkpt lat="44.7160134" lon="7.8913986"><ele>285.0</ele><time>2026-05-06T13:28:25.275Z</time></trkpt><trkpt lat="44.715985" lon="7.8915681"><ele>285.75</ele><time>2026-05-06T13:28:26.275Z</time></trkpt><trkpt lat="44.7159869" lon="7.8917396"><ele>286.5</ele><time>2026-05-06T13:28:27.275Z</time></trkpt><trkpt lat="44.7160305" lon="7.8919038"><ele>287.25</ele><time>2026-05-06T13:28:28.274Z</time></trkpt><trkpt lat="44.7161226" lon="7.8920434"><ele>288.0</ele><time>2026-05-06T13:28:29.275Z</time></trkpt><trkpt lat="44.7162606" lon="7.892166"><ele>288.0</ele><time>2026-05-06T13:28:30.275Z</time></trkpt><trkpt lat="44.7164087" lon="7.8922971"><ele>288.0</ele><time>2026-05-06T13:28:31.275Z</time></trkpt><trkpt lat="44.7165468" lon="7.8924218"><ele>288.0</ele><time>2026-05-06T13:28:32.274Z</time></trkpt><trkpt lat="44.7166774" lon="7.8925423"><ele>288.75</ele><time>2026-05-06T13:28:33.274Z</time></trkpt><trkpt lat="44.7168042" lon="7.8926689"><ele>289.5</ele><time>2026-05-06T13:28:34.275Z</time></trkpt><trkpt lat="44.7169223" lon="7.8927856"><ele>290.25</ele><time>2026-05-06T13:28:35.274Z</time></trkpt><trkpt lat="44.7170321" lon="7.8928958"><ele>291.0</ele><time>2026-05-06T13:28:36.274Z</time></trkpt><trkpt lat="44.7171377" lon="7.8930135"><ele>291.0</ele><time>2026-05-06T13:28:37.275Z</time></trkpt><trkpt lat="44.7172444" lon="7.893113"><ele>291.0</ele><time>2026-05-06T13:28:38.275Z</time></trkpt><trkpt lat="44.7173443" lon="7.8932076"><ele>291.0</ele><time>2026-05-06T13:28:39.274Z</time></trkpt><trkpt lat="44.7174378" lon="7.8932894"><ele>291.0</ele><time>2026-05-06T13:28:40.275Z</time></trkpt><trkpt lat="44.7175139" lon="7.8933814"><ele>295.2</ele><time>2026-05-06T13:28:41.274Z</time></trkpt><trkpt lat="44.7175644" lon="7.8934928"><ele>299.40000000000003</ele><time>2026-05-06T13:28:42.274Z</time></trkpt><trkpt lat="44.7175834" lon="7.8936057"><ele>303.6</ele><time>2026-05-06T13:28:43.275Z</time></trkpt><trkpt lat="44.7175813" lon="7.8937032"><ele>307.8</ele><time>2026-05-06T13:28:44.275Z</time></trkpt><trkpt lat="44.7174748" lon="7.8937749"><ele>312.0</ele><time>2026-05-06T13:28:46.275Z</time></trkpt><trkpt lat="44.7173825" lon="7.8937361"><ele>312.0</ele><time>2026-05-06T13:28:47.275Z</time></trkpt><trkpt lat="44.7172689" lon="7.8936346"><ele>312.0</ele><time>2026-05-06T13:28:48.274Z</time></trkpt><trkpt lat="44.7171524" lon="7.8934872"><ele>312.0</ele><time>2026-05-06T13:28:49.274Z</time></trkpt><trkpt lat="44.7170485" lon="7.8933305"><ele>312.0</ele><time>2026-05-06T13:28:50.274Z</time></trkpt><trkpt lat="44.7169515" lon="7.8931883"><ele>312.4</ele><time>2026-05-06T13:28:51.275Z</time></trkpt><trkpt lat="44.7168702" lon="7.8930728"><ele>312.79999999999995</ele><time>2026-05-06T13:28:52.275Z</time></trkpt><trkpt lat="44.7167958" lon="7.8929777"><ele>313.2</ele><time>2026-05-06T13:28:53.275Z</time></trkpt><trkpt lat="44.7167089" lon="7.8928828"><ele>313.59999999999997</ele><time>2026-05-06T13:28:54.275Z</time></trkpt><trkpt lat="44.7166096" lon="7.8927833"><ele>314.0</ele><time>2026-05-06T13:28:55.275Z</time></trkpt><trkpt lat="44.7165099" lon="7.8926846"><ele>314.0</ele><time>2026-05-06T13:28:56.274Z</time></trkpt><trkpt lat="44.716404" lon="7.8925908"><ele>314.0</ele><time>2026-05-06T13:28:57.275Z</time></trkpt><trkpt lat="44.7163018" lon="7.8924864"><ele>314.0</ele><time>2026-05-06T13:28:58.274Z</time></trkpt><trkpt lat="44.7161941" lon="7.8923751"><ele>314.0</ele><time>2026-05-06T13:28:59.275Z</time></trkpt><trkpt lat="44.7160814" lon="7.8922675"><ele>313.75</ele><time>2026-05-06T13:29:00.274Z</time></trkpt><trkpt lat="44.7159676" lon="7.8921635"><ele>313.5</ele><time>2026-05-06T13:29:01.275Z</time></trkpt><trkpt lat="44.7158607" lon="7.8920663"><ele>313.25</ele><time>2026-05-06T13:29:02.275Z</time></trkpt><trkpt lat="44.7157537" lon="7.8919748"><ele>313.0</ele><time>2026-05-06T13:29:03.275Z</time></trkpt><trkpt lat="44.7156411" lon="7.8919057"><ele>313.0</ele><time>2026-05-06T13:29:04.275Z</time></trkpt><trkpt lat="44.7155261" lon="7.8918336"><ele>313.0</ele><time>2026-05-06T13:29:05.274Z</time></trkpt><trkpt lat="44.7154081" lon="7.8917769"><ele>313.0</ele><time>2026-05-06T13:29:06.275Z</time></trkpt><trkpt lat="44.7152972" lon="7.8917176"><ele>313.0</ele><time>2026-05-06T13:29:07.274Z</time></trkpt><trkpt lat="44.7151906" lon="7.89166"><ele>312.8</ele><time>2026-05-06T13:29:08.274Z</time></trkpt><trkpt lat="44.7150891" lon="7.8916055"><ele>312.6</ele><time>2026-05-06T13:29:09.275Z</time></trkpt><trkpt lat="44.7149856" lon="7.8915521"><ele>312.4</ele><time>2026-05-06T13:29:10.275Z</time></trkpt><trkpt lat="44.7148831" lon="7.8914913"><ele>312.2</ele><time>2026-05-06T13:29:11.275Z</time></trkpt><trkpt lat="44.7147934" lon="7.8914211"><ele>312.0</ele><time>2026-05-06T13:29:12.274Z</time></trkpt><trkpt lat="44.714718" lon="7.8913417"><ele>312.0</ele><time>2026-05-06T13:29:13.275Z</time></trkpt><trkpt lat="44.7146541" lon="7.89125"><ele>312.0</ele><time>2026-05-06T13:29:14.275Z</time></trkpt><trkpt lat="44.7146003" lon="7.8911456"><ele>312.0</ele><time>2026-05-06T13:29:15.274Z</time></trkpt><trkpt lat="44.7145401" lon="7.891031"><ele>312.0</ele><time>2026-05-06T13:29:16.275Z</time></trkpt><trkpt lat="44.7144921" lon="7.890922"><ele>312.0</ele><time>2026-05-06T13:29:17.274Z</time></trkpt><trkpt lat="44.7144521" lon="7.8908096"><ele>313.6</ele><time>2026-05-06T13:29:18.275Z</time></trkpt><trkpt lat="44.7144112" lon="7.8906929"><ele>315.2</ele><time>2026-05-06T13:29:19.275Z</time></trkpt><trkpt lat="44.7143754" lon="7.8905692"><ele>316.8</ele><time>2026-05-06T13:29:20.274Z</time></trkpt><trkpt lat="44.7143405" lon="7.890435"><ele>318.4</ele><time>2026-05-06T13:29:21.275Z</time></trkpt><trkpt lat="44.7143136" lon="7.8902974"><ele>320.0</ele><time>2026-05-06T13:29:22.275Z</time></trkpt><trkpt lat="44.7142939" lon="7.8901563"><ele>316.2</ele><time>2026-05-06T13:29:23.275Z</time></trkpt><trkpt lat="44.7142691" lon="7.8900117"><ele>312.4</ele><time>2026-05-06T13:29:24.275Z</time></trkpt><trkpt lat="44.714241" lon="7.8898776"><ele>308.6</ele><time>2026-05-06T13:29:25.275Z</time></trkpt><trkpt lat="44.7142092" lon="7.8897451"><ele>304.8</ele><time>2026-05-06T13:29:26.274Z</time></trkpt><trkpt lat="44.7141711" lon="7.8896122"><ele>301.0</ele><time>2026-05-06T13:29:27.275Z</time></trkpt><trkpt lat="44.7141302" lon="7.889497"><ele>301.0</ele><time>2026-05-06T13:29:28.275Z</time></trkpt><trkpt lat="44.7140596" lon="7.8893973"><ele>301.0</ele><time>2026-05-06T13:29:29.275Z</time></trkpt><trkpt lat="44.7139743" lon="7.8893246"><ele>301.0</ele><time>2026-05-06T13:29:30.275Z</time></trkpt><trkpt lat="44.7138824" lon="7.8892751"><ele>301.0</ele><time>2026-05-06T13:29:31.275Z</time></trkpt><trkpt lat="44.7137843" lon="7.8892496"><ele>301.0</ele><time>2026-05-06T13:29:32.275Z</time></trkpt><trkpt lat="44.7136936" lon="7.8892116"><ele>299.8</ele><time>2026-05-06T13:29:33.275Z</time></trkpt><trkpt lat="44.7136064" lon="7.8891701"><ele>298.6</ele><time>2026-05-06T13:29:34.275Z</time></trkpt><trkpt lat="44.7135182" lon="7.8891083"><ele>297.4</ele><time>2026-05-06T13:29:35.274Z</time></trkpt><trkpt lat="44.713446" lon="7.8890071"><ele>296.2</ele><time>2026-05-06T13:29:36.274Z</time></trkpt><trkpt lat="44.7133847" lon="7.8888806"><ele>295.0</ele><time>2026-05-06T13:29:37.274Z</time></trkpt><trkpt lat="44.7133526" lon="7.8887419"><ele>295.0</ele><time>2026-05-06T13:29:38.275Z</time></trkpt><trkpt lat="44.7133423" lon="7.8886111"><ele>295.0</ele><time>2026-05-06T13:29:39.274Z</time></trkpt><trkpt lat="44.7133469" lon="7.8884896"><ele>295.0</ele><time>2026-05-06T13:29:40.274Z</time></trkpt><trkpt lat="44.7133652" lon="7.888376"><ele>295.0</ele><time>2026-05-06T13:29:41.275Z</time></trkpt><trkpt lat="44.7133958" lon="7.8882676"><ele>295.0</ele><time>2026-05-06T13:29:42.274Z</time></trkpt><trkpt lat="44.7134368" lon="7.8881611"><ele>295.0</ele><time>2026-05-06T13:29:43.274Z</time></trkpt><trkpt lat="44.7134837" lon="7.8880655"><ele>295.0</ele><time>2026-05-06T13:29:44.275Z</time></trkpt><trkpt lat="44.7135291" lon="7.8879833"><ele>295.0</ele><time>2026-05-06T13:29:45.275Z</time></trkpt><trkpt lat="44.7135765" lon="7.8879072"><ele>295.0</ele><time>2026-05-06T13:29:46.275Z</time></trkpt><trkpt lat="44.7136165" lon="7.887834"><ele>295.0</ele><time>2026-05-06T13:29:47.274Z</time></trkpt><trkpt lat="44.7136504" lon="7.8877548"><ele>295.0</ele><time>2026-05-06T13:29:48.275Z</time></trkpt><trkpt lat="44.7136941" lon="7.8876564"><ele>295.0</ele><time>2026-05-06T13:29:49.275Z</time></trkpt><trkpt lat="44.7137437" lon="7.8875434"><ele>297.5</ele><time>2026-05-06T13:29:50.275Z</time></trkpt><trkpt lat="44.7137976" lon="7.8874187"><ele>300.0</ele><time>2026-05-06T13:29:51.275Z</time></trkpt><trkpt lat="44.7138593" lon="7.8872834"><ele>302.5</ele><time>2026-05-06T13:29:52.275Z</time></trkpt><trkpt lat="44.7139257" lon="7.8871346"><ele>305.0</ele><time>2026-05-06T13:29:53.275Z</time></trkpt><trkpt lat="44.7140018" lon="7.8869825"><ele>305.0</ele><time>2026-05-06T13:29:54.275Z</time></trkpt><trkpt lat="44.7140761" lon="7.8868262"><ele>305.0</ele><time>2026-05-06T13:29:55.274Z</time></trkpt><trkpt lat="44.7141474" lon="7.8866806"><ele>305.0</ele><time>2026-05-06T13:29:56.275Z</time></trkpt><trkpt lat="44.7142307" lon="7.8865422"><ele>305.0</ele><time>2026-05-06T13:29:57.275Z</time></trkpt><trkpt lat="44.7143274" lon="7.8864216"><ele>306.25</ele><time>2026-05-06T13:29:58.275Z</time></trkpt><trkpt lat="44.7144355" lon="7.8863115"><ele>307.5</ele><time>2026-05-06T13:29:59.274Z</time></trkpt><trkpt lat="44.7145567" lon="7.8862064"><ele>308.75</ele><time>2026-05-06T13:30:00.275Z</time></trkpt><trkpt lat="44.7146848" lon="7.8860928"><ele>310.0</ele><time>2026-05-06T13:30:01.274Z</time></trkpt><trkpt lat="44.7148164" lon="7.8860069"><ele>310.5</ele><time>2026-05-06T13:30:02.274Z</time></trkpt><trkpt lat="44.7149425" lon="7.8859034"><ele>311.0</ele><time>2026-05-06T13:30:03.274Z</time></trkpt><trkpt lat="44.7150605" lon="7.8857848"><ele>311.5</ele><time>2026-05-06T13:30:04.275Z</time></trkpt><trkpt lat="44.715178" lon="7.8856709"><ele>312.0</ele><time>2026-05-06T13:30:05.274Z</time></trkpt><trkpt lat="44.7152866" lon="7.885537"><ele>312.0</ele><time>2026-05-06T13:30:06.275Z</time></trkpt><trkpt lat="44.7153928" lon="7.8853859"><ele>312.0</ele><time>2026-05-06T13:30:07.274Z</time></trkpt><trkpt lat="44.7154806" lon="7.885224"><ele>312.0</ele><time>2026-05-06T13:30:08.275Z</time></trkpt><trkpt lat="44.7155635" lon="7.8850673"><ele>312.0</ele><time>2026-05-06T13:30:09.274Z</time></trkpt><trkpt lat="44.7156388" lon="7.8849228"><ele>308.75</ele><time>2026-05-06T13:30:10.275Z</time></trkpt><trkpt lat="44.7157093" lon="7.884778"><ele>305.5</ele><time>2026-05-06T13:30:11.275Z</time></trkpt><trkpt lat="44.7157732" lon="7.8846397"><ele>302.25</ele><time>2026-05-06T13:30:12.275Z</time></trkpt><trkpt lat="44.7158262" lon="7.8844943"><ele>299.0</ele><time>2026-05-06T13:30:13.275Z</time></trkpt><trkpt lat="44.7158547" lon="7.8843376"><ele>296.25</ele><time>2026-05-06T13:30:14.275Z</time></trkpt><trkpt lat="44.7158523" lon="7.8841781"><ele>293.5</ele><time>2026-05-06T13:30:15.274Z</time></trkpt><trkpt lat="44.715821" lon="7.8840127"><ele>290.75</ele><time>2026-05-06T13:30:16.275Z</time></trkpt><trkpt lat="44.7157759" lon="7.8838643"><ele>288.0</ele><time>2026-05-06T13:30:17.275Z</time></trkpt><trkpt lat="44.7157079" lon="7.8837459"><ele>288.0</ele><time>2026-05-06T13:30:18.275Z</time></trkpt><trkpt lat="44.7156317" lon="7.8836285"><ele>288.0</ele><time>2026-05-06T13:30:19.274Z</time></trkpt><trkpt lat="44.7155564" lon="7.8835193"><ele>288.0</ele><time>2026-05-06T13:30:20.274Z</time></trkpt><trkpt lat="44.7154755" lon="7.8833952"><ele>288.0</ele><time>2026-05-06T13:30:21.275Z</time></trkpt><trkpt lat="44.7153952" lon="7.8832582"><ele>288.0</ele><time>2026-05-06T13:30:22.275Z</time></trkpt><trkpt lat="44.7153095" lon="7.8831322"><ele>288.0</ele><time>2026-05-06T13:30:23.275Z</time></trkpt><trkpt lat="44.7152207" lon="7.8830139"><ele>288.0</ele><time>2026-05-06T13:30:24.275Z</time></trkpt><trkpt lat="44.7151307" lon="7.8828904"><ele>288.0</ele><time>2026-05-06T13:30:25.275Z</time></trkpt><trkpt lat="44.7150418" lon="7.8827603"><ele>285.75</ele><time>2026-05-06T13:30:26.274Z</time></trkpt><trkpt lat="44.7149533" lon="7.8826275"><ele>283.5</ele><time>2026-05-06T13:30:27.275Z</time></trkpt><trkpt lat="44.7148602" lon="7.8824835"><ele>281.25</ele><time>2026-05-06T13:30:28.275Z</time></trkpt><trkpt lat="44.7147806" lon="7.8823521"><ele>279.0</ele><time>2026-05-06T13:30:29.274Z</time></trkpt><trkpt lat="44.7146997" lon="7.8822331"><ele>279.0</ele><time>2026-05-06T13:30:30.274Z</time></trkpt><trkpt lat="44.7146284" lon="7.8821166"><ele>279.0</ele><time>2026-05-06T13:30:31.275Z</time></trkpt><trkpt lat="44.714551" lon="7.8820017"><ele>279.0</ele><time>2026-05-06T13:30:32.275Z</time></trkpt><trkpt lat="44.714479" lon="7.8818717"><ele>279.0</ele><time>2026-05-06T13:30:33.274Z</time></trkpt><trkpt lat="44.7144258" lon="7.8817255"><ele>276.5</ele><time>2026-05-06T13:30:34.275Z</time></trkpt><trkpt lat="44.714399" lon="7.8815645"><ele>274.0</ele><time>2026-05-06T13:30:35.275Z</time></trkpt><trkpt lat="44.7143968" lon="7.8814032"><ele>271.5</ele><time>2026-05-06T13:30:36.274Z</time></trkpt><trkpt lat="44.7143919" lon="7.8812392"><ele>269.0</ele><time>2026-05-06T13:30:37.275Z</time></trkpt><trkpt lat="44.7143981" lon="7.8810733"><ele>269.59999999999997</ele><time>2026-05-06T13:30:38.274Z</time></trkpt><trkpt lat="44.7143889" lon="7.8809131"><ele>270.2</ele><time>2026-05-06T13:30:39.274Z</time></trkpt><trkpt lat="44.7143652" lon="7.8807644"><ele>270.79999999999995</ele><time>2026-05-06T13:30:40.275Z</time></trkpt><trkpt lat="44.7143297" lon="7.8806181"><ele>271.4</ele><time>2026-05-06T13:30:41.274Z</time></trkpt><trkpt lat="44.71428" lon="7.880481"><ele>272.0</ele><time>2026-05-06T13:30:42.275Z</time></trkpt><trkpt lat="44.7142228" lon="7.8803465"><ele>272.0</ele><time>2026-05-06T13:30:43.275Z</time></trkpt><trkpt lat="44.7141699" lon="7.8802114"><ele>272.0</ele><time>2026-05-06T13:30:44.274Z</time></trkpt><trkpt lat="44.714117" lon="7.8800701"><ele>272.0</ele><time>2026-05-06T13:30:45.275Z</time></trkpt><trkpt lat="44.7140637" lon="7.8799297"><ele>272.0</ele><time>2026-05-06T13:30:46.275Z</time></trkpt><trkpt lat="44.7140076" lon="7.8797868"><ele>273.75</ele><time>2026-05-06T13:30:47.275Z</time></trkpt><trkpt lat="44.7139402" lon="7.8796512"><ele>275.5</ele><time>2026-05-06T13:30:48.275Z</time></trkpt><trkpt lat="44.7138522" lon="7.8795415"><ele>277.25</ele><time>2026-05-06T13:30:49.275Z</time></trkpt><trkpt lat="44.7137535" lon="7.8794601"><ele>279.0</ele><time>2026-05-06T13:30:50.275Z</time></trkpt><trkpt lat="44.7136473" lon="7.8794059"><ele>277.8</ele><time>2026-05-06T13:30:51.274Z</time></trkpt><trkpt lat="44.7135407" lon="7.8793823"><ele>276.59999999999997</ele><time>2026-05-06T13:30:52.274Z</time></trkpt><trkpt lat="44.7134339" lon="7.8793651"><ele>275.4</ele><time>2026-05-06T13:30:53.274Z</time></trkpt><trkpt lat="44.7133285" lon="7.8793299"><ele>274.2</ele><time>2026-05-06T13:30:54.274Z</time></trkpt><trkpt lat="44.7132194" lon="7.8792697"><ele>273.0</ele><time>2026-05-06T13:30:55.275Z</time></trkpt><trkpt lat="44.7131316" lon="7.8791685"><ele>273.0</ele><time>2026-05-06T13:30:56.275Z</time></trkpt><trkpt lat="44.7130662" lon="7.8790435"><ele>273.0</ele><time>2026-05-06T13:30:57.275Z</time></trkpt><trkpt lat="44.7130224" lon="7.878881"><ele>273.0</ele><time>2026-05-06T13:30:58.274Z</time></trkpt><trkpt lat="44.7129922" lon="7.8787289"><ele>273.0</ele><time>2026-05-06T13:30:59.275Z</time></trkpt><trkpt lat="44.7129589" lon="7.8785849"><ele>273.0</ele><time>2026-05-06T13:31:00.274Z</time></trkpt><trkpt lat="44.71291" lon="7.8784483"><ele>273.0</ele><time>2026-05-06T13:31:01.274Z</time></trkpt><trkpt lat="44.7128381" lon="7.8783377"><ele>273.0</ele><time>2026-05-06T13:31:02.275Z</time></trkpt><trkpt lat="44.7127421" lon="7.8782519"><ele>273.0</ele><time>2026-05-06T13:31:03.275Z</time></trkpt><trkpt lat="44.7126331" lon="7.8781842"><ele>273.0</ele><time>2026-05-06T13:31:04.274Z</time></trkpt><trkpt lat="44.7125159" lon="7.8781656"><ele>272.2</ele><time>2026-05-06T13:31:05.275Z</time></trkpt><trkpt lat="44.7123992" lon="7.8781798"><ele>271.4</ele><time>2026-05-06T13:31:06.275Z</time></trkpt><trkpt lat="44.7122885" lon="7.8782092"><ele>270.59999999999997</ele><time>2026-05-06T13:31:07.274Z</time></trkpt><trkpt lat="44.7121807" lon="7.8782419"><ele>269.8</ele><time>2026-05-06T13:31:08.274Z</time></trkpt><trkpt lat="44.712077" lon="7.8782581"><ele>269.0</ele><time>2026-05-06T13:31:09.275Z</time></trkpt><trkpt lat="44.7119869" lon="7.8782446"><ele>267.4</ele><time>2026-05-06T13:31:10.275Z</time></trkpt><trkpt lat="44.7118941" lon="7.8782039"><ele>265.79999999999995</ele><time>2026-05-06T13:31:11.275Z</time></trkpt><trkpt lat="44.7117966" lon="7.8781407"><ele>264.20000000000005</ele><time>2026-05-06T13:31:12.274Z</time></trkpt><trkpt lat="44.7117046" lon="7.8780406"><ele>262.6</ele><time>2026-05-06T13:31:13.275Z</time></trkpt><trkpt lat="44.711618" lon="7.8779294"><ele>261.0</ele><time>2026-05-06T13:31:14.275Z</time></trkpt><trkpt lat="44.7115324" lon="7.8778328"><ele>261.0</ele><time>2026-05-06T13:31:15.274Z</time></trkpt><trkpt lat="44.7114309" lon="7.8777608"><ele>261.0</ele><time>2026-05-06T13:31:16.275Z</time></trkpt><trkpt lat="44.7113234" lon="7.87772"><ele>261.0</ele><time>2026-05-06T13:31:17.275Z</time></trkpt><trkpt lat="44.7112155" lon="7.8777194"><ele>261.0</ele><time>2026-05-06T13:31:18.275Z</time></trkpt><trkpt lat="44.7111053" lon="7.8777595"><ele>261.0</ele><time>2026-05-06T13:31:19.275Z</time></trkpt><trkpt lat="44.7109965" lon="7.8778264"><ele>259.75</ele><time>2026-05-06T13:31:20.274Z</time></trkpt><trkpt lat="44.7108942" lon="7.8779013"><ele>258.5</ele><time>2026-05-06T13:31:21.275Z</time></trkpt><trkpt lat="44.7107904" lon="7.8779885"><ele>257.25</ele><time>2026-05-06T13:31:22.275Z</time></trkpt><trkpt lat="44.7106951" lon="7.8780693"><ele>256.0</ele><time>2026-05-06T13:31:23.274Z</time></trkpt><trkpt lat="44.7105969" lon="7.878122"><ele>256.0</ele><time>2026-05-06T13:31:24.275Z</time></trkpt><trkpt lat="44.7104863" lon="7.8781582"><ele>256.0</ele><time>2026-05-06T13:31:25.275Z</time></trkpt><trkpt lat="44.7103719" lon="7.8781605"><ele>256.0</ele><time>2026-05-06T13:31:26.275Z</time></trkpt><trkpt lat="44.7102551" lon="7.8781302"><ele>256.0</ele><time>2026-05-06T13:31:27.275Z</time></trkpt><trkpt lat="44.7101339" lon="7.8780631"><ele>255.0</ele><time>2026-05-06T13:31:28.274Z</time></trkpt><trkpt lat="44.7100086" lon="7.8779969"><ele>254.0</ele><time>2026-05-06T13:31:29.275Z</time></trkpt><trkpt lat="44.7098759" lon="7.8779484"><ele>253.0</ele><time>2026-05-06T13:31:30.275Z</time></trkpt><trkpt lat="44.7097499" lon="7.877921"><ele>252.0</ele><time>2026-05-06T13:31:31.275Z</time></trkpt><trkpt lat="44.7096368" lon="7.877916"><ele>252.0</ele><time>2026-05-06T13:31:32.275Z</time></trkpt><trkpt lat="44.7095307" lon="7.8779221"><ele>252.0</ele><time>2026-05-06T13:31:33.274Z</time></trkpt><trkpt lat="44.7094336" lon="7.8779672"><ele>252.0</ele><time>2026-05-06T13:31:34.274Z</time></trkpt><trkpt lat="44.7093479" lon="7.878035"><ele>252.0</ele><time>2026-05-06T13:31:35.275Z</time></trkpt><trkpt lat="44.7092706" lon="7.8781312"><ele>252.0</ele><time>2026-05-06T13:31:36.274Z</time></trkpt><trkpt lat="44.7091797" lon="7.8782401"><ele>252.75</ele><time>2026-05-06T13:31:37.274Z</time></trkpt><trkpt lat="44.7090766" lon="7.87835"><ele>253.5</ele><time>2026-05-06T13:31:38.274Z</time></trkpt><trkpt lat="44.7089676" lon="7.8784671"><ele>254.25</ele><time>2026-05-06T13:31:39.275Z</time></trkpt><trkpt lat="44.7088624" lon="7.8785979"><ele>255.0</ele><time>2026-05-06T13:31:40.275Z</time></trkpt><trkpt lat="44.7087706" lon="7.878702"><ele>252.75</ele><time>2026-05-06T13:31:41.275Z</time></trkpt><trkpt lat="44.7086633" lon="7.8788094"><ele>250.5</ele><time>2026-05-06T13:31:42.275Z</time></trkpt><trkpt lat="44.7085355" lon="7.8788887"><ele>248.25</ele><time>2026-05-06T13:31:43.275Z</time></trkpt><trkpt lat="44.7084055" lon="7.8789461"><ele>246.0</ele><time>2026-05-06T13:31:44.274Z</time></trkpt><trkpt lat="44.7082765" lon="7.8789981"><ele>246.0</ele><time>2026-05-06T13:31:45.275Z</time></trkpt><trkpt lat="44.7081509" lon="7.8790574"><ele>246.0</ele><time>2026-05-06T13:31:46.275Z</time></trkpt><trkpt lat="44.7080259" lon="7.8791082"><ele>246.0</ele><time>2026-05-06T13:31:47.274Z</time></trkpt><trkpt lat="44.7079043" lon="7.8791642"><ele>246.0</ele><time>2026-05-06T13:31:48.275Z</time></trkpt><trkpt lat="44.7077755" lon="7.8792172"><ele>243.5</ele><time>2026-05-06T13:31:49.274Z</time></trkpt><trkpt lat="44.7076566" lon="7.8792717"><ele>241.0</ele><time>2026-05-06T13:31:50.275Z</time></trkpt><trkpt lat="44.7075383" lon="7.8793129"><ele>238.5</ele><time>2026-05-06T13:31:51.274Z</time></trkpt><trkpt lat="44.7074156" lon="7.8793329"><ele>236.0</ele><time>2026-05-06T13:31:52.275Z</time></trkpt><trkpt lat="44.7072951" lon="7.8793267"><ele>236.0</ele><time>2026-05-06T13:31:53.275Z</time></trkpt><trkpt lat="44.7071703" lon="7.8793037"><ele>236.0</ele><time>2026-05-06T13:31:54.274Z</time></trkpt><trkpt lat="44.7070481" lon="7.8792715"><ele>236.0</ele><time>2026-05-06T13:31:55.274Z</time></trkpt><trkpt lat="44.7069354" lon="7.8792341"><ele>236.0</ele><time>2026-05-06T13:31:56.275Z</time></trkpt><trkpt lat="44.7068378" lon="7.8791913"><ele>235.8</ele><time>2026-05-06T13:31:57.275Z</time></trkpt><trkpt lat="44.7067269" lon="7.8791702"><ele>235.60000000000002</ele><time>2026-05-06T13:31:58.275Z</time></trkpt><trkpt lat="44.7066176" lon="7.8791553"><ele>235.4</ele><time>2026-05-06T13:31:59.275Z</time></trkpt><trkpt lat="44.7065152" lon="7.8791772"><ele>235.2</ele><time>2026-05-06T13:32:00.275Z</time></trkpt><trkpt lat="44.7064111" lon="7.8792213"><ele>235.0</ele><time>2026-05-06T13:32:01.275Z</time></trkpt><trkpt lat="44.7063096" lon="7.8793025"><ele>234.75</ele><time>2026-05-06T13:32:02.274Z</time></trkpt><trkpt lat="44.7062067" lon="7.8794054"><ele>234.5</ele><time>2026-05-06T13:32:03.274Z</time></trkpt><trkpt lat="44.7061029" lon="7.8795141"><ele>234.25</ele><time>2026-05-06T13:32:04.274Z</time></trkpt><trkpt lat="44.7059949" lon="7.8796242"><ele>234.0</ele><time>2026-05-06T13:32:05.275Z</time></trkpt><trkpt lat="44.7058704" lon="7.8797457"><ele>233.25</ele><time>2026-05-06T13:32:06.275Z</time></trkpt><trkpt lat="44.7057501" lon="7.8798669"><ele>232.5</ele><time>2026-05-06T13:32:07.274Z</time></trkpt><trkpt lat="44.7056237" lon="7.8799759"><ele>231.75</ele><time>2026-05-06T13:32:08.274Z</time></trkpt><trkpt lat="44.7054953" lon="7.8800931"><ele>231.0</ele><time>2026-05-06T13:32:09.274Z</time></trkpt><trkpt lat="44.7053611" lon="7.8802129"><ele>231.33333333333331</ele><time>2026-05-06T13:32:10.275Z</time></trkpt><trkpt lat="44.7052292" lon="7.8803369"><ele>231.66666666666666</ele><time>2026-05-06T13:32:11.274Z</time></trkpt><trkpt lat="44.7051049" lon="7.8804523"><ele>232.0</ele><time>2026-05-06T13:32:12.275Z</time></trkpt><trkpt lat="44.70498" lon="7.8805666"><ele>232.0</ele><time>2026-05-06T13:32:13.274Z</time></trkpt><trkpt lat="44.7048547" lon="7.8806839"><ele>232.0</ele><time>2026-05-06T13:32:14.275Z</time></trkpt><trkpt lat="44.7047362" lon="7.8807977"><ele>232.0</ele><time>2026-05-06T13:32:15.275Z</time></trkpt><trkpt lat="44.7046196" lon="7.8809024"><ele>232.0</ele><time>2026-05-06T13:32:16.275Z</time></trkpt><trkpt lat="44.7044968" lon="7.8809988"><ele>231.25</ele><time>2026-05-06T13:32:17.275Z</time></trkpt><trkpt lat="44.7043645" lon="7.8810968"><ele>230.5</ele><time>2026-05-06T13:32:18.275Z</time></trkpt><trkpt lat="44.7042367" lon="7.8811967"><ele>229.75</ele><time>2026-05-06T13:32:19.274Z</time></trkpt><trkpt lat="44.7041071" lon="7.8813015"><ele>229.0</ele><time>2026-05-06T13:32:20.275Z</time></trkpt><trkpt lat="44.7039829" lon="7.881391"><ele>229.0</ele><time>2026-05-06T13:32:21.274Z</time></trkpt><trkpt lat="44.7038558" lon="7.8814678"><ele>229.0</ele><time>2026-05-06T13:32:22.275Z</time></trkpt><trkpt lat="44.7037334" lon="7.8815626"><ele>229.0</ele><time>2026-05-06T13:32:23.274Z</time></trkpt><trkpt lat="44.7036142" lon="7.8816627"><ele>229.0</ele><time>2026-05-06T13:32:24.275Z</time></trkpt><trkpt lat="44.7035007" lon="7.8817772"><ele>228.5</ele><time>2026-05-06T13:32:25.274Z</time></trkpt><trkpt lat="44.703385" lon="7.8819028"><ele>228.0</ele><time>2026-05-06T13:32:26.275Z</time></trkpt><trkpt lat="44.7032731" lon="7.8820394"><ele>227.5</ele><time>2026-05-06T13:32:27.274Z</time></trkpt><trkpt lat="44.7031685" lon="7.8821789"><ele>227.0</ele><time>2026-05-06T13:32:28.274Z</time></trkpt><trkpt lat="44.7030595" lon="7.8823214"><ele>227.0</ele><time>2026-05-06T13:32:29.275Z</time></trkpt><trkpt lat="44.7029468" lon="7.8824718"><ele>227.0</ele><time>2026-05-06T13:32:30.275Z</time></trkpt><trkpt lat="44.7028342" lon="7.8826197"><ele>227.0</ele><time>2026-05-06T13:32:31.275Z</time></trkpt><trkpt lat="44.7027163" lon="7.8827594"><ele>226.66666666666669</ele><time>2026-05-06T13:32:32.275Z</time></trkpt><trkpt lat="44.702602" lon="7.8829017"><ele>226.33333333333331</ele><time>2026-05-06T13:32:33.274Z</time></trkpt><trkpt lat="44.7024872" lon="7.8830475"><ele>226.0</ele><time>2026-05-06T13:32:34.275Z</time></trkpt><trkpt lat="44.7023734" lon="7.8831866"><ele>226.0</ele><time>2026-05-06T13:32:35.275Z</time></trkpt><trkpt lat="44.7022727" lon="7.8833135"><ele>226.0</ele><time>2026-05-06T13:32:36.274Z</time></trkpt><trkpt lat="44.7021717" lon="7.8834346"><ele>226.0</ele><time>2026-05-06T13:32:37.274Z</time></trkpt><trkpt lat="44.702071" lon="7.8835445"><ele>226.0</ele><time>2026-05-06T13:32:38.275Z</time></trkpt><trkpt lat="44.7019695" lon="7.8836685"><ele>225.5</ele><time>2026-05-06T13:32:39.274Z</time></trkpt><trkpt lat="44.7018642" lon="7.8838021"><ele>225.0</ele><time>2026-05-06T13:32:40.275Z</time></trkpt><trkpt lat="44.7017575" lon="7.8839401"><ele>224.5</ele><time>2026-05-06T13:32:41.275Z</time></trkpt><trkpt lat="44.701649" lon="7.8840761"><ele>224.0</ele><time>2026-05-06T13:32:42.274Z</time></trkpt><trkpt lat="44.7015403" lon="7.8842159"><ele>223.75</ele><time>2026-05-06T13:32:43.274Z</time></trkpt><trkpt lat="44.7014332" lon="7.8843476"><ele>223.5</ele><time>2026-05-06T13:32:44.275Z</time></trkpt><trkpt lat="44.7013241" lon="7.8844787"><ele>223.25</ele><time>2026-05-06T13:32:45.275Z</time></trkpt><trkpt lat="44.7012249" lon="7.8846065"><ele>223.0</ele><time>2026-05-06T13:32:46.275Z</time></trkpt><trkpt lat="44.7011296" lon="7.8847265"><ele>223.0</ele><time>2026-05-06T13:32:47.274Z</time></trkpt><trkpt lat="44.7010339" lon="7.8848495"><ele>223.0</ele><time>2026-05-06T13:32:48.275Z</time></trkpt><trkpt lat="44.7009426" lon="7.8849581"><ele>223.0</ele><time>2026-05-06T13:32:49.274Z</time></trkpt><trkpt lat="44.7008577" lon="7.8850763"><ele>223.0</ele><time>2026-05-06T13:32:50.274Z</time></trkpt><trkpt lat="44.7007755" lon="7.8851755"><ele>222.99999999999997</ele><time>2026-05-06T13:32:51.274Z</time></trkpt><trkpt lat="44.7007041" lon="7.8852694"><ele>223.0</ele><time>2026-05-06T13:32:52.274Z</time></trkpt><trkpt lat="44.7006392" lon="7.8853488"><ele>223.0</ele><time>2026-05-06T13:32:53.275Z</time></trkpt><trkpt lat="44.7005893" lon="7.8854121"><ele>223.0</ele><time>2026-05-06T13:32:54.275Z</time></trkpt><trkpt lat="44.7005408" lon="7.8854781"><ele>222.99999999999997</ele><time>2026-05-06T13:32:55.275Z</time></trkpt><trkpt lat="44.7004711" lon="7.8855669"><ele>223.0</ele><time>2026-05-06T13:32:57.275Z</time></trkpt><trkpt lat="44.7004002" lon="7.8856538"><ele>223.0</ele><time>2026-05-06T13:32:59.274Z</time></trkpt><trkpt lat="44.7002849" lon="7.8857382"><ele>223.0</ele><time>2026-05-06T13:33:01.275Z</time></trkpt><trkpt lat="44.7002059" lon="7.8857481"><ele>223.0</ele><time>2026-05-06T13:33:02.275Z</time></trkpt><trkpt lat="44.7001144" lon="7.8857578"><ele>223.0</ele><time>2026-05-06T13:33:03.275Z</time></trkpt><trkpt lat="44.7000079" lon="7.8857899"><ele>223.0</ele><time>2026-05-06T13:33:04.275Z</time></trkpt><trkpt lat="44.6998933" lon="7.8858445"><ele>222.75</ele><time>2026-05-06T13:33:05.275Z</time></trkpt><trkpt lat="44.699766" lon="7.8859233"><ele>222.5</ele><time>2026-05-06T13:33:06.275Z</time></trkpt><trkpt lat="44.6996384" lon="7.8859879"><ele>222.25</ele><time>2026-05-06T13:33:07.274Z</time></trkpt><trkpt lat="44.6995124" lon="7.8860521"><ele>222.0</ele><time>2026-05-06T13:33:08.275Z</time></trkpt><trkpt lat="44.6993896" lon="7.886128"><ele>221.5</ele><time>2026-05-06T13:33:09.274Z</time></trkpt><trkpt lat="44.6992559" lon="7.8862134"><ele>221.0</ele><time>2026-05-06T13:33:10.274Z</time></trkpt><trkpt lat="44.6991267" lon="7.886297"><ele>220.5</ele><time>2026-05-06T13:33:11.275Z</time></trkpt><trkpt lat="44.6990027" lon="7.8863897"><ele>220.0</ele><time>2026-05-06T13:33:12.275Z</time></trkpt><trkpt lat="44.6988737" lon="7.8864787"><ele>220.0</ele><time>2026-05-06T13:33:13.274Z</time></trkpt><trkpt lat="44.6987496" lon="7.8865648"><ele>220.0</ele><time>2026-05-06T13:33:14.275Z</time></trkpt><trkpt lat="44.6986233" lon="7.8866641"><ele>220.0</ele><time>2026-05-06T13:33:15.274Z</time></trkpt><trkpt lat="44.6984908" lon="7.8867377"><ele>220.0</ele><time>2026-05-06T13:33:16.274Z</time></trkpt><trkpt lat="44.6983645" lon="7.8868282"><ele>219.5</ele><time>2026-05-06T13:33:17.274Z</time></trkpt><trkpt lat="44.6982428" lon="7.8868899"><ele>219.0</ele><time>2026-05-06T13:33:18.274Z</time></trkpt><trkpt lat="44.6981307" lon="7.8869299"><ele>218.5</ele><time>2026-05-06T13:33:19.275Z</time></trkpt><trkpt lat="44.6980219" lon="7.8869658"><ele>218.0</ele><time>2026-05-06T13:33:20.274Z</time></trkpt><trkpt lat="44.6979217" lon="7.8870042"><ele>218.00000000000003</ele><time>2026-05-06T13:33:21.275Z</time></trkpt><trkpt lat="44.697825" lon="7.8870317"><ele>218.0</ele><time>2026-05-06T13:33:22.275Z</time></trkpt><trkpt lat="44.697742" lon="7.8870662"><ele>218.0</ele><time>2026-05-06T13:33:23.275Z</time></trkpt><trkpt lat="44.6976671" lon="7.8870943"><ele>218.0</ele><time>2026-05-06T13:33:24.274Z</time></trkpt><trkpt lat="44.6976022" lon="7.88711"><ele>218.00000000000003</ele><time>2026-05-06T13:33:25.275Z</time></trkpt><trkpt lat="44.6975057" lon="7.887123"><ele>218.0</ele><time>2026-05-06T13:33:27.275Z</time></trkpt><trkpt lat="44.6974214" lon="7.8871226"><ele>218.2</ele><time>2026-05-06T13:34:11.275Z</time></trkpt><trkpt lat="44.697335" lon="7.8871658"><ele>218.4</ele><time>2026-05-06T13:34:13.275Z</time></trkpt><trkpt lat="44.6972504" lon="7.8873102"><ele>218.59999999999997</ele><time>2026-05-06T13:34:15.275Z</time></trkpt><trkpt lat="44.6972228" lon="7.8874065"><ele>218.79999999999998</ele><time>2026-05-06T13:34:16.274Z</time></trkpt><trkpt lat="44.6972075" lon="7.8875228"><ele>219.0</ele><time>2026-05-06T13:34:17.275Z</time></trkpt><trkpt lat="44.6971928" lon="7.8876581"><ele>218.6</ele><time>2026-05-06T13:34:18.274Z</time></trkpt><trkpt lat="44.6971797" lon="7.8877837"><ele>218.2</ele><time>2026-05-06T13:34:19.274Z</time></trkpt><trkpt lat="44.6971652" lon="7.8879128"><ele>217.79999999999998</ele><time>2026-05-06T13:34:20.275Z</time></trkpt><trkpt lat="44.6971513" lon="7.8880441"><ele>217.39999999999998</ele><time>2026-05-06T13:34:21.275Z</time></trkpt><trkpt lat="44.6971308" lon="7.8881775"><ele>217.0</ele><time>2026-05-06T13:34:22.275Z</time></trkpt><trkpt lat="44.6971167" lon="7.8883252"><ele>216.75</ele><time>2026-05-06T13:34:23.274Z</time></trkpt><trkpt lat="44.6971056" lon="7.8884866"><ele>216.5</ele><time>2026-05-06T13:34:24.274Z</time></trkpt><trkpt lat="44.6970797" lon="7.8886568"><ele>216.25</ele><time>2026-05-06T13:34:25.275Z</time></trkpt><trkpt lat="44.697057" lon="7.8888321"><ele>216.0</ele><time>2026-05-06T13:34:26.275Z</time></trkpt><trkpt lat="44.6970237" lon="7.889031"><ele>216.0</ele><time>2026-05-06T13:34:27.275Z</time></trkpt><trkpt lat="44.6969958" lon="7.8892297"><ele>216.0</ele><time>2026-05-06T13:34:28.275Z</time></trkpt><trkpt lat="44.6969706" lon="7.8894292"><ele>216.0</ele><time>2026-05-06T13:34:29.275Z</time></trkpt><trkpt lat="44.6969355" lon="7.8896418"><ele>216.0</ele><time>2026-05-06T13:34:30.275Z</time></trkpt><trkpt lat="44.6968973" lon="7.889847"><ele>216.0</ele><time>2026-05-06T13:34:31.274Z</time></trkpt><trkpt lat="44.6968628" lon="7.8900606"><ele>216.0</ele><time>2026-05-06T13:34:32.275Z</time></trkpt><trkpt lat="44.696832" lon="7.8902759"><ele>216.0</ele><time>2026-05-06T13:34:33.274Z</time></trkpt><trkpt lat="44.6968032" lon="7.8904914"><ele>215.66666666666669</ele><time>2026-05-06T13:34:34.274Z</time></trkpt><trkpt lat="44.6967752" lon="7.8907153"><ele>215.33333333333334</ele><time>2026-05-06T13:34:35.275Z</time></trkpt><trkpt lat="44.6967469" lon="7.8909289"><ele>215.0</ele><time>2026-05-06T13:34:36.275Z</time></trkpt><trkpt lat="44.6967138" lon="7.8911469"><ele>215.0</ele><time>2026-05-06T13:34:37.274Z</time></trkpt><trkpt lat="44.696688" lon="7.8913723"><ele>215.0</ele><time>2026-05-06T13:34:38.274Z</time></trkpt><trkpt lat="44.6966572" lon="7.8915936"><ele>215.0</ele><time>2026-05-06T13:34:39.274Z</time></trkpt><trkpt lat="44.6966224" lon="7.8918153"><ele>214.66666666666669</ele><time>2026-05-06T13:34:40.275Z</time></trkpt><trkpt lat="44.6965944" lon="7.8920414"><ele>214.33333333333331</ele><time>2026-05-06T13:34:41.275Z</time></trkpt><trkpt lat="44.6965605" lon="7.8922682"><ele>214.0</ele><time>2026-05-06T13:34:42.274Z</time></trkpt><trkpt lat="44.6965214" lon="7.8924867"><ele>214.0</ele><time>2026-05-06T13:34:43.275Z</time></trkpt><trkpt lat="44.6964886" lon="7.8927146"><ele>214.0</ele><time>2026-05-06T13:34:44.274Z</time></trkpt><trkpt lat="44.6964581" lon="7.8929401"><ele>214.0</ele><time>2026-05-06T13:34:45.275Z</time></trkpt><trkpt lat="44.6964352" lon="7.8931594"><ele>214.0</ele><time>2026-05-06T13:34:46.274Z</time></trkpt><trkpt lat="44.6964095" lon="7.893388"><ele>214.0</ele><time>2026-05-06T13:34:47.274Z</time></trkpt><trkpt lat="44.6963755" lon="7.8936121"><ele>214.0</ele><time>2026-05-06T13:34:48.274Z</time></trkpt><trkpt lat="44.6963439" lon="7.8938413"><ele>213.66666666666666</ele><time>2026-05-06T13:34:49.273Z</time></trkpt><trkpt lat="44.696309" lon="7.8940697"><ele>213.33333333333331</ele><time>2026-05-06T13:34:50.274Z</time></trkpt><trkpt lat="44.6962768" lon="7.8943037"><ele>213.0</ele><time>2026-05-06T13:34:51.274Z</time></trkpt><trkpt lat="44.6962465" lon="7.8945289"><ele>212.66666666666669</ele><time>2026-05-06T13:34:52.274Z</time></trkpt><trkpt lat="44.696215" lon="7.8947513"><ele>212.33333333333334</ele><time>2026-05-06T13:34:53.274Z</time></trkpt><trkpt lat="44.696181" lon="7.894976"><ele>212.0</ele><time>2026-05-06T13:34:54.274Z</time></trkpt><trkpt lat="44.6961518" lon="7.8952067"><ele>211.66666666666669</ele><time>2026-05-06T13:34:55.274Z</time></trkpt><trkpt lat="44.6961185" lon="7.8954411"><ele>211.33333333333331</ele><time>2026-05-06T13:34:56.274Z</time></trkpt><trkpt lat="44.6960852" lon="7.8956774"><ele>211.0</ele><time>2026-05-06T13:34:57.273Z</time></trkpt><trkpt lat="44.6960467" lon="7.8959075"><ele>210.33333333333331</ele><time>2026-05-06T13:34:58.273Z</time></trkpt><trkpt lat="44.6960135" lon="7.8961404"><ele>209.66666666666669</ele><time>2026-05-06T13:34:59.273Z</time></trkpt><trkpt lat="44.6959787" lon="7.896382"><ele>209.0</ele><time>2026-05-06T13:35:00.274Z</time></trkpt><trkpt lat="44.695948" lon="7.8966152"><ele>207.66666666666669</ele><time>2026-05-06T13:35:01.273Z</time></trkpt><trkpt lat="44.6959109" lon="7.8968542"><ele>206.33333333333331</ele><time>2026-05-06T13:35:02.274Z</time></trkpt><trkpt lat="44.6958741" lon="7.8970914"><ele>205.0</ele><time>2026-05-06T13:35:03.274Z</time></trkpt><trkpt lat="44.6958407" lon="7.8973313"><ele>205.0</ele><time>2026-05-06T13:35:04.273Z</time></trkpt><trkpt lat="44.6958017" lon="7.8975559"><ele>205.0</ele><time>2026-05-06T13:35:05.273Z</time></trkpt><trkpt lat="44.6957671" lon="7.8977819"><ele>205.0</ele><time>2026-05-06T13:35:06.273Z</time></trkpt><trkpt lat="44.6957307" lon="7.8980169"><ele>205.33333333333331</ele><time>2026-05-06T13:35:07.273Z</time></trkpt><trkpt lat="44.6956898" lon="7.8982604"><ele>205.66666666666669</ele><time>2026-05-06T13:35:08.274Z</time></trkpt><trkpt lat="44.6956623" lon="7.8984939"><ele>206.0</ele><time>2026-05-06T13:35:09.273Z</time></trkpt><trkpt lat="44.6956369" lon="7.8987273"><ele>206.0</ele><time>2026-05-06T13:35:10.274Z</time></trkpt><trkpt lat="44.6956123" lon="7.8989579"><ele>206.0</ele><time>2026-05-06T13:35:11.274Z</time></trkpt><trkpt lat="44.6955832" lon="7.8992007"><ele>206.0</ele><time>2026-05-06T13:35:12.274Z</time></trkpt><trkpt lat="44.6955571" lon="7.8994311"><ele>206.0</ele><time>2026-05-06T13:35:13.274Z</time></trkpt><trkpt lat="44.6955296" lon="7.8996629"><ele>206.0</ele><time>2026-05-06T13:35:14.273Z</time></trkpt><trkpt lat="44.6954896" lon="7.8998987"><ele>206.0</ele><time>2026-05-06T13:35:15.274Z</time></trkpt><trkpt lat="44.6954572" lon="7.9001278"><ele>205.5</ele><time>2026-05-06T13:35:16.273Z</time></trkpt><trkpt lat="44.6954271" lon="7.9003414"><ele>205.0</ele><time>2026-05-06T13:35:17.274Z</time></trkpt><trkpt lat="44.6953974" lon="7.90055"><ele>204.5</ele><time>2026-05-06T13:35:18.274Z</time></trkpt><trkpt lat="44.695363" lon="7.9007453"><ele>204.0</ele><time>2026-05-06T13:35:19.274Z</time></trkpt><trkpt lat="44.6953399" lon="7.9009252"><ele>204.0</ele><time>2026-05-06T13:35:20.274Z</time></trkpt><trkpt lat="44.6953199" lon="7.9011099"><ele>204.0</ele><time>2026-05-06T13:35:21.274Z</time></trkpt><trkpt lat="44.6952926" lon="7.9012939"><ele>204.0</ele><time>2026-05-06T13:35:22.273Z</time></trkpt><trkpt lat="44.6952687" lon="7.9014668"><ele>204.0</ele><time>2026-05-06T13:35:23.274Z</time></trkpt><trkpt lat="44.6952542" lon="7.9016275"><ele>203.83333333333334</ele><time>2026-05-06T13:35:24.274Z</time></trkpt><trkpt lat="44.6952504" lon="7.9017636"><ele>203.66666666666669</ele><time>2026-05-06T13:35:25.274Z</time></trkpt><trkpt lat="44.6952587" lon="7.901873"><ele>203.5</ele><time>2026-05-06T13:35:26.273Z</time></trkpt><trkpt lat="44.6952693" lon="7.9019659"><ele>203.33333333333334</ele><time>2026-05-06T13:35:27.274Z</time></trkpt><trkpt lat="44.6952923" lon="7.902099"><ele>203.16666666666669</ele><time>2026-05-06T13:35:29.274Z</time></trkpt><trkpt lat="44.695303" lon="7.9021904"><ele>203.0</ele><time>2026-05-06T13:35:31.273Z</time></trkpt><trkpt lat="44.695306" lon="7.9022933"><ele>201.0</ele><time>2026-05-06T13:35:34.274Z</time></trkpt><trkpt lat="44.6953816" lon="7.9022881"><ele>201.0</ele><time>2026-05-06T13:39:57.274Z</time></trkpt></trkseg></trk></gpx>